<?xml version="1.0" encoding="UTF-8" standalone="no" ?>
<gpx xmlns="http://www.topografix.com/GPX/1/1" xmlns:xsi="http://www.w3.org/2001/XMLSchema-instance" xsi:schemaLocation="http://www.topografix.com/GPX/1/1 http://www.topografix.com/GPX/1/1/gpx.xsd" version="1.1" creator="VisuGPX - https://www.visugpx.com">
  <metadata>
    <name>Cholet Valanjou</name>
    <desc><![CDATA[53 Km (106 aller/retour)]]></desc>
  </metadata>
  <trk>
    <name><![CDATA[2012-08-24T07:03:10Z]]></name>
    <trkseg>
      <trkpt lat="47.06971" lon="-0.86241">
        <ele>132.3186035</ele>
        <time>2012-08-24T07:03:10Z</time>
      </trkpt>
      <trkpt lat="47.06976" lon="-0.86232">
        <ele>132.3186035</ele>
        <time>2012-08-24T07:03:12Z</time>
      </trkpt>
      <trkpt lat="47.06992" lon="-0.86207">
        <ele>131.3572998</ele>
        <time>2012-08-24T07:03:18Z</time>
      </trkpt>
      <trkpt lat="47.06993" lon="-0.86185">
        <ele>131.8378906</ele>
        <time>2012-08-24T07:03:22Z</time>
      </trkpt>
      <trkpt lat="47.06992" lon="-0.8618">
        <ele>131.3572998</ele>
        <time>2012-08-24T07:03:23Z</time>
      </trkpt>
      <trkpt lat="47.06989" lon="-0.86154">
        <ele>128.9541016</ele>
        <time>2012-08-24T07:03:28Z</time>
      </trkpt>
      <trkpt lat="47.06986" lon="-0.8615">
        <ele>128.9541016</ele>
        <time>2012-08-24T07:03:29Z</time>
      </trkpt>
      <trkpt lat="47.06964" lon="-0.86114">
        <ele>133.760498</ele>
        <time>2012-08-24T07:03:37Z</time>
      </trkpt>
      <trkpt lat="47.06942" lon="-0.86073">
        <ele>139.5284424</ele>
        <time>2012-08-24T07:03:45Z</time>
      </trkpt>
      <trkpt lat="47.06935" lon="-0.86061">
        <ele>141.4510498</ele>
        <time>2012-08-24T07:03:47Z</time>
      </trkpt>
      <trkpt lat="47.06908" lon="-0.86043">
        <ele>137.605835</ele>
        <time>2012-08-24T07:03:53Z</time>
      </trkpt>
      <trkpt lat="47.06878" lon="-0.86028">
        <ele>135.2025146</ele>
        <time>2012-08-24T07:03:59Z</time>
      </trkpt>
      <trkpt lat="47.06847" lon="-0.86012">
        <ele>135.2025146</ele>
        <time>2012-08-24T07:04:05Z</time>
      </trkpt>
      <trkpt lat="47.06809" lon="-0.85989">
        <ele>137.605835</ele>
        <time>2012-08-24T07:04:13Z</time>
      </trkpt>
      <trkpt lat="47.06778" lon="-0.85972">
        <ele>137.605835</ele>
        <time>2012-08-24T07:04:20Z</time>
      </trkpt>
      <trkpt lat="47.06727" lon="-0.85946">
        <ele>136.1639404</ele>
        <time>2012-08-24T07:04:32Z</time>
      </trkpt>
      <trkpt lat="47.06701" lon="-0.85932">
        <ele>135.6831055</ele>
        <time>2012-08-24T07:04:38Z</time>
      </trkpt>
      <trkpt lat="47.06672" lon="-0.85913">
        <ele>136.1639404</ele>
        <time>2012-08-24T07:04:45Z</time>
      </trkpt>
      <trkpt lat="47.06657" lon="-0.85897">
        <ele>135.6831055</ele>
        <time>2012-08-24T07:04:49Z</time>
      </trkpt>
      <trkpt lat="47.06651" lon="-0.85872">
        <ele>136.1639404</ele>
        <time>2012-08-24T07:04:53Z</time>
      </trkpt>
      <trkpt lat="47.06653" lon="-0.85866">
        <ele>135.2025146</ele>
        <time>2012-08-24T07:04:54Z</time>
      </trkpt>
      <trkpt lat="47.06676" lon="-0.85813">
        <ele>135.2025146</ele>
        <time>2012-08-24T07:05:03Z</time>
      </trkpt>
      <trkpt lat="47.0671" lon="-0.85747">
        <ele>134.2412109</ele>
        <time>2012-08-24T07:05:14Z</time>
      </trkpt>
      <trkpt lat="47.06742" lon="-0.85687">
        <ele>133.2799072</ele>
        <time>2012-08-24T07:05:24Z</time>
      </trkpt>
      <trkpt lat="47.06769" lon="-0.85632">
        <ele>132.7993164</ele>
        <time>2012-08-24T07:05:33Z</time>
      </trkpt>
      <trkpt lat="47.06797" lon="-0.85577">
        <ele>133.2799072</ele>
        <time>2012-08-24T07:05:42Z</time>
      </trkpt>
      <trkpt lat="47.06829" lon="-0.85507">
        <ele>130.876709</ele>
        <time>2012-08-24T07:05:53Z</time>
      </trkpt>
      <trkpt lat="47.06855" lon="-0.8545">
        <ele>130.3959961</ele>
        <time>2012-08-24T07:06:02Z</time>
      </trkpt>
      <trkpt lat="47.06875" lon="-0.85396">
        <ele>129.9152832</ele>
        <time>2012-08-24T07:06:10Z</time>
      </trkpt>
      <trkpt lat="47.06894" lon="-0.85356">
        <ele>131.3572998</ele>
        <time>2012-08-24T07:06:16Z</time>
      </trkpt>
      <trkpt lat="47.06897" lon="-0.85332">
        <ele>132.3186035</ele>
        <time>2012-08-24T07:06:20Z</time>
      </trkpt>
      <trkpt lat="47.06893" lon="-0.8531">
        <ele>133.2799072</ele>
        <time>2012-08-24T07:06:23Z</time>
      </trkpt>
      <trkpt lat="47.06897" lon="-0.8527">
        <ele>133.760498</ele>
        <time>2012-08-24T07:06:28Z</time>
      </trkpt>
      <trkpt lat="47.06895" lon="-0.85247">
        <ele>133.2799072</ele>
        <time>2012-08-24T07:06:31Z</time>
      </trkpt>
      <trkpt lat="47.06894" lon="-0.85239">
        <ele>133.2799072</ele>
        <time>2012-08-24T07:06:32Z</time>
      </trkpt>
      <trkpt lat="47.06885" lon="-0.85194">
        <ele>132.3186035</ele>
        <time>2012-08-24T07:06:38Z</time>
      </trkpt>
      <trkpt lat="47.0688" lon="-0.8518">
        <ele>132.3186035</ele>
        <time>2012-08-24T07:06:40Z</time>
      </trkpt>
      <trkpt lat="47.0687" lon="-0.85143">
        <ele>132.7993164</ele>
        <time>2012-08-24T07:06:45Z</time>
      </trkpt>
      <trkpt lat="47.06852" lon="-0.85089">
        <ele>133.760498</ele>
        <time>2012-08-24T07:06:52Z</time>
      </trkpt>
      <trkpt lat="47.06849" lon="-0.85081">
        <ele>134.2412109</ele>
        <time>2012-08-24T07:06:53Z</time>
      </trkpt>
      <trkpt lat="47.06834" lon="-0.85033">
        <ele>135.2025146</ele>
        <time>2012-08-24T07:06:59Z</time>
      </trkpt>
      <trkpt lat="47.06821" lon="-0.85014">
        <ele>135.2025146</ele>
        <time>2012-08-24T07:07:02Z</time>
      </trkpt>
      <trkpt lat="47.068" lon="-0.84978">
        <ele>135.6831055</ele>
        <time>2012-08-24T07:07:07Z</time>
      </trkpt>
      <trkpt lat="47.06792" lon="-0.84943">
        <ele>135.2025146</ele>
        <time>2012-08-24T07:07:11Z</time>
      </trkpt>
      <trkpt lat="47.06789" lon="-0.84917">
        <ele>135.2025146</ele>
        <time>2012-08-24T07:07:14Z</time>
      </trkpt>
      <trkpt lat="47.06776" lon="-0.84862">
        <ele>134.7219238</ele>
        <time>2012-08-24T07:07:21Z</time>
      </trkpt>
      <trkpt lat="47.06757" lon="-0.8479">
        <ele>134.7219238</ele>
        <time>2012-08-24T07:07:31Z</time>
      </trkpt>
      <trkpt lat="47.06741" lon="-0.84716">
        <ele>133.760498</ele>
        <time>2012-08-24T07:07:41Z</time>
      </trkpt>
      <trkpt lat="47.06729" lon="-0.84637">
        <ele>133.760498</ele>
        <time>2012-08-24T07:07:51Z</time>
      </trkpt>
      <trkpt lat="47.06714" lon="-0.84543">
        <ele>134.2412109</ele>
        <time>2012-08-24T07:08:03Z</time>
      </trkpt>
      <trkpt lat="47.06701" lon="-0.84471">
        <ele>133.2799072</ele>
        <time>2012-08-24T07:08:12Z</time>
      </trkpt>
      <trkpt lat="47.06691" lon="-0.84403">
        <ele>133.760498</ele>
        <time>2012-08-24T07:08:20Z</time>
      </trkpt>
      <trkpt lat="47.06682" lon="-0.84347">
        <ele>134.7219238</ele>
        <time>2012-08-24T07:08:27Z</time>
      </trkpt>
      <trkpt lat="47.06676" lon="-0.84307">
        <ele>135.2025146</ele>
        <time>2012-08-24T07:08:33Z</time>
      </trkpt>
      <trkpt lat="47.06673" lon="-0.84292">
        <ele>135.6831055</ele>
        <time>2012-08-24T07:08:36Z</time>
      </trkpt>
      <trkpt lat="47.06672" lon="-0.84291">
        <ele>136.1639404</ele>
        <time>2012-08-24T07:08:46Z</time>
      </trkpt>
      <trkpt lat="47.06672" lon="-0.8429">
        <ele>138.0865479</ele>
        <time>2012-08-24T07:08:51Z</time>
      </trkpt>
      <trkpt lat="47.06672" lon="-0.84288">
        <ele>142.4124756</ele>
        <time>2012-08-24T07:08:57Z</time>
      </trkpt>
      <trkpt lat="47.06673" lon="-0.84287">
        <ele>145.7770996</ele>
        <time>2012-08-24T07:09:02Z</time>
      </trkpt>
      <trkpt lat="47.06673" lon="-0.84287">
        <ele>145.7770996</ele>
        <time>2012-08-24T07:09:04Z</time>
      </trkpt>
      <trkpt lat="47.06672" lon="-0.84287">
        <ele>145.7770996</ele>
        <time>2012-08-24T07:09:12Z</time>
      </trkpt>
      <trkpt lat="47.06673" lon="-0.84287">
        <ele>145.2963867</ele>
        <time>2012-08-24T07:09:25Z</time>
      </trkpt>
      <trkpt lat="47.06673" lon="-0.84286">
        <ele>145.2963867</ele>
        <time>2012-08-24T07:09:38Z</time>
      </trkpt>
      <trkpt lat="47.06671" lon="-0.84272">
        <ele>143.3736572</ele>
        <time>2012-08-24T07:09:42Z</time>
      </trkpt>
      <trkpt lat="47.06669" lon="-0.84252">
        <ele>142.4124756</ele>
        <time>2012-08-24T07:09:45Z</time>
      </trkpt>
      <trkpt lat="47.06666" lon="-0.84229">
        <ele>141.9317627</ele>
        <time>2012-08-24T07:09:48Z</time>
      </trkpt>
      <trkpt lat="47.06665" lon="-0.84221">
        <ele>141.4510498</ele>
        <time>2012-08-24T07:09:49Z</time>
      </trkpt>
      <trkpt lat="47.06663" lon="-0.84213">
        <ele>141.4510498</ele>
        <time>2012-08-24T07:09:50Z</time>
      </trkpt>
      <trkpt lat="47.06653" lon="-0.84136">
        <ele>140.0091553</ele>
        <time>2012-08-24T07:09:59Z</time>
      </trkpt>
      <trkpt lat="47.06643" lon="-0.84059">
        <ele>138.5672607</ele>
        <time>2012-08-24T07:10:08Z</time>
      </trkpt>
      <trkpt lat="47.06636" lon="-0.84008">
        <ele>139.0478516</ele>
        <time>2012-08-24T07:10:14Z</time>
      </trkpt>
      <trkpt lat="47.06624" lon="-0.83927">
        <ele>138.5672607</ele>
        <time>2012-08-24T07:10:24Z</time>
      </trkpt>
      <trkpt lat="47.06615" lon="-0.83864">
        <ele>138.0865479</ele>
        <time>2012-08-24T07:10:32Z</time>
      </trkpt>
      <trkpt lat="47.06602" lon="-0.83785">
        <ele>137.1252441</ele>
        <time>2012-08-24T07:10:42Z</time>
      </trkpt>
      <trkpt lat="47.06588" lon="-0.83708">
        <ele>137.1252441</ele>
        <time>2012-08-24T07:10:52Z</time>
      </trkpt>
      <trkpt lat="47.06576" lon="-0.83651">
        <ele>137.605835</ele>
        <time>2012-08-24T07:11:00Z</time>
      </trkpt>
      <trkpt lat="47.0656" lon="-0.83573">
        <ele>139.0478516</ele>
        <time>2012-08-24T07:11:11Z</time>
      </trkpt>
      <trkpt lat="47.06546" lon="-0.83507">
        <ele>139.0478516</ele>
        <time>2012-08-24T07:11:20Z</time>
      </trkpt>
      <trkpt lat="47.0653" lon="-0.83428">
        <ele>138.5672607</ele>
        <time>2012-08-24T07:11:30Z</time>
      </trkpt>
      <trkpt lat="47.06511" lon="-0.8334">
        <ele>137.605835</ele>
        <time>2012-08-24T07:11:41Z</time>
      </trkpt>
      <trkpt lat="47.06499" lon="-0.83284">
        <ele>137.1252441</ele>
        <time>2012-08-24T07:11:48Z</time>
      </trkpt>
      <trkpt lat="47.06489" lon="-0.83235">
        <ele>137.1252441</ele>
        <time>2012-08-24T07:11:54Z</time>
      </trkpt>
      <trkpt lat="47.06479" lon="-0.83187">
        <ele>136.1639404</ele>
        <time>2012-08-24T07:12:00Z</time>
      </trkpt>
      <trkpt lat="47.06466" lon="-0.83119">
        <ele>137.1252441</ele>
        <time>2012-08-24T07:12:09Z</time>
      </trkpt>
      <trkpt lat="47.06456" lon="-0.83065">
        <ele>138.5672607</ele>
        <time>2012-08-24T07:12:17Z</time>
      </trkpt>
      <trkpt lat="47.06447" lon="-0.83016">
        <ele>140.970459</ele>
        <time>2012-08-24T07:12:25Z</time>
      </trkpt>
      <trkpt lat="47.06443" lon="-0.82991">
        <ele>141.9317627</ele>
        <time>2012-08-24T07:12:29Z</time>
      </trkpt>
      <trkpt lat="47.06439" lon="-0.82965">
        <ele>142.8930664</ele>
        <time>2012-08-24T07:12:33Z</time>
      </trkpt>
      <trkpt lat="47.06433" lon="-0.82904">
        <ele>145.2963867</ele>
        <time>2012-08-24T07:12:42Z</time>
      </trkpt>
      <trkpt lat="47.06433" lon="-0.82833">
        <ele>147.699707</ele>
        <time>2012-08-24T07:12:52Z</time>
      </trkpt>
      <trkpt lat="47.06436" lon="-0.82768">
        <ele>148.1804199</ele>
        <time>2012-08-24T07:13:01Z</time>
      </trkpt>
      <trkpt lat="47.0644" lon="-0.82695">
        <ele>149.1416016</ele>
        <time>2012-08-24T07:13:11Z</time>
      </trkpt>
      <trkpt lat="47.06444" lon="-0.8261">
        <ele>148.6610107</ele>
        <time>2012-08-24T07:13:22Z</time>
      </trkpt>
      <trkpt lat="47.06448" lon="-0.82539">
        <ele>147.2189941</ele>
        <time>2012-08-24T07:13:30Z</time>
      </trkpt>
      <trkpt lat="47.06452" lon="-0.82457">
        <ele>145.7770996</ele>
        <time>2012-08-24T07:13:38Z</time>
      </trkpt>
      <trkpt lat="47.06456" lon="-0.8239">
        <ele>144.3352051</ele>
        <time>2012-08-24T07:13:44Z</time>
      </trkpt>
      <trkpt lat="47.06458" lon="-0.82334">
        <ele>143.3736572</ele>
        <time>2012-08-24T07:13:49Z</time>
      </trkpt>
      <trkpt lat="47.06457" lon="-0.82248">
        <ele>141.9317627</ele>
        <time>2012-08-24T07:13:57Z</time>
      </trkpt>
      <trkpt lat="47.06451" lon="-0.8215">
        <ele>141.4510498</ele>
        <time>2012-08-24T07:14:06Z</time>
      </trkpt>
      <trkpt lat="47.0645" lon="-0.82129">
        <ele>140.970459</ele>
        <time>2012-08-24T07:14:08Z</time>
      </trkpt>
      <trkpt lat="47.06458" lon="-0.8209">
        <ele>140.970459</ele>
        <time>2012-08-24T07:14:12Z</time>
      </trkpt>
      <trkpt lat="47.06471" lon="-0.82042">
        <ele>140.4898682</ele>
        <time>2012-08-24T07:14:17Z</time>
      </trkpt>
      <trkpt lat="47.06474" lon="-0.81976">
        <ele>140.0091553</ele>
        <time>2012-08-24T07:14:23Z</time>
      </trkpt>
      <trkpt lat="47.06476" lon="-0.81965">
        <ele>139.5284424</ele>
        <time>2012-08-24T07:14:24Z</time>
      </trkpt>
      <trkpt lat="47.06502" lon="-0.81889">
        <ele>140.0091553</ele>
        <time>2012-08-24T07:14:32Z</time>
      </trkpt>
      <trkpt lat="47.06528" lon="-0.81814">
        <ele>140.970459</ele>
        <time>2012-08-24T07:14:41Z</time>
      </trkpt>
      <trkpt lat="47.06564" lon="-0.81722">
        <ele>140.0091553</ele>
        <time>2012-08-24T07:14:52Z</time>
      </trkpt>
      <trkpt lat="47.0659" lon="-0.81653">
        <ele>138.5672607</ele>
        <time>2012-08-24T07:15:00Z</time>
      </trkpt>
      <trkpt lat="47.06616" lon="-0.81574">
        <ele>136.6446533</ele>
        <time>2012-08-24T07:15:08Z</time>
      </trkpt>
      <trkpt lat="47.06641" lon="-0.81489">
        <ele>135.2025146</ele>
        <time>2012-08-24T07:15:16Z</time>
      </trkpt>
      <trkpt lat="47.06668" lon="-0.81392">
        <ele>132.3186035</ele>
        <time>2012-08-24T07:15:25Z</time>
      </trkpt>
      <trkpt lat="47.06694" lon="-0.81332">
        <ele>130.3959961</ele>
        <time>2012-08-24T07:15:31Z</time>
      </trkpt>
      <trkpt lat="47.06729" lon="-0.81248">
        <ele>127.9925537</ele>
        <time>2012-08-24T07:15:39Z</time>
      </trkpt>
      <trkpt lat="47.06759" lon="-0.81172">
        <ele>127.0313721</ele>
        <time>2012-08-24T07:15:47Z</time>
      </trkpt>
      <trkpt lat="47.06768" lon="-0.81146">
        <ele>126.5506592</ele>
        <time>2012-08-24T07:15:50Z</time>
      </trkpt>
      <trkpt lat="47.06783" lon="-0.81107">
        <ele>123.666748</ele>
        <time>2012-08-24T07:15:55Z</time>
      </trkpt>
      <trkpt lat="47.06805" lon="-0.81065">
        <ele>121.7441406</ele>
        <time>2012-08-24T07:16:01Z</time>
      </trkpt>
      <trkpt lat="47.06832" lon="-0.81007">
        <ele>124.6280518</ele>
        <time>2012-08-24T07:16:09Z</time>
      </trkpt>
      <trkpt lat="47.06835" lon="-0.81">
        <ele>124.6280518</ele>
        <time>2012-08-24T07:16:10Z</time>
      </trkpt>
      <trkpt lat="47.0684" lon="-0.80986">
        <ele>124.6280518</ele>
        <time>2012-08-24T07:16:12Z</time>
      </trkpt>
      <trkpt lat="47.06852" lon="-0.80959">
        <ele>123.666748</ele>
        <time>2012-08-24T07:16:16Z</time>
      </trkpt>
      <trkpt lat="47.06859" lon="-0.80946">
        <ele>123.1861572</ele>
        <time>2012-08-24T07:16:18Z</time>
      </trkpt>
      <trkpt lat="47.06873" lon="-0.80919">
        <ele>124.6280518</ele>
        <time>2012-08-24T07:16:22Z</time>
      </trkpt>
      <trkpt lat="47.06897" lon="-0.80875">
        <ele>123.1861572</ele>
        <time>2012-08-24T07:16:30Z</time>
      </trkpt>
      <trkpt lat="47.06901" lon="-0.80869">
        <ele>124.6280518</ele>
        <time>2012-08-24T07:16:31Z</time>
      </trkpt>
      <trkpt lat="47.06917" lon="-0.80845">
        <ele>127.5119629</ele>
        <time>2012-08-24T07:16:36Z</time>
      </trkpt>
      <trkpt lat="47.06924" lon="-0.80832">
        <ele>128.9541016</ele>
        <time>2012-08-24T07:16:38Z</time>
      </trkpt>
      <trkpt lat="47.06946" lon="-0.8079">
        <ele>128.9541016</ele>
        <time>2012-08-24T07:16:45Z</time>
      </trkpt>
      <trkpt lat="47.06952" lon="-0.80779">
        <ele>130.876709</ele>
        <time>2012-08-24T07:16:47Z</time>
      </trkpt>
      <trkpt lat="47.06964" lon="-0.80761">
        <ele>129.4346924</ele>
        <time>2012-08-24T07:16:50Z</time>
      </trkpt>
      <trkpt lat="47.06994" lon="-0.80731">
        <ele>128.4733887</ele>
        <time>2012-08-24T07:16:56Z</time>
      </trkpt>
      <trkpt lat="47.07018" lon="-0.8071">
        <ele>127.5119629</ele>
        <time>2012-08-24T07:17:02Z</time>
      </trkpt>
      <trkpt lat="47.07028" lon="-0.80701">
        <ele>127.5119629</ele>
        <time>2012-08-24T07:17:05Z</time>
      </trkpt>
      <trkpt lat="47.07049" lon="-0.80683">
        <ele>129.4346924</ele>
        <time>2012-08-24T07:17:10Z</time>
      </trkpt>
      <trkpt lat="47.07073" lon="-0.80657">
        <ele>130.3959961</ele>
        <time>2012-08-24T07:17:16Z</time>
      </trkpt>
      <trkpt lat="47.07089" lon="-0.8064">
        <ele>128.4733887</ele>
        <time>2012-08-24T07:17:20Z</time>
      </trkpt>
      <trkpt lat="47.07108" lon="-0.80617">
        <ele>131.8378906</ele>
        <time>2012-08-24T07:17:25Z</time>
      </trkpt>
      <trkpt lat="47.07127" lon="-0.80591">
        <ele>131.8378906</ele>
        <time>2012-08-24T07:17:30Z</time>
      </trkpt>
      <trkpt lat="47.07147" lon="-0.80564">
        <ele>131.8378906</ele>
        <time>2012-08-24T07:17:35Z</time>
      </trkpt>
      <trkpt lat="47.07155" lon="-0.80554">
        <ele>130.3959961</ele>
        <time>2012-08-24T07:17:37Z</time>
      </trkpt>
      <trkpt lat="47.07173" lon="-0.80518">
        <ele>131.8378906</ele>
        <time>2012-08-24T07:17:42Z</time>
      </trkpt>
      <trkpt lat="47.07184" lon="-0.80491">
        <ele>135.6831055</ele>
        <time>2012-08-24T07:17:45Z</time>
      </trkpt>
      <trkpt lat="47.07193" lon="-0.80454">
        <ele>141.9317627</ele>
        <time>2012-08-24T07:17:49Z</time>
      </trkpt>
      <trkpt lat="47.07195" lon="-0.80408">
        <ele>143.3736572</ele>
        <time>2012-08-24T07:17:55Z</time>
      </trkpt>
      <trkpt lat="47.07196" lon="-0.80372">
        <ele>141.4510498</ele>
        <time>2012-08-24T07:18:00Z</time>
      </trkpt>
      <trkpt lat="47.07198" lon="-0.80337">
        <ele>139.5284424</ele>
        <time>2012-08-24T07:18:05Z</time>
      </trkpt>
      <trkpt lat="47.07197" lon="-0.80323">
        <ele>139.5284424</ele>
        <time>2012-08-24T07:18:07Z</time>
      </trkpt>
      <trkpt lat="47.07199" lon="-0.80289">
        <ele>139.5284424</ele>
        <time>2012-08-24T07:18:12Z</time>
      </trkpt>
      <trkpt lat="47.07201" lon="-0.80255">
        <ele>139.5284424</ele>
        <time>2012-08-24T07:18:17Z</time>
      </trkpt>
      <trkpt lat="47.07203" lon="-0.80209">
        <ele>140.4898682</ele>
        <time>2012-08-24T07:18:24Z</time>
      </trkpt>
      <trkpt lat="47.07206" lon="-0.80171">
        <ele>138.0865479</ele>
        <time>2012-08-24T07:18:30Z</time>
      </trkpt>
      <trkpt lat="47.07207" lon="-0.80153">
        <ele>138.0865479</ele>
        <time>2012-08-24T07:18:33Z</time>
      </trkpt>
      <trkpt lat="47.07209" lon="-0.80114">
        <ele>137.605835</ele>
        <time>2012-08-24T07:18:39Z</time>
      </trkpt>
      <trkpt lat="47.07211" lon="-0.80088">
        <ele>139.5284424</ele>
        <time>2012-08-24T07:18:43Z</time>
      </trkpt>
      <trkpt lat="47.07212" lon="-0.80043">
        <ele>139.5284424</ele>
        <time>2012-08-24T07:18:50Z</time>
      </trkpt>
      <trkpt lat="47.07214" lon="-0.79993">
        <ele>142.8930664</ele>
        <time>2012-08-24T07:18:58Z</time>
      </trkpt>
      <trkpt lat="47.07215" lon="-0.79988">
        <ele>142.8930664</ele>
        <time>2012-08-24T07:18:59Z</time>
      </trkpt>
      <trkpt lat="47.07215" lon="-0.79959">
        <ele>145.2963867</ele>
        <time>2012-08-24T07:19:04Z</time>
      </trkpt>
      <trkpt lat="47.07216" lon="-0.79946">
        <ele>146.7384033</ele>
        <time>2012-08-24T07:19:06Z</time>
      </trkpt>
      <trkpt lat="47.07219" lon="-0.79906">
        <ele>152.0257568</ele>
        <time>2012-08-24T07:19:12Z</time>
      </trkpt>
      <trkpt lat="47.07219" lon="-0.79894">
        <ele>153.9483643</ele>
        <time>2012-08-24T07:19:14Z</time>
      </trkpt>
      <trkpt lat="47.07221" lon="-0.79871">
        <ele>152.9869385</ele>
        <time>2012-08-24T07:19:18Z</time>
      </trkpt>
      <trkpt lat="47.07223" lon="-0.79852">
        <ele>155.8709717</ele>
        <time>2012-08-24T07:19:21Z</time>
      </trkpt>
      <trkpt lat="47.07226" lon="-0.79822">
        <ele>156.8321533</ele>
        <time>2012-08-24T07:19:26Z</time>
      </trkpt>
      <trkpt lat="47.07225" lon="-0.79791">
        <ele>159.2354736</ele>
        <time>2012-08-24T07:19:31Z</time>
      </trkpt>
      <trkpt lat="47.07227" lon="-0.79735">
        <ele>153.4676514</ele>
        <time>2012-08-24T07:19:41Z</time>
      </trkpt>
      <trkpt lat="47.07228" lon="-0.79713">
        <ele>154.9095459</ele>
        <time>2012-08-24T07:19:45Z</time>
      </trkpt>
      <trkpt lat="47.07234" lon="-0.79683">
        <ele>154.9095459</ele>
        <time>2012-08-24T07:19:50Z</time>
      </trkpt>
      <trkpt lat="47.07236" lon="-0.79678">
        <ele>154.9095459</ele>
        <time>2012-08-24T07:19:51Z</time>
      </trkpt>
      <trkpt lat="47.0725" lon="-0.7965">
        <ele>151.064209</ele>
        <time>2012-08-24T07:19:57Z</time>
      </trkpt>
      <trkpt lat="47.07252" lon="-0.79646">
        <ele>150.5836182</ele>
        <time>2012-08-24T07:19:58Z</time>
      </trkpt>
      <trkpt lat="47.07268" lon="-0.79623">
        <ele>146.2578125</ele>
        <time>2012-08-24T07:20:04Z</time>
      </trkpt>
      <trkpt lat="47.07282" lon="-0.79599">
        <ele>143.3736572</ele>
        <time>2012-08-24T07:20:09Z</time>
      </trkpt>
      <trkpt lat="47.07296" lon="-0.79571">
        <ele>150.5836182</ele>
        <time>2012-08-24T07:20:14Z</time>
      </trkpt>
      <trkpt lat="47.07308" lon="-0.79551">
        <ele>149.1416016</ele>
        <time>2012-08-24T07:20:18Z</time>
      </trkpt>
      <trkpt lat="47.07315" lon="-0.79538">
        <ele>149.6223145</ele>
        <time>2012-08-24T07:20:21Z</time>
      </trkpt>
      <trkpt lat="47.07322" lon="-0.79524">
        <ele>152.0257568</ele>
        <time>2012-08-24T07:20:24Z</time>
      </trkpt>
      <trkpt lat="47.0734" lon="-0.79496">
        <ele>151.064209</ele>
        <time>2012-08-24T07:20:30Z</time>
      </trkpt>
      <trkpt lat="47.07342" lon="-0.79489">
        <ele>153.4676514</ele>
        <time>2012-08-24T07:20:31Z</time>
      </trkpt>
      <trkpt lat="47.07358" lon="-0.79454">
        <ele>157.7935791</ele>
        <time>2012-08-24T07:20:37Z</time>
      </trkpt>
      <trkpt lat="47.0737" lon="-0.79436">
        <ele>154.9095459</ele>
        <time>2012-08-24T07:20:41Z</time>
      </trkpt>
      <trkpt lat="47.07375" lon="-0.79427">
        <ele>153.4676514</ele>
        <time>2012-08-24T07:20:43Z</time>
      </trkpt>
      <trkpt lat="47.07391" lon="-0.79398">
        <ele>159.7161865</ele>
        <time>2012-08-24T07:20:48Z</time>
      </trkpt>
      <trkpt lat="47.07405" lon="-0.79369">
        <ele>164.0421143</ele>
        <time>2012-08-24T07:20:54Z</time>
      </trkpt>
      <trkpt lat="47.07408" lon="-0.79365">
        <ele>165.003418</ele>
        <time>2012-08-24T07:20:55Z</time>
      </trkpt>
      <trkpt lat="47.07425" lon="-0.79333">
        <ele>167.8873291</ele>
        <time>2012-08-24T07:21:01Z</time>
      </trkpt>
      <trkpt lat="47.07438" lon="-0.79311">
        <ele>165.9647217</ele>
        <time>2012-08-24T07:21:05Z</time>
      </trkpt>
      <trkpt lat="47.07456" lon="-0.79279">
        <ele>164.0421143</ele>
        <time>2012-08-24T07:21:11Z</time>
      </trkpt>
      <trkpt lat="47.07476" lon="-0.7924">
        <ele>167.8873291</ele>
        <time>2012-08-24T07:21:18Z</time>
      </trkpt>
      <trkpt lat="47.0748" lon="-0.79233">
        <ele>168.368042</ele>
        <time>2012-08-24T07:21:19Z</time>
      </trkpt>
      <trkpt lat="47.07493" lon="-0.79212">
        <ele>170.7713623</ele>
        <time>2012-08-24T07:21:23Z</time>
      </trkpt>
      <trkpt lat="47.07503" lon="-0.79197">
        <ele>171.2520752</ele>
        <time>2012-08-24T07:21:26Z</time>
      </trkpt>
      <trkpt lat="47.07509" lon="-0.79186">
        <ele>172.2132568</ele>
        <time>2012-08-24T07:21:28Z</time>
      </trkpt>
      <trkpt lat="47.07515" lon="-0.79176">
        <ele>171.2520752</ele>
        <time>2012-08-24T07:21:30Z</time>
      </trkpt>
      <trkpt lat="47.07523" lon="-0.7916">
        <ele>172.2132568</ele>
        <time>2012-08-24T07:21:33Z</time>
      </trkpt>
      <trkpt lat="47.07535" lon="-0.79139">
        <ele>170.2906494</ele>
        <time>2012-08-24T07:21:37Z</time>
      </trkpt>
      <trkpt lat="47.07547" lon="-0.79106">
        <ele>168.8487549</ele>
        <time>2012-08-24T07:21:42Z</time>
      </trkpt>
      <trkpt lat="47.0757" lon="-0.7907">
        <ele>169.8100586</ele>
        <time>2012-08-24T07:21:48Z</time>
      </trkpt>
      <trkpt lat="47.07573" lon="-0.79063">
        <ele>171.2520752</ele>
        <time>2012-08-24T07:21:49Z</time>
      </trkpt>
      <trkpt lat="47.0758" lon="-0.79051">
        <ele>170.7713623</ele>
        <time>2012-08-24T07:21:51Z</time>
      </trkpt>
      <trkpt lat="47.07587" lon="-0.79039">
        <ele>169.8100586</ele>
        <time>2012-08-24T07:21:53Z</time>
      </trkpt>
      <trkpt lat="47.07604" lon="-0.79013">
        <ele>166.9260254</ele>
        <time>2012-08-24T07:21:58Z</time>
      </trkpt>
      <trkpt lat="47.07614" lon="-0.78995">
        <ele>165.9647217</ele>
        <time>2012-08-24T07:22:01Z</time>
      </trkpt>
      <trkpt lat="47.07626" lon="-0.78966">
        <ele>169.3294678</ele>
        <time>2012-08-24T07:22:05Z</time>
      </trkpt>
      <trkpt lat="47.07638" lon="-0.78948">
        <ele>169.3294678</ele>
        <time>2012-08-24T07:22:08Z</time>
      </trkpt>
      <trkpt lat="47.07653" lon="-0.78923">
        <ele>166.4453125</ele>
        <time>2012-08-24T07:22:12Z</time>
      </trkpt>
      <trkpt lat="47.07674" lon="-0.78886">
        <ele>164.0421143</ele>
        <time>2012-08-24T07:22:18Z</time>
      </trkpt>
      <trkpt lat="47.07678" lon="-0.78879">
        <ele>163.0808105</ele>
        <time>2012-08-24T07:22:19Z</time>
      </trkpt>
      <trkpt lat="47.07692" lon="-0.78857">
        <ele>162.6000977</ele>
        <time>2012-08-24T07:22:23Z</time>
      </trkpt>
      <trkpt lat="47.07707" lon="-0.78827">
        <ele>162.6000977</ele>
        <time>2012-08-24T07:22:28Z</time>
      </trkpt>
      <trkpt lat="47.07711" lon="-0.78822">
        <ele>162.6000977</ele>
        <time>2012-08-24T07:22:29Z</time>
      </trkpt>
      <trkpt lat="47.07718" lon="-0.78806">
        <ele>167.8873291</ele>
        <time>2012-08-24T07:22:31Z</time>
      </trkpt>
      <trkpt lat="47.07728" lon="-0.78785">
        <ele>171.2520752</ele>
        <time>2012-08-24T07:22:34Z</time>
      </trkpt>
      <trkpt lat="47.07739" lon="-0.7876">
        <ele>172.6939697</ele>
        <time>2012-08-24T07:22:38Z</time>
      </trkpt>
      <trkpt lat="47.07757" lon="-0.78729">
        <ele>172.6939697</ele>
        <time>2012-08-24T07:22:43Z</time>
      </trkpt>
      <trkpt lat="47.07771" lon="-0.78706">
        <ele>172.6939697</ele>
        <time>2012-08-24T07:22:47Z</time>
      </trkpt>
      <trkpt lat="47.07779" lon="-0.78695">
        <ele>170.2906494</ele>
        <time>2012-08-24T07:22:49Z</time>
      </trkpt>
      <trkpt lat="47.07793" lon="-0.78672">
        <ele>168.368042</ele>
        <time>2012-08-24T07:22:53Z</time>
      </trkpt>
      <trkpt lat="47.07809" lon="-0.78643">
        <ele>162.1195068</ele>
        <time>2012-08-24T07:22:59Z</time>
      </trkpt>
      <trkpt lat="47.07828" lon="-0.78607">
        <ele>155.8709717</ele>
        <time>2012-08-24T07:23:05Z</time>
      </trkpt>
      <trkpt lat="47.07839" lon="-0.78582">
        <ele>152.5063477</ele>
        <time>2012-08-24T07:23:09Z</time>
      </trkpt>
      <trkpt lat="47.07849" lon="-0.78562">
        <ele>151.064209</ele>
        <time>2012-08-24T07:23:13Z</time>
      </trkpt>
      <trkpt lat="47.07856" lon="-0.78553">
        <ele>151.064209</ele>
        <time>2012-08-24T07:23:15Z</time>
      </trkpt>
      <trkpt lat="47.07873" lon="-0.78524">
        <ele>149.1416016</ele>
        <time>2012-08-24T07:23:20Z</time>
      </trkpt>
      <trkpt lat="47.07889" lon="-0.785">
        <ele>151.5449219</ele>
        <time>2012-08-24T07:23:24Z</time>
      </trkpt>
      <trkpt lat="47.0791" lon="-0.78463">
        <ele>152.9869385</ele>
        <time>2012-08-24T07:23:30Z</time>
      </trkpt>
      <trkpt lat="47.07924" lon="-0.78432">
        <ele>152.5063477</ele>
        <time>2012-08-24T07:23:36Z</time>
      </trkpt>
      <trkpt lat="47.07937" lon="-0.784">
        <ele>160.6774902</ele>
        <time>2012-08-24T07:23:41Z</time>
      </trkpt>
      <trkpt lat="47.07941" lon="-0.78393">
        <ele>163.0808105</ele>
        <time>2012-08-24T07:23:42Z</time>
      </trkpt>
      <trkpt lat="47.07947" lon="-0.7837">
        <ele>169.8100586</ele>
        <time>2012-08-24T07:23:45Z</time>
      </trkpt>
      <trkpt lat="47.07952" lon="-0.78355">
        <ele>172.2132568</ele>
        <time>2012-08-24T07:23:47Z</time>
      </trkpt>
      <trkpt lat="47.07968" lon="-0.78303">
        <ele>169.3294678</ele>
        <time>2012-08-24T07:23:54Z</time>
      </trkpt>
      <trkpt lat="47.07973" lon="-0.78289">
        <ele>168.8487549</ele>
        <time>2012-08-24T07:23:56Z</time>
      </trkpt>
      <trkpt lat="47.07985" lon="-0.78245">
        <ele>164.5227051</ele>
        <time>2012-08-24T07:24:02Z</time>
      </trkpt>
      <trkpt lat="47.07995" lon="-0.78217">
        <ele>160.1968994</ele>
        <time>2012-08-24T07:24:06Z</time>
      </trkpt>
      <trkpt lat="47.08002" lon="-0.78189">
        <ele>158.7547607</ele>
        <time>2012-08-24T07:24:10Z</time>
      </trkpt>
      <trkpt lat="47.08024" lon="-0.78123">
        <ele>157.3128662</ele>
        <time>2012-08-24T07:24:19Z</time>
      </trkpt>
      <trkpt lat="47.08031" lon="-0.78101">
        <ele>155.3902588</ele>
        <time>2012-08-24T07:24:22Z</time>
      </trkpt>
      <trkpt lat="47.0805" lon="-0.78038">
        <ele>156.8321533</ele>
        <time>2012-08-24T07:24:30Z</time>
      </trkpt>
      <trkpt lat="47.08066" lon="-0.77983">
        <ele>158.2741699</ele>
        <time>2012-08-24T07:24:37Z</time>
      </trkpt>
      <trkpt lat="47.08071" lon="-0.77966">
        <ele>157.7935791</ele>
        <time>2012-08-24T07:24:39Z</time>
      </trkpt>
      <trkpt lat="47.08089" lon="-0.77906">
        <ele>156.8321533</ele>
        <time>2012-08-24T07:24:47Z</time>
      </trkpt>
      <trkpt lat="47.08099" lon="-0.77868">
        <ele>160.1968994</ele>
        <time>2012-08-24T07:24:52Z</time>
      </trkpt>
      <trkpt lat="47.08104" lon="-0.77854">
        <ele>161.1582031</ele>
        <time>2012-08-24T07:24:54Z</time>
      </trkpt>
      <trkpt lat="47.08113" lon="-0.77824">
        <ele>160.1968994</ele>
        <time>2012-08-24T07:24:58Z</time>
      </trkpt>
      <trkpt lat="47.08122" lon="-0.77796">
        <ele>158.7547607</ele>
        <time>2012-08-24T07:25:02Z</time>
      </trkpt>
      <trkpt lat="47.08127" lon="-0.77781">
        <ele>158.7547607</ele>
        <time>2012-08-24T07:25:04Z</time>
      </trkpt>
      <trkpt lat="47.08144" lon="-0.77726">
        <ele>160.6774902</ele>
        <time>2012-08-24T07:25:11Z</time>
      </trkpt>
      <trkpt lat="47.08154" lon="-0.77696">
        <ele>159.7161865</ele>
        <time>2012-08-24T07:25:15Z</time>
      </trkpt>
      <trkpt lat="47.08171" lon="-0.77642">
        <ele>159.7161865</ele>
        <time>2012-08-24T07:25:22Z</time>
      </trkpt>
      <trkpt lat="47.08188" lon="-0.77583">
        <ele>159.7161865</ele>
        <time>2012-08-24T07:25:30Z</time>
      </trkpt>
      <trkpt lat="47.082" lon="-0.7754">
        <ele>159.7161865</ele>
        <time>2012-08-24T07:25:36Z</time>
      </trkpt>
      <trkpt lat="47.08216" lon="-0.77488">
        <ele>160.6774902</ele>
        <time>2012-08-24T07:25:43Z</time>
      </trkpt>
      <trkpt lat="47.08227" lon="-0.77452">
        <ele>160.1968994</ele>
        <time>2012-08-24T07:25:48Z</time>
      </trkpt>
      <trkpt lat="47.08237" lon="-0.7743">
        <ele>161.1582031</ele>
        <time>2012-08-24T07:25:52Z</time>
      </trkpt>
      <trkpt lat="47.08248" lon="-0.77409">
        <ele>159.7161865</ele>
        <time>2012-08-24T07:25:56Z</time>
      </trkpt>
      <trkpt lat="47.08254" lon="-0.7738">
        <ele>158.2741699</ele>
        <time>2012-08-24T07:26:01Z</time>
      </trkpt>
      <trkpt lat="47.08261" lon="-0.77366">
        <ele>159.7161865</ele>
        <time>2012-08-24T07:26:04Z</time>
      </trkpt>
      <trkpt lat="47.08268" lon="-0.77355">
        <ele>160.6774902</ele>
        <time>2012-08-24T07:26:06Z</time>
      </trkpt>
      <trkpt lat="47.08272" lon="-0.77344">
        <ele>160.6774902</ele>
        <time>2012-08-24T07:26:08Z</time>
      </trkpt>
      <trkpt lat="47.08275" lon="-0.77335">
        <ele>159.7161865</ele>
        <time>2012-08-24T07:26:10Z</time>
      </trkpt>
      <trkpt lat="47.08292" lon="-0.77307">
        <ele>163.0808105</ele>
        <time>2012-08-24T07:26:15Z</time>
      </trkpt>
      <trkpt lat="47.08301" lon="-0.7729">
        <ele>163.0808105</ele>
        <time>2012-08-24T07:26:18Z</time>
      </trkpt>
      <trkpt lat="47.08305" lon="-0.77277">
        <ele>162.6000977</ele>
        <time>2012-08-24T07:26:20Z</time>
      </trkpt>
      <trkpt lat="47.08314" lon="-0.77255">
        <ele>162.6000977</ele>
        <time>2012-08-24T07:26:24Z</time>
      </trkpt>
      <trkpt lat="47.08322" lon="-0.77218">
        <ele>168.8487549</ele>
        <time>2012-08-24T07:26:29Z</time>
      </trkpt>
      <trkpt lat="47.08323" lon="-0.7721">
        <ele>171.2520752</ele>
        <time>2012-08-24T07:26:30Z</time>
      </trkpt>
      <trkpt lat="47.08328" lon="-0.77185">
        <ele>177.0200195</ele>
        <time>2012-08-24T07:26:33Z</time>
      </trkpt>
      <trkpt lat="47.08323" lon="-0.77153">
        <ele>178.942627</ele>
        <time>2012-08-24T07:26:38Z</time>
      </trkpt>
      <trkpt lat="47.08319" lon="-0.77138">
        <ele>177.0200195</ele>
        <time>2012-08-24T07:26:41Z</time>
      </trkpt>
      <trkpt lat="47.08317" lon="-0.77126">
        <ele>176.0585938</ele>
        <time>2012-08-24T07:26:43Z</time>
      </trkpt>
      <trkpt lat="47.08313" lon="-0.77107">
        <ele>177.0200195</ele>
        <time>2012-08-24T07:26:46Z</time>
      </trkpt>
      <trkpt lat="47.0831" lon="-0.77088">
        <ele>177.9812012</ele>
        <time>2012-08-24T07:26:49Z</time>
      </trkpt>
      <trkpt lat="47.08306" lon="-0.7706">
        <ele>181.826416</ele>
        <time>2012-08-24T07:26:53Z</time>
      </trkpt>
      <trkpt lat="47.08301" lon="-0.77026">
        <ele>183.7490234</ele>
        <time>2012-08-24T07:26:59Z</time>
      </trkpt>
      <trkpt lat="47.08309" lon="-0.76982">
        <ele>172.6939697</ele>
        <time>2012-08-24T07:27:05Z</time>
      </trkpt>
      <trkpt lat="47.08311" lon="-0.76965">
        <ele>171.732666</ele>
        <time>2012-08-24T07:27:07Z</time>
      </trkpt>
      <trkpt lat="47.08313" lon="-0.76948">
        <ele>171.732666</ele>
        <time>2012-08-24T07:27:09Z</time>
      </trkpt>
      <trkpt lat="47.08314" lon="-0.7693">
        <ele>171.732666</ele>
        <time>2012-08-24T07:27:11Z</time>
      </trkpt>
      <trkpt lat="47.08317" lon="-0.76894">
        <ele>175.09729</ele>
        <time>2012-08-24T07:27:15Z</time>
      </trkpt>
      <trkpt lat="47.08326" lon="-0.76868">
        <ele>177.0200195</ele>
        <time>2012-08-24T07:27:19Z</time>
      </trkpt>
      <trkpt lat="47.0834" lon="-0.76832">
        <ele>177.9812012</ele>
        <time>2012-08-24T07:27:25Z</time>
      </trkpt>
      <trkpt lat="47.08343" lon="-0.76813">
        <ele>174.6165771</ele>
        <time>2012-08-24T07:27:28Z</time>
      </trkpt>
      <trkpt lat="47.08342" lon="-0.76779">
        <ele>172.2132568</ele>
        <time>2012-08-24T07:27:33Z</time>
      </trkpt>
      <trkpt lat="47.0834" lon="-0.76764">
        <ele>172.2132568</ele>
        <time>2012-08-24T07:27:35Z</time>
      </trkpt>
      <trkpt lat="47.08335" lon="-0.76746">
        <ele>168.8487549</ele>
        <time>2012-08-24T07:27:38Z</time>
      </trkpt>
      <trkpt lat="47.08329" lon="-0.76715">
        <ele>170.2906494</ele>
        <time>2012-08-24T07:27:42Z</time>
      </trkpt>
      <trkpt lat="47.08324" lon="-0.76681">
        <ele>174.6165771</ele>
        <time>2012-08-24T07:27:46Z</time>
      </trkpt>
      <trkpt lat="47.08324" lon="-0.76633">
        <ele>173.6552734</ele>
        <time>2012-08-24T07:27:52Z</time>
      </trkpt>
      <trkpt lat="47.08323" lon="-0.76618">
        <ele>172.6939697</ele>
        <time>2012-08-24T07:27:54Z</time>
      </trkpt>
      <trkpt lat="47.08323" lon="-0.76585">
        <ele>173.1746826</ele>
        <time>2012-08-24T07:27:58Z</time>
      </trkpt>
      <trkpt lat="47.08324" lon="-0.76554">
        <ele>174.6165771</ele>
        <time>2012-08-24T07:28:02Z</time>
      </trkpt>
      <trkpt lat="47.08323" lon="-0.76522">
        <ele>172.6939697</ele>
        <time>2012-08-24T07:28:07Z</time>
      </trkpt>
      <trkpt lat="47.08322" lon="-0.76484">
        <ele>178.942627</ele>
        <time>2012-08-24T07:28:12Z</time>
      </trkpt>
      <trkpt lat="47.08319" lon="-0.76459">
        <ele>180.8652344</ele>
        <time>2012-08-24T07:28:16Z</time>
      </trkpt>
      <trkpt lat="47.08323" lon="-0.76433">
        <ele>184.2298584</ele>
        <time>2012-08-24T07:28:20Z</time>
      </trkpt>
      <trkpt lat="47.08329" lon="-0.76403">
        <ele>188.0750732</ele>
        <time>2012-08-24T07:28:24Z</time>
      </trkpt>
      <trkpt lat="47.0833" lon="-0.76375">
        <ele>186.6331787</ele>
        <time>2012-08-24T07:28:28Z</time>
      </trkpt>
      <trkpt lat="47.08331" lon="-0.7636">
        <ele>187.1137695</ele>
        <time>2012-08-24T07:28:30Z</time>
      </trkpt>
      <trkpt lat="47.08332" lon="-0.76326">
        <ele>186.6331787</ele>
        <time>2012-08-24T07:28:34Z</time>
      </trkpt>
      <trkpt lat="47.08343" lon="-0.76277">
        <ele>185.1911621</ele>
        <time>2012-08-24T07:28:41Z</time>
      </trkpt>
      <trkpt lat="47.08344" lon="-0.76269">
        <ele>184.7105713</ele>
        <time>2012-08-24T07:28:42Z</time>
      </trkpt>
      <trkpt lat="47.08347" lon="-0.76242">
        <ele>179.4232178</ele>
        <time>2012-08-24T07:28:46Z</time>
      </trkpt>
      <trkpt lat="47.0835" lon="-0.76227">
        <ele>177.9812012</ele>
        <time>2012-08-24T07:28:48Z</time>
      </trkpt>
      <trkpt lat="47.08359" lon="-0.76184">
        <ele>174.1358643</ele>
        <time>2012-08-24T07:28:54Z</time>
      </trkpt>
      <trkpt lat="47.08369" lon="-0.76166">
        <ele>173.1746826</ele>
        <time>2012-08-24T07:28:56Z</time>
      </trkpt>
      <trkpt lat="47.08378" lon="-0.7613">
        <ele>172.6939697</ele>
        <time>2012-08-24T07:29:01Z</time>
      </trkpt>
      <trkpt lat="47.0838" lon="-0.76123">
        <ele>172.6939697</ele>
        <time>2012-08-24T07:29:02Z</time>
      </trkpt>
      <trkpt lat="47.08384" lon="-0.76111">
        <ele>172.2132568</ele>
        <time>2012-08-24T07:29:04Z</time>
      </trkpt>
      <trkpt lat="47.08396" lon="-0.76082">
        <ele>176.5393066</ele>
        <time>2012-08-24T07:29:08Z</time>
      </trkpt>
      <trkpt lat="47.08409" lon="-0.76047">
        <ele>178.942627</ele>
        <time>2012-08-24T07:29:13Z</time>
      </trkpt>
      <trkpt lat="47.08418" lon="-0.76027">
        <ele>181.826416</ele>
        <time>2012-08-24T07:29:16Z</time>
      </trkpt>
      <trkpt lat="47.08431" lon="-0.75998">
        <ele>178.942627</ele>
        <time>2012-08-24T07:29:21Z</time>
      </trkpt>
      <trkpt lat="47.08443" lon="-0.75977">
        <ele>179.9038086</ele>
        <time>2012-08-24T07:29:24Z</time>
      </trkpt>
      <trkpt lat="47.08457" lon="-0.75954">
        <ele>179.9038086</ele>
        <time>2012-08-24T07:29:28Z</time>
      </trkpt>
      <trkpt lat="47.08475" lon="-0.75936">
        <ele>182.3071289</ele>
        <time>2012-08-24T07:29:33Z</time>
      </trkpt>
      <trkpt lat="47.0848" lon="-0.75931">
        <ele>180.3845215</ele>
        <time>2012-08-24T07:29:34Z</time>
      </trkpt>
      <trkpt lat="47.08494" lon="-0.75911">
        <ele>172.6939697</ele>
        <time>2012-08-24T07:29:39Z</time>
      </trkpt>
      <trkpt lat="47.08496" lon="-0.75905">
        <ele>172.6939697</ele>
        <time>2012-08-24T07:29:40Z</time>
      </trkpt>
      <trkpt lat="47.08502" lon="-0.75892">
        <ele>173.6552734</ele>
        <time>2012-08-24T07:29:42Z</time>
      </trkpt>
      <trkpt lat="47.08521" lon="-0.75861">
        <ele>172.2132568</ele>
        <time>2012-08-24T07:29:47Z</time>
      </trkpt>
      <trkpt lat="47.08531" lon="-0.75836">
        <ele>170.2906494</ele>
        <time>2012-08-24T07:29:50Z</time>
      </trkpt>
      <trkpt lat="47.08544" lon="-0.75821">
        <ele>167.8873291</ele>
        <time>2012-08-24T07:29:53Z</time>
      </trkpt>
      <trkpt lat="47.08555" lon="-0.75806">
        <ele>167.4067383</ele>
        <time>2012-08-24T07:29:56Z</time>
      </trkpt>
      <trkpt lat="47.08576" lon="-0.75777">
        <ele>170.2906494</ele>
        <time>2012-08-24T07:30:01Z</time>
      </trkpt>
      <trkpt lat="47.08602" lon="-0.75748">
        <ele>171.732666</ele>
        <time>2012-08-24T07:30:07Z</time>
      </trkpt>
      <trkpt lat="47.08609" lon="-0.75739">
        <ele>171.732666</ele>
        <time>2012-08-24T07:30:09Z</time>
      </trkpt>
      <trkpt lat="47.08625" lon="-0.75697">
        <ele>172.6939697</ele>
        <time>2012-08-24T07:30:15Z</time>
      </trkpt>
      <trkpt lat="47.08631" lon="-0.75677">
        <ele>172.2132568</ele>
        <time>2012-08-24T07:30:18Z</time>
      </trkpt>
      <trkpt lat="47.08637" lon="-0.75656">
        <ele>172.6939697</ele>
        <time>2012-08-24T07:30:21Z</time>
      </trkpt>
      <trkpt lat="47.08639" lon="-0.75644">
        <ele>173.6552734</ele>
        <time>2012-08-24T07:30:23Z</time>
      </trkpt>
      <trkpt lat="47.08641" lon="-0.75616">
        <ele>173.1746826</ele>
        <time>2012-08-24T07:30:28Z</time>
      </trkpt>
      <trkpt lat="47.08633" lon="-0.7557">
        <ele>173.1746826</ele>
        <time>2012-08-24T07:30:36Z</time>
      </trkpt>
      <trkpt lat="47.08622" lon="-0.7552">
        <ele>171.732666</ele>
        <time>2012-08-24T07:30:44Z</time>
      </trkpt>
      <trkpt lat="47.08615" lon="-0.7549">
        <ele>172.2132568</ele>
        <time>2012-08-24T07:30:49Z</time>
      </trkpt>
      <trkpt lat="47.0861" lon="-0.75466">
        <ele>170.7713623</ele>
        <time>2012-08-24T07:30:53Z</time>
      </trkpt>
      <trkpt lat="47.08604" lon="-0.75441">
        <ele>171.2520752</ele>
        <time>2012-08-24T07:30:58Z</time>
      </trkpt>
      <trkpt lat="47.08602" lon="-0.75429">
        <ele>170.7713623</ele>
        <time>2012-08-24T07:31:00Z</time>
      </trkpt>
      <trkpt lat="47.08599" lon="-0.75416">
        <ele>170.7713623</ele>
        <time>2012-08-24T07:31:02Z</time>
      </trkpt>
      <trkpt lat="47.08591" lon="-0.7537">
        <ele>169.8100586</ele>
        <time>2012-08-24T07:31:08Z</time>
      </trkpt>
      <trkpt lat="47.08582" lon="-0.7533">
        <ele>171.2520752</ele>
        <time>2012-08-24T07:31:13Z</time>
      </trkpt>
      <trkpt lat="47.08579" lon="-0.75315">
        <ele>171.732666</ele>
        <time>2012-08-24T07:31:15Z</time>
      </trkpt>
      <trkpt lat="47.08562" lon="-0.75264">
        <ele>173.1746826</ele>
        <time>2012-08-24T07:31:21Z</time>
      </trkpt>
      <trkpt lat="47.08544" lon="-0.75224">
        <ele>172.6939697</ele>
        <time>2012-08-24T07:31:26Z</time>
      </trkpt>
      <trkpt lat="47.08522" lon="-0.7518">
        <ele>171.732666</ele>
        <time>2012-08-24T07:31:31Z</time>
      </trkpt>
      <trkpt lat="47.08503" lon="-0.75147">
        <ele>170.2906494</ele>
        <time>2012-08-24T07:31:35Z</time>
      </trkpt>
      <trkpt lat="47.08483" lon="-0.75109">
        <ele>167.4067383</ele>
        <time>2012-08-24T07:31:40Z</time>
      </trkpt>
      <trkpt lat="47.08474" lon="-0.75086">
        <ele>165.4841309</ele>
        <time>2012-08-24T07:31:43Z</time>
      </trkpt>
      <trkpt lat="47.0845" lon="-0.7504">
        <ele>166.4453125</ele>
        <time>2012-08-24T07:31:49Z</time>
      </trkpt>
      <trkpt lat="47.08431" lon="-0.74999">
        <ele>167.4067383</ele>
        <time>2012-08-24T07:31:54Z</time>
      </trkpt>
      <trkpt lat="47.08415" lon="-0.74968">
        <ele>168.368042</ele>
        <time>2012-08-24T07:31:58Z</time>
      </trkpt>
      <trkpt lat="47.08389" lon="-0.74915">
        <ele>168.8487549</ele>
        <time>2012-08-24T07:32:05Z</time>
      </trkpt>
      <trkpt lat="47.08368" lon="-0.74868">
        <ele>167.8873291</ele>
        <time>2012-08-24T07:32:11Z</time>
      </trkpt>
      <trkpt lat="47.08355" lon="-0.74838">
        <ele>168.8487549</ele>
        <time>2012-08-24T07:32:15Z</time>
      </trkpt>
      <trkpt lat="47.08336" lon="-0.74786">
        <ele>169.3294678</ele>
        <time>2012-08-24T07:32:22Z</time>
      </trkpt>
      <trkpt lat="47.08324" lon="-0.74754">
        <ele>169.8100586</ele>
        <time>2012-08-24T07:32:26Z</time>
      </trkpt>
      <trkpt lat="47.08311" lon="-0.74719">
        <ele>170.2906494</ele>
        <time>2012-08-24T07:32:30Z</time>
      </trkpt>
      <trkpt lat="47.08297" lon="-0.74672">
        <ele>171.2520752</ele>
        <time>2012-08-24T07:32:36Z</time>
      </trkpt>
      <trkpt lat="47.08287" lon="-0.74636">
        <ele>172.2132568</ele>
        <time>2012-08-24T07:32:41Z</time>
      </trkpt>
      <trkpt lat="47.08278" lon="-0.74594">
        <ele>177.9812012</ele>
        <time>2012-08-24T07:32:47Z</time>
      </trkpt>
      <trkpt lat="47.08274" lon="-0.74581">
        <ele>177.5006104</ele>
        <time>2012-08-24T07:32:49Z</time>
      </trkpt>
      <trkpt lat="47.08274" lon="-0.74549">
        <ele>177.5006104</ele>
        <time>2012-08-24T07:32:54Z</time>
      </trkpt>
      <trkpt lat="47.08278" lon="-0.74537">
        <ele>178.4619141</ele>
        <time>2012-08-24T07:32:56Z</time>
      </trkpt>
      <trkpt lat="47.08289" lon="-0.74502">
        <ele>185.1911621</ele>
        <time>2012-08-24T07:33:02Z</time>
      </trkpt>
      <trkpt lat="47.08298" lon="-0.7448">
        <ele>184.2298584</ele>
        <time>2012-08-24T07:33:06Z</time>
      </trkpt>
      <trkpt lat="47.08306" lon="-0.74456">
        <ele>183.2684326</ele>
        <time>2012-08-24T07:33:10Z</time>
      </trkpt>
      <trkpt lat="47.08318" lon="-0.74423">
        <ele>183.2684326</ele>
        <time>2012-08-24T07:33:15Z</time>
      </trkpt>
      <trkpt lat="47.08328" lon="-0.74391">
        <ele>182.7878418</ele>
        <time>2012-08-24T07:33:20Z</time>
      </trkpt>
      <trkpt lat="47.08329" lon="-0.74384">
        <ele>182.7878418</ele>
        <time>2012-08-24T07:33:21Z</time>
      </trkpt>
      <trkpt lat="47.08338" lon="-0.74359">
        <ele>185.6717529</ele>
        <time>2012-08-24T07:33:25Z</time>
      </trkpt>
      <trkpt lat="47.08345" lon="-0.74338">
        <ele>187.5943604</ele>
        <time>2012-08-24T07:33:29Z</time>
      </trkpt>
      <trkpt lat="47.08348" lon="-0.74329">
        <ele>186.6331787</ele>
        <time>2012-08-24T07:33:31Z</time>
      </trkpt>
      <trkpt lat="47.08356" lon="-0.74305">
        <ele>189.5169678</ele>
        <time>2012-08-24T07:33:36Z</time>
      </trkpt>
      <trkpt lat="47.08375" lon="-0.7428">
        <ele>189.036377</ele>
        <time>2012-08-24T07:33:42Z</time>
      </trkpt>
      <trkpt lat="47.08389" lon="-0.74267">
        <ele>184.7105713</ele>
        <time>2012-08-24T07:33:46Z</time>
      </trkpt>
      <trkpt lat="47.08417" lon="-0.74245">
        <ele>182.7878418</ele>
        <time>2012-08-24T07:33:52Z</time>
      </trkpt>
      <trkpt lat="47.08426" lon="-0.74239">
        <ele>182.3071289</ele>
        <time>2012-08-24T07:33:54Z</time>
      </trkpt>
      <trkpt lat="47.0845" lon="-0.74221">
        <ele>180.3845215</ele>
        <time>2012-08-24T07:33:59Z</time>
      </trkpt>
      <trkpt lat="47.0846" lon="-0.74211">
        <ele>179.9038086</ele>
        <time>2012-08-24T07:34:02Z</time>
      </trkpt>
      <trkpt lat="47.08471" lon="-0.74181">
        <ele>175.5778809</ele>
        <time>2012-08-24T07:34:07Z</time>
      </trkpt>
      <trkpt lat="47.08469" lon="-0.74152">
        <ele>173.6552734</ele>
        <time>2012-08-24T07:34:11Z</time>
      </trkpt>
      <trkpt lat="47.08467" lon="-0.74137">
        <ele>173.1746826</ele>
        <time>2012-08-24T07:34:13Z</time>
      </trkpt>
      <trkpt lat="47.08465" lon="-0.74121">
        <ele>173.1746826</ele>
        <time>2012-08-24T07:34:15Z</time>
      </trkpt>
      <trkpt lat="47.08458" lon="-0.74094">
        <ele>172.2132568</ele>
        <time>2012-08-24T07:34:19Z</time>
      </trkpt>
      <trkpt lat="47.08454" lon="-0.7408">
        <ele>172.6939697</ele>
        <time>2012-08-24T07:34:21Z</time>
      </trkpt>
      <trkpt lat="47.08446" lon="-0.74049">
        <ele>176.5393066</ele>
        <time>2012-08-24T07:34:25Z</time>
      </trkpt>
      <trkpt lat="47.0844" lon="-0.74023">
        <ele>177.5006104</ele>
        <time>2012-08-24T07:34:29Z</time>
      </trkpt>
      <trkpt lat="47.08442" lon="-0.73998">
        <ele>185.6717529</ele>
        <time>2012-08-24T07:34:34Z</time>
      </trkpt>
      <trkpt lat="47.08451" lon="-0.73993">
        <ele>189.9976807</ele>
        <time>2012-08-24T07:34:37Z</time>
      </trkpt>
      <trkpt lat="47.08476" lon="-0.73985">
        <ele>190.9589844</ele>
        <time>2012-08-24T07:34:41Z</time>
      </trkpt>
      <trkpt lat="47.0851" lon="-0.73988">
        <ele>191.4395752</ele>
        <time>2012-08-24T07:34:46Z</time>
      </trkpt>
      <trkpt lat="47.08516" lon="-0.73989">
        <ele>193.8430176</ele>
        <time>2012-08-24T07:34:47Z</time>
      </trkpt>
      <trkpt lat="47.08555" lon="-0.73984">
        <ele>190.9589844</ele>
        <time>2012-08-24T07:34:54Z</time>
      </trkpt>
      <trkpt lat="47.08562" lon="-0.73984">
        <ele>190.4783936</ele>
        <time>2012-08-24T07:34:56Z</time>
      </trkpt>
      <trkpt lat="47.08575" lon="-0.73982">
        <ele>189.5169678</ele>
        <time>2012-08-24T07:35:00Z</time>
      </trkpt>
      <trkpt lat="47.08588" lon="-0.73979">
        <ele>189.036377</ele>
        <time>2012-08-24T07:35:04Z</time>
      </trkpt>
      <trkpt lat="47.08602" lon="-0.73976">
        <ele>188.0750732</ele>
        <time>2012-08-24T07:35:10Z</time>
      </trkpt>
      <trkpt lat="47.08611" lon="-0.73972">
        <ele>187.5943604</ele>
        <time>2012-08-24T07:35:14Z</time>
      </trkpt>
      <trkpt lat="47.08633" lon="-0.73975">
        <ele>179.4232178</ele>
        <time>2012-08-24T07:35:20Z</time>
      </trkpt>
      <trkpt lat="47.0865" lon="-0.73976">
        <ele>170.7713623</ele>
        <time>2012-08-24T07:35:26Z</time>
      </trkpt>
      <trkpt lat="47.08664" lon="-0.73974">
        <ele>166.9260254</ele>
        <time>2012-08-24T07:35:30Z</time>
      </trkpt>
      <trkpt lat="47.08679" lon="-0.7397">
        <ele>161.1582031</ele>
        <time>2012-08-24T07:35:35Z</time>
      </trkpt>
      <trkpt lat="47.08686" lon="-0.73973">
        <ele>158.7547607</ele>
        <time>2012-08-24T07:35:39Z</time>
      </trkpt>
      <trkpt lat="47.08704" lon="-0.7397">
        <ele>155.3902588</ele>
        <time>2012-08-24T07:35:44Z</time>
      </trkpt>
      <trkpt lat="47.08718" lon="-0.73968">
        <ele>154.9095459</ele>
        <time>2012-08-24T07:35:48Z</time>
      </trkpt>
      <trkpt lat="47.08726" lon="-0.73966">
        <ele>154.9095459</ele>
        <time>2012-08-24T07:35:50Z</time>
      </trkpt>
      <trkpt lat="47.08756" lon="-0.73952">
        <ele>159.2354736</ele>
        <time>2012-08-24T07:35:55Z</time>
      </trkpt>
      <trkpt lat="47.08764" lon="-0.7395">
        <ele>160.1968994</ele>
        <time>2012-08-24T07:35:58Z</time>
      </trkpt>
      <trkpt lat="47.0877" lon="-0.73947">
        <ele>159.7161865</ele>
        <time>2012-08-24T07:36:01Z</time>
      </trkpt>
      <trkpt lat="47.08787" lon="-0.73941">
        <ele>162.6000977</ele>
        <time>2012-08-24T07:36:07Z</time>
      </trkpt>
      <trkpt lat="47.08792" lon="-0.73937">
        <ele>162.6000977</ele>
        <time>2012-08-24T07:36:09Z</time>
      </trkpt>
      <trkpt lat="47.08805" lon="-0.73934">
        <ele>163.0808105</ele>
        <time>2012-08-24T07:36:13Z</time>
      </trkpt>
      <trkpt lat="47.08815" lon="-0.73935">
        <ele>161.638916</ele>
        <time>2012-08-24T07:36:18Z</time>
      </trkpt>
      <trkpt lat="47.08818" lon="-0.73933">
        <ele>159.2354736</ele>
        <time>2012-08-24T07:36:20Z</time>
      </trkpt>
      <trkpt lat="47.0883" lon="-0.73923">
        <ele>153.4676514</ele>
        <time>2012-08-24T07:36:26Z</time>
      </trkpt>
      <trkpt lat="47.08843" lon="-0.73913">
        <ele>149.6223145</ele>
        <time>2012-08-24T07:36:31Z</time>
      </trkpt>
      <trkpt lat="47.08853" lon="-0.73899">
        <ele>142.8930664</ele>
        <time>2012-08-24T07:36:36Z</time>
      </trkpt>
      <trkpt lat="47.08875" lon="-0.73892">
        <ele>141.4510498</ele>
        <time>2012-08-24T07:36:40Z</time>
      </trkpt>
      <trkpt lat="47.08901" lon="-0.73882">
        <ele>141.4510498</ele>
        <time>2012-08-24T07:36:45Z</time>
      </trkpt>
      <trkpt lat="47.08913" lon="-0.73878">
        <ele>141.4510498</ele>
        <time>2012-08-24T07:36:47Z</time>
      </trkpt>
      <trkpt lat="47.08924" lon="-0.73874">
        <ele>140.970459</ele>
        <time>2012-08-24T07:36:49Z</time>
      </trkpt>
      <trkpt lat="47.08942" lon="-0.7386">
        <ele>138.0865479</ele>
        <time>2012-08-24T07:36:53Z</time>
      </trkpt>
      <trkpt lat="47.08965" lon="-0.73845">
        <ele>140.0091553</ele>
        <time>2012-08-24T07:36:57Z</time>
      </trkpt>
      <trkpt lat="47.08985" lon="-0.73826">
        <ele>138.5672607</ele>
        <time>2012-08-24T07:37:02Z</time>
      </trkpt>
      <trkpt lat="47.09" lon="-0.73806">
        <ele>139.0478516</ele>
        <time>2012-08-24T07:37:05Z</time>
      </trkpt>
      <trkpt lat="47.09022" lon="-0.73753">
        <ele>139.5284424</ele>
        <time>2012-08-24T07:37:12Z</time>
      </trkpt>
      <trkpt lat="47.0903" lon="-0.73731">
        <ele>138.5672607</ele>
        <time>2012-08-24T07:37:16Z</time>
      </trkpt>
      <trkpt lat="47.09043" lon="-0.73688">
        <ele>139.5284424</ele>
        <time>2012-08-24T07:37:22Z</time>
      </trkpt>
      <trkpt lat="47.09055" lon="-0.73654">
        <ele>139.5284424</ele>
        <time>2012-08-24T07:37:27Z</time>
      </trkpt>
      <trkpt lat="47.09063" lon="-0.73639">
        <ele>138.0865479</ele>
        <time>2012-08-24T07:37:31Z</time>
      </trkpt>
      <trkpt lat="47.09074" lon="-0.73644">
        <ele>138.0865479</ele>
        <time>2012-08-24T07:37:34Z</time>
      </trkpt>
      <trkpt lat="47.09092" lon="-0.73662">
        <ele>139.0478516</ele>
        <time>2012-08-24T07:37:38Z</time>
      </trkpt>
      <trkpt lat="47.09152" lon="-0.73691">
        <ele>157.3128662</ele>
        <time>2012-08-24T07:37:45Z</time>
      </trkpt>
      <trkpt lat="47.09201" lon="-0.73711">
        <ele>171.732666</ele>
        <time>2012-08-24T07:37:50Z</time>
      </trkpt>
      <trkpt lat="47.09235" lon="-0.73737">
        <ele>177.5006104</ele>
        <time>2012-08-24T07:37:54Z</time>
      </trkpt>
      <trkpt lat="47.09262" lon="-0.73766">
        <ele>180.8652344</ele>
        <time>2012-08-24T07:37:59Z</time>
      </trkpt>
      <trkpt lat="47.09293" lon="-0.73795">
        <ele>181.3458252</ele>
        <time>2012-08-24T07:38:04Z</time>
      </trkpt>
      <trkpt lat="47.09305" lon="-0.738">
        <ele>182.3071289</ele>
        <time>2012-08-24T07:38:07Z</time>
      </trkpt>
      <trkpt lat="47.0931" lon="-0.73816">
        <ele>182.3071289</ele>
        <time>2012-08-24T07:38:10Z</time>
      </trkpt>
      <trkpt lat="47.09311" lon="-0.73848">
        <ele>182.3071289</ele>
        <time>2012-08-24T07:38:14Z</time>
      </trkpt>
      <trkpt lat="47.09307" lon="-0.73903">
        <ele>182.3071289</ele>
        <time>2012-08-24T07:38:21Z</time>
      </trkpt>
      <trkpt lat="47.09305" lon="-0.73909">
        <ele>182.3071289</ele>
        <time>2012-08-24T07:38:22Z</time>
      </trkpt>
      <trkpt lat="47.09313" lon="-0.73918">
        <ele>180.8652344</ele>
        <time>2012-08-24T07:38:26Z</time>
      </trkpt>
      <trkpt lat="47.09321" lon="-0.73904">
        <ele>179.4232178</ele>
        <time>2012-08-24T07:38:29Z</time>
      </trkpt>
      <trkpt lat="47.09324" lon="-0.73899">
        <ele>179.4232178</ele>
        <time>2012-08-24T07:38:30Z</time>
      </trkpt>
      <trkpt lat="47.09333" lon="-0.73882">
        <ele>178.4619141</ele>
        <time>2012-08-24T07:38:35Z</time>
      </trkpt>
      <trkpt lat="47.09334" lon="-0.73876">
        <ele>177.9812012</ele>
        <time>2012-08-24T07:38:36Z</time>
      </trkpt>
      <trkpt lat="47.09348" lon="-0.73862">
        <ele>177.0200195</ele>
        <time>2012-08-24T07:38:41Z</time>
      </trkpt>
      <trkpt lat="47.09359" lon="-0.73849">
        <ele>177.0200195</ele>
        <time>2012-08-24T07:38:45Z</time>
      </trkpt>
      <trkpt lat="47.09373" lon="-0.73828">
        <ele>177.9812012</ele>
        <time>2012-08-24T07:38:49Z</time>
      </trkpt>
      <trkpt lat="47.09381" lon="-0.73817">
        <ele>177.9812012</ele>
        <time>2012-08-24T07:38:51Z</time>
      </trkpt>
      <trkpt lat="47.09397" lon="-0.73796">
        <ele>176.5393066</ele>
        <time>2012-08-24T07:38:55Z</time>
      </trkpt>
      <trkpt lat="47.09429" lon="-0.73785">
        <ele>176.0585938</ele>
        <time>2012-08-24T07:38:59Z</time>
      </trkpt>
      <trkpt lat="47.09437" lon="-0.73784">
        <ele>175.5778809</ele>
        <time>2012-08-24T07:39:00Z</time>
      </trkpt>
      <trkpt lat="47.09475" lon="-0.73785">
        <ele>175.09729</ele>
        <time>2012-08-24T07:39:05Z</time>
      </trkpt>
      <trkpt lat="47.09512" lon="-0.73789">
        <ele>174.6165771</ele>
        <time>2012-08-24T07:39:10Z</time>
      </trkpt>
      <trkpt lat="47.09541" lon="-0.73798">
        <ele>173.6552734</ele>
        <time>2012-08-24T07:39:15Z</time>
      </trkpt>
      <trkpt lat="47.0957" lon="-0.738">
        <ele>173.1746826</ele>
        <time>2012-08-24T07:39:21Z</time>
      </trkpt>
      <trkpt lat="47.09597" lon="-0.73801">
        <ele>175.5778809</ele>
        <time>2012-08-24T07:39:27Z</time>
      </trkpt>
      <trkpt lat="47.09606" lon="-0.73802">
        <ele>176.0585938</ele>
        <time>2012-08-24T07:39:29Z</time>
      </trkpt>
      <trkpt lat="47.09626" lon="-0.73803">
        <ele>176.5393066</ele>
        <time>2012-08-24T07:39:34Z</time>
      </trkpt>
      <trkpt lat="47.09641" lon="-0.73804">
        <ele>179.4232178</ele>
        <time>2012-08-24T07:39:39Z</time>
      </trkpt>
      <trkpt lat="47.09653" lon="-0.73805">
        <ele>181.3458252</ele>
        <time>2012-08-24T07:39:44Z</time>
      </trkpt>
      <trkpt lat="47.09671" lon="-0.73806">
        <ele>181.3458252</ele>
        <time>2012-08-24T07:39:51Z</time>
      </trkpt>
      <trkpt lat="47.0969" lon="-0.7381">
        <ele>184.7105713</ele>
        <time>2012-08-24T07:39:57Z</time>
      </trkpt>
      <trkpt lat="47.09712" lon="-0.73813">
        <ele>184.2298584</ele>
        <time>2012-08-24T07:40:03Z</time>
      </trkpt>
      <trkpt lat="47.09731" lon="-0.73814">
        <ele>183.2684326</ele>
        <time>2012-08-24T07:40:08Z</time>
      </trkpt>
      <trkpt lat="47.09751" lon="-0.73814">
        <ele>181.3458252</ele>
        <time>2012-08-24T07:40:14Z</time>
      </trkpt>
      <trkpt lat="47.09774" lon="-0.73814">
        <ele>180.3845215</ele>
        <time>2012-08-24T07:40:20Z</time>
      </trkpt>
      <trkpt lat="47.09786" lon="-0.73814">
        <ele>180.3845215</ele>
        <time>2012-08-24T07:40:22Z</time>
      </trkpt>
      <trkpt lat="47.09803" lon="-0.73818">
        <ele>180.8652344</ele>
        <time>2012-08-24T07:40:25Z</time>
      </trkpt>
      <trkpt lat="47.09824" lon="-0.73816">
        <ele>180.3845215</ele>
        <time>2012-08-24T07:40:30Z</time>
      </trkpt>
      <trkpt lat="47.09826" lon="-0.73816">
        <ele>180.8652344</ele>
        <time>2012-08-24T07:40:31Z</time>
      </trkpt>
      <trkpt lat="47.09831" lon="-0.73816">
        <ele>179.9038086</ele>
        <time>2012-08-24T07:40:34Z</time>
      </trkpt>
      <trkpt lat="47.0984" lon="-0.73824">
        <ele>178.942627</ele>
        <time>2012-08-24T07:40:39Z</time>
      </trkpt>
      <trkpt lat="47.09843" lon="-0.73824">
        <ele>178.942627</ele>
        <time>2012-08-24T07:40:40Z</time>
      </trkpt>
      <trkpt lat="47.09869" lon="-0.73821">
        <ele>179.4232178</ele>
        <time>2012-08-24T07:40:46Z</time>
      </trkpt>
      <trkpt lat="47.09878" lon="-0.73823">
        <ele>179.4232178</ele>
        <time>2012-08-24T07:40:48Z</time>
      </trkpt>
      <trkpt lat="47.09892" lon="-0.73826">
        <ele>178.942627</ele>
        <time>2012-08-24T07:40:51Z</time>
      </trkpt>
      <trkpt lat="47.09914" lon="-0.7384">
        <ele>177.0200195</ele>
        <time>2012-08-24T07:40:56Z</time>
      </trkpt>
      <trkpt lat="47.09922" lon="-0.73848">
        <ele>176.0585938</ele>
        <time>2012-08-24T07:40:58Z</time>
      </trkpt>
      <trkpt lat="47.09942" lon="-0.73882">
        <ele>174.6165771</ele>
        <time>2012-08-24T07:41:04Z</time>
      </trkpt>
      <trkpt lat="47.09957" lon="-0.73899">
        <ele>173.6552734</ele>
        <time>2012-08-24T07:41:09Z</time>
      </trkpt>
      <trkpt lat="47.0997" lon="-0.73903">
        <ele>171.732666</ele>
        <time>2012-08-24T07:41:12Z</time>
      </trkpt>
      <trkpt lat="47.10002" lon="-0.73905">
        <ele>173.1746826</ele>
        <time>2012-08-24T07:41:17Z</time>
      </trkpt>
      <trkpt lat="47.10041" lon="-0.73897">
        <ele>171.2520752</ele>
        <time>2012-08-24T07:41:23Z</time>
      </trkpt>
      <trkpt lat="47.10048" lon="-0.73895">
        <ele>171.2520752</ele>
        <time>2012-08-24T07:41:24Z</time>
      </trkpt>
      <trkpt lat="47.10078" lon="-0.73895">
        <ele>171.732666</ele>
        <time>2012-08-24T07:41:28Z</time>
      </trkpt>
      <trkpt lat="47.10101" lon="-0.73893">
        <ele>171.732666</ele>
        <time>2012-08-24T07:41:31Z</time>
      </trkpt>
      <trkpt lat="47.10125" lon="-0.73891">
        <ele>171.2520752</ele>
        <time>2012-08-24T07:41:34Z</time>
      </trkpt>
      <trkpt lat="47.10129" lon="-0.73891">
        <ele>170.7713623</ele>
        <time>2012-08-24T07:41:35Z</time>
      </trkpt>
      <trkpt lat="47.10137" lon="-0.73887">
        <ele>171.2520752</ele>
        <time>2012-08-24T07:41:37Z</time>
      </trkpt>
      <trkpt lat="47.10146" lon="-0.73883">
        <ele>169.8100586</ele>
        <time>2012-08-24T07:41:43Z</time>
      </trkpt>
      <trkpt lat="47.10146" lon="-0.73882">
        <ele>169.3294678</ele>
        <time>2012-08-24T07:41:48Z</time>
      </trkpt>
      <trkpt lat="47.10151" lon="-0.7388">
        <ele>170.2906494</ele>
        <time>2012-08-24T07:41:54Z</time>
      </trkpt>
      <trkpt lat="47.10154" lon="-0.7388">
        <ele>171.732666</ele>
        <time>2012-08-24T07:42:01Z</time>
      </trkpt>
      <trkpt lat="47.10161" lon="-0.73874">
        <ele>169.8100586</ele>
        <time>2012-08-24T07:42:06Z</time>
      </trkpt>
      <trkpt lat="47.10179" lon="-0.73861">
        <ele>168.368042</ele>
        <time>2012-08-24T07:42:12Z</time>
      </trkpt>
      <trkpt lat="47.10188" lon="-0.7387">
        <ele>168.368042</ele>
        <time>2012-08-24T07:42:16Z</time>
      </trkpt>
      <trkpt lat="47.10201" lon="-0.73896">
        <ele>167.4067383</ele>
        <time>2012-08-24T07:42:21Z</time>
      </trkpt>
      <trkpt lat="47.10223" lon="-0.73935">
        <ele>166.4453125</ele>
        <time>2012-08-24T07:42:28Z</time>
      </trkpt>
      <trkpt lat="47.10243" lon="-0.7395">
        <ele>165.9647217</ele>
        <time>2012-08-24T07:42:33Z</time>
      </trkpt>
      <trkpt lat="47.10276" lon="-0.73946">
        <ele>167.8873291</ele>
        <time>2012-08-24T07:42:40Z</time>
      </trkpt>
      <trkpt lat="47.1031" lon="-0.7394">
        <ele>169.3294678</ele>
        <time>2012-08-24T07:42:47Z</time>
      </trkpt>
      <trkpt lat="47.10331" lon="-0.73936">
        <ele>167.8873291</ele>
        <time>2012-08-24T07:42:52Z</time>
      </trkpt>
      <trkpt lat="47.10342" lon="-0.73932">
        <ele>166.9260254</ele>
        <time>2012-08-24T07:42:55Z</time>
      </trkpt>
      <trkpt lat="47.10355" lon="-0.73911">
        <ele>165.9647217</ele>
        <time>2012-08-24T07:42:59Z</time>
      </trkpt>
      <trkpt lat="47.10375" lon="-0.73852">
        <ele>164.0421143</ele>
        <time>2012-08-24T07:43:07Z</time>
      </trkpt>
      <trkpt lat="47.10382" lon="-0.73837">
        <ele>164.0421143</ele>
        <time>2012-08-24T07:43:09Z</time>
      </trkpt>
      <trkpt lat="47.10409" lon="-0.73797">
        <ele>163.0808105</ele>
        <time>2012-08-24T07:43:15Z</time>
      </trkpt>
      <trkpt lat="47.10439" lon="-0.73764">
        <ele>163.0808105</ele>
        <time>2012-08-24T07:43:21Z</time>
      </trkpt>
      <trkpt lat="47.10444" lon="-0.73758">
        <ele>163.5615234</ele>
        <time>2012-08-24T07:43:22Z</time>
      </trkpt>
      <trkpt lat="47.10479" lon="-0.73702">
        <ele>164.5227051</ele>
        <time>2012-08-24T07:43:30Z</time>
      </trkpt>
      <trkpt lat="47.10504" lon="-0.73668">
        <ele>164.0421143</ele>
        <time>2012-08-24T07:43:35Z</time>
      </trkpt>
      <trkpt lat="47.10547" lon="-0.73631">
        <ele>162.1195068</ele>
        <time>2012-08-24T07:43:42Z</time>
      </trkpt>
      <trkpt lat="47.10568" lon="-0.736">
        <ele>161.638916</ele>
        <time>2012-08-24T07:43:47Z</time>
      </trkpt>
      <trkpt lat="47.10587" lon="-0.73563">
        <ele>161.1582031</ele>
        <time>2012-08-24T07:43:52Z</time>
      </trkpt>
      <trkpt lat="47.10621" lon="-0.73506">
        <ele>160.1968994</ele>
        <time>2012-08-24T07:44:00Z</time>
      </trkpt>
      <trkpt lat="47.10631" lon="-0.73494">
        <ele>159.7161865</ele>
        <time>2012-08-24T07:44:02Z</time>
      </trkpt>
      <trkpt lat="47.10676" lon="-0.73469">
        <ele>159.2354736</ele>
        <time>2012-08-24T07:44:09Z</time>
      </trkpt>
      <trkpt lat="47.10717" lon="-0.73463">
        <ele>159.2354736</ele>
        <time>2012-08-24T07:44:15Z</time>
      </trkpt>
      <trkpt lat="47.10731" lon="-0.73462">
        <ele>159.7161865</ele>
        <time>2012-08-24T07:44:17Z</time>
      </trkpt>
      <trkpt lat="47.10783" lon="-0.7344">
        <ele>158.7547607</ele>
        <time>2012-08-24T07:44:25Z</time>
      </trkpt>
      <trkpt lat="47.10826" lon="-0.73412">
        <ele>156.8321533</ele>
        <time>2012-08-24T07:44:32Z</time>
      </trkpt>
      <trkpt lat="47.10838" lon="-0.73402">
        <ele>156.3515625</ele>
        <time>2012-08-24T07:44:35Z</time>
      </trkpt>
      <trkpt lat="47.10854" lon="-0.73373">
        <ele>153.4676514</ele>
        <time>2012-08-24T07:44:40Z</time>
      </trkpt>
      <trkpt lat="47.10862" lon="-0.73355">
        <ele>152.5063477</ele>
        <time>2012-08-24T07:44:43Z</time>
      </trkpt>
      <trkpt lat="47.10878" lon="-0.73338">
        <ele>152.0257568</ele>
        <time>2012-08-24T07:44:47Z</time>
      </trkpt>
      <trkpt lat="47.10891" lon="-0.73328">
        <ele>152.0257568</ele>
        <time>2012-08-24T07:44:50Z</time>
      </trkpt>
      <trkpt lat="47.10906" lon="-0.7331">
        <ele>149.6223145</ele>
        <time>2012-08-24T07:44:53Z</time>
      </trkpt>
      <trkpt lat="47.1092" lon="-0.73288">
        <ele>148.1804199</ele>
        <time>2012-08-24T07:44:56Z</time>
      </trkpt>
      <trkpt lat="47.10931" lon="-0.73274">
        <ele>147.699707</ele>
        <time>2012-08-24T07:44:58Z</time>
      </trkpt>
      <trkpt lat="47.10969" lon="-0.73223">
        <ele>147.2189941</ele>
        <time>2012-08-24T07:45:03Z</time>
      </trkpt>
      <trkpt lat="47.10976" lon="-0.73213">
        <ele>147.2189941</ele>
        <time>2012-08-24T07:45:04Z</time>
      </trkpt>
      <trkpt lat="47.11017" lon="-0.73172">
        <ele>147.2189941</ele>
        <time>2012-08-24T07:45:09Z</time>
      </trkpt>
      <trkpt lat="47.11049" lon="-0.73127">
        <ele>148.1804199</ele>
        <time>2012-08-24T07:45:14Z</time>
      </trkpt>
      <trkpt lat="47.11071" lon="-0.73077">
        <ele>147.699707</ele>
        <time>2012-08-24T07:45:19Z</time>
      </trkpt>
      <trkpt lat="47.11104" lon="-0.73016">
        <ele>148.6610107</ele>
        <time>2012-08-24T07:45:26Z</time>
      </trkpt>
      <trkpt lat="47.11142" lon="-0.72957">
        <ele>146.7384033</ele>
        <time>2012-08-24T07:45:33Z</time>
      </trkpt>
      <trkpt lat="47.11147" lon="-0.72948">
        <ele>146.2578125</ele>
        <time>2012-08-24T07:45:34Z</time>
      </trkpt>
      <trkpt lat="47.11184" lon="-0.72908">
        <ele>144.3352051</ele>
        <time>2012-08-24T07:45:39Z</time>
      </trkpt>
      <trkpt lat="47.11211" lon="-0.72857">
        <ele>143.8543701</ele>
        <time>2012-08-24T07:45:44Z</time>
      </trkpt>
      <trkpt lat="47.11226" lon="-0.72827">
        <ele>143.8543701</ele>
        <time>2012-08-24T07:45:47Z</time>
      </trkpt>
      <trkpt lat="47.11245" lon="-0.7278">
        <ele>144.3352051</ele>
        <time>2012-08-24T07:45:52Z</time>
      </trkpt>
      <trkpt lat="47.11256" lon="-0.72752">
        <ele>143.8543701</ele>
        <time>2012-08-24T07:45:55Z</time>
      </trkpt>
      <trkpt lat="47.11262" lon="-0.72731">
        <ele>144.3352051</ele>
        <time>2012-08-24T07:45:57Z</time>
      </trkpt>
      <trkpt lat="47.11277" lon="-0.72683">
        <ele>141.4510498</ele>
        <time>2012-08-24T07:46:02Z</time>
      </trkpt>
      <trkpt lat="47.11287" lon="-0.72649">
        <ele>139.0478516</ele>
        <time>2012-08-24T07:46:05Z</time>
      </trkpt>
      <trkpt lat="47.11297" lon="-0.72562">
        <ele>138.5672607</ele>
        <time>2012-08-24T07:46:12Z</time>
      </trkpt>
      <trkpt lat="47.11305" lon="-0.72492">
        <ele>139.0478516</ele>
        <time>2012-08-24T07:46:18Z</time>
      </trkpt>
      <trkpt lat="47.11312" lon="-0.72435">
        <ele>138.0865479</ele>
        <time>2012-08-24T07:46:23Z</time>
      </trkpt>
      <trkpt lat="47.11325" lon="-0.72359">
        <ele>139.5284424</ele>
        <time>2012-08-24T07:46:30Z</time>
      </trkpt>
      <trkpt lat="47.11326" lon="-0.7235">
        <ele>139.5284424</ele>
        <time>2012-08-24T07:46:31Z</time>
      </trkpt>
      <trkpt lat="47.11344" lon="-0.72295">
        <ele>139.0478516</ele>
        <time>2012-08-24T07:46:37Z</time>
      </trkpt>
      <trkpt lat="47.11351" lon="-0.72278">
        <ele>139.0478516</ele>
        <time>2012-08-24T07:46:39Z</time>
      </trkpt>
      <trkpt lat="47.11372" lon="-0.72229">
        <ele>138.5672607</ele>
        <time>2012-08-24T07:46:45Z</time>
      </trkpt>
      <trkpt lat="47.11397" lon="-0.72183">
        <ele>140.4898682</ele>
        <time>2012-08-24T07:46:51Z</time>
      </trkpt>
      <trkpt lat="47.11422" lon="-0.72155">
        <ele>139.5284424</ele>
        <time>2012-08-24T07:46:55Z</time>
      </trkpt>
      <trkpt lat="47.11458" lon="-0.72133">
        <ele>138.5672607</ele>
        <time>2012-08-24T07:47:00Z</time>
      </trkpt>
      <trkpt lat="47.11506" lon="-0.72109">
        <ele>137.1252441</ele>
        <time>2012-08-24T07:47:07Z</time>
      </trkpt>
      <trkpt lat="47.11541" lon="-0.72093">
        <ele>137.605835</ele>
        <time>2012-08-24T07:47:12Z</time>
      </trkpt>
      <trkpt lat="47.11556" lon="-0.72085">
        <ele>137.1252441</ele>
        <time>2012-08-24T07:47:14Z</time>
      </trkpt>
      <trkpt lat="47.1158" lon="-0.72066">
        <ele>136.1639404</ele>
        <time>2012-08-24T07:47:18Z</time>
      </trkpt>
      <trkpt lat="47.11609" lon="-0.72029">
        <ele>135.6831055</ele>
        <time>2012-08-24T07:47:24Z</time>
      </trkpt>
      <trkpt lat="47.1162" lon="-0.72018">
        <ele>135.2025146</ele>
        <time>2012-08-24T07:47:26Z</time>
      </trkpt>
      <trkpt lat="47.11637" lon="-0.72004">
        <ele>132.7993164</ele>
        <time>2012-08-24T07:47:29Z</time>
      </trkpt>
      <trkpt lat="47.11675" lon="-0.71985">
        <ele>132.7993164</ele>
        <time>2012-08-24T07:47:35Z</time>
      </trkpt>
      <trkpt lat="47.11696" lon="-0.7198">
        <ele>134.2412109</ele>
        <time>2012-08-24T07:47:38Z</time>
      </trkpt>
      <trkpt lat="47.11716" lon="-0.71976">
        <ele>135.2025146</ele>
        <time>2012-08-24T07:47:41Z</time>
      </trkpt>
      <trkpt lat="47.11756" lon="-0.71959">
        <ele>138.0865479</ele>
        <time>2012-08-24T07:47:48Z</time>
      </trkpt>
      <trkpt lat="47.11765" lon="-0.71952">
        <ele>136.1639404</ele>
        <time>2012-08-24T07:47:50Z</time>
      </trkpt>
      <trkpt lat="47.11778" lon="-0.71946">
        <ele>135.6831055</ele>
        <time>2012-08-24T07:47:53Z</time>
      </trkpt>
      <trkpt lat="47.11784" lon="-0.71937">
        <ele>136.1639404</ele>
        <time>2012-08-24T07:47:57Z</time>
      </trkpt>
      <trkpt lat="47.11791" lon="-0.71925">
        <ele>138.0865479</ele>
        <time>2012-08-24T07:48:03Z</time>
      </trkpt>
      <trkpt lat="47.11793" lon="-0.71925">
        <ele>139.0478516</ele>
        <time>2012-08-24T07:48:06Z</time>
      </trkpt>
      <trkpt lat="47.11793" lon="-0.71925">
        <ele>140.970459</ele>
        <time>2012-08-24T07:48:15Z</time>
      </trkpt>
      <trkpt lat="47.11795" lon="-0.71923">
        <ele>142.4124756</ele>
        <time>2012-08-24T07:48:26Z</time>
      </trkpt>
      <trkpt lat="47.11794" lon="-0.71923">
        <ele>144.8157959</ele>
        <time>2012-08-24T07:48:34Z</time>
      </trkpt>
      <trkpt lat="47.11794" lon="-0.71923">
        <ele>144.8157959</ele>
        <time>2012-08-24T07:48:41Z</time>
      </trkpt>
      <trkpt lat="47.11794" lon="-0.71924">
        <ele>143.8543701</ele>
        <time>2012-08-24T07:48:46Z</time>
      </trkpt>
      <trkpt lat="47.11795" lon="-0.71925">
        <ele>142.4124756</ele>
        <time>2012-08-24T07:48:50Z</time>
      </trkpt>
      <trkpt lat="47.11795" lon="-0.71924">
        <ele>141.9317627</ele>
        <time>2012-08-24T07:48:51Z</time>
      </trkpt>
      <trkpt lat="47.11795" lon="-0.71924">
        <ele>139.5284424</ele>
        <time>2012-08-24T07:49:04Z</time>
      </trkpt>
      <trkpt lat="47.11797" lon="-0.71921">
        <ele>139.5284424</ele>
        <time>2012-08-24T07:49:10Z</time>
      </trkpt>
      <trkpt lat="47.11802" lon="-0.7191">
        <ele>138.5672607</ele>
        <time>2012-08-24T07:49:15Z</time>
      </trkpt>
      <trkpt lat="47.1181" lon="-0.7188">
        <ele>135.6831055</ele>
        <time>2012-08-24T07:49:23Z</time>
      </trkpt>
      <trkpt lat="47.11823" lon="-0.71842">
        <ele>136.6446533</ele>
        <time>2012-08-24T07:49:30Z</time>
      </trkpt>
      <trkpt lat="47.1184" lon="-0.71793">
        <ele>137.605835</ele>
        <time>2012-08-24T07:49:39Z</time>
      </trkpt>
      <trkpt lat="47.11854" lon="-0.71781">
        <ele>137.605835</ele>
        <time>2012-08-24T07:49:44Z</time>
      </trkpt>
      <trkpt lat="47.11867" lon="-0.71785">
        <ele>137.1252441</ele>
        <time>2012-08-24T07:49:47Z</time>
      </trkpt>
      <trkpt lat="47.11902" lon="-0.71807">
        <ele>135.6831055</ele>
        <time>2012-08-24T07:49:54Z</time>
      </trkpt>
      <trkpt lat="47.11943" lon="-0.71818">
        <ele>134.2412109</ele>
        <time>2012-08-24T07:50:01Z</time>
      </trkpt>
      <trkpt lat="47.11991" lon="-0.71829">
        <ele>133.760498</ele>
        <time>2012-08-24T07:50:09Z</time>
      </trkpt>
      <trkpt lat="47.12053" lon="-0.7185">
        <ele>133.760498</ele>
        <time>2012-08-24T07:50:19Z</time>
      </trkpt>
      <trkpt lat="47.12087" lon="-0.71872">
        <ele>133.2799072</ele>
        <time>2012-08-24T07:50:25Z</time>
      </trkpt>
      <trkpt lat="47.12108" lon="-0.71891">
        <ele>131.8378906</ele>
        <time>2012-08-24T07:50:29Z</time>
      </trkpt>
      <trkpt lat="47.12131" lon="-0.71921">
        <ele>132.3186035</ele>
        <time>2012-08-24T07:50:34Z</time>
      </trkpt>
      <trkpt lat="47.12153" lon="-0.7194">
        <ele>131.8378906</ele>
        <time>2012-08-24T07:50:38Z</time>
      </trkpt>
      <trkpt lat="47.12197" lon="-0.71965">
        <ele>131.3572998</ele>
        <time>2012-08-24T07:50:45Z</time>
      </trkpt>
      <trkpt lat="47.12209" lon="-0.71972">
        <ele>130.876709</ele>
        <time>2012-08-24T07:50:47Z</time>
      </trkpt>
      <trkpt lat="47.12241" lon="-0.71976">
        <ele>131.8378906</ele>
        <time>2012-08-24T07:50:52Z</time>
      </trkpt>
      <trkpt lat="47.12262" lon="-0.71973">
        <ele>131.8378906</ele>
        <time>2012-08-24T07:50:56Z</time>
      </trkpt>
      <trkpt lat="47.1228" lon="-0.71959">
        <ele>131.8378906</ele>
        <time>2012-08-24T07:51:02Z</time>
      </trkpt>
      <trkpt lat="47.12298" lon="-0.71938">
        <ele>131.3572998</ele>
        <time>2012-08-24T07:51:08Z</time>
      </trkpt>
      <trkpt lat="47.12316" lon="-0.7193">
        <ele>131.8378906</ele>
        <time>2012-08-24T07:51:13Z</time>
      </trkpt>
      <trkpt lat="47.12333" lon="-0.71925">
        <ele>131.8378906</ele>
        <time>2012-08-24T07:51:18Z</time>
      </trkpt>
      <trkpt lat="47.12346" lon="-0.7192">
        <ele>133.760498</ele>
        <time>2012-08-24T07:51:22Z</time>
      </trkpt>
      <trkpt lat="47.12359" lon="-0.71911">
        <ele>135.2025146</ele>
        <time>2012-08-24T07:51:27Z</time>
      </trkpt>
      <trkpt lat="47.12377" lon="-0.71894">
        <ele>134.7219238</ele>
        <time>2012-08-24T07:51:33Z</time>
      </trkpt>
      <trkpt lat="47.12396" lon="-0.71872">
        <ele>132.7993164</ele>
        <time>2012-08-24T07:51:39Z</time>
      </trkpt>
      <trkpt lat="47.124" lon="-0.71868">
        <ele>132.7993164</ele>
        <time>2012-08-24T07:51:40Z</time>
      </trkpt>
      <trkpt lat="47.12415" lon="-0.71853">
        <ele>132.7993164</ele>
        <time>2012-08-24T07:51:44Z</time>
      </trkpt>
      <trkpt lat="47.12437" lon="-0.7183">
        <ele>131.8378906</ele>
        <time>2012-08-24T07:51:49Z</time>
      </trkpt>
      <trkpt lat="47.12469" lon="-0.71806">
        <ele>132.3186035</ele>
        <time>2012-08-24T07:51:55Z</time>
      </trkpt>
      <trkpt lat="47.12474" lon="-0.71803">
        <ele>132.3186035</ele>
        <time>2012-08-24T07:51:56Z</time>
      </trkpt>
      <trkpt lat="47.12507" lon="-0.7177">
        <ele>131.8378906</ele>
        <time>2012-08-24T07:52:03Z</time>
      </trkpt>
      <trkpt lat="47.12519" lon="-0.71759">
        <ele>133.2799072</ele>
        <time>2012-08-24T07:52:06Z</time>
      </trkpt>
      <trkpt lat="47.12539" lon="-0.71739">
        <ele>134.7219238</ele>
        <time>2012-08-24T07:52:11Z</time>
      </trkpt>
      <trkpt lat="47.12567" lon="-0.71714">
        <ele>135.6831055</ele>
        <time>2012-08-24T07:52:17Z</time>
      </trkpt>
      <trkpt lat="47.12576" lon="-0.71706">
        <ele>135.6831055</ele>
        <time>2012-08-24T07:52:19Z</time>
      </trkpt>
      <trkpt lat="47.12595" lon="-0.71688">
        <ele>135.6831055</ele>
        <time>2012-08-24T07:52:23Z</time>
      </trkpt>
      <trkpt lat="47.12627" lon="-0.71654">
        <ele>136.6446533</ele>
        <time>2012-08-24T07:52:30Z</time>
      </trkpt>
      <trkpt lat="47.12647" lon="-0.71633">
        <ele>138.0865479</ele>
        <time>2012-08-24T07:52:36Z</time>
      </trkpt>
      <trkpt lat="47.12673" lon="-0.71608">
        <ele>139.0478516</ele>
        <time>2012-08-24T07:52:43Z</time>
      </trkpt>
      <trkpt lat="47.12699" lon="-0.71571">
        <ele>140.970459</ele>
        <time>2012-08-24T07:52:50Z</time>
      </trkpt>
      <trkpt lat="47.12716" lon="-0.71549">
        <ele>141.9317627</ele>
        <time>2012-08-24T07:52:54Z</time>
      </trkpt>
      <trkpt lat="47.12734" lon="-0.71538">
        <ele>142.8930664</ele>
        <time>2012-08-24T07:52:58Z</time>
      </trkpt>
      <trkpt lat="47.12762" lon="-0.7153">
        <ele>145.2963867</ele>
        <time>2012-08-24T07:53:04Z</time>
      </trkpt>
      <trkpt lat="47.12811" lon="-0.71529">
        <ele>149.6223145</ele>
        <time>2012-08-24T07:53:14Z</time>
      </trkpt>
      <trkpt lat="47.12856" lon="-0.71537">
        <ele>152.0257568</ele>
        <time>2012-08-24T07:53:24Z</time>
      </trkpt>
      <trkpt lat="47.12875" lon="-0.71539">
        <ele>152.9869385</ele>
        <time>2012-08-24T07:53:28Z</time>
      </trkpt>
      <trkpt lat="47.12894" lon="-0.71544">
        <ele>153.4676514</ele>
        <time>2012-08-24T07:53:32Z</time>
      </trkpt>
      <trkpt lat="47.12903" lon="-0.71544">
        <ele>153.9483643</ele>
        <time>2012-08-24T07:53:34Z</time>
      </trkpt>
      <trkpt lat="47.1294" lon="-0.71562">
        <ele>153.9483643</ele>
        <time>2012-08-24T07:53:42Z</time>
      </trkpt>
      <trkpt lat="47.12955" lon="-0.71576">
        <ele>153.4676514</ele>
        <time>2012-08-24T07:53:46Z</time>
      </trkpt>
      <trkpt lat="47.12977" lon="-0.71594">
        <ele>151.064209</ele>
        <time>2012-08-24T07:53:53Z</time>
      </trkpt>
      <trkpt lat="47.12988" lon="-0.71604">
        <ele>150.1030273</ele>
        <time>2012-08-24T07:53:57Z</time>
      </trkpt>
      <trkpt lat="47.12999" lon="-0.71617">
        <ele>148.1804199</ele>
        <time>2012-08-24T07:54:01Z</time>
      </trkpt>
      <trkpt lat="47.13008" lon="-0.71635">
        <ele>147.2189941</ele>
        <time>2012-08-24T07:54:06Z</time>
      </trkpt>
      <trkpt lat="47.13018" lon="-0.71651">
        <ele>146.2578125</ele>
        <time>2012-08-24T07:54:11Z</time>
      </trkpt>
      <trkpt lat="47.13038" lon="-0.71676">
        <ele>144.3352051</ele>
        <time>2012-08-24T07:54:17Z</time>
      </trkpt>
      <trkpt lat="47.1306" lon="-0.71707">
        <ele>142.8930664</ele>
        <time>2012-08-24T07:54:23Z</time>
      </trkpt>
      <trkpt lat="47.13098" lon="-0.71761">
        <ele>141.9317627</ele>
        <time>2012-08-24T07:54:32Z</time>
      </trkpt>
      <trkpt lat="47.13132" lon="-0.71804">
        <ele>140.4898682</ele>
        <time>2012-08-24T07:54:38Z</time>
      </trkpt>
      <trkpt lat="47.13167" lon="-0.71834">
        <ele>140.0091553</ele>
        <time>2012-08-24T07:54:44Z</time>
      </trkpt>
      <trkpt lat="47.13202" lon="-0.71851">
        <ele>140.4898682</ele>
        <time>2012-08-24T07:54:50Z</time>
      </trkpt>
      <trkpt lat="47.13246" lon="-0.71857">
        <ele>144.8157959</ele>
        <time>2012-08-24T07:54:58Z</time>
      </trkpt>
      <trkpt lat="47.13267" lon="-0.71862">
        <ele>146.7384033</ele>
        <time>2012-08-24T07:55:02Z</time>
      </trkpt>
      <trkpt lat="47.13298" lon="-0.71886">
        <ele>148.1804199</ele>
        <time>2012-08-24T07:55:08Z</time>
      </trkpt>
      <trkpt lat="47.1331" lon="-0.71894">
        <ele>147.699707</ele>
        <time>2012-08-24T07:55:10Z</time>
      </trkpt>
      <trkpt lat="47.13334" lon="-0.71921">
        <ele>147.699707</ele>
        <time>2012-08-24T07:55:14Z</time>
      </trkpt>
      <trkpt lat="47.13355" lon="-0.71961">
        <ele>145.2963867</ele>
        <time>2012-08-24T07:55:19Z</time>
      </trkpt>
      <trkpt lat="47.13374" lon="-0.71978">
        <ele>144.8157959</ele>
        <time>2012-08-24T07:55:23Z</time>
      </trkpt>
      <trkpt lat="47.13386" lon="-0.71979">
        <ele>144.8157959</ele>
        <time>2012-08-24T07:55:25Z</time>
      </trkpt>
      <trkpt lat="47.13426" lon="-0.7197">
        <ele>145.2963867</ele>
        <time>2012-08-24T07:55:32Z</time>
      </trkpt>
      <trkpt lat="47.13465" lon="-0.71958">
        <ele>145.7770996</ele>
        <time>2012-08-24T07:55:39Z</time>
      </trkpt>
      <trkpt lat="47.13518" lon="-0.71941">
        <ele>146.7384033</ele>
        <time>2012-08-24T07:55:49Z</time>
      </trkpt>
      <trkpt lat="47.13561" lon="-0.71917">
        <ele>147.699707</ele>
        <time>2012-08-24T07:55:58Z</time>
      </trkpt>
      <trkpt lat="47.13603" lon="-0.7189">
        <ele>148.6610107</ele>
        <time>2012-08-24T07:56:07Z</time>
      </trkpt>
      <trkpt lat="47.13636" lon="-0.71877">
        <ele>149.1416016</ele>
        <time>2012-08-24T07:56:14Z</time>
      </trkpt>
      <trkpt lat="47.13676" lon="-0.71871">
        <ele>150.5836182</ele>
        <time>2012-08-24T07:56:22Z</time>
      </trkpt>
      <trkpt lat="47.13713" lon="-0.71866">
        <ele>152.0257568</ele>
        <time>2012-08-24T07:56:30Z</time>
      </trkpt>
      <trkpt lat="47.13743" lon="-0.71858">
        <ele>152.9869385</ele>
        <time>2012-08-24T07:56:37Z</time>
      </trkpt>
      <trkpt lat="47.13774" lon="-0.7185">
        <ele>154.4289551</ele>
        <time>2012-08-24T07:56:44Z</time>
      </trkpt>
      <trkpt lat="47.13805" lon="-0.71843">
        <ele>156.3515625</ele>
        <time>2012-08-24T07:56:52Z</time>
      </trkpt>
      <trkpt lat="47.13834" lon="-0.71838">
        <ele>157.3128662</ele>
        <time>2012-08-24T07:57:00Z</time>
      </trkpt>
      <trkpt lat="47.13862" lon="-0.71834">
        <ele>158.2741699</ele>
        <time>2012-08-24T07:57:07Z</time>
      </trkpt>
      <trkpt lat="47.13904" lon="-0.71829">
        <ele>158.7547607</ele>
        <time>2012-08-24T07:57:17Z</time>
      </trkpt>
      <trkpt lat="47.13928" lon="-0.71824">
        <ele>159.2354736</ele>
        <time>2012-08-24T07:57:23Z</time>
      </trkpt>
      <trkpt lat="47.13954" lon="-0.71818">
        <ele>159.2354736</ele>
        <time>2012-08-24T07:57:30Z</time>
      </trkpt>
      <trkpt lat="47.13979" lon="-0.71823">
        <ele>159.7161865</ele>
        <time>2012-08-24T07:57:36Z</time>
      </trkpt>
      <trkpt lat="47.13996" lon="-0.71828">
        <ele>160.1968994</ele>
        <time>2012-08-24T07:57:40Z</time>
      </trkpt>
      <trkpt lat="47.14023" lon="-0.71836">
        <ele>160.1968994</ele>
        <time>2012-08-24T07:57:46Z</time>
      </trkpt>
      <trkpt lat="47.14033" lon="-0.71839">
        <ele>159.7161865</ele>
        <time>2012-08-24T07:57:48Z</time>
      </trkpt>
      <trkpt lat="47.14058" lon="-0.71849">
        <ele>156.8321533</ele>
        <time>2012-08-24T07:57:53Z</time>
      </trkpt>
      <trkpt lat="47.14073" lon="-0.7186">
        <ele>154.9095459</ele>
        <time>2012-08-24T07:57:56Z</time>
      </trkpt>
      <trkpt lat="47.14089" lon="-0.71872">
        <ele>153.9483643</ele>
        <time>2012-08-24T07:57:59Z</time>
      </trkpt>
      <trkpt lat="47.1411" lon="-0.71887">
        <ele>152.9869385</ele>
        <time>2012-08-24T07:58:03Z</time>
      </trkpt>
      <trkpt lat="47.14126" lon="-0.71911">
        <ele>152.0257568</ele>
        <time>2012-08-24T07:58:07Z</time>
      </trkpt>
      <trkpt lat="47.14129" lon="-0.71919">
        <ele>152.0257568</ele>
        <time>2012-08-24T07:58:08Z</time>
      </trkpt>
      <trkpt lat="47.14141" lon="-0.71979">
        <ele>151.064209</ele>
        <time>2012-08-24T07:58:15Z</time>
      </trkpt>
      <trkpt lat="47.14155" lon="-0.72055">
        <ele>149.6223145</ele>
        <time>2012-08-24T07:58:24Z</time>
      </trkpt>
      <trkpt lat="47.14174" lon="-0.72121">
        <ele>149.6223145</ele>
        <time>2012-08-24T07:58:32Z</time>
      </trkpt>
      <trkpt lat="47.14201" lon="-0.72205">
        <ele>147.699707</ele>
        <time>2012-08-24T07:58:43Z</time>
      </trkpt>
      <trkpt lat="47.14227" lon="-0.72278">
        <ele>145.2963867</ele>
        <time>2012-08-24T07:58:52Z</time>
      </trkpt>
      <trkpt lat="47.14247" lon="-0.72343">
        <ele>143.3736572</ele>
        <time>2012-08-24T07:59:00Z</time>
      </trkpt>
      <trkpt lat="47.14263" lon="-0.72418">
        <ele>142.8930664</ele>
        <time>2012-08-24T07:59:09Z</time>
      </trkpt>
      <trkpt lat="47.14271" lon="-0.72477">
        <ele>141.4510498</ele>
        <time>2012-08-24T07:59:16Z</time>
      </trkpt>
      <trkpt lat="47.14276" lon="-0.72527">
        <ele>140.4898682</ele>
        <time>2012-08-24T07:59:21Z</time>
      </trkpt>
      <trkpt lat="47.14278" lon="-0.72587">
        <ele>139.0478516</ele>
        <time>2012-08-24T07:59:27Z</time>
      </trkpt>
      <trkpt lat="47.14286" lon="-0.7266">
        <ele>139.0478516</ele>
        <time>2012-08-24T07:59:35Z</time>
      </trkpt>
      <trkpt lat="47.14291" lon="-0.72706">
        <ele>138.5672607</ele>
        <time>2012-08-24T07:59:40Z</time>
      </trkpt>
      <trkpt lat="47.14306" lon="-0.72759">
        <ele>137.605835</ele>
        <time>2012-08-24T07:59:46Z</time>
      </trkpt>
      <trkpt lat="47.14308" lon="-0.72768">
        <ele>137.1252441</ele>
        <time>2012-08-24T07:59:47Z</time>
      </trkpt>
      <trkpt lat="47.14325" lon="-0.72818">
        <ele>134.7219238</ele>
        <time>2012-08-24T07:59:53Z</time>
      </trkpt>
      <trkpt lat="47.14326" lon="-0.72822">
        <ele>134.2412109</ele>
        <time>2012-08-24T07:59:54Z</time>
      </trkpt>
      <trkpt lat="47.14318" lon="-0.72837">
        <ele>134.7219238</ele>
        <time>2012-08-24T07:59:58Z</time>
      </trkpt>
      <trkpt lat="47.14285" lon="-0.72869">
        <ele>137.1252441</ele>
        <time>2012-08-24T08:00:06Z</time>
      </trkpt>
      <trkpt lat="47.14276" lon="-0.72885">
        <ele>136.6446533</ele>
        <time>2012-08-24T08:00:09Z</time>
      </trkpt>
      <trkpt lat="47.14269" lon="-0.72921">
        <ele>136.6446533</ele>
        <time>2012-08-24T08:00:14Z</time>
      </trkpt>
      <trkpt lat="47.14263" lon="-0.72955">
        <ele>138.0865479</ele>
        <time>2012-08-24T08:00:19Z</time>
      </trkpt>
      <trkpt lat="47.14261" lon="-0.72969">
        <ele>138.5672607</ele>
        <time>2012-08-24T08:00:22Z</time>
      </trkpt>
      <trkpt lat="47.14261" lon="-0.72974">
        <ele>138.5672607</ele>
        <time>2012-08-24T08:00:23Z</time>
      </trkpt>
      <trkpt lat="47.14259" lon="-0.7302">
        <ele>139.0478516</ele>
        <time>2012-08-24T08:00:30Z</time>
      </trkpt>
      <trkpt lat="47.14256" lon="-0.73052">
        <ele>139.5284424</ele>
        <time>2012-08-24T08:00:35Z</time>
      </trkpt>
      <trkpt lat="47.14255" lon="-0.73066">
        <ele>139.5284424</ele>
        <time>2012-08-24T08:00:37Z</time>
      </trkpt>
      <trkpt lat="47.14246" lon="-0.73123">
        <ele>139.5284424</ele>
        <time>2012-08-24T08:00:46Z</time>
      </trkpt>
      <trkpt lat="47.14246" lon="-0.73129">
        <ele>139.0478516</ele>
        <time>2012-08-24T08:00:47Z</time>
      </trkpt>
      <trkpt lat="47.14231" lon="-0.73169">
        <ele>137.1252441</ele>
        <time>2012-08-24T08:00:54Z</time>
      </trkpt>
      <trkpt lat="47.14226" lon="-0.7318">
        <ele>137.1252441</ele>
        <time>2012-08-24T08:00:56Z</time>
      </trkpt>
      <trkpt lat="47.14215" lon="-0.73219">
        <ele>135.6831055</ele>
        <time>2012-08-24T08:01:02Z</time>
      </trkpt>
      <trkpt lat="47.14201" lon="-0.73262">
        <ele>135.2025146</ele>
        <time>2012-08-24T08:01:09Z</time>
      </trkpt>
      <trkpt lat="47.142" lon="-0.73268">
        <ele>134.7219238</ele>
        <time>2012-08-24T08:01:10Z</time>
      </trkpt>
      <trkpt lat="47.14202" lon="-0.73284">
        <ele>133.760498</ele>
        <time>2012-08-24T08:01:14Z</time>
      </trkpt>
      <trkpt lat="47.14215" lon="-0.73293">
        <ele>136.1639404</ele>
        <time>2012-08-24T08:01:18Z</time>
      </trkpt>
      <trkpt lat="47.14223" lon="-0.73293">
        <ele>135.6831055</ele>
        <time>2012-08-24T08:01:20Z</time>
      </trkpt>
      <trkpt lat="47.14253" lon="-0.73289">
        <ele>136.1639404</ele>
        <time>2012-08-24T08:01:28Z</time>
      </trkpt>
      <trkpt lat="47.14273" lon="-0.73285">
        <ele>135.2025146</ele>
        <time>2012-08-24T08:01:34Z</time>
      </trkpt>
      <trkpt lat="47.14296" lon="-0.73282">
        <ele>134.2412109</ele>
        <time>2012-08-24T08:01:41Z</time>
      </trkpt>
      <trkpt lat="47.1432" lon="-0.73283">
        <ele>137.1252441</ele>
        <time>2012-08-24T08:01:47Z</time>
      </trkpt>
      <trkpt lat="47.1434" lon="-0.73286">
        <ele>138.0865479</ele>
        <time>2012-08-24T08:01:53Z</time>
      </trkpt>
      <trkpt lat="47.14361" lon="-0.7329">
        <ele>139.5284424</ele>
        <time>2012-08-24T08:02:00Z</time>
      </trkpt>
      <trkpt lat="47.14376" lon="-0.73296">
        <ele>140.4898682</ele>
        <time>2012-08-24T08:02:06Z</time>
      </trkpt>
      <trkpt lat="47.14385" lon="-0.73301">
        <ele>141.4510498</ele>
        <time>2012-08-24T08:02:11Z</time>
      </trkpt>
      <trkpt lat="47.14391" lon="-0.733">
        <ele>141.4510498</ele>
        <time>2012-08-24T08:02:14Z</time>
      </trkpt>
      <trkpt lat="47.14401" lon="-0.7331">
        <ele>143.3736572</ele>
        <time>2012-08-24T08:02:19Z</time>
      </trkpt>
      <trkpt lat="47.14424" lon="-0.73338">
        <ele>144.3352051</ele>
        <time>2012-08-24T08:02:29Z</time>
      </trkpt>
      <trkpt lat="47.14442" lon="-0.7336">
        <ele>144.8157959</ele>
        <time>2012-08-24T08:02:37Z</time>
      </trkpt>
      <trkpt lat="47.14463" lon="-0.73382">
        <ele>146.7384033</ele>
        <time>2012-08-24T08:02:46Z</time>
      </trkpt>
      <trkpt lat="47.14485" lon="-0.734">
        <ele>147.2189941</ele>
        <time>2012-08-24T08:02:54Z</time>
      </trkpt>
      <trkpt lat="47.14507" lon="-0.73422">
        <ele>146.2578125</ele>
        <time>2012-08-24T08:03:02Z</time>
      </trkpt>
      <trkpt lat="47.14532" lon="-0.73453">
        <ele>148.6610107</ele>
        <time>2012-08-24T08:03:12Z</time>
      </trkpt>
      <trkpt lat="47.14556" lon="-0.73485">
        <ele>150.1030273</ele>
        <time>2012-08-24T08:03:22Z</time>
      </trkpt>
      <trkpt lat="47.14578" lon="-0.73518">
        <ele>152.5063477</ele>
        <time>2012-08-24T08:03:32Z</time>
      </trkpt>
      <trkpt lat="47.14593" lon="-0.73524">
        <ele>153.9483643</ele>
        <time>2012-08-24T08:03:37Z</time>
      </trkpt>
      <trkpt lat="47.14618" lon="-0.73516">
        <ele>155.3902588</ele>
        <time>2012-08-24T08:03:44Z</time>
      </trkpt>
      <trkpt lat="47.14653" lon="-0.73506">
        <ele>157.3128662</ele>
        <time>2012-08-24T08:03:53Z</time>
      </trkpt>
      <trkpt lat="47.14685" lon="-0.73497">
        <ele>157.7935791</ele>
        <time>2012-08-24T08:04:02Z</time>
      </trkpt>
      <trkpt lat="47.14716" lon="-0.73481">
        <ele>158.7547607</ele>
        <time>2012-08-24T08:04:11Z</time>
      </trkpt>
      <trkpt lat="47.14736" lon="-0.73459">
        <ele>158.7547607</ele>
        <time>2012-08-24T08:04:18Z</time>
      </trkpt>
      <trkpt lat="47.14769" lon="-0.73425">
        <ele>159.2354736</ele>
        <time>2012-08-24T08:04:28Z</time>
      </trkpt>
      <trkpt lat="47.14796" lon="-0.73399">
        <ele>159.7161865</ele>
        <time>2012-08-24T08:04:36Z</time>
      </trkpt>
      <trkpt lat="47.14811" lon="-0.73385">
        <ele>159.2354736</ele>
        <time>2012-08-24T08:04:40Z</time>
      </trkpt>
      <trkpt lat="47.14827" lon="-0.73379">
        <ele>159.2354736</ele>
        <time>2012-08-24T08:04:44Z</time>
      </trkpt>
      <trkpt lat="47.14864" lon="-0.73382">
        <ele>160.6774902</ele>
        <time>2012-08-24T08:04:53Z</time>
      </trkpt>
      <trkpt lat="47.149" lon="-0.73385">
        <ele>165.003418</ele>
        <time>2012-08-24T08:05:03Z</time>
      </trkpt>
      <trkpt lat="47.14924" lon="-0.73387">
        <ele>167.4067383</ele>
        <time>2012-08-24T08:05:11Z</time>
      </trkpt>
      <trkpt lat="47.14938" lon="-0.734">
        <ele>169.3294678</ele>
        <time>2012-08-24T08:05:17Z</time>
      </trkpt>
      <trkpt lat="47.14945" lon="-0.73409">
        <ele>170.2906494</ele>
        <time>2012-08-24T08:05:21Z</time>
      </trkpt>
      <trkpt lat="47.14952" lon="-0.73416">
        <ele>171.2520752</ele>
        <time>2012-08-24T08:05:25Z</time>
      </trkpt>
      <trkpt lat="47.14967" lon="-0.73434">
        <ele>173.1746826</ele>
        <time>2012-08-24T08:05:34Z</time>
      </trkpt>
      <trkpt lat="47.14984" lon="-0.73455">
        <ele>176.0585938</ele>
        <time>2012-08-24T08:05:45Z</time>
      </trkpt>
      <trkpt lat="47.14998" lon="-0.73473">
        <ele>178.4619141</ele>
        <time>2012-08-24T08:05:54Z</time>
      </trkpt>
      <trkpt lat="47.15012" lon="-0.7349">
        <ele>180.8652344</ele>
        <time>2012-08-24T08:06:03Z</time>
      </trkpt>
      <trkpt lat="47.15025" lon="-0.73505">
        <ele>182.7878418</ele>
        <time>2012-08-24T08:06:11Z</time>
      </trkpt>
      <trkpt lat="47.1504" lon="-0.73524">
        <ele>185.1911621</ele>
        <time>2012-08-24T08:06:20Z</time>
      </trkpt>
      <trkpt lat="47.15055" lon="-0.73543">
        <ele>186.6331787</ele>
        <time>2012-08-24T08:06:29Z</time>
      </trkpt>
      <trkpt lat="47.15071" lon="-0.73561">
        <ele>188.0750732</ele>
        <time>2012-08-24T08:06:38Z</time>
      </trkpt>
      <trkpt lat="47.15088" lon="-0.73581">
        <ele>189.036377</ele>
        <time>2012-08-24T08:06:48Z</time>
      </trkpt>
      <trkpt lat="47.15101" lon="-0.73597">
        <ele>190.9589844</ele>
        <time>2012-08-24T08:06:56Z</time>
      </trkpt>
      <trkpt lat="47.15116" lon="-0.73612">
        <ele>192.8817139</ele>
        <time>2012-08-24T08:07:05Z</time>
      </trkpt>
      <trkpt lat="47.15123" lon="-0.73604">
        <ele>192.8817139</ele>
        <time>2012-08-24T08:07:11Z</time>
      </trkpt>
      <trkpt lat="47.15134" lon="-0.73575">
        <ele>192.401123</ele>
        <time>2012-08-24T08:07:19Z</time>
      </trkpt>
      <trkpt lat="47.15145" lon="-0.73548">
        <ele>191.9202881</ele>
        <time>2012-08-24T08:07:25Z</time>
      </trkpt>
      <trkpt lat="47.15155" lon="-0.73519">
        <ele>191.4395752</ele>
        <time>2012-08-24T08:07:32Z</time>
      </trkpt>
      <trkpt lat="47.15159" lon="-0.73503">
        <ele>190.9589844</ele>
        <time>2012-08-24T08:07:36Z</time>
      </trkpt>
      <trkpt lat="47.15174" lon="-0.73505">
        <ele>192.401123</ele>
        <time>2012-08-24T08:07:41Z</time>
      </trkpt>
      <trkpt lat="47.15197" lon="-0.73518">
        <ele>194.3237305</ele>
        <time>2012-08-24T08:07:48Z</time>
      </trkpt>
      <trkpt lat="47.1523" lon="-0.73536">
        <ele>196.2463379</ele>
        <time>2012-08-24T08:07:57Z</time>
      </trkpt>
      <trkpt lat="47.1526" lon="-0.73556">
        <ele>200.0916748</ele>
        <time>2012-08-24T08:08:06Z</time>
      </trkpt>
      <trkpt lat="47.15283" lon="-0.73572">
        <ele>202.0142822</ele>
        <time>2012-08-24T08:08:14Z</time>
      </trkpt>
      <trkpt lat="47.15302" lon="-0.73585">
        <ele>203.9368896</ele>
        <time>2012-08-24T08:08:21Z</time>
      </trkpt>
      <trkpt lat="47.15323" lon="-0.73596">
        <ele>203.9368896</ele>
        <time>2012-08-24T08:08:29Z</time>
      </trkpt>
      <trkpt lat="47.15341" lon="-0.73607">
        <ele>205.8594971</ele>
        <time>2012-08-24T08:08:36Z</time>
      </trkpt>
      <trkpt lat="47.15357" lon="-0.73617">
        <ele>207.3013916</ele>
        <time>2012-08-24T08:08:42Z</time>
      </trkpt>
      <trkpt lat="47.15359" lon="-0.73632">
        <ele>208.2628174</ele>
        <time>2012-08-24T08:08:46Z</time>
      </trkpt>
      <trkpt lat="47.15356" lon="-0.7364">
        <ele>208.7434082</ele>
        <time>2012-08-24T08:08:48Z</time>
      </trkpt>
      <trkpt lat="47.15342" lon="-0.73681">
        <ele>211.1467285</ele>
        <time>2012-08-24T08:08:57Z</time>
      </trkpt>
      <trkpt lat="47.1533" lon="-0.73713">
        <ele>211.1467285</ele>
        <time>2012-08-24T08:09:04Z</time>
      </trkpt>
      <trkpt lat="47.15322" lon="-0.7374">
        <ele>210.1854248</ele>
        <time>2012-08-24T08:09:10Z</time>
      </trkpt>
      <trkpt lat="47.15318" lon="-0.73764">
        <ele>211.6274414</ele>
        <time>2012-08-24T08:09:15Z</time>
      </trkpt>
      <trkpt lat="47.15322" lon="-0.73788">
        <ele>211.6274414</ele>
        <time>2012-08-24T08:09:20Z</time>
      </trkpt>
      <trkpt lat="47.15328" lon="-0.73805">
        <ele>212.1080322</ele>
        <time>2012-08-24T08:09:24Z</time>
      </trkpt>
      <trkpt lat="47.15333" lon="-0.73824">
        <ele>212.1080322</ele>
        <time>2012-08-24T08:09:28Z</time>
      </trkpt>
      <trkpt lat="47.15332" lon="-0.7383">
        <ele>212.1080322</ele>
        <time>2012-08-24T08:09:29Z</time>
      </trkpt>
      <trkpt lat="47.15325" lon="-0.73858">
        <ele>212.1080322</ele>
        <time>2012-08-24T08:09:33Z</time>
      </trkpt>
      <trkpt lat="47.1531" lon="-0.73911">
        <ele>212.1080322</ele>
        <time>2012-08-24T08:09:40Z</time>
      </trkpt>
      <trkpt lat="47.15293" lon="-0.73956">
        <ele>210.1854248</ele>
        <time>2012-08-24T08:09:46Z</time>
      </trkpt>
      <trkpt lat="47.15282" lon="-0.73987">
        <ele>209.704834</ele>
        <time>2012-08-24T08:09:50Z</time>
      </trkpt>
      <trkpt lat="47.15275" lon="-0.74008">
        <ele>208.2628174</ele>
        <time>2012-08-24T08:09:53Z</time>
      </trkpt>
      <trkpt lat="47.15267" lon="-0.74038">
        <ele>206.8206787</ele>
        <time>2012-08-24T08:09:57Z</time>
      </trkpt>
      <trkpt lat="47.15243" lon="-0.74085">
        <ele>205.3787842</ele>
        <time>2012-08-24T08:10:04Z</time>
      </trkpt>
      <trkpt lat="47.15215" lon="-0.74117">
        <ele>204.4174805</ele>
        <time>2012-08-24T08:10:10Z</time>
      </trkpt>
      <trkpt lat="47.1519" lon="-0.74142">
        <ele>203.4561768</ele>
        <time>2012-08-24T08:10:15Z</time>
      </trkpt>
      <trkpt lat="47.15152" lon="-0.74183">
        <ele>202.9754639</ele>
        <time>2012-08-24T08:10:23Z</time>
      </trkpt>
      <trkpt lat="47.15135" lon="-0.74203">
        <ele>203.4561768</ele>
        <time>2012-08-24T08:10:27Z</time>
      </trkpt>
      <trkpt lat="47.15122" lon="-0.74225">
        <ele>204.4174805</ele>
        <time>2012-08-24T08:10:31Z</time>
      </trkpt>
      <trkpt lat="47.15103" lon="-0.74247">
        <ele>203.9368896</ele>
        <time>2012-08-24T08:10:36Z</time>
      </trkpt>
      <trkpt lat="47.15073" lon="-0.74267">
        <ele>204.4174805</ele>
        <time>2012-08-24T08:10:43Z</time>
      </trkpt>
      <trkpt lat="47.15056" lon="-0.74275">
        <ele>205.8594971</ele>
        <time>2012-08-24T08:10:47Z</time>
      </trkpt>
      <trkpt lat="47.15027" lon="-0.74289">
        <ele>208.7434082</ele>
        <time>2012-08-24T08:10:54Z</time>
      </trkpt>
      <trkpt lat="47.15005" lon="-0.74298">
        <ele>208.7434082</ele>
        <time>2012-08-24T08:11:00Z</time>
      </trkpt>
      <trkpt lat="47.14976" lon="-0.7431">
        <ele>206.8206787</ele>
        <time>2012-08-24T08:11:07Z</time>
      </trkpt>
      <trkpt lat="47.14941" lon="-0.74325">
        <ele>205.8594971</ele>
        <time>2012-08-24T08:11:15Z</time>
      </trkpt>
      <trkpt lat="47.14933" lon="-0.74329">
        <ele>205.8594971</ele>
        <time>2012-08-24T08:11:17Z</time>
      </trkpt>
      <trkpt lat="47.14908" lon="-0.74364">
        <ele>205.8594971</ele>
        <time>2012-08-24T08:11:24Z</time>
      </trkpt>
      <trkpt lat="47.1488" lon="-0.74412">
        <ele>206.8206787</ele>
        <time>2012-08-24T08:11:33Z</time>
      </trkpt>
      <trkpt lat="47.14854" lon="-0.74459">
        <ele>207.7821045</ele>
        <time>2012-08-24T08:11:41Z</time>
      </trkpt>
      <trkpt lat="47.14826" lon="-0.74514">
        <ele>208.2628174</ele>
        <time>2012-08-24T08:11:51Z</time>
      </trkpt>
      <trkpt lat="47.1479" lon="-0.74581">
        <ele>209.2241211</ele>
        <time>2012-08-24T08:12:03Z</time>
      </trkpt>
      <trkpt lat="47.14756" lon="-0.74639">
        <ele>209.704834</ele>
        <time>2012-08-24T08:12:13Z</time>
      </trkpt>
      <trkpt lat="47.14725" lon="-0.74688">
        <ele>207.7821045</ele>
        <time>2012-08-24T08:12:20Z</time>
      </trkpt>
      <trkpt lat="47.14685" lon="-0.74756">
        <ele>206.8206787</ele>
        <time>2012-08-24T08:12:29Z</time>
      </trkpt>
      <trkpt lat="47.1465" lon="-0.74827">
        <ele>206.8206787</ele>
        <time>2012-08-24T08:12:38Z</time>
      </trkpt>
      <trkpt lat="47.14618" lon="-0.74899">
        <ele>203.9368896</ele>
        <time>2012-08-24T08:12:46Z</time>
      </trkpt>
      <trkpt lat="47.14588" lon="-0.74979">
        <ele>201.5335693</ele>
        <time>2012-08-24T08:12:54Z</time>
      </trkpt>
      <trkpt lat="47.14561" lon="-0.75036">
        <ele>199.6108398</ele>
        <time>2012-08-24T08:13:00Z</time>
      </trkpt>
      <trkpt lat="47.14523" lon="-0.75092">
        <ele>197.6882324</ele>
        <time>2012-08-24T08:13:07Z</time>
      </trkpt>
      <trkpt lat="47.1448" lon="-0.75146">
        <ele>195.2849121</ele>
        <time>2012-08-24T08:13:14Z</time>
      </trkpt>
      <trkpt lat="47.14443" lon="-0.75198">
        <ele>192.8817139</ele>
        <time>2012-08-24T08:13:20Z</time>
      </trkpt>
      <trkpt lat="47.14424" lon="-0.7524">
        <ele>191.9202881</ele>
        <time>2012-08-24T08:13:24Z</time>
      </trkpt>
      <trkpt lat="47.14412" lon="-0.75287">
        <ele>190.9589844</ele>
        <time>2012-08-24T08:13:28Z</time>
      </trkpt>
      <trkpt lat="47.14417" lon="-0.75301">
        <ele>190.4783936</ele>
        <time>2012-08-24T08:13:31Z</time>
      </trkpt>
      <trkpt lat="47.14426" lon="-0.75298">
        <ele>189.5169678</ele>
        <time>2012-08-24T08:13:34Z</time>
      </trkpt>
      <trkpt lat="47.14437" lon="-0.75299">
        <ele>189.036377</ele>
        <time>2012-08-24T08:13:37Z</time>
      </trkpt>
      <trkpt lat="47.14464" lon="-0.75313">
        <ele>189.5169678</ele>
        <time>2012-08-24T08:13:44Z</time>
      </trkpt>
      <trkpt lat="47.14473" lon="-0.75316">
        <ele>189.9976807</ele>
        <time>2012-08-24T08:13:46Z</time>
      </trkpt>
      <trkpt lat="47.1451" lon="-0.75332">
        <ele>190.4783936</ele>
        <time>2012-08-24T08:13:53Z</time>
      </trkpt>
      <trkpt lat="47.14551" lon="-0.75345">
        <ele>189.9976807</ele>
        <time>2012-08-24T08:14:00Z</time>
      </trkpt>
      <trkpt lat="47.14591" lon="-0.75352">
        <ele>189.036377</ele>
        <time>2012-08-24T08:14:06Z</time>
      </trkpt>
      <trkpt lat="47.14626" lon="-0.75349">
        <ele>187.1137695</ele>
        <time>2012-08-24T08:14:11Z</time>
      </trkpt>
      <trkpt lat="47.14673" lon="-0.75353">
        <ele>184.2298584</ele>
        <time>2012-08-24T08:14:17Z</time>
      </trkpt>
      <trkpt lat="47.1472" lon="-0.75361">
        <ele>182.7878418</ele>
        <time>2012-08-24T08:14:23Z</time>
      </trkpt>
      <trkpt lat="47.14763" lon="-0.75367">
        <ele>181.3458252</ele>
        <time>2012-08-24T08:14:28Z</time>
      </trkpt>
      <trkpt lat="47.14821" lon="-0.75373">
        <ele>179.4232178</ele>
        <time>2012-08-24T08:14:35Z</time>
      </trkpt>
      <trkpt lat="47.14881" lon="-0.75388">
        <ele>177.0200195</ele>
        <time>2012-08-24T08:14:42Z</time>
      </trkpt>
      <trkpt lat="47.14949" lon="-0.75404">
        <ele>172.6939697</ele>
        <time>2012-08-24T08:14:49Z</time>
      </trkpt>
      <trkpt lat="47.15011" lon="-0.7542">
        <ele>168.8487549</ele>
        <time>2012-08-24T08:14:55Z</time>
      </trkpt>
      <trkpt lat="47.15021" lon="-0.75424">
        <ele>167.8873291</ele>
        <time>2012-08-24T08:14:56Z</time>
      </trkpt>
      <trkpt lat="47.15051" lon="-0.75443">
        <ele>165.4841309</ele>
        <time>2012-08-24T08:14:59Z</time>
      </trkpt>
      <trkpt lat="47.15099" lon="-0.75495">
        <ele>160.1968994</ele>
        <time>2012-08-24T08:15:04Z</time>
      </trkpt>
      <trkpt lat="47.15145" lon="-0.7555">
        <ele>155.3902588</ele>
        <time>2012-08-24T08:15:09Z</time>
      </trkpt>
      <trkpt lat="47.15177" lon="-0.75586">
        <ele>150.5836182</ele>
        <time>2012-08-24T08:15:13Z</time>
      </trkpt>
      <trkpt lat="47.15192" lon="-0.75601">
        <ele>148.6610107</ele>
        <time>2012-08-24T08:15:16Z</time>
      </trkpt>
      <trkpt lat="47.15203" lon="-0.75602">
        <ele>146.2578125</ele>
        <time>2012-08-24T08:15:20Z</time>
      </trkpt>
      <trkpt lat="47.15206" lon="-0.75599">
        <ele>145.2963867</ele>
        <time>2012-08-24T08:15:21Z</time>
      </trkpt>
      <trkpt lat="47.15222" lon="-0.7558">
        <ele>145.2963867</ele>
        <time>2012-08-24T08:15:25Z</time>
      </trkpt>
      <trkpt lat="47.15237" lon="-0.75543">
        <ele>140.4898682</ele>
        <time>2012-08-24T08:15:29Z</time>
      </trkpt>
      <trkpt lat="47.15242" lon="-0.75506">
        <ele>138.0865479</ele>
        <time>2012-08-24T08:15:32Z</time>
      </trkpt>
      <trkpt lat="47.15249" lon="-0.7548">
        <ele>135.2025146</ele>
        <time>2012-08-24T08:15:35Z</time>
      </trkpt>
      <trkpt lat="47.15267" lon="-0.75475">
        <ele>129.4346924</ele>
        <time>2012-08-24T08:15:39Z</time>
      </trkpt>
      <trkpt lat="47.15307" lon="-0.75454">
        <ele>129.9152832</ele>
        <time>2012-08-24T08:15:44Z</time>
      </trkpt>
      <trkpt lat="47.15327" lon="-0.75431">
        <ele>132.3186035</ele>
        <time>2012-08-24T08:15:47Z</time>
      </trkpt>
      <trkpt lat="47.15343" lon="-0.75405">
        <ele>132.3186035</ele>
        <time>2012-08-24T08:15:50Z</time>
      </trkpt>
      <trkpt lat="47.15375" lon="-0.75372">
        <ele>133.760498</ele>
        <time>2012-08-24T08:15:55Z</time>
      </trkpt>
      <trkpt lat="47.15387" lon="-0.75361">
        <ele>134.7219238</ele>
        <time>2012-08-24T08:15:57Z</time>
      </trkpt>
      <trkpt lat="47.15405" lon="-0.75329">
        <ele>134.2412109</ele>
        <time>2012-08-24T08:16:01Z</time>
      </trkpt>
      <trkpt lat="47.1542" lon="-0.75276">
        <ele>136.1639404</ele>
        <time>2012-08-24T08:16:07Z</time>
      </trkpt>
      <trkpt lat="47.15425" lon="-0.7525">
        <ele>137.605835</ele>
        <time>2012-08-24T08:16:10Z</time>
      </trkpt>
      <trkpt lat="47.15434" lon="-0.75224">
        <ele>136.6446533</ele>
        <time>2012-08-24T08:16:13Z</time>
      </trkpt>
      <trkpt lat="47.15442" lon="-0.75193">
        <ele>135.6831055</ele>
        <time>2012-08-24T08:16:16Z</time>
      </trkpt>
      <trkpt lat="47.15452" lon="-0.75157">
        <ele>135.2025146</ele>
        <time>2012-08-24T08:16:19Z</time>
      </trkpt>
      <trkpt lat="47.1546" lon="-0.75126">
        <ele>132.7993164</ele>
        <time>2012-08-24T08:16:23Z</time>
      </trkpt>
      <trkpt lat="47.15473" lon="-0.75114">
        <ele>132.7993164</ele>
        <time>2012-08-24T08:16:27Z</time>
      </trkpt>
      <trkpt lat="47.15492" lon="-0.75117">
        <ele>130.3959961</ele>
        <time>2012-08-24T08:16:31Z</time>
      </trkpt>
      <trkpt lat="47.15497" lon="-0.75129">
        <ele>129.4346924</ele>
        <time>2012-08-24T08:16:33Z</time>
      </trkpt>
      <trkpt lat="47.15513" lon="-0.75177">
        <ele>127.9925537</ele>
        <time>2012-08-24T08:16:39Z</time>
      </trkpt>
      <trkpt lat="47.15535" lon="-0.75241">
        <ele>126.0699463</ele>
        <time>2012-08-24T08:16:46Z</time>
      </trkpt>
      <trkpt lat="47.15554" lon="-0.75298">
        <ele>126.0699463</ele>
        <time>2012-08-24T08:16:52Z</time>
      </trkpt>
      <trkpt lat="47.15566" lon="-0.75336">
        <ele>125.1087646</ele>
        <time>2012-08-24T08:16:56Z</time>
      </trkpt>
      <trkpt lat="47.15579" lon="-0.75374">
        <ele>124.1473389</ele>
        <time>2012-08-24T08:17:00Z</time>
      </trkpt>
      <trkpt lat="47.15605" lon="-0.75453">
        <ele>124.6280518</ele>
        <time>2012-08-24T08:17:08Z</time>
      </trkpt>
      <trkpt lat="47.15632" lon="-0.75535">
        <ele>122.7054443</ele>
        <time>2012-08-24T08:17:17Z</time>
      </trkpt>
      <trkpt lat="47.15656" lon="-0.7561">
        <ele>120.7828369</ele>
        <time>2012-08-24T08:17:25Z</time>
      </trkpt>
      <trkpt lat="47.15669" lon="-0.75646">
        <ele>120.302124</ele>
        <time>2012-08-24T08:17:29Z</time>
      </trkpt>
      <trkpt lat="47.15676" lon="-0.75665">
        <ele>120.302124</ele>
        <time>2012-08-24T08:17:31Z</time>
      </trkpt>
      <trkpt lat="47.15679" lon="-0.75673">
        <ele>120.302124</ele>
        <time>2012-08-24T08:17:32Z</time>
      </trkpt>
      <trkpt lat="47.15693" lon="-0.75712">
        <ele>119.8214111</ele>
        <time>2012-08-24T08:17:37Z</time>
      </trkpt>
      <trkpt lat="47.15693" lon="-0.75732">
        <ele>119.3408203</ele>
        <time>2012-08-24T08:17:42Z</time>
      </trkpt>
      <trkpt lat="47.15684" lon="-0.75752">
        <ele>118.3793945</ele>
        <time>2012-08-24T08:17:46Z</time>
      </trkpt>
      <trkpt lat="47.15673" lon="-0.75795">
        <ele>115.9761963</ele>
        <time>2012-08-24T08:17:53Z</time>
      </trkpt>
      <trkpt lat="47.15673" lon="-0.75801">
        <ele>115.4956055</ele>
        <time>2012-08-24T08:17:54Z</time>
      </trkpt>
      <trkpt lat="47.15672" lon="-0.75821">
        <ele>115.9761963</ele>
        <time>2012-08-24T08:17:57Z</time>
      </trkpt>
      <trkpt lat="47.15673" lon="-0.75835">
        <ele>116.4567871</ele>
        <time>2012-08-24T08:17:59Z</time>
      </trkpt>
      <trkpt lat="47.15688" lon="-0.75887">
        <ele>116.4567871</ele>
        <time>2012-08-24T08:18:06Z</time>
      </trkpt>
      <trkpt lat="47.15702" lon="-0.75929">
        <ele>115.9761963</ele>
        <time>2012-08-24T08:18:11Z</time>
      </trkpt>
      <trkpt lat="47.15722" lon="-0.75994">
        <ele>115.4956055</ele>
        <time>2012-08-24T08:18:19Z</time>
      </trkpt>
      <trkpt lat="47.15749" lon="-0.76062">
        <ele>115.4956055</ele>
        <time>2012-08-24T08:18:28Z</time>
      </trkpt>
      <trkpt lat="47.15781" lon="-0.76123">
        <ele>115.9761963</ele>
        <time>2012-08-24T08:18:37Z</time>
      </trkpt>
      <trkpt lat="47.15808" lon="-0.7617">
        <ele>115.4956055</ele>
        <time>2012-08-24T08:18:44Z</time>
      </trkpt>
      <trkpt lat="47.15828" lon="-0.76203">
        <ele>115.4956055</ele>
        <time>2012-08-24T08:18:49Z</time>
      </trkpt>
      <trkpt lat="47.15867" lon="-0.76262">
        <ele>116.4567871</ele>
        <time>2012-08-24T08:18:59Z</time>
      </trkpt>
      <trkpt lat="47.15907" lon="-0.76306">
        <ele>117.4182129</ele>
        <time>2012-08-24T08:19:08Z</time>
      </trkpt>
      <trkpt lat="47.15915" lon="-0.76318">
        <ele>118.3793945</ele>
        <time>2012-08-24T08:19:10Z</time>
      </trkpt>
      <trkpt lat="47.15929" lon="-0.76356">
        <ele>119.3408203</ele>
        <time>2012-08-24T08:19:15Z</time>
      </trkpt>
      <trkpt lat="47.15931" lon="-0.76364">
        <ele>119.8214111</ele>
        <time>2012-08-24T08:19:16Z</time>
      </trkpt>
      <trkpt lat="47.15936" lon="-0.76443">
        <ele>121.7441406</ele>
        <time>2012-08-24T08:19:25Z</time>
      </trkpt>
      <trkpt lat="47.15941" lon="-0.76498">
        <ele>121.7441406</ele>
        <time>2012-08-24T08:19:32Z</time>
      </trkpt>
      <trkpt lat="47.15954" lon="-0.76549">
        <ele>121.7441406</ele>
        <time>2012-08-24T08:19:39Z</time>
      </trkpt>
      <trkpt lat="47.15976" lon="-0.76595">
        <ele>122.2247314</ele>
        <time>2012-08-24T08:19:46Z</time>
      </trkpt>
      <trkpt lat="47.15984" lon="-0.76617">
        <ele>122.2247314</ele>
        <time>2012-08-24T08:19:49Z</time>
      </trkpt>
      <trkpt lat="47.15992" lon="-0.76657">
        <ele>122.7054443</ele>
        <time>2012-08-24T08:19:54Z</time>
      </trkpt>
      <trkpt lat="47.1599" lon="-0.76744">
        <ele>123.1861572</ele>
        <time>2012-08-24T08:20:06Z</time>
      </trkpt>
      <trkpt lat="47.16001" lon="-0.76762">
        <ele>123.1861572</ele>
        <time>2012-08-24T08:20:10Z</time>
      </trkpt>
      <trkpt lat="47.16005" lon="-0.7676">
        <ele>122.7054443</ele>
        <time>2012-08-24T08:20:11Z</time>
      </trkpt>
      <trkpt lat="47.1605" lon="-0.76727">
        <ele>120.302124</ele>
        <time>2012-08-24T08:20:21Z</time>
      </trkpt>
      <trkpt lat="47.16088" lon="-0.76702">
        <ele>116.4567871</ele>
        <time>2012-08-24T08:20:28Z</time>
      </trkpt>
      <trkpt lat="47.16129" lon="-0.76678">
        <ele>112.1309814</ele>
        <time>2012-08-24T08:20:35Z</time>
      </trkpt>
      <trkpt lat="47.16135" lon="-0.76675">
        <ele>111.6502686</ele>
        <time>2012-08-24T08:20:36Z</time>
      </trkpt>
      <trkpt lat="47.16182" lon="-0.76641">
        <ele>108.2856445</ele>
        <time>2012-08-24T08:20:44Z</time>
      </trkpt>
      <trkpt lat="47.16208" lon="-0.76623">
        <ele>106.3630371</ele>
        <time>2012-08-24T08:20:48Z</time>
      </trkpt>
      <trkpt lat="47.16248" lon="-0.7659">
        <ele>106.8436279</ele>
        <time>2012-08-24T08:20:54Z</time>
      </trkpt>
      <trkpt lat="47.16295" lon="-0.76561">
        <ele>105.4017334</ele>
        <time>2012-08-24T08:21:00Z</time>
      </trkpt>
      <trkpt lat="47.16345" lon="-0.76531">
        <ele>102.5177002</ele>
        <time>2012-08-24T08:21:06Z</time>
      </trkpt>
      <trkpt lat="47.16397" lon="-0.76505">
        <ele>105.4017334</ele>
        <time>2012-08-24T08:21:12Z</time>
      </trkpt>
      <trkpt lat="47.16444" lon="-0.76475">
        <ele>104.4404297</ele>
        <time>2012-08-24T08:21:18Z</time>
      </trkpt>
      <trkpt lat="47.16473" lon="-0.76456">
        <ele>104.4404297</ele>
        <time>2012-08-24T08:21:22Z</time>
      </trkpt>
      <trkpt lat="47.16503" lon="-0.7643">
        <ele>105.8824463</ele>
        <time>2012-08-24T08:21:27Z</time>
      </trkpt>
      <trkpt lat="47.16533" lon="-0.76393">
        <ele>106.3630371</ele>
        <time>2012-08-24T08:21:33Z</time>
      </trkpt>
      <trkpt lat="47.16552" lon="-0.76376">
        <ele>105.4017334</ele>
        <time>2012-08-24T08:21:36Z</time>
      </trkpt>
      <trkpt lat="47.16591" lon="-0.76357">
        <ele>105.4017334</ele>
        <time>2012-08-24T08:21:41Z</time>
      </trkpt>
      <trkpt lat="47.16639" lon="-0.76336">
        <ele>102.5177002</ele>
        <time>2012-08-24T08:21:47Z</time>
      </trkpt>
      <trkpt lat="47.16668" lon="-0.76305">
        <ele>102.0371094</ele>
        <time>2012-08-24T08:21:51Z</time>
      </trkpt>
      <trkpt lat="47.16703" lon="-0.76255">
        <ele>102.998291</ele>
        <time>2012-08-24T08:21:57Z</time>
      </trkpt>
      <trkpt lat="47.16745" lon="-0.762">
        <ele>104.9210205</ele>
        <time>2012-08-24T08:22:05Z</time>
      </trkpt>
      <trkpt lat="47.16776" lon="-0.76162">
        <ele>103.9597168</ele>
        <time>2012-08-24T08:22:11Z</time>
      </trkpt>
      <trkpt lat="47.16815" lon="-0.76113">
        <ele>102.5177002</ele>
        <time>2012-08-24T08:22:18Z</time>
      </trkpt>
      <trkpt lat="47.16868" lon="-0.76072">
        <ele>101.5563965</ele>
        <time>2012-08-24T08:22:27Z</time>
      </trkpt>
      <trkpt lat="47.16894" lon="-0.76053">
        <ele>102.0371094</ele>
        <time>2012-08-24T08:22:32Z</time>
      </trkpt>
      <trkpt lat="47.16927" lon="-0.76033">
        <ele>104.9210205</ele>
        <time>2012-08-24T08:22:39Z</time>
      </trkpt>
      <trkpt lat="47.16965" lon="-0.76018">
        <ele>104.9210205</ele>
        <time>2012-08-24T08:22:46Z</time>
      </trkpt>
      <trkpt lat="47.17024" lon="-0.76005">
        <ele>104.9210205</ele>
        <time>2012-08-24T08:22:55Z</time>
      </trkpt>
      <trkpt lat="47.17052" lon="-0.76006">
        <ele>105.4017334</ele>
        <time>2012-08-24T08:22:59Z</time>
      </trkpt>
      <trkpt lat="47.1707" lon="-0.7599">
        <ele>104.9210205</ele>
        <time>2012-08-24T08:23:03Z</time>
      </trkpt>
      <trkpt lat="47.17068" lon="-0.75979">
        <ele>104.9210205</ele>
        <time>2012-08-24T08:23:05Z</time>
      </trkpt>
      <trkpt lat="47.17064" lon="-0.75967">
        <ele>105.8824463</ele>
        <time>2012-08-24T08:23:08Z</time>
      </trkpt>
      <trkpt lat="47.17055" lon="-0.75916">
        <ele>107.8050537</ele>
        <time>2012-08-24T08:23:18Z</time>
      </trkpt>
      <trkpt lat="47.17048" lon="-0.75871">
        <ele>109.7276611</ele>
        <time>2012-08-24T08:23:27Z</time>
      </trkpt>
      <trkpt lat="47.1704" lon="-0.75818">
        <ele>112.1309814</ele>
        <time>2012-08-24T08:23:36Z</time>
      </trkpt>
      <trkpt lat="47.17033" lon="-0.75777">
        <ele>113.0922852</ele>
        <time>2012-08-24T08:23:43Z</time>
      </trkpt>
      <trkpt lat="47.17031" lon="-0.75765">
        <ele>113.0922852</ele>
        <time>2012-08-24T08:23:45Z</time>
      </trkpt>
      <trkpt lat="47.17034" lon="-0.75739">
        <ele>115.0148926</ele>
        <time>2012-08-24T08:23:50Z</time>
      </trkpt>
      <trkpt lat="47.17045" lon="-0.75733">
        <ele>115.0148926</ele>
        <time>2012-08-24T08:23:54Z</time>
      </trkpt>
      <trkpt lat="47.17047" lon="-0.75733">
        <ele>115.0148926</ele>
        <time>2012-08-24T08:23:55Z</time>
      </trkpt>
      <trkpt lat="47.17066" lon="-0.75732">
        <ele>115.0148926</ele>
        <time>2012-08-24T08:24:02Z</time>
      </trkpt>
      <trkpt lat="47.1709" lon="-0.7573">
        <ele>114.5341797</ele>
        <time>2012-08-24T08:24:08Z</time>
      </trkpt>
      <trkpt lat="47.17123" lon="-0.75727">
        <ele>112.6115723</ele>
        <time>2012-08-24T08:24:15Z</time>
      </trkpt>
      <trkpt lat="47.17151" lon="-0.75725">
        <ele>111.1695557</ele>
        <time>2012-08-24T08:24:20Z</time>
      </trkpt>
      <trkpt lat="47.17168" lon="-0.75724">
        <ele>110.208252</ele>
        <time>2012-08-24T08:24:23Z</time>
      </trkpt>
      <trkpt lat="47.17193" lon="-0.75725">
        <ele>108.7662354</ele>
        <time>2012-08-24T08:24:27Z</time>
      </trkpt>
      <trkpt lat="47.17225" lon="-0.75726">
        <ele>107.3243408</ele>
        <time>2012-08-24T08:24:32Z</time>
      </trkpt>
      <trkpt lat="47.17273" lon="-0.75729">
        <ele>106.3630371</ele>
        <time>2012-08-24T08:24:39Z</time>
      </trkpt>
      <trkpt lat="47.17316" lon="-0.75734">
        <ele>105.4017334</ele>
        <time>2012-08-24T08:24:45Z</time>
      </trkpt>
      <trkpt lat="47.17353" lon="-0.75751">
        <ele>103.9597168</ele>
        <time>2012-08-24T08:24:50Z</time>
      </trkpt>
      <trkpt lat="47.17406" lon="-0.75781">
        <ele>102.5177002</ele>
        <time>2012-08-24T08:24:57Z</time>
      </trkpt>
      <trkpt lat="47.17454" lon="-0.75788">
        <ele>102.0371094</ele>
        <time>2012-08-24T08:25:03Z</time>
      </trkpt>
      <trkpt lat="47.17493" lon="-0.75776">
        <ele>99.6337891</ele>
        <time>2012-08-24T08:25:08Z</time>
      </trkpt>
      <trkpt lat="47.17519" lon="-0.75749">
        <ele>98.1918945</ele>
        <time>2012-08-24T08:25:12Z</time>
      </trkpt>
      <trkpt lat="47.17567" lon="-0.75689">
        <ele>94.8271484</ele>
        <time>2012-08-24T08:25:19Z</time>
      </trkpt>
      <trkpt lat="47.17622" lon="-0.7563">
        <ele>93.3851318</ele>
        <time>2012-08-24T08:25:26Z</time>
      </trkpt>
      <trkpt lat="47.17655" lon="-0.75592">
        <ele>93.8658447</ele>
        <time>2012-08-24T08:25:31Z</time>
      </trkpt>
      <trkpt lat="47.17665" lon="-0.75583">
        <ele>95.3077393</ele>
        <time>2012-08-24T08:25:33Z</time>
      </trkpt>
      <trkpt lat="47.17682" lon="-0.7556">
        <ele>97.2304688</ele>
        <time>2012-08-24T08:25:37Z</time>
      </trkpt>
      <trkpt lat="47.17701" lon="-0.75544">
        <ele>96.7498779</ele>
        <time>2012-08-24T08:25:42Z</time>
      </trkpt>
      <trkpt lat="47.17711" lon="-0.75536">
        <ele>97.2304688</ele>
        <time>2012-08-24T08:25:45Z</time>
      </trkpt>
      <trkpt lat="47.17722" lon="-0.75525">
        <ele>96.7498779</ele>
        <time>2012-08-24T08:25:48Z</time>
      </trkpt>
      <trkpt lat="47.17733" lon="-0.75519">
        <ele>97.7111816</ele>
        <time>2012-08-24T08:25:51Z</time>
      </trkpt>
      <trkpt lat="47.17771" lon="-0.75505">
        <ele>97.2304688</ele>
        <time>2012-08-24T08:25:59Z</time>
      </trkpt>
      <trkpt lat="47.17783" lon="-0.75502">
        <ele>99.1530762</ele>
        <time>2012-08-24T08:26:01Z</time>
      </trkpt>
      <trkpt lat="47.17819" lon="-0.75483">
        <ele>97.2304688</ele>
        <time>2012-08-24T08:26:07Z</time>
      </trkpt>
      <trkpt lat="47.17838" lon="-0.75473">
        <ele>95.7884521</ele>
        <time>2012-08-24T08:26:10Z</time>
      </trkpt>
      <trkpt lat="47.1787" lon="-0.75439">
        <ele>96.7498779</ele>
        <time>2012-08-24T08:26:16Z</time>
      </trkpt>
      <trkpt lat="47.17878" lon="-0.75428">
        <ele>96.2692871</ele>
        <time>2012-08-24T08:26:18Z</time>
      </trkpt>
      <trkpt lat="47.17896" lon="-0.75397">
        <ele>97.2304688</ele>
        <time>2012-08-24T08:26:24Z</time>
      </trkpt>
      <trkpt lat="47.17918" lon="-0.75357">
        <ele>97.2304688</ele>
        <time>2012-08-24T08:26:32Z</time>
      </trkpt>
      <trkpt lat="47.17938" lon="-0.75342">
        <ele>97.7111816</ele>
        <time>2012-08-24T08:26:37Z</time>
      </trkpt>
      <trkpt lat="47.17969" lon="-0.75329">
        <ele>96.7498779</ele>
        <time>2012-08-24T08:26:43Z</time>
      </trkpt>
      <trkpt lat="47.18013" lon="-0.75304">
        <ele>97.7111816</ele>
        <time>2012-08-24T08:26:50Z</time>
      </trkpt>
      <trkpt lat="47.18059" lon="-0.75279">
        <ele>98.6724854</ele>
        <time>2012-08-24T08:26:58Z</time>
      </trkpt>
      <trkpt lat="47.18075" lon="-0.75272">
        <ele>98.6724854</ele>
        <time>2012-08-24T08:27:01Z</time>
      </trkpt>
      <trkpt lat="47.18112" lon="-0.75252">
        <ele>96.2692871</ele>
        <time>2012-08-24T08:27:08Z</time>
      </trkpt>
      <trkpt lat="47.18154" lon="-0.75231">
        <ele>96.2692871</ele>
        <time>2012-08-24T08:27:16Z</time>
      </trkpt>
      <trkpt lat="47.18208" lon="-0.75206">
        <ele>97.7111816</ele>
        <time>2012-08-24T08:27:26Z</time>
      </trkpt>
      <trkpt lat="47.18252" lon="-0.75185">
        <ele>100.114502</ele>
        <time>2012-08-24T08:27:35Z</time>
      </trkpt>
      <trkpt lat="47.18286" lon="-0.7517">
        <ele>100.114502</ele>
        <time>2012-08-24T08:27:43Z</time>
      </trkpt>
      <trkpt lat="47.18323" lon="-0.75156">
        <ele>99.1530762</ele>
        <time>2012-08-24T08:27:51Z</time>
      </trkpt>
      <trkpt lat="47.1836" lon="-0.75142">
        <ele>98.1918945</ele>
        <time>2012-08-24T08:27:59Z</time>
      </trkpt>
      <trkpt lat="47.18407" lon="-0.75126">
        <ele>96.7498779</ele>
        <time>2012-08-24T08:28:08Z</time>
      </trkpt>
      <trkpt lat="47.18447" lon="-0.75112">
        <ele>96.7498779</ele>
        <time>2012-08-24T08:28:15Z</time>
      </trkpt>
      <trkpt lat="47.18493" lon="-0.75096">
        <ele>97.7111816</ele>
        <time>2012-08-24T08:28:22Z</time>
      </trkpt>
      <trkpt lat="47.18548" lon="-0.75076">
        <ele>97.7111816</ele>
        <time>2012-08-24T08:28:30Z</time>
      </trkpt>
      <trkpt lat="47.18562" lon="-0.7507">
        <ele>97.7111816</ele>
        <time>2012-08-24T08:28:32Z</time>
      </trkpt>
      <trkpt lat="47.18612" lon="-0.75045">
        <ele>98.1918945</ele>
        <time>2012-08-24T08:28:39Z</time>
      </trkpt>
      <trkpt lat="47.1866" lon="-0.7503">
        <ele>98.1918945</ele>
        <time>2012-08-24T08:28:46Z</time>
      </trkpt>
      <trkpt lat="47.187" lon="-0.75017">
        <ele>98.1918945</ele>
        <time>2012-08-24T08:28:52Z</time>
      </trkpt>
      <trkpt lat="47.18741" lon="-0.75">
        <ele>99.6337891</ele>
        <time>2012-08-24T08:28:58Z</time>
      </trkpt>
      <trkpt lat="47.18788" lon="-0.74979">
        <ele>98.6724854</ele>
        <time>2012-08-24T08:29:05Z</time>
      </trkpt>
      <trkpt lat="47.18823" lon="-0.74964">
        <ele>99.6337891</ele>
        <time>2012-08-24T08:29:11Z</time>
      </trkpt>
      <trkpt lat="47.18833" lon="-0.74959">
        <ele>100.114502</ele>
        <time>2012-08-24T08:29:13Z</time>
      </trkpt>
      <trkpt lat="47.18843" lon="-0.74946">
        <ele>100.5950928</ele>
        <time>2012-08-24T08:29:17Z</time>
      </trkpt>
      <trkpt lat="47.18843" lon="-0.74945">
        <ele>100.5950928</ele>
        <time>2012-08-24T08:29:18Z</time>
      </trkpt>
      <trkpt lat="47.18843" lon="-0.74946">
        <ele>102.5177002</ele>
        <time>2012-08-24T08:29:24Z</time>
      </trkpt>
      <trkpt lat="47.18844" lon="-0.74945">
        <ele>102.5177002</ele>
        <time>2012-08-24T08:29:26Z</time>
      </trkpt>
      <trkpt lat="47.18858" lon="-0.74936">
        <ele>102.5177002</ele>
        <time>2012-08-24T08:29:31Z</time>
      </trkpt>
      <trkpt lat="47.18869" lon="-0.74929">
        <ele>103.4790039</ele>
        <time>2012-08-24T08:29:34Z</time>
      </trkpt>
      <trkpt lat="47.1891" lon="-0.74901">
        <ele>101.5563965</ele>
        <time>2012-08-24T08:29:42Z</time>
      </trkpt>
      <trkpt lat="47.18956" lon="-0.74866">
        <ele>98.6724854</ele>
        <time>2012-08-24T08:29:50Z</time>
      </trkpt>
      <trkpt lat="47.19004" lon="-0.74824">
        <ele>96.2692871</ele>
        <time>2012-08-24T08:29:58Z</time>
      </trkpt>
      <trkpt lat="47.19034" lon="-0.74794">
        <ele>95.3077393</ele>
        <time>2012-08-24T08:30:03Z</time>
      </trkpt>
      <trkpt lat="47.19075" lon="-0.74755">
        <ele>95.7884521</ele>
        <time>2012-08-24T08:30:10Z</time>
      </trkpt>
      <trkpt lat="47.1912" lon="-0.74703">
        <ele>92.4239502</ele>
        <time>2012-08-24T08:30:19Z</time>
      </trkpt>
      <trkpt lat="47.19155" lon="-0.74672">
        <ele>95.3077393</ele>
        <time>2012-08-24T08:30:25Z</time>
      </trkpt>
      <trkpt lat="47.19169" lon="-0.74657">
        <ele>95.7884521</ele>
        <time>2012-08-24T08:30:28Z</time>
      </trkpt>
      <trkpt lat="47.19199" lon="-0.74627">
        <ele>94.8271484</ele>
        <time>2012-08-24T08:30:34Z</time>
      </trkpt>
      <trkpt lat="47.19232" lon="-0.74583">
        <ele>93.8658447</ele>
        <time>2012-08-24T08:30:40Z</time>
      </trkpt>
      <trkpt lat="47.19264" lon="-0.74534">
        <ele>90.0206299</ele>
        <time>2012-08-24T08:30:46Z</time>
      </trkpt>
      <trkpt lat="47.19284" lon="-0.74516">
        <ele>89.539917</ele>
        <time>2012-08-24T08:30:49Z</time>
      </trkpt>
      <trkpt lat="47.1932" lon="-0.74478">
        <ele>87.6171875</ele>
        <time>2012-08-24T08:30:55Z</time>
      </trkpt>
      <trkpt lat="47.19375" lon="-0.74423">
        <ele>89.539917</ele>
        <time>2012-08-24T08:31:04Z</time>
      </trkpt>
      <trkpt lat="47.19429" lon="-0.74368">
        <ele>90.0206299</ele>
        <time>2012-08-24T08:31:13Z</time>
      </trkpt>
      <trkpt lat="47.19435" lon="-0.74362">
        <ele>90.0206299</ele>
        <time>2012-08-24T08:31:14Z</time>
      </trkpt>
      <trkpt lat="47.19462" lon="-0.74342">
        <ele>88.5787354</ele>
        <time>2012-08-24T08:31:18Z</time>
      </trkpt>
      <trkpt lat="47.19509" lon="-0.74325">
        <ele>85.6945801</ele>
        <time>2012-08-24T08:31:25Z</time>
      </trkpt>
      <trkpt lat="47.19523" lon="-0.74318">
        <ele>84.2526855</ele>
        <time>2012-08-24T08:31:27Z</time>
      </trkpt>
      <trkpt lat="47.1956" lon="-0.74284">
        <ele>80.4074707</ele>
        <time>2012-08-24T08:31:32Z</time>
      </trkpt>
      <trkpt lat="47.19568" lon="-0.74275">
        <ele>79.9266357</ele>
        <time>2012-08-24T08:31:33Z</time>
      </trkpt>
      <trkpt lat="47.19602" lon="-0.74233">
        <ele>76.5621338</ele>
        <time>2012-08-24T08:31:39Z</time>
      </trkpt>
      <trkpt lat="47.19623" lon="-0.74212">
        <ele>77.5234375</ele>
        <time>2012-08-24T08:31:43Z</time>
      </trkpt>
      <trkpt lat="47.19628" lon="-0.74209">
        <ele>78.4847412</ele>
        <time>2012-08-24T08:31:47Z</time>
      </trkpt>
      <trkpt lat="47.19639" lon="-0.7421">
        <ele>79.4460449</ele>
        <time>2012-08-24T08:31:54Z</time>
      </trkpt>
      <trkpt lat="47.19652" lon="-0.74203">
        <ele>79.4460449</ele>
        <time>2012-08-24T08:31:59Z</time>
      </trkpt>
      <trkpt lat="47.1966" lon="-0.74195">
        <ele>79.4460449</ele>
        <time>2012-08-24T08:32:03Z</time>
      </trkpt>
      <trkpt lat="47.19663" lon="-0.74188">
        <ele>77.5234375</ele>
        <time>2012-08-24T08:32:07Z</time>
      </trkpt>
      <trkpt lat="47.19665" lon="-0.7418">
        <ele>76.5621338</ele>
        <time>2012-08-24T08:32:11Z</time>
      </trkpt>
      <trkpt lat="47.19672" lon="-0.74167">
        <ele>78.0040283</ele>
        <time>2012-08-24T08:32:15Z</time>
      </trkpt>
      <trkpt lat="47.19677" lon="-0.74151">
        <ele>81.3687744</ele>
        <time>2012-08-24T08:32:20Z</time>
      </trkpt>
      <trkpt lat="47.19681" lon="-0.74128">
        <ele>83.2913818</ele>
        <time>2012-08-24T08:32:25Z</time>
      </trkpt>
      <trkpt lat="47.19678" lon="-0.74105">
        <ele>89.539917</ele>
        <time>2012-08-24T08:32:31Z</time>
      </trkpt>
      <trkpt lat="47.19676" lon="-0.74091">
        <ele>90.9819336</ele>
        <time>2012-08-24T08:32:36Z</time>
      </trkpt>
      <trkpt lat="47.19683" lon="-0.74078">
        <ele>92.4239502</ele>
        <time>2012-08-24T08:32:42Z</time>
      </trkpt>
      <trkpt lat="47.19688" lon="-0.74065">
        <ele>90.0206299</ele>
        <time>2012-08-24T08:32:47Z</time>
      </trkpt>
      <trkpt lat="47.19692" lon="-0.74058">
        <ele>91.9432373</ele>
        <time>2012-08-24T08:32:50Z</time>
      </trkpt>
      <trkpt lat="47.19701" lon="-0.74045">
        <ele>95.3077393</ele>
        <time>2012-08-24T08:32:58Z</time>
      </trkpt>
      <trkpt lat="47.19706" lon="-0.74039">
        <ele>94.3465576</ele>
        <time>2012-08-24T08:33:01Z</time>
      </trkpt>
      <trkpt lat="47.19715" lon="-0.74029">
        <ele>93.3851318</ele>
        <time>2012-08-24T08:33:07Z</time>
      </trkpt>
      <trkpt lat="47.19723" lon="-0.74021">
        <ele>89.539917</ele>
        <time>2012-08-24T08:33:13Z</time>
      </trkpt>
      <trkpt lat="47.19734" lon="-0.74008">
        <ele>87.1365967</ele>
        <time>2012-08-24T08:33:22Z</time>
      </trkpt>
      <trkpt lat="47.19742" lon="-0.73996">
        <ele>90.5013428</ele>
        <time>2012-08-24T08:33:29Z</time>
      </trkpt>
      <trkpt lat="47.19748" lon="-0.73984">
        <ele>90.0206299</ele>
        <time>2012-08-24T08:33:35Z</time>
      </trkpt>
      <trkpt lat="47.19756" lon="-0.73972">
        <ele>92.4239502</ele>
        <time>2012-08-24T08:33:41Z</time>
      </trkpt>
      <trkpt lat="47.19767" lon="-0.73958">
        <ele>94.3465576</ele>
        <time>2012-08-24T08:33:48Z</time>
      </trkpt>
      <trkpt lat="47.19777" lon="-0.73947">
        <ele>97.2304688</ele>
        <time>2012-08-24T08:33:54Z</time>
      </trkpt>
      <trkpt lat="47.19787" lon="-0.73933">
        <ele>99.1530762</ele>
        <time>2012-08-24T08:34:00Z</time>
      </trkpt>
      <trkpt lat="47.19798" lon="-0.73912">
        <ele>92.904541</ele>
        <time>2012-08-24T08:34:08Z</time>
      </trkpt>
      <trkpt lat="47.19811" lon="-0.73895">
        <ele>92.904541</ele>
        <time>2012-08-24T08:34:14Z</time>
      </trkpt>
      <trkpt lat="47.19831" lon="-0.73872">
        <ele>96.2692871</ele>
        <time>2012-08-24T08:34:21Z</time>
      </trkpt>
      <trkpt lat="47.19843" lon="-0.73851">
        <ele>95.3077393</ele>
        <time>2012-08-24T08:34:26Z</time>
      </trkpt>
      <trkpt lat="47.19851" lon="-0.73835">
        <ele>96.7498779</ele>
        <time>2012-08-24T08:34:29Z</time>
      </trkpt>
      <trkpt lat="47.19864" lon="-0.73806">
        <ele>98.6724854</ele>
        <time>2012-08-24T08:34:33Z</time>
      </trkpt>
      <trkpt lat="47.19878" lon="-0.73773">
        <ele>99.1530762</ele>
        <time>2012-08-24T08:34:37Z</time>
      </trkpt>
      <trkpt lat="47.19899" lon="-0.73713">
        <ele>97.2304688</ele>
        <time>2012-08-24T08:34:43Z</time>
      </trkpt>
      <trkpt lat="47.19912" lon="-0.7367">
        <ele>95.3077393</ele>
        <time>2012-08-24T08:34:47Z</time>
      </trkpt>
      <trkpt lat="47.1996" lon="-0.7358">
        <ele>93.8658447</ele>
        <time>2012-08-24T08:34:55Z</time>
      </trkpt>
      <trkpt lat="47.19991" lon="-0.73538">
        <ele>85.2139893</ele>
        <time>2012-08-24T08:35:00Z</time>
      </trkpt>
      <trkpt lat="47.19994" lon="-0.73533">
        <ele>84.2526855</ele>
        <time>2012-08-24T08:35:01Z</time>
      </trkpt>
      <trkpt lat="47.19998" lon="-0.73526">
        <ele>81.3687744</ele>
        <time>2012-08-24T08:35:06Z</time>
      </trkpt>
      <trkpt lat="47.20005" lon="-0.73519">
        <ele>81.3687744</ele>
        <time>2012-08-24T08:35:14Z</time>
      </trkpt>
      <trkpt lat="47.20015" lon="-0.73508">
        <ele>82.3300781</ele>
        <time>2012-08-24T08:35:18Z</time>
      </trkpt>
      <trkpt lat="47.2003" lon="-0.73501">
        <ele>84.7333984</ele>
        <time>2012-08-24T08:35:23Z</time>
      </trkpt>
      <trkpt lat="47.20039" lon="-0.73499">
        <ele>85.2139893</ele>
        <time>2012-08-24T08:35:27Z</time>
      </trkpt>
      <trkpt lat="47.20059" lon="-0.7349">
        <ele>84.2526855</ele>
        <time>2012-08-24T08:35:32Z</time>
      </trkpt>
      <trkpt lat="47.20074" lon="-0.73483">
        <ele>82.810791</ele>
        <time>2012-08-24T08:35:35Z</time>
      </trkpt>
      <trkpt lat="47.20091" lon="-0.73491">
        <ele>82.810791</ele>
        <time>2012-08-24T08:35:39Z</time>
      </trkpt>
      <trkpt lat="47.20101" lon="-0.73499">
        <ele>83.2913818</ele>
        <time>2012-08-24T08:35:42Z</time>
      </trkpt>
      <trkpt lat="47.20123" lon="-0.73513">
        <ele>83.7719727</ele>
        <time>2012-08-24T08:35:49Z</time>
      </trkpt>
      <trkpt lat="47.20142" lon="-0.73537">
        <ele>84.2526855</ele>
        <time>2012-08-24T08:35:55Z</time>
      </trkpt>
      <trkpt lat="47.20144" lon="-0.73558">
        <ele>83.7719727</ele>
        <time>2012-08-24T08:35:59Z</time>
      </trkpt>
      <trkpt lat="47.20127" lon="-0.73613">
        <ele>84.2526855</ele>
        <time>2012-08-24T08:36:09Z</time>
      </trkpt>
      <trkpt lat="47.20122" lon="-0.73623">
        <ele>84.7333984</ele>
        <time>2012-08-24T08:36:11Z</time>
      </trkpt>
      <trkpt lat="47.20107" lon="-0.73654">
        <ele>85.6945801</ele>
        <time>2012-08-24T08:36:18Z</time>
      </trkpt>
      <trkpt lat="47.20103" lon="-0.73683">
        <ele>85.2139893</ele>
        <time>2012-08-24T08:36:23Z</time>
      </trkpt>
      <trkpt lat="47.20103" lon="-0.73713">
        <ele>85.6945801</ele>
        <time>2012-08-24T08:36:28Z</time>
      </trkpt>
      <trkpt lat="47.20102" lon="-0.73725">
        <ele>85.2139893</ele>
        <time>2012-08-24T08:36:30Z</time>
      </trkpt>
      <trkpt lat="47.20096" lon="-0.73757">
        <ele>85.2139893</ele>
        <time>2012-08-24T08:36:36Z</time>
      </trkpt>
      <trkpt lat="47.20087" lon="-0.73788">
        <ele>87.1365967</ele>
        <time>2012-08-24T08:36:42Z</time>
      </trkpt>
      <trkpt lat="47.20083" lon="-0.73816">
        <ele>87.6171875</ele>
        <time>2012-08-24T08:36:47Z</time>
      </trkpt>
      <trkpt lat="47.20081" lon="-0.73831">
        <ele>88.0980225</ele>
        <time>2012-08-24T08:36:50Z</time>
      </trkpt>
      <trkpt lat="47.20087" lon="-0.73851">
        <ele>86.6560059</ele>
        <time>2012-08-24T08:36:54Z</time>
      </trkpt>
      <trkpt lat="47.20109" lon="-0.73886">
        <ele>83.2913818</ele>
        <time>2012-08-24T08:36:59Z</time>
      </trkpt>
      <trkpt lat="47.20128" lon="-0.73909">
        <ele>80.4074707</ele>
        <time>2012-08-24T08:37:02Z</time>
      </trkpt>
      <trkpt lat="47.20149" lon="-0.73961">
        <ele>77.0428467</ele>
        <time>2012-08-24T08:37:06Z</time>
      </trkpt>
      <trkpt lat="47.20158" lon="-0.73993">
        <ele>78.0040283</ele>
        <time>2012-08-24T08:37:09Z</time>
      </trkpt>
      <trkpt lat="47.20164" lon="-0.74008">
        <ele>77.0428467</ele>
        <time>2012-08-24T08:37:11Z</time>
      </trkpt>
      <trkpt lat="47.20171" lon="-0.74034">
        <ele>77.0428467</ele>
        <time>2012-08-24T08:37:15Z</time>
      </trkpt>
      <trkpt lat="47.20168" lon="-0.74053">
        <ele>76.5621338</ele>
        <time>2012-08-24T08:37:18Z</time>
      </trkpt>
      <trkpt lat="47.20165" lon="-0.74058">
        <ele>76.0814209</ele>
        <time>2012-08-24T08:37:19Z</time>
      </trkpt>
      <trkpt lat="47.20151" lon="-0.74087">
        <ele>75.1202393</ele>
        <time>2012-08-24T08:37:25Z</time>
      </trkpt>
      <trkpt lat="47.20135" lon="-0.74126">
        <ele>74.6395264</ele>
        <time>2012-08-24T08:37:31Z</time>
      </trkpt>
      <trkpt lat="47.2012" lon="-0.74154">
        <ele>74.6395264</ele>
        <time>2012-08-24T08:37:36Z</time>
      </trkpt>
      <trkpt lat="47.20109" lon="-0.74178">
        <ele>73.1976318</ele>
        <time>2012-08-24T08:37:40Z</time>
      </trkpt>
      <trkpt lat="47.20106" lon="-0.74213">
        <ele>75.6008301</ele>
        <time>2012-08-24T08:37:45Z</time>
      </trkpt>
      <trkpt lat="47.20111" lon="-0.74226">
        <ele>75.6008301</ele>
        <time>2012-08-24T08:37:47Z</time>
      </trkpt>
      <trkpt lat="47.20128" lon="-0.7423">
        <ele>75.6008301</ele>
        <time>2012-08-24T08:37:53Z</time>
      </trkpt>
      <trkpt lat="47.2013" lon="-0.74227">
        <ele>74.6395264</ele>
        <time>2012-08-24T08:37:54Z</time>
      </trkpt>
      <trkpt lat="47.20143" lon="-0.7421">
        <ele>77.0428467</ele>
        <time>2012-08-24T08:38:00Z</time>
      </trkpt>
      <trkpt lat="47.20158" lon="-0.74192">
        <ele>75.6008301</ele>
        <time>2012-08-24T08:38:05Z</time>
      </trkpt>
      <trkpt lat="47.2017" lon="-0.74177">
        <ele>80.4074707</ele>
        <time>2012-08-24T08:38:10Z</time>
      </trkpt>
      <trkpt lat="47.20185" lon="-0.74144">
        <ele>82.3300781</ele>
        <time>2012-08-24T08:38:16Z</time>
      </trkpt>
      <trkpt lat="47.20201" lon="-0.74111">
        <ele>80.4074707</ele>
        <time>2012-08-24T08:38:22Z</time>
      </trkpt>
      <trkpt lat="47.2021" lon="-0.74077">
        <ele>78.4847412</ele>
        <time>2012-08-24T08:38:27Z</time>
      </trkpt>
      <trkpt lat="47.20217" lon="-0.74055">
        <ele>79.9266357</ele>
        <time>2012-08-24T08:38:31Z</time>
      </trkpt>
      <trkpt lat="47.20221" lon="-0.74043">
        <ele>78.4847412</ele>
        <time>2012-08-24T08:38:33Z</time>
      </trkpt>
      <trkpt lat="47.20226" lon="-0.74005">
        <ele>77.0428467</ele>
        <time>2012-08-24T08:38:39Z</time>
      </trkpt>
      <trkpt lat="47.20218" lon="-0.73976">
        <ele>73.6782227</ele>
        <time>2012-08-24T08:38:43Z</time>
      </trkpt>
      <trkpt lat="47.20198" lon="-0.73953">
        <ele>75.6008301</ele>
        <time>2012-08-24T08:38:47Z</time>
      </trkpt>
      <trkpt lat="47.20186" lon="-0.73927">
        <ele>81.3687744</ele>
        <time>2012-08-24T08:38:51Z</time>
      </trkpt>
      <trkpt lat="47.20193" lon="-0.73898">
        <ele>77.0428467</ele>
        <time>2012-08-24T08:38:55Z</time>
      </trkpt>
      <trkpt lat="47.202" lon="-0.73884">
        <ele>74.1588135</ele>
        <time>2012-08-24T08:38:57Z</time>
      </trkpt>
      <trkpt lat="47.20206" lon="-0.73869">
        <ele>73.1976318</ele>
        <time>2012-08-24T08:38:59Z</time>
      </trkpt>
      <trkpt lat="47.20213" lon="-0.73843">
        <ele>74.1588135</ele>
        <time>2012-08-24T08:39:03Z</time>
      </trkpt>
      <trkpt lat="47.20221" lon="-0.73817">
        <ele>74.1588135</ele>
        <time>2012-08-24T08:39:07Z</time>
      </trkpt>
      <trkpt lat="47.20234" lon="-0.73785">
        <ele>73.6782227</ele>
        <time>2012-08-24T08:39:12Z</time>
      </trkpt>
      <trkpt lat="47.20237" lon="-0.73782">
        <ele>75.6008301</ele>
        <time>2012-08-24T08:39:14Z</time>
      </trkpt>
      <trkpt lat="47.20241" lon="-0.7378">
        <ele>78.9654541</ele>
        <time>2012-08-24T08:39:24Z</time>
      </trkpt>
      <trkpt lat="47.20242" lon="-0.7378">
        <ele>78.9654541</ele>
        <time>2012-08-24T08:39:40Z</time>
      </trkpt>
      <trkpt lat="47.2024" lon="-0.73775">
        <ele>76.0814209</ele>
        <time>2012-08-24T08:39:47Z</time>
      </trkpt>
      <trkpt lat="47.2024" lon="-0.73785">
        <ele>75.1202393</ele>
        <time>2012-08-24T08:39:52Z</time>
      </trkpt>
      <trkpt lat="47.20249" lon="-0.73802">
        <ele>77.0428467</ele>
        <time>2012-08-24T08:39:58Z</time>
      </trkpt>
      <trkpt lat="47.2026" lon="-0.73817">
        <ele>79.4460449</ele>
        <time>2012-08-24T08:40:03Z</time>
      </trkpt>
      <trkpt lat="47.20269" lon="-0.73833">
        <ele>81.8493652</ele>
        <time>2012-08-24T08:40:08Z</time>
      </trkpt>
      <trkpt lat="47.20274" lon="-0.73839">
        <ele>82.810791</ele>
        <time>2012-08-24T08:40:10Z</time>
      </trkpt>
      <trkpt lat="47.20281" lon="-0.73847">
        <ele>83.7719727</ele>
        <time>2012-08-24T08:40:13Z</time>
      </trkpt>
      <trkpt lat="47.20288" lon="-0.7386">
        <ele>84.7333984</ele>
        <time>2012-08-24T08:40:18Z</time>
      </trkpt>
      <trkpt lat="47.20297" lon="-0.73873">
        <ele>86.175293</ele>
        <time>2012-08-24T08:40:24Z</time>
      </trkpt>
      <trkpt lat="47.20299" lon="-0.73875">
        <ele>87.1365967</ele>
        <time>2012-08-24T08:40:25Z</time>
      </trkpt>
      <trkpt lat="47.20309" lon="-0.73889">
        <ele>87.6171875</ele>
        <time>2012-08-24T08:40:30Z</time>
      </trkpt>
      <trkpt lat="47.20313" lon="-0.73894">
        <ele>87.6171875</ele>
        <time>2012-08-24T08:40:32Z</time>
      </trkpt>
      <trkpt lat="47.20323" lon="-0.73904">
        <ele>87.6171875</ele>
        <time>2012-08-24T08:40:37Z</time>
      </trkpt>
      <trkpt lat="47.20325" lon="-0.73905">
        <ele>87.6171875</ele>
        <time>2012-08-24T08:40:38Z</time>
      </trkpt>
      <trkpt lat="47.20339" lon="-0.7391">
        <ele>89.539917</ele>
        <time>2012-08-24T08:40:44Z</time>
      </trkpt>
      <trkpt lat="47.20342" lon="-0.73902">
        <ele>90.0206299</ele>
        <time>2012-08-24T08:40:49Z</time>
      </trkpt>
      <trkpt lat="47.2035" lon="-0.73882">
        <ele>91.4625244</ele>
        <time>2012-08-24T08:40:55Z</time>
      </trkpt>
      <trkpt lat="47.20361" lon="-0.73855">
        <ele>90.5013428</ele>
        <time>2012-08-24T08:41:02Z</time>
      </trkpt>
      <trkpt lat="47.20374" lon="-0.73825">
        <ele>90.5013428</ele>
        <time>2012-08-24T08:41:09Z</time>
      </trkpt>
      <trkpt lat="47.20392" lon="-0.73783">
        <ele>91.9432373</ele>
        <time>2012-08-24T08:41:17Z</time>
      </trkpt>
      <trkpt lat="47.20412" lon="-0.73745">
        <ele>93.3851318</ele>
        <time>2012-08-24T08:41:24Z</time>
      </trkpt>
      <trkpt lat="47.20435" lon="-0.73702">
        <ele>91.9432373</ele>
        <time>2012-08-24T08:41:32Z</time>
      </trkpt>
      <trkpt lat="47.20462" lon="-0.73653">
        <ele>92.4239502</ele>
        <time>2012-08-24T08:41:40Z</time>
      </trkpt>
      <trkpt lat="47.20487" lon="-0.73612">
        <ele>92.904541</ele>
        <time>2012-08-24T08:41:47Z</time>
      </trkpt>
      <trkpt lat="47.20492" lon="-0.73606">
        <ele>93.3851318</ele>
        <time>2012-08-24T08:41:48Z</time>
      </trkpt>
      <trkpt lat="47.20516" lon="-0.73572">
        <ele>91.4625244</ele>
        <time>2012-08-24T08:41:54Z</time>
      </trkpt>
      <trkpt lat="47.20542" lon="-0.73534">
        <ele>91.9432373</ele>
        <time>2012-08-24T08:42:00Z</time>
      </trkpt>
      <trkpt lat="47.20574" lon="-0.73489">
        <ele>92.4239502</ele>
        <time>2012-08-24T08:42:07Z</time>
      </trkpt>
      <trkpt lat="47.20583" lon="-0.73477">
        <ele>90.9819336</ele>
        <time>2012-08-24T08:42:09Z</time>
      </trkpt>
      <trkpt lat="47.20608" lon="-0.73436">
        <ele>88.5787354</ele>
        <time>2012-08-24T08:42:15Z</time>
      </trkpt>
      <trkpt lat="47.2064" lon="-0.73412">
        <ele>89.539917</ele>
        <time>2012-08-24T08:42:20Z</time>
      </trkpt>
      <trkpt lat="47.2068" lon="-0.73394">
        <ele>86.6560059</ele>
        <time>2012-08-24T08:42:27Z</time>
      </trkpt>
      <trkpt lat="47.2071" lon="-0.73384">
        <ele>86.6560059</ele>
        <time>2012-08-24T08:42:32Z</time>
      </trkpt>
      <trkpt lat="47.20749" lon="-0.7337">
        <ele>80.8881836</ele>
        <time>2012-08-24T08:42:38Z</time>
      </trkpt>
      <trkpt lat="47.20789" lon="-0.73363">
        <ele>79.4460449</ele>
        <time>2012-08-24T08:42:43Z</time>
      </trkpt>
      <trkpt lat="47.20812" lon="-0.73364">
        <ele>78.4847412</ele>
        <time>2012-08-24T08:42:46Z</time>
      </trkpt>
      <trkpt lat="47.20852" lon="-0.73377">
        <ele>80.4074707</ele>
        <time>2012-08-24T08:42:52Z</time>
      </trkpt>
      <trkpt lat="47.20872" lon="-0.73377">
        <ele>82.3300781</ele>
        <time>2012-08-24T08:42:57Z</time>
      </trkpt>
      <trkpt lat="47.20879" lon="-0.73366">
        <ele>83.2913818</ele>
        <time>2012-08-24T08:43:00Z</time>
      </trkpt>
      <trkpt lat="47.20881" lon="-0.73358">
        <ele>83.7719727</ele>
        <time>2012-08-24T08:43:02Z</time>
      </trkpt>
      <trkpt lat="47.20883" lon="-0.73329">
        <ele>83.7719727</ele>
        <time>2012-08-24T08:43:08Z</time>
      </trkpt>
      <trkpt lat="47.20891" lon="-0.733">
        <ele>80.8881836</ele>
        <time>2012-08-24T08:43:13Z</time>
      </trkpt>
      <trkpt lat="47.20906" lon="-0.73283">
        <ele>78.9654541</ele>
        <time>2012-08-24T08:43:17Z</time>
      </trkpt>
      <trkpt lat="47.20909" lon="-0.73281">
        <ele>78.4847412</ele>
        <time>2012-08-24T08:43:18Z</time>
      </trkpt>
      <trkpt lat="47.20917" lon="-0.73265">
        <ele>74.6395264</ele>
        <time>2012-08-24T08:43:23Z</time>
      </trkpt>
      <trkpt lat="47.20922" lon="-0.73246">
        <ele>74.1588135</ele>
        <time>2012-08-24T08:43:26Z</time>
      </trkpt>
      <trkpt lat="47.20934" lon="-0.73235">
        <ele>73.1976318</ele>
        <time>2012-08-24T08:43:29Z</time>
      </trkpt>
      <trkpt lat="47.20948" lon="-0.73237">
        <ele>74.1588135</ele>
        <time>2012-08-24T08:43:32Z</time>
      </trkpt>
      <trkpt lat="47.2096" lon="-0.73241">
        <ele>75.1202393</ele>
        <time>2012-08-24T08:43:35Z</time>
      </trkpt>
      <trkpt lat="47.2097" lon="-0.7324">
        <ele>75.6008301</ele>
        <time>2012-08-24T08:43:38Z</time>
      </trkpt>
      <trkpt lat="47.20985" lon="-0.73242">
        <ele>76.5621338</ele>
        <time>2012-08-24T08:43:42Z</time>
      </trkpt>
      <trkpt lat="47.21004" lon="-0.73247">
        <ele>77.5234375</ele>
        <time>2012-08-24T08:43:46Z</time>
      </trkpt>
      <trkpt lat="47.21023" lon="-0.73251">
        <ele>77.5234375</ele>
        <time>2012-08-24T08:43:50Z</time>
      </trkpt>
      <trkpt lat="47.21052" lon="-0.73257">
        <ele>75.1202393</ele>
        <time>2012-08-24T08:43:56Z</time>
      </trkpt>
      <trkpt lat="47.2108" lon="-0.73268">
        <ele>72.7169189</ele>
        <time>2012-08-24T08:44:01Z</time>
      </trkpt>
      <trkpt lat="47.21104" lon="-0.73277">
        <ele>74.1588135</ele>
        <time>2012-08-24T08:44:05Z</time>
      </trkpt>
      <trkpt lat="47.21119" lon="-0.7328">
        <ele>75.6008301</ele>
        <time>2012-08-24T08:44:08Z</time>
      </trkpt>
      <trkpt lat="47.21159" lon="-0.73295">
        <ele>74.6395264</ele>
        <time>2012-08-24T08:44:16Z</time>
      </trkpt>
      <trkpt lat="47.21192" lon="-0.73312">
        <ele>71.7554932</ele>
        <time>2012-08-24T08:44:22Z</time>
      </trkpt>
      <trkpt lat="47.21207" lon="-0.7332">
        <ele>70.3134766</ele>
        <time>2012-08-24T08:44:25Z</time>
      </trkpt>
      <trkpt lat="47.21232" lon="-0.73324">
        <ele>68.3908691</ele>
        <time>2012-08-24T08:44:29Z</time>
      </trkpt>
      <trkpt lat="47.21271" lon="-0.73327">
        <ele>67.4296875</ele>
        <time>2012-08-24T08:44:34Z</time>
      </trkpt>
      <trkpt lat="47.21281" lon="-0.73329">
        <ele>67.9102783</ele>
        <time>2012-08-24T08:44:36Z</time>
      </trkpt>
      <trkpt lat="47.21287" lon="-0.7333">
        <ele>68.3908691</ele>
        <time>2012-08-24T08:44:39Z</time>
      </trkpt>
      <trkpt lat="47.21288" lon="-0.73331">
        <ele>69.8328857</ele>
        <time>2012-08-24T08:44:45Z</time>
      </trkpt>
      <trkpt lat="47.21288" lon="-0.7333">
        <ele>69.3522949</ele>
        <time>2012-08-24T08:44:53Z</time>
      </trkpt>
      <trkpt lat="47.21288" lon="-0.73331">
        <ele>69.3522949</ele>
        <time>2012-08-24T08:45:00Z</time>
      </trkpt>
      <trkpt lat="47.2129" lon="-0.73332">
        <ele>69.3522949</ele>
        <time>2012-08-24T08:45:04Z</time>
      </trkpt>
      <trkpt lat="47.21291" lon="-0.73344">
        <ele>70.7941895</ele>
        <time>2012-08-24T08:45:08Z</time>
      </trkpt>
      <trkpt lat="47.21286" lon="-0.73373">
        <ele>70.7941895</ele>
        <time>2012-08-24T08:45:13Z</time>
      </trkpt>
      <trkpt lat="47.21284" lon="-0.73382">
        <ele>70.3134766</ele>
        <time>2012-08-24T08:45:15Z</time>
      </trkpt>
      <trkpt lat="47.21288" lon="-0.73389">
        <ele>68.871582</ele>
        <time>2012-08-24T08:45:18Z</time>
      </trkpt>
      <trkpt lat="47.21301" lon="-0.73392">
        <ele>67.9102783</ele>
        <time>2012-08-24T08:45:21Z</time>
      </trkpt>
      <trkpt lat="47.21318" lon="-0.73399">
        <ele>66.4682617</ele>
        <time>2012-08-24T08:45:24Z</time>
      </trkpt>
      <trkpt lat="47.21324" lon="-0.73405">
        <ele>66.4682617</ele>
        <time>2012-08-24T08:45:25Z</time>
      </trkpt>
      <trkpt lat="47.2133" lon="-0.73414">
        <ele>66.9489746</ele>
        <time>2012-08-24T08:45:27Z</time>
      </trkpt>
      <trkpt lat="47.21339" lon="-0.73414">
        <ele>64.0650635</ele>
        <time>2012-08-24T08:45:31Z</time>
      </trkpt>
      <trkpt lat="47.21346" lon="-0.73409">
        <ele>62.6229248</ele>
        <time>2012-08-24T08:45:35Z</time>
      </trkpt>
      <trkpt lat="47.21344" lon="-0.7341">
        <ele>62.142334</ele>
        <time>2012-08-24T08:45:38Z</time>
      </trkpt>
      <trkpt lat="47.21339" lon="-0.73421">
        <ele>63.5843506</ele>
        <time>2012-08-24T08:45:43Z</time>
      </trkpt>
      <trkpt lat="47.21339" lon="-0.73428">
        <ele>63.1036377</ele>
        <time>2012-08-24T08:45:46Z</time>
      </trkpt>
      <trkpt lat="47.21339" lon="-0.73461">
        <ele>57.8165283</ele>
        <time>2012-08-24T08:45:52Z</time>
      </trkpt>
      <trkpt lat="47.2134" lon="-0.73471">
        <ele>56.8551025</ele>
        <time>2012-08-24T08:45:54Z</time>
      </trkpt>
      <trkpt lat="47.21351" lon="-0.73491">
        <ele>57.8165283</ele>
        <time>2012-08-24T08:45:59Z</time>
      </trkpt>
      <trkpt lat="47.21352" lon="-0.73492">
        <ele>57.8165283</ele>
        <time>2012-08-24T08:46:00Z</time>
      </trkpt>
      <trkpt lat="47.2135" lon="-0.7351">
        <ele>60.2197266</ele>
        <time>2012-08-24T08:46:05Z</time>
      </trkpt>
      <trkpt lat="47.21354" lon="-0.73516">
        <ele>60.7003174</ele>
        <time>2012-08-24T08:46:08Z</time>
      </trkpt>
      <trkpt lat="47.21365" lon="-0.7352">
        <ele>60.2197266</ele>
        <time>2012-08-24T08:46:11Z</time>
      </trkpt>
      <trkpt lat="47.2139" lon="-0.73534">
        <ele>58.77771</ele>
        <time>2012-08-24T08:46:17Z</time>
      </trkpt>
      <trkpt lat="47.21402" lon="-0.73541">
        <ele>57.8165283</ele>
        <time>2012-08-24T08:46:20Z</time>
      </trkpt>
      <trkpt lat="47.21423" lon="-0.73552">
        <ele>57.8165283</ele>
        <time>2012-08-24T08:46:25Z</time>
      </trkpt>
      <trkpt lat="47.21437" lon="-0.73562">
        <ele>56.3745117</ele>
        <time>2012-08-24T08:46:29Z</time>
      </trkpt>
      <trkpt lat="47.21455" lon="-0.73576">
        <ele>56.3745117</ele>
        <time>2012-08-24T08:46:35Z</time>
      </trkpt>
      <trkpt lat="47.21474" lon="-0.7358">
        <ele>59.7391357</ele>
        <time>2012-08-24T08:46:40Z</time>
      </trkpt>
      <trkpt lat="47.21489" lon="-0.73578">
        <ele>58.2971191</ele>
        <time>2012-08-24T08:46:44Z</time>
      </trkpt>
      <trkpt lat="47.21512" lon="-0.73579">
        <ele>59.7391357</ele>
        <time>2012-08-24T08:46:49Z</time>
      </trkpt>
      <trkpt lat="47.21522" lon="-0.73581">
        <ele>59.2584229</ele>
        <time>2012-08-24T08:46:51Z</time>
      </trkpt>
      <trkpt lat="47.21555" lon="-0.73599">
        <ele>58.77771</ele>
        <time>2012-08-24T08:46:58Z</time>
      </trkpt>
      <trkpt lat="47.21578" lon="-0.73615">
        <ele>58.2971191</ele>
        <time>2012-08-24T08:47:04Z</time>
      </trkpt>
      <trkpt lat="47.21582" lon="-0.73619">
        <ele>57.8165283</ele>
        <time>2012-08-24T08:47:05Z</time>
      </trkpt>
      <trkpt lat="47.216" lon="-0.7364">
        <ele>55.8937988</ele>
        <time>2012-08-24T08:47:10Z</time>
      </trkpt>
      <trkpt lat="47.21619" lon="-0.73647">
        <ele>54.932373</ele>
        <time>2012-08-24T08:47:14Z</time>
      </trkpt>
      <trkpt lat="47.21644" lon="-0.73646">
        <ele>55.4130859</ele>
        <time>2012-08-24T08:47:19Z</time>
      </trkpt>
      <trkpt lat="47.2167" lon="-0.73644">
        <ele>57.3358154</ele>
        <time>2012-08-24T08:47:25Z</time>
      </trkpt>
      <trkpt lat="47.21697" lon="-0.73639">
        <ele>58.2971191</ele>
        <time>2012-08-24T08:47:32Z</time>
      </trkpt>
      <trkpt lat="47.21705" lon="-0.73647">
        <ele>60.7003174</ele>
        <time>2012-08-24T08:47:37Z</time>
      </trkpt>
      <trkpt lat="47.21707" lon="-0.73649">
        <ele>61.1810303</ele>
        <time>2012-08-24T08:47:39Z</time>
      </trkpt>
      <trkpt lat="47.21703" lon="-0.73662">
        <ele>65.0263672</ele>
        <time>2012-08-24T08:47:45Z</time>
      </trkpt>
      <trkpt lat="47.21701" lon="-0.73665">
        <ele>67.4296875</ele>
        <time>2012-08-24T08:47:47Z</time>
      </trkpt>
      <trkpt lat="47.21701" lon="-0.73677">
        <ele>69.3522949</ele>
        <time>2012-08-24T08:47:53Z</time>
      </trkpt>
      <trkpt lat="47.21701" lon="-0.73681">
        <ele>69.8328857</ele>
        <time>2012-08-24T08:47:56Z</time>
      </trkpt>
      <trkpt lat="47.217" lon="-0.73685">
        <ele>68.871582</ele>
        <time>2012-08-24T08:48:02Z</time>
      </trkpt>
      <trkpt lat="47.21703" lon="-0.73692">
        <ele>71.7554932</ele>
        <time>2012-08-24T08:48:16Z</time>
      </trkpt>
      <trkpt lat="47.21705" lon="-0.73698">
        <ele>71.7554932</ele>
        <time>2012-08-24T08:48:24Z</time>
      </trkpt>
      <trkpt lat="47.21706" lon="-0.73706">
        <ele>71.2749023</ele>
        <time>2012-08-24T08:48:30Z</time>
      </trkpt>
      <trkpt lat="47.21706" lon="-0.7371">
        <ele>72.7169189</ele>
        <time>2012-08-24T08:48:36Z</time>
      </trkpt>
      <trkpt lat="47.21708" lon="-0.73719">
        <ele>76.5621338</ele>
        <time>2012-08-24T08:48:43Z</time>
      </trkpt>
      <trkpt lat="47.21708" lon="-0.73724">
        <ele>77.5234375</ele>
        <time>2012-08-24T08:48:46Z</time>
      </trkpt>
      <trkpt lat="47.21711" lon="-0.73737">
        <ele>79.9266357</ele>
        <time>2012-08-24T08:48:54Z</time>
      </trkpt>
      <trkpt lat="47.21711" lon="-0.7374">
        <ele>80.8881836</ele>
        <time>2012-08-24T08:49:02Z</time>
      </trkpt>
      <trkpt lat="47.21716" lon="-0.73743">
        <ele>81.3687744</ele>
        <time>2012-08-24T08:49:08Z</time>
      </trkpt>
      <trkpt lat="47.21723" lon="-0.73741">
        <ele>82.3300781</ele>
        <time>2012-08-24T08:49:16Z</time>
      </trkpt>
      <trkpt lat="47.21725" lon="-0.73739">
        <ele>82.3300781</ele>
        <time>2012-08-24T08:49:23Z</time>
      </trkpt>
      <trkpt lat="47.21726" lon="-0.7374">
        <ele>82.3300781</ele>
        <time>2012-08-24T08:49:40Z</time>
      </trkpt>
      <trkpt lat="47.21725" lon="-0.73738">
        <ele>82.810791</ele>
        <time>2012-08-24T08:49:48Z</time>
      </trkpt>
      <trkpt lat="47.21726" lon="-0.73737">
        <ele>84.7333984</ele>
        <time>2012-08-24T08:49:57Z</time>
      </trkpt>
      <trkpt lat="47.21726" lon="-0.73736">
        <ele>86.175293</ele>
        <time>2012-08-24T08:50:05Z</time>
      </trkpt>
      <trkpt lat="47.21726" lon="-0.73736">
        <ele>86.6560059</ele>
        <time>2012-08-24T08:50:06Z</time>
      </trkpt>
      <trkpt lat="47.21726" lon="-0.73736">
        <ele>87.6171875</ele>
        <time>2012-08-24T08:50:13Z</time>
      </trkpt>
      <trkpt lat="47.21726" lon="-0.73735">
        <ele>87.6171875</ele>
        <time>2012-08-24T08:50:14Z</time>
      </trkpt>
      <trkpt lat="47.21727" lon="-0.73736">
        <ele>86.6560059</ele>
        <time>2012-08-24T08:50:20Z</time>
      </trkpt>
      <trkpt lat="47.21731" lon="-0.73733">
        <ele>86.175293</ele>
        <time>2012-08-24T08:50:25Z</time>
      </trkpt>
      <trkpt lat="47.21735" lon="-0.73731">
        <ele>83.7719727</ele>
        <time>2012-08-24T08:50:29Z</time>
      </trkpt>
      <trkpt lat="47.21741" lon="-0.73727">
        <ele>82.3300781</ele>
        <time>2012-08-24T08:50:33Z</time>
      </trkpt>
      <trkpt lat="47.21758" lon="-0.73715">
        <ele>76.5621338</ele>
        <time>2012-08-24T08:50:41Z</time>
      </trkpt>
      <trkpt lat="47.2178" lon="-0.73701">
        <ele>70.7941895</ele>
        <time>2012-08-24T08:50:49Z</time>
      </trkpt>
      <trkpt lat="47.21807" lon="-0.73684">
        <ele>71.7554932</ele>
        <time>2012-08-24T08:50:56Z</time>
      </trkpt>
      <trkpt lat="47.21835" lon="-0.73667">
        <ele>71.7554932</ele>
        <time>2012-08-24T08:51:03Z</time>
      </trkpt>
      <trkpt lat="47.21871" lon="-0.73648">
        <ele>73.6782227</ele>
        <time>2012-08-24T08:51:11Z</time>
      </trkpt>
      <trkpt lat="47.21903" lon="-0.73631">
        <ele>74.1588135</ele>
        <time>2012-08-24T08:51:19Z</time>
      </trkpt>
      <trkpt lat="47.21907" lon="-0.73629">
        <ele>74.1588135</ele>
        <time>2012-08-24T08:51:20Z</time>
      </trkpt>
      <trkpt lat="47.21922" lon="-0.73635">
        <ele>73.6782227</ele>
        <time>2012-08-24T08:51:24Z</time>
      </trkpt>
      <trkpt lat="47.21924" lon="-0.7364">
        <ele>74.1588135</ele>
        <time>2012-08-24T08:51:25Z</time>
      </trkpt>
      <trkpt lat="47.21939" lon="-0.73679">
        <ele>75.6008301</ele>
        <time>2012-08-24T08:51:33Z</time>
      </trkpt>
      <trkpt lat="47.21944" lon="-0.73704">
        <ele>78.9654541</ele>
        <time>2012-08-24T08:51:38Z</time>
      </trkpt>
      <trkpt lat="47.21946" lon="-0.73737">
        <ele>81.3687744</ele>
        <time>2012-08-24T08:51:45Z</time>
      </trkpt>
      <trkpt lat="47.21943" lon="-0.73764">
        <ele>82.3300781</ele>
        <time>2012-08-24T08:51:51Z</time>
      </trkpt>
      <trkpt lat="47.21939" lon="-0.73787">
        <ele>82.3300781</ele>
        <time>2012-08-24T08:51:57Z</time>
      </trkpt>
      <trkpt lat="47.21939" lon="-0.73791">
        <ele>82.3300781</ele>
        <time>2012-08-24T08:51:58Z</time>
      </trkpt>
      <trkpt lat="47.21946" lon="-0.73794">
        <ele>82.810791</ele>
        <time>2012-08-24T08:52:02Z</time>
      </trkpt>
      <trkpt lat="47.21956" lon="-0.7379">
        <ele>81.8493652</ele>
        <time>2012-08-24T08:52:05Z</time>
      </trkpt>
      <trkpt lat="47.21982" lon="-0.73778">
        <ele>79.4460449</ele>
        <time>2012-08-24T08:52:10Z</time>
      </trkpt>
      <trkpt lat="47.22013" lon="-0.73762">
        <ele>76.0814209</ele>
        <time>2012-08-24T08:52:14Z</time>
      </trkpt>
      <trkpt lat="47.2207" lon="-0.73731">
        <ele>70.7941895</ele>
        <time>2012-08-24T08:52:20Z</time>
      </trkpt>
      <trkpt lat="47.22111" lon="-0.73687">
        <ele>67.4296875</ele>
        <time>2012-08-24T08:52:25Z</time>
      </trkpt>
      <trkpt lat="47.22132" lon="-0.73649">
        <ele>65.0263672</ele>
        <time>2012-08-24T08:52:28Z</time>
      </trkpt>
      <trkpt lat="47.22154" lon="-0.73572">
        <ele>60.7003174</ele>
        <time>2012-08-24T08:52:33Z</time>
      </trkpt>
      <trkpt lat="47.22159" lon="-0.73517">
        <ele>60.7003174</ele>
        <time>2012-08-24T08:52:37Z</time>
      </trkpt>
      <trkpt lat="47.22161" lon="-0.73488">
        <ele>61.6617432</ele>
        <time>2012-08-24T08:52:43Z</time>
      </trkpt>
      <trkpt lat="47.2216" lon="-0.73443">
        <ele>61.1810303</ele>
        <time>2012-08-24T08:52:48Z</time>
      </trkpt>
      <trkpt lat="47.2216" lon="-0.73397">
        <ele>60.7003174</ele>
        <time>2012-08-24T08:52:53Z</time>
      </trkpt>
      <trkpt lat="47.22152" lon="-0.73364">
        <ele>61.6617432</ele>
        <time>2012-08-24T08:52:58Z</time>
      </trkpt>
      <trkpt lat="47.22134" lon="-0.73348">
        <ele>61.6617432</ele>
        <time>2012-08-24T08:53:02Z</time>
      </trkpt>
      <trkpt lat="47.22123" lon="-0.73344">
        <ele>62.142334</ele>
        <time>2012-08-24T08:53:04Z</time>
      </trkpt>
      <trkpt lat="47.22107" lon="-0.73338">
        <ele>62.142334</ele>
        <time>2012-08-24T08:53:07Z</time>
      </trkpt>
      <trkpt lat="47.22088" lon="-0.73317">
        <ele>63.5843506</ele>
        <time>2012-08-24T08:53:11Z</time>
      </trkpt>
      <trkpt lat="47.22084" lon="-0.73301">
        <ele>64.0650635</ele>
        <time>2012-08-24T08:53:13Z</time>
      </trkpt>
      <trkpt lat="47.22079" lon="-0.73263">
        <ele>66.4682617</ele>
        <time>2012-08-24T08:53:19Z</time>
      </trkpt>
      <trkpt lat="47.22077" lon="-0.73221">
        <ele>68.3908691</ele>
        <time>2012-08-24T08:53:27Z</time>
      </trkpt>
      <trkpt lat="47.22076" lon="-0.73187">
        <ele>70.7941895</ele>
        <time>2012-08-24T08:53:34Z</time>
      </trkpt>
      <trkpt lat="47.22073" lon="-0.73165">
        <ele>73.6782227</ele>
        <time>2012-08-24T08:53:39Z</time>
      </trkpt>
      <trkpt lat="47.22063" lon="-0.7314">
        <ele>76.5621338</ele>
        <time>2012-08-24T08:53:45Z</time>
      </trkpt>
      <trkpt lat="47.22051" lon="-0.73109">
        <ele>80.4074707</ele>
        <time>2012-08-24T08:53:52Z</time>
      </trkpt>
      <trkpt lat="47.22048" lon="-0.7308">
        <ele>82.810791</ele>
        <time>2012-08-24T08:53:58Z</time>
      </trkpt>
      <trkpt lat="47.22071" lon="-0.73056">
        <ele>81.3687744</ele>
        <time>2012-08-24T08:54:06Z</time>
      </trkpt>
      <trkpt lat="47.22091" lon="-0.73035">
        <ele>80.4074707</ele>
        <time>2012-08-24T08:54:12Z</time>
      </trkpt>
      <trkpt lat="47.22095" lon="-0.73032">
        <ele>80.8881836</ele>
        <time>2012-08-24T08:54:13Z</time>
      </trkpt>
      <trkpt lat="47.22104" lon="-0.73012">
        <ele>80.4074707</ele>
        <time>2012-08-24T08:54:17Z</time>
      </trkpt>
      <trkpt lat="47.22101" lon="-0.72993">
        <ele>81.3687744</ele>
        <time>2012-08-24T08:54:21Z</time>
      </trkpt>
      <trkpt lat="47.22099" lon="-0.72989">
        <ele>81.3687744</ele>
        <time>2012-08-24T08:54:22Z</time>
      </trkpt>
      <trkpt lat="47.22085" lon="-0.72963">
        <ele>82.3300781</ele>
        <time>2012-08-24T08:54:29Z</time>
      </trkpt>
      <trkpt lat="47.22073" lon="-0.72964">
        <ele>82.810791</ele>
        <time>2012-08-24T08:54:33Z</time>
      </trkpt>
      <trkpt lat="47.22041" lon="-0.72983">
        <ele>84.2526855</ele>
        <time>2012-08-24T08:54:42Z</time>
      </trkpt>
      <trkpt lat="47.2203" lon="-0.72985">
        <ele>84.2526855</ele>
        <time>2012-08-24T08:54:45Z</time>
      </trkpt>
      <trkpt lat="47.2202" lon="-0.72969">
        <ele>84.2526855</ele>
        <time>2012-08-24T08:54:49Z</time>
      </trkpt>
      <trkpt lat="47.22009" lon="-0.72922">
        <ele>84.7333984</ele>
        <time>2012-08-24T08:54:57Z</time>
      </trkpt>
      <trkpt lat="47.21995" lon="-0.72879">
        <ele>85.2139893</ele>
        <time>2012-08-24T08:55:04Z</time>
      </trkpt>
      <trkpt lat="47.21974" lon="-0.72839">
        <ele>86.175293</ele>
        <time>2012-08-24T08:55:11Z</time>
      </trkpt>
      <trkpt lat="47.21958" lon="-0.72801">
        <ele>88.5787354</ele>
        <time>2012-08-24T08:55:18Z</time>
      </trkpt>
      <trkpt lat="47.21952" lon="-0.72781">
        <ele>91.9432373</ele>
        <time>2012-08-24T08:55:22Z</time>
      </trkpt>
      <trkpt lat="47.21946" lon="-0.72767">
        <ele>91.4625244</ele>
        <time>2012-08-24T08:55:27Z</time>
      </trkpt>
      <trkpt lat="47.21945" lon="-0.72768">
        <ele>88.5787354</ele>
        <time>2012-08-24T08:55:36Z</time>
      </trkpt>
      <trkpt lat="47.21942" lon="-0.72766">
        <ele>87.1365967</ele>
        <time>2012-08-24T08:55:41Z</time>
      </trkpt>
      <trkpt lat="47.21941" lon="-0.72756">
        <ele>86.175293</ele>
        <time>2012-08-24T08:55:44Z</time>
      </trkpt>
      <trkpt lat="47.21942" lon="-0.72733">
        <ele>86.175293</ele>
        <time>2012-08-24T08:55:48Z</time>
      </trkpt>
      <trkpt lat="47.2194" lon="-0.72707">
        <ele>87.1365967</ele>
        <time>2012-08-24T08:55:52Z</time>
      </trkpt>
      <trkpt lat="47.21941" lon="-0.72694">
        <ele>87.1365967</ele>
        <time>2012-08-24T08:55:54Z</time>
      </trkpt>
      <trkpt lat="47.21948" lon="-0.7267">
        <ele>87.1365967</ele>
        <time>2012-08-24T08:55:58Z</time>
      </trkpt>
      <trkpt lat="47.2195" lon="-0.72661">
        <ele>88.0980225</ele>
        <time>2012-08-24T08:56:03Z</time>
      </trkpt>
      <trkpt lat="47.21951" lon="-0.72657">
        <ele>87.6171875</ele>
        <time>2012-08-24T08:56:05Z</time>
      </trkpt>
      <trkpt lat="47.21952" lon="-0.72642">
        <ele>87.1365967</ele>
        <time>2012-08-24T08:56:09Z</time>
      </trkpt>
      <trkpt lat="47.21962" lon="-0.7262">
        <ele>86.6560059</ele>
        <time>2012-08-24T08:56:13Z</time>
      </trkpt>
      <trkpt lat="47.21975" lon="-0.72589">
        <ele>84.7333984</ele>
        <time>2012-08-24T08:56:18Z</time>
      </trkpt>
      <trkpt lat="47.21979" lon="-0.72563">
        <ele>82.3300781</ele>
        <time>2012-08-24T08:56:21Z</time>
      </trkpt>
      <trkpt lat="47.2198" lon="-0.72553">
        <ele>81.3687744</ele>
        <time>2012-08-24T08:56:22Z</time>
      </trkpt>
      <trkpt lat="47.21981" lon="-0.72523">
        <ele>79.4460449</ele>
        <time>2012-08-24T08:56:25Z</time>
      </trkpt>
      <trkpt lat="47.21979" lon="-0.725">
        <ele>79.4460449</ele>
        <time>2012-08-24T08:56:27Z</time>
      </trkpt>
      <trkpt lat="47.21985" lon="-0.72458">
        <ele>79.9266357</ele>
        <time>2012-08-24T08:56:31Z</time>
      </trkpt>
      <trkpt lat="47.21993" lon="-0.72431">
        <ele>80.4074707</ele>
        <time>2012-08-24T08:56:34Z</time>
      </trkpt>
      <trkpt lat="47.22007" lon="-0.72395">
        <ele>81.3687744</ele>
        <time>2012-08-24T08:56:39Z</time>
      </trkpt>
      <trkpt lat="47.22011" lon="-0.72389">
        <ele>81.8493652</ele>
        <time>2012-08-24T08:56:40Z</time>
      </trkpt>
      <trkpt lat="47.22024" lon="-0.72364">
        <ele>83.2913818</ele>
        <time>2012-08-24T08:56:44Z</time>
      </trkpt>
      <trkpt lat="47.22032" lon="-0.72341">
        <ele>84.7333984</ele>
        <time>2012-08-24T08:56:47Z</time>
      </trkpt>
      <trkpt lat="47.2206" lon="-0.72304">
        <ele>84.2526855</ele>
        <time>2012-08-24T08:56:53Z</time>
      </trkpt>
      <trkpt lat="47.22082" lon="-0.72267">
        <ele>83.7719727</ele>
        <time>2012-08-24T08:56:59Z</time>
      </trkpt>
      <trkpt lat="47.22097" lon="-0.72237">
        <ele>85.6945801</ele>
        <time>2012-08-24T08:57:04Z</time>
      </trkpt>
      <trkpt lat="47.22111" lon="-0.72205">
        <ele>86.175293</ele>
        <time>2012-08-24T08:57:09Z</time>
      </trkpt>
      <trkpt lat="47.22135" lon="-0.72154">
        <ele>85.6945801</ele>
        <time>2012-08-24T08:57:17Z</time>
      </trkpt>
      <trkpt lat="47.22156" lon="-0.721">
        <ele>86.175293</ele>
        <time>2012-08-24T08:57:25Z</time>
      </trkpt>
      <trkpt lat="47.22178" lon="-0.72079">
        <ele>86.6560059</ele>
        <time>2012-08-24T08:57:30Z</time>
      </trkpt>
      <trkpt lat="47.22216" lon="-0.72042">
        <ele>85.6945801</ele>
        <time>2012-08-24T08:57:38Z</time>
      </trkpt>
      <trkpt lat="47.22248" lon="-0.72002">
        <ele>84.7333984</ele>
        <time>2012-08-24T08:57:45Z</time>
      </trkpt>
      <trkpt lat="47.22277" lon="-0.71941">
        <ele>84.2526855</ele>
        <time>2012-08-24T08:57:54Z</time>
      </trkpt>
      <trkpt lat="47.22298" lon="-0.71891">
        <ele>84.7333984</ele>
        <time>2012-08-24T08:58:02Z</time>
      </trkpt>
      <trkpt lat="47.22317" lon="-0.71839">
        <ele>84.7333984</ele>
        <time>2012-08-24T08:58:09Z</time>
      </trkpt>
      <trkpt lat="47.22332" lon="-0.71801">
        <ele>84.7333984</ele>
        <time>2012-08-24T08:58:14Z</time>
      </trkpt>
      <trkpt lat="47.2236" lon="-0.71727">
        <ele>83.7719727</ele>
        <time>2012-08-24T08:58:23Z</time>
      </trkpt>
      <trkpt lat="47.22382" lon="-0.71663">
        <ele>83.2913818</ele>
        <time>2012-08-24T08:58:30Z</time>
      </trkpt>
      <trkpt lat="47.22402" lon="-0.71607">
        <ele>83.7719727</ele>
        <time>2012-08-24T08:58:37Z</time>
      </trkpt>
      <trkpt lat="47.22436" lon="-0.71548">
        <ele>88.0980225</ele>
        <time>2012-08-24T08:58:46Z</time>
      </trkpt>
      <trkpt lat="47.22464" lon="-0.715">
        <ele>90.5013428</ele>
        <time>2012-08-24T08:58:53Z</time>
      </trkpt>
      <trkpt lat="47.22486" lon="-0.7146">
        <ele>90.5013428</ele>
        <time>2012-08-24T08:58:59Z</time>
      </trkpt>
      <trkpt lat="47.22501" lon="-0.71431">
        <ele>90.5013428</ele>
        <time>2012-08-24T08:59:03Z</time>
      </trkpt>
      <trkpt lat="47.22524" lon="-0.71379">
        <ele>91.4625244</ele>
        <time>2012-08-24T08:59:10Z</time>
      </trkpt>
      <trkpt lat="47.22554" lon="-0.71313">
        <ele>91.9432373</ele>
        <time>2012-08-24T08:59:19Z</time>
      </trkpt>
      <trkpt lat="47.22571" lon="-0.71284">
        <ele>90.9819336</ele>
        <time>2012-08-24T08:59:23Z</time>
      </trkpt>
      <trkpt lat="47.2258" lon="-0.71269">
        <ele>90.9819336</ele>
        <time>2012-08-24T08:59:26Z</time>
      </trkpt>
      <trkpt lat="47.22587" lon="-0.71264">
        <ele>90.5013428</ele>
        <time>2012-08-24T08:59:31Z</time>
      </trkpt>
      <trkpt lat="47.22591" lon="-0.71278">
        <ele>90.0206299</ele>
        <time>2012-08-24T08:59:35Z</time>
      </trkpt>
      <trkpt lat="47.22613" lon="-0.71311">
        <ele>89.539917</ele>
        <time>2012-08-24T08:59:42Z</time>
      </trkpt>
      <trkpt lat="47.22628" lon="-0.71334">
        <ele>90.0206299</ele>
        <time>2012-08-24T08:59:46Z</time>
      </trkpt>
      <trkpt lat="47.22648" lon="-0.71365">
        <ele>89.539917</ele>
        <time>2012-08-24T08:59:51Z</time>
      </trkpt>
      <trkpt lat="47.22674" lon="-0.71416">
        <ele>88.5787354</ele>
        <time>2012-08-24T08:59:59Z</time>
      </trkpt>
      <trkpt lat="47.22708" lon="-0.71484">
        <ele>87.6171875</ele>
        <time>2012-08-24T09:00:09Z</time>
      </trkpt>
      <trkpt lat="47.22719" lon="-0.71506">
        <ele>86.6560059</ele>
        <time>2012-08-24T09:00:12Z</time>
      </trkpt>
      <trkpt lat="47.2274" lon="-0.7153">
        <ele>85.6945801</ele>
        <time>2012-08-24T09:00:16Z</time>
      </trkpt>
      <trkpt lat="47.22761" lon="-0.71571">
        <ele>84.2526855</ele>
        <time>2012-08-24T09:00:21Z</time>
      </trkpt>
      <trkpt lat="47.22793" lon="-0.71634">
        <ele>78.0040283</ele>
        <time>2012-08-24T09:00:28Z</time>
      </trkpt>
      <trkpt lat="47.22819" lon="-0.71677">
        <ele>75.1202393</ele>
        <time>2012-08-24T09:00:32Z</time>
      </trkpt>
      <trkpt lat="47.22829" lon="-0.71727">
        <ele>72.7169189</ele>
        <time>2012-08-24T09:00:36Z</time>
      </trkpt>
      <trkpt lat="47.22819" lon="-0.71741">
        <ele>71.7554932</ele>
        <time>2012-08-24T09:00:38Z</time>
      </trkpt>
      <trkpt lat="47.22812" lon="-0.71748">
        <ele>71.2749023</ele>
        <time>2012-08-24T09:00:39Z</time>
      </trkpt>
      <trkpt lat="47.22796" lon="-0.7176">
        <ele>71.2749023</ele>
        <time>2012-08-24T09:00:41Z</time>
      </trkpt>
      <trkpt lat="47.22767" lon="-0.71779">
        <ele>69.8328857</ele>
        <time>2012-08-24T09:00:45Z</time>
      </trkpt>
      <trkpt lat="47.22767" lon="-0.71791">
        <ele>68.3908691</ele>
        <time>2012-08-24T09:00:48Z</time>
      </trkpt>
      <trkpt lat="47.2278" lon="-0.7179">
        <ele>67.4296875</ele>
        <time>2012-08-24T09:00:50Z</time>
      </trkpt>
      <trkpt lat="47.22831" lon="-0.7178">
        <ele>65.9876709</ele>
        <time>2012-08-24T09:00:56Z</time>
      </trkpt>
      <trkpt lat="47.22858" lon="-0.71773">
        <ele>64.5456543</ele>
        <time>2012-08-24T09:00:59Z</time>
      </trkpt>
      <trkpt lat="47.22889" lon="-0.71746">
        <ele>62.142334</ele>
        <time>2012-08-24T09:01:03Z</time>
      </trkpt>
      <trkpt lat="47.22893" lon="-0.71709">
        <ele>61.6617432</ele>
        <time>2012-08-24T09:01:06Z</time>
      </trkpt>
      <trkpt lat="47.22882" lon="-0.71687">
        <ele>62.142334</ele>
        <time>2012-08-24T09:01:08Z</time>
      </trkpt>
      <trkpt lat="47.22873" lon="-0.71668">
        <ele>62.142334</ele>
        <time>2012-08-24T09:01:10Z</time>
      </trkpt>
      <trkpt lat="47.22883" lon="-0.71646">
        <ele>61.1810303</ele>
        <time>2012-08-24T09:01:14Z</time>
      </trkpt>
      <trkpt lat="47.22891" lon="-0.71629">
        <ele>62.6229248</ele>
        <time>2012-08-24T09:01:18Z</time>
      </trkpt>
      <trkpt lat="47.22887" lon="-0.71627">
        <ele>61.6617432</ele>
        <time>2012-08-24T09:01:20Z</time>
      </trkpt>
      <trkpt lat="47.22882" lon="-0.71624">
        <ele>60.7003174</ele>
        <time>2012-08-24T09:01:28Z</time>
      </trkpt>
      <trkpt lat="47.22879" lon="-0.71618">
        <ele>59.2584229</ele>
        <time>2012-08-24T09:01:35Z</time>
      </trkpt>
      <trkpt lat="47.22877" lon="-0.71614">
        <ele>60.2197266</ele>
        <time>2012-08-24T09:01:38Z</time>
      </trkpt>
      <trkpt lat="47.22868" lon="-0.71595">
        <ele>61.6617432</ele>
        <time>2012-08-24T09:01:43Z</time>
      </trkpt>
      <trkpt lat="47.22866" lon="-0.71572">
        <ele>60.7003174</ele>
        <time>2012-08-24T09:01:47Z</time>
      </trkpt>
      <trkpt lat="47.22875" lon="-0.71554">
        <ele>58.2971191</ele>
        <time>2012-08-24T09:01:51Z</time>
      </trkpt>
      <trkpt lat="47.22873" lon="-0.71552">
        <ele>57.3358154</ele>
        <time>2012-08-24T09:01:55Z</time>
      </trkpt>
      <trkpt lat="47.22871" lon="-0.71558">
        <ele>56.3745117</ele>
        <time>2012-08-24T09:01:57Z</time>
      </trkpt>
      <trkpt lat="47.22864" lon="-0.71589">
        <ele>53.9711914</ele>
        <time>2012-08-24T09:02:03Z</time>
      </trkpt>
      <trkpt lat="47.22866" lon="-0.71597">
        <ele>52.5291748</ele>
        <time>2012-08-24T09:02:07Z</time>
      </trkpt>
      <trkpt lat="47.22865" lon="-0.71596">
        <ele>52.048584</ele>
        <time>2012-08-24T09:02:08Z</time>
      </trkpt>
      <trkpt lat="47.22863" lon="-0.71579">
        <ele>52.5291748</ele>
        <time>2012-08-24T09:02:13Z</time>
      </trkpt>
      <trkpt lat="47.22869" lon="-0.71565">
        <ele>52.5291748</ele>
        <time>2012-08-24T09:02:17Z</time>
      </trkpt>
      <trkpt lat="47.22885" lon="-0.71537">
        <ele>52.048584</ele>
        <time>2012-08-24T09:02:23Z</time>
      </trkpt>
      <trkpt lat="47.22906" lon="-0.71518">
        <ele>52.048584</ele>
        <time>2012-08-24T09:02:29Z</time>
      </trkpt>
      <trkpt lat="47.22931" lon="-0.71493">
        <ele>53.4904785</ele>
        <time>2012-08-24T09:02:37Z</time>
      </trkpt>
      <trkpt lat="47.2295" lon="-0.71475">
        <ele>53.4904785</ele>
        <time>2012-08-24T09:02:43Z</time>
      </trkpt>
      <trkpt lat="47.22967" lon="-0.71462">
        <ele>54.932373</ele>
        <time>2012-08-24T09:02:49Z</time>
      </trkpt>
      <trkpt lat="47.22981" lon="-0.71453">
        <ele>58.77771</ele>
        <time>2012-08-24T09:02:56Z</time>
      </trkpt>
      <trkpt lat="47.22991" lon="-0.7145">
        <ele>60.7003174</ele>
        <time>2012-08-24T09:03:01Z</time>
      </trkpt>
      <trkpt lat="47.22992" lon="-0.71448">
        <ele>61.6617432</ele>
        <time>2012-08-24T09:03:08Z</time>
      </trkpt>
      <trkpt lat="47.22994" lon="-0.7144">
        <ele>61.1810303</ele>
        <time>2012-08-24T09:03:14Z</time>
      </trkpt>
      <trkpt lat="47.22997" lon="-0.71408">
        <ele>58.77771</ele>
        <time>2012-08-24T09:03:18Z</time>
      </trkpt>
      <trkpt lat="47.23002" lon="-0.71388">
        <ele>57.8165283</ele>
        <time>2012-08-24T09:03:20Z</time>
      </trkpt>
      <trkpt lat="47.23007" lon="-0.71363">
        <ele>56.8551025</ele>
        <time>2012-08-24T09:03:23Z</time>
      </trkpt>
      <trkpt lat="47.23008" lon="-0.71352">
        <ele>56.8551025</ele>
        <time>2012-08-24T09:03:25Z</time>
      </trkpt>
      <trkpt lat="47.23001" lon="-0.71326">
        <ele>54.4517822</ele>
        <time>2012-08-24T09:03:30Z</time>
      </trkpt>
      <trkpt lat="47.22985" lon="-0.71307">
        <ele>53.0097656</ele>
        <time>2012-08-24T09:03:35Z</time>
      </trkpt>
      <trkpt lat="47.22973" lon="-0.71292">
        <ele>54.932373</ele>
        <time>2012-08-24T09:03:38Z</time>
      </trkpt>
      <trkpt lat="47.2297" lon="-0.71286">
        <ele>54.4517822</ele>
        <time>2012-08-24T09:03:39Z</time>
      </trkpt>
      <trkpt lat="47.22965" lon="-0.71249">
        <ele>53.9711914</ele>
        <time>2012-08-24T09:03:45Z</time>
      </trkpt>
      <trkpt lat="47.22972" lon="-0.71239">
        <ele>54.932373</ele>
        <time>2012-08-24T09:03:47Z</time>
      </trkpt>
      <trkpt lat="47.23002" lon="-0.71217">
        <ele>55.8937988</ele>
        <time>2012-08-24T09:03:53Z</time>
      </trkpt>
      <trkpt lat="47.23016" lon="-0.71208">
        <ele>56.8551025</ele>
        <time>2012-08-24T09:03:56Z</time>
      </trkpt>
      <trkpt lat="47.23043" lon="-0.7118">
        <ele>57.8165283</ele>
        <time>2012-08-24T09:04:03Z</time>
      </trkpt>
      <trkpt lat="47.23067" lon="-0.71152">
        <ele>58.77771</ele>
        <time>2012-08-24T09:04:10Z</time>
      </trkpt>
      <trkpt lat="47.23076" lon="-0.71142">
        <ele>58.2971191</ele>
        <time>2012-08-24T09:04:13Z</time>
      </trkpt>
      <trkpt lat="47.23088" lon="-0.71126">
        <ele>58.2971191</ele>
        <time>2012-08-24T09:04:16Z</time>
      </trkpt>
      <trkpt lat="47.23104" lon="-0.71093">
        <ele>55.8937988</ele>
        <time>2012-08-24T09:04:20Z</time>
      </trkpt>
      <trkpt lat="47.23128" lon="-0.71067">
        <ele>54.4517822</ele>
        <time>2012-08-24T09:04:24Z</time>
      </trkpt>
      <trkpt lat="47.23142" lon="-0.71055">
        <ele>53.9711914</ele>
        <time>2012-08-24T09:04:27Z</time>
      </trkpt>
      <trkpt lat="47.23158" lon="-0.71057">
        <ele>53.4904785</ele>
        <time>2012-08-24T09:04:31Z</time>
      </trkpt>
      <trkpt lat="47.23171" lon="-0.71076">
        <ele>53.4904785</ele>
        <time>2012-08-24T09:04:35Z</time>
      </trkpt>
      <trkpt lat="47.23173" lon="-0.71082">
        <ele>53.0097656</ele>
        <time>2012-08-24T09:04:36Z</time>
      </trkpt>
      <trkpt lat="47.23185" lon="-0.71109">
        <ele>52.048584</ele>
        <time>2012-08-24T09:04:41Z</time>
      </trkpt>
      <trkpt lat="47.23189" lon="-0.71119">
        <ele>52.048584</ele>
        <time>2012-08-24T09:04:43Z</time>
      </trkpt>
      <trkpt lat="47.23201" lon="-0.71146">
        <ele>53.0097656</ele>
        <time>2012-08-24T09:04:50Z</time>
      </trkpt>
      <trkpt lat="47.23213" lon="-0.71162">
        <ele>53.0097656</ele>
        <time>2012-08-24T09:04:56Z</time>
      </trkpt>
      <trkpt lat="47.23228" lon="-0.71172">
        <ele>55.4130859</ele>
        <time>2012-08-24T09:05:02Z</time>
      </trkpt>
      <trkpt lat="47.23241" lon="-0.71182">
        <ele>58.77771</ele>
        <time>2012-08-24T09:05:08Z</time>
      </trkpt>
      <trkpt lat="47.23254" lon="-0.71187">
        <ele>61.6617432</ele>
        <time>2012-08-24T09:05:13Z</time>
      </trkpt>
      <trkpt lat="47.23269" lon="-0.71187">
        <ele>62.6229248</ele>
        <time>2012-08-24T09:05:20Z</time>
      </trkpt>
      <trkpt lat="47.23284" lon="-0.7119">
        <ele>64.0650635</ele>
        <time>2012-08-24T09:05:27Z</time>
      </trkpt>
      <trkpt lat="47.233" lon="-0.71197">
        <ele>65.5070801</ele>
        <time>2012-08-24T09:05:34Z</time>
      </trkpt>
      <trkpt lat="47.23313" lon="-0.71211">
        <ele>66.4682617</ele>
        <time>2012-08-24T09:05:41Z</time>
      </trkpt>
      <trkpt lat="47.23327" lon="-0.7123">
        <ele>64.0650635</ele>
        <time>2012-08-24T09:05:48Z</time>
      </trkpt>
      <trkpt lat="47.23347" lon="-0.71237">
        <ele>63.1036377</ele>
        <time>2012-08-24T09:05:53Z</time>
      </trkpt>
      <trkpt lat="47.2337" lon="-0.71239">
        <ele>64.5456543</ele>
        <time>2012-08-24T09:05:59Z</time>
      </trkpt>
      <trkpt lat="47.23393" lon="-0.71239">
        <ele>66.4682617</ele>
        <time>2012-08-24T09:06:05Z</time>
      </trkpt>
      <trkpt lat="47.23413" lon="-0.7124">
        <ele>68.871582</ele>
        <time>2012-08-24T09:06:11Z</time>
      </trkpt>
      <trkpt lat="47.23438" lon="-0.71243">
        <ele>71.7554932</ele>
        <time>2012-08-24T09:06:19Z</time>
      </trkpt>
      <trkpt lat="47.23457" lon="-0.71245">
        <ele>74.1588135</ele>
        <time>2012-08-24T09:06:26Z</time>
      </trkpt>
      <trkpt lat="47.23466" lon="-0.71243">
        <ele>75.6008301</ele>
        <time>2012-08-24T09:06:31Z</time>
      </trkpt>
      <trkpt lat="47.23468" lon="-0.71245">
        <ele>76.5621338</ele>
        <time>2012-08-24T09:06:37Z</time>
      </trkpt>
      <trkpt lat="47.23469" lon="-0.71246">
        <ele>75.1202393</ele>
        <time>2012-08-24T09:06:45Z</time>
      </trkpt>
      <trkpt lat="47.23469" lon="-0.71245">
        <ele>75.1202393</ele>
        <time>2012-08-24T09:06:52Z</time>
      </trkpt>
      <trkpt lat="47.23471" lon="-0.71246">
        <ele>75.1202393</ele>
        <time>2012-08-24T09:06:58Z</time>
      </trkpt>
      <trkpt lat="47.23472" lon="-0.71246">
        <ele>75.6008301</ele>
        <time>2012-08-24T09:07:03Z</time>
      </trkpt>
      <trkpt lat="47.23474" lon="-0.71245">
        <ele>75.6008301</ele>
        <time>2012-08-24T09:07:11Z</time>
      </trkpt>
      <trkpt lat="47.23475" lon="-0.71243">
        <ele>76.0814209</ele>
        <time>2012-08-24T09:07:18Z</time>
      </trkpt>
      <trkpt lat="47.23475" lon="-0.71242">
        <ele>76.5621338</ele>
        <time>2012-08-24T09:07:23Z</time>
      </trkpt>
      <trkpt lat="47.23477" lon="-0.71239">
        <ele>77.0428467</ele>
        <time>2012-08-24T09:07:27Z</time>
      </trkpt>
      <trkpt lat="47.23476" lon="-0.71233">
        <ele>76.5621338</ele>
        <time>2012-08-24T09:07:30Z</time>
      </trkpt>
      <trkpt lat="47.23475" lon="-0.71214">
        <ele>76.0814209</ele>
        <time>2012-08-24T09:07:36Z</time>
      </trkpt>
      <trkpt lat="47.23477" lon="-0.71186">
        <ele>76.5621338</ele>
        <time>2012-08-24T09:07:42Z</time>
      </trkpt>
      <trkpt lat="47.23483" lon="-0.71147">
        <ele>76.0814209</ele>
        <time>2012-08-24T09:07:49Z</time>
      </trkpt>
      <trkpt lat="47.23492" lon="-0.71097">
        <ele>74.6395264</ele>
        <time>2012-08-24T09:07:56Z</time>
      </trkpt>
      <trkpt lat="47.23506" lon="-0.71043">
        <ele>72.7169189</ele>
        <time>2012-08-24T09:08:02Z</time>
      </trkpt>
      <trkpt lat="47.23516" lon="-0.70998">
        <ele>72.7169189</ele>
        <time>2012-08-24T09:08:07Z</time>
      </trkpt>
      <trkpt lat="47.23512" lon="-0.7096">
        <ele>73.1976318</ele>
        <time>2012-08-24T09:08:12Z</time>
      </trkpt>
      <trkpt lat="47.23498" lon="-0.70922">
        <ele>75.6008301</ele>
        <time>2012-08-24T09:08:17Z</time>
      </trkpt>
      <trkpt lat="47.23489" lon="-0.70861">
        <ele>75.6008301</ele>
        <time>2012-08-24T09:08:24Z</time>
      </trkpt>
      <trkpt lat="47.23489" lon="-0.70852">
        <ele>75.6008301</ele>
        <time>2012-08-24T09:08:25Z</time>
      </trkpt>
      <trkpt lat="47.23498" lon="-0.70808">
        <ele>74.6395264</ele>
        <time>2012-08-24T09:08:30Z</time>
      </trkpt>
      <trkpt lat="47.23522" lon="-0.70752">
        <ele>72.2362061</ele>
        <time>2012-08-24T09:08:38Z</time>
      </trkpt>
      <trkpt lat="47.23535" lon="-0.70722">
        <ele>71.2749023</ele>
        <time>2012-08-24T09:08:42Z</time>
      </trkpt>
      <trkpt lat="47.23555" lon="-0.70662">
        <ele>71.2749023</ele>
        <time>2012-08-24T09:08:49Z</time>
      </trkpt>
      <trkpt lat="47.23583" lon="-0.70588">
        <ele>67.9102783</ele>
        <time>2012-08-24T09:08:58Z</time>
      </trkpt>
      <trkpt lat="47.23598" lon="-0.70534">
        <ele>64.0650635</ele>
        <time>2012-08-24T09:09:03Z</time>
      </trkpt>
      <trkpt lat="47.23615" lon="-0.70446">
        <ele>61.1810303</ele>
        <time>2012-08-24T09:09:10Z</time>
      </trkpt>
      <trkpt lat="47.23632" lon="-0.7038">
        <ele>60.7003174</ele>
        <time>2012-08-24T09:09:16Z</time>
      </trkpt>
      <trkpt lat="47.23646" lon="-0.70333">
        <ele>63.1036377</ele>
        <time>2012-08-24T09:09:21Z</time>
      </trkpt>
      <trkpt lat="47.23658" lon="-0.70288">
        <ele>69.3522949</ele>
        <time>2012-08-24T09:09:27Z</time>
      </trkpt>
      <trkpt lat="47.23667" lon="-0.70254">
        <ele>71.7554932</ele>
        <time>2012-08-24T09:09:33Z</time>
      </trkpt>
      <trkpt lat="47.23672" lon="-0.70241">
        <ele>72.7169189</ele>
        <time>2012-08-24T09:09:36Z</time>
      </trkpt>
      <trkpt lat="47.23681" lon="-0.70218">
        <ele>74.1588135</ele>
        <time>2012-08-24T09:09:41Z</time>
      </trkpt>
      <trkpt lat="47.23691" lon="-0.70191">
        <ele>72.7169189</ele>
        <time>2012-08-24T09:09:47Z</time>
      </trkpt>
      <trkpt lat="47.23705" lon="-0.70161">
        <ele>70.3134766</ele>
        <time>2012-08-24T09:09:54Z</time>
      </trkpt>
      <trkpt lat="47.23719" lon="-0.70135">
        <ele>70.7941895</ele>
        <time>2012-08-24T09:10:01Z</time>
      </trkpt>
      <trkpt lat="47.23728" lon="-0.70116">
        <ele>72.7169189</ele>
        <time>2012-08-24T09:10:07Z</time>
      </trkpt>
      <trkpt lat="47.23743" lon="-0.70096">
        <ele>73.1976318</ele>
        <time>2012-08-24T09:10:13Z</time>
      </trkpt>
      <trkpt lat="47.23758" lon="-0.70071">
        <ele>74.1588135</ele>
        <time>2012-08-24T09:10:20Z</time>
      </trkpt>
      <trkpt lat="47.23772" lon="-0.70044">
        <ele>72.7169189</ele>
        <time>2012-08-24T09:10:26Z</time>
      </trkpt>
      <trkpt lat="47.23785" lon="-0.70009">
        <ele>72.7169189</ele>
        <time>2012-08-24T09:10:33Z</time>
      </trkpt>
      <trkpt lat="47.23804" lon="-0.69963">
        <ele>76.0814209</ele>
        <time>2012-08-24T09:10:42Z</time>
      </trkpt>
      <trkpt lat="47.23813" lon="-0.69936">
        <ele>77.0428467</ele>
        <time>2012-08-24T09:10:47Z</time>
      </trkpt>
      <trkpt lat="47.2383" lon="-0.699">
        <ele>76.5621338</ele>
        <time>2012-08-24T09:10:54Z</time>
      </trkpt>
      <trkpt lat="47.2385" lon="-0.69858">
        <ele>77.5234375</ele>
        <time>2012-08-24T09:11:02Z</time>
      </trkpt>
      <trkpt lat="47.23874" lon="-0.69804">
        <ele>77.5234375</ele>
        <time>2012-08-24T09:11:12Z</time>
      </trkpt>
      <trkpt lat="47.23889" lon="-0.69772">
        <ele>77.5234375</ele>
        <time>2012-08-24T09:11:18Z</time>
      </trkpt>
      <trkpt lat="47.23904" lon="-0.6976">
        <ele>78.4847412</ele>
        <time>2012-08-24T09:11:22Z</time>
      </trkpt>
      <trkpt lat="47.23908" lon="-0.69762">
        <ele>78.9654541</ele>
        <time>2012-08-24T09:11:23Z</time>
      </trkpt>
      <trkpt lat="47.23948" lon="-0.69786">
        <ele>81.8493652</ele>
        <time>2012-08-24T09:11:33Z</time>
      </trkpt>
      <trkpt lat="47.23987" lon="-0.69812">
        <ele>84.2526855</ele>
        <time>2012-08-24T09:11:43Z</time>
      </trkpt>
      <trkpt lat="47.24023" lon="-0.69835">
        <ele>86.175293</ele>
        <time>2012-08-24T09:11:52Z</time>
      </trkpt>
      <trkpt lat="47.24037" lon="-0.69831">
        <ele>86.6560059</ele>
        <time>2012-08-24T09:11:56Z</time>
      </trkpt>
      <trkpt lat="47.24063" lon="-0.69803">
        <ele>87.1365967</ele>
        <time>2012-08-24T09:12:04Z</time>
      </trkpt>
      <trkpt lat="47.24095" lon="-0.69768">
        <ele>88.5787354</ele>
        <time>2012-08-24T09:12:13Z</time>
      </trkpt>
      <trkpt lat="47.2413" lon="-0.69731">
        <ele>88.5787354</ele>
        <time>2012-08-24T09:12:22Z</time>
      </trkpt>
      <trkpt lat="47.24175" lon="-0.69683">
        <ele>87.6171875</ele>
        <time>2012-08-24T09:12:33Z</time>
      </trkpt>
      <trkpt lat="47.24214" lon="-0.6964">
        <ele>88.5787354</ele>
        <time>2012-08-24T09:12:42Z</time>
      </trkpt>
      <trkpt lat="47.2423" lon="-0.69623">
        <ele>88.5787354</ele>
        <time>2012-08-24T09:12:46Z</time>
      </trkpt>
      <trkpt lat="47.24243" lon="-0.69597">
        <ele>88.5787354</ele>
        <time>2012-08-24T09:12:51Z</time>
      </trkpt>
      <trkpt lat="47.24244" lon="-0.69591">
        <ele>88.5787354</ele>
        <time>2012-08-24T09:12:52Z</time>
      </trkpt>
      <trkpt lat="47.24244" lon="-0.69537">
        <ele>88.5787354</ele>
        <time>2012-08-24T09:12:59Z</time>
      </trkpt>
      <trkpt lat="47.24245" lon="-0.69459">
        <ele>88.0980225</ele>
        <time>2012-08-24T09:13:08Z</time>
      </trkpt>
      <trkpt lat="47.24246" lon="-0.69359">
        <ele>86.6560059</ele>
        <time>2012-08-24T09:13:19Z</time>
      </trkpt>
      <trkpt lat="47.24246" lon="-0.69278">
        <ele>85.2139893</ele>
        <time>2012-08-24T09:13:28Z</time>
      </trkpt>
      <trkpt lat="47.24248" lon="-0.69207">
        <ele>85.2139893</ele>
        <time>2012-08-24T09:13:36Z</time>
      </trkpt>
      <trkpt lat="47.24247" lon="-0.69198">
        <ele>85.2139893</ele>
        <time>2012-08-24T09:13:37Z</time>
      </trkpt>
      <trkpt lat="47.24248" lon="-0.69121">
        <ele>85.2139893</ele>
        <time>2012-08-24T09:13:46Z</time>
      </trkpt>
      <trkpt lat="47.24248" lon="-0.69079">
        <ele>84.2526855</ele>
        <time>2012-08-24T09:13:51Z</time>
      </trkpt>
      <trkpt lat="47.2424" lon="-0.69048">
        <ele>83.2913818</ele>
        <time>2012-08-24T09:13:55Z</time>
      </trkpt>
      <trkpt lat="47.242" lon="-0.68987">
        <ele>83.7719727</ele>
        <time>2012-08-24T09:14:05Z</time>
      </trkpt>
      <trkpt lat="47.24165" lon="-0.68937">
        <ele>84.2526855</ele>
        <time>2012-08-24T09:14:13Z</time>
      </trkpt>
      <trkpt lat="47.2416" lon="-0.6893">
        <ele>84.2526855</ele>
        <time>2012-08-24T09:14:14Z</time>
      </trkpt>
      <trkpt lat="47.2415" lon="-0.68896">
        <ele>82.810791</ele>
        <time>2012-08-24T09:14:18Z</time>
      </trkpt>
      <trkpt lat="47.24155" lon="-0.68867">
        <ele>82.3300781</ele>
        <time>2012-08-24T09:14:21Z</time>
      </trkpt>
      <trkpt lat="47.2418" lon="-0.6879">
        <ele>82.810791</ele>
        <time>2012-08-24T09:14:30Z</time>
      </trkpt>
      <trkpt lat="47.24198" lon="-0.68724">
        <ele>83.2913818</ele>
        <time>2012-08-24T09:14:38Z</time>
      </trkpt>
      <trkpt lat="47.24222" lon="-0.68651">
        <ele>84.7333984</ele>
        <time>2012-08-24T09:14:47Z</time>
      </trkpt>
      <trkpt lat="47.24239" lon="-0.686">
        <ele>85.6945801</ele>
        <time>2012-08-24T09:14:53Z</time>
      </trkpt>
      <trkpt lat="47.24267" lon="-0.68516">
        <ele>86.175293</ele>
        <time>2012-08-24T09:15:03Z</time>
      </trkpt>
      <trkpt lat="47.24286" lon="-0.68442">
        <ele>85.6945801</ele>
        <time>2012-08-24T09:15:11Z</time>
      </trkpt>
      <trkpt lat="47.24297" lon="-0.68385">
        <ele>85.6945801</ele>
        <time>2012-08-24T09:15:17Z</time>
      </trkpt>
      <trkpt lat="47.24317" lon="-0.68312">
        <ele>84.7333984</ele>
        <time>2012-08-24T09:15:25Z</time>
      </trkpt>
      <trkpt lat="47.24335" lon="-0.6824">
        <ele>83.7719727</ele>
        <time>2012-08-24T09:15:33Z</time>
      </trkpt>
      <trkpt lat="47.24356" lon="-0.68174">
        <ele>83.2913818</ele>
        <time>2012-08-24T09:15:41Z</time>
      </trkpt>
      <trkpt lat="47.24388" lon="-0.68133">
        <ele>80.8881836</ele>
        <time>2012-08-24T09:15:47Z</time>
      </trkpt>
      <trkpt lat="47.24395" lon="-0.68127">
        <ele>80.4074707</ele>
        <time>2012-08-24T09:15:48Z</time>
      </trkpt>
      <trkpt lat="47.24463" lon="-0.68087">
        <ele>80.8881836</ele>
        <time>2012-08-24T09:15:57Z</time>
      </trkpt>
      <trkpt lat="47.24494" lon="-0.68066">
        <ele>81.8493652</ele>
        <time>2012-08-24T09:16:02Z</time>
      </trkpt>
      <trkpt lat="47.24516" lon="-0.68035">
        <ele>82.810791</ele>
        <time>2012-08-24T09:16:07Z</time>
      </trkpt>
      <trkpt lat="47.24529" lon="-0.67974">
        <ele>84.7333984</ele>
        <time>2012-08-24T09:16:15Z</time>
      </trkpt>
      <trkpt lat="47.24535" lon="-0.6794">
        <ele>85.2139893</ele>
        <time>2012-08-24T09:16:19Z</time>
      </trkpt>
      <trkpt lat="47.24541" lon="-0.67909">
        <ele>86.175293</ele>
        <time>2012-08-24T09:16:23Z</time>
      </trkpt>
      <trkpt lat="47.24553" lon="-0.67882">
        <ele>86.6560059</ele>
        <time>2012-08-24T09:16:27Z</time>
      </trkpt>
      <trkpt lat="47.24586" lon="-0.67824">
        <ele>85.6945801</ele>
        <time>2012-08-24T09:16:36Z</time>
      </trkpt>
      <trkpt lat="47.24614" lon="-0.6777">
        <ele>84.2526855</ele>
        <time>2012-08-24T09:16:44Z</time>
      </trkpt>
      <trkpt lat="47.24642" lon="-0.67715">
        <ele>83.2913818</ele>
        <time>2012-08-24T09:16:51Z</time>
      </trkpt>
      <trkpt lat="47.24665" lon="-0.67662">
        <ele>81.3687744</ele>
        <time>2012-08-24T09:16:57Z</time>
      </trkpt>
      <trkpt lat="47.24682" lon="-0.67626">
        <ele>79.9266357</ele>
        <time>2012-08-24T09:17:01Z</time>
      </trkpt>
      <trkpt lat="47.2469" lon="-0.67607">
        <ele>79.4460449</ele>
        <time>2012-08-24T09:17:03Z</time>
      </trkpt>
      <trkpt lat="47.24725" lon="-0.67534">
        <ele>77.5234375</ele>
        <time>2012-08-24T09:17:11Z</time>
      </trkpt>
      <trkpt lat="47.24752" lon="-0.67495">
        <ele>75.6008301</ele>
        <time>2012-08-24T09:17:16Z</time>
      </trkpt>
      <trkpt lat="47.24779" lon="-0.67454">
        <ele>73.6782227</ele>
        <time>2012-08-24T09:17:21Z</time>
      </trkpt>
      <trkpt lat="47.24796" lon="-0.67429">
        <ele>72.2362061</ele>
        <time>2012-08-24T09:17:24Z</time>
      </trkpt>
      <trkpt lat="47.24802" lon="-0.6742">
        <ele>71.2749023</ele>
        <time>2012-08-24T09:17:25Z</time>
      </trkpt>
      <trkpt lat="47.24833" lon="-0.67363">
        <ele>68.871582</ele>
        <time>2012-08-24T09:17:31Z</time>
      </trkpt>
      <trkpt lat="47.24856" lon="-0.67316">
        <ele>67.4296875</ele>
        <time>2012-08-24T09:17:36Z</time>
      </trkpt>
      <trkpt lat="47.2488" lon="-0.67268">
        <ele>66.9489746</ele>
        <time>2012-08-24T09:17:42Z</time>
      </trkpt>
      <trkpt lat="47.24895" lon="-0.67247">
        <ele>68.3908691</ele>
        <time>2012-08-24T09:17:46Z</time>
      </trkpt>
      <trkpt lat="47.24914" lon="-0.67214">
        <ele>68.3908691</ele>
        <time>2012-08-24T09:17:51Z</time>
      </trkpt>
      <trkpt lat="47.24918" lon="-0.67205">
        <ele>68.3908691</ele>
        <time>2012-08-24T09:17:52Z</time>
      </trkpt>
      <trkpt lat="47.24938" lon="-0.67128">
        <ele>62.6229248</ele>
        <time>2012-08-24T09:18:00Z</time>
      </trkpt>
      <trkpt lat="47.24948" lon="-0.67076">
        <ele>56.3745117</ele>
        <time>2012-08-24T09:18:05Z</time>
      </trkpt>
      <trkpt lat="47.24953" lon="-0.67053">
        <ele>53.9711914</ele>
        <time>2012-08-24T09:18:07Z</time>
      </trkpt>
      <trkpt lat="47.24955" lon="-0.67042">
        <ele>53.4904785</ele>
        <time>2012-08-24T09:18:08Z</time>
      </trkpt>
      <trkpt lat="47.24964" lon="-0.66971">
        <ele>48.2033691</ele>
        <time>2012-08-24T09:18:14Z</time>
      </trkpt>
      <trkpt lat="47.24981" lon="-0.66913">
        <ele>46.2806396</ele>
        <time>2012-08-24T09:18:19Z</time>
      </trkpt>
      <trkpt lat="47.25" lon="-0.66853">
        <ele>42.9160156</ele>
        <time>2012-08-24T09:18:24Z</time>
      </trkpt>
      <trkpt lat="47.25005" lon="-0.66841">
        <ele>42.9160156</ele>
        <time>2012-08-24T09:18:25Z</time>
      </trkpt>
      <trkpt lat="47.25015" lon="-0.6682">
        <ele>40.9934082</ele>
        <time>2012-08-24T09:18:27Z</time>
      </trkpt>
      <trkpt lat="47.25036" lon="-0.66796">
        <ele>38.5900879</ele>
        <time>2012-08-24T09:18:30Z</time>
      </trkpt>
      <trkpt lat="47.25066" lon="-0.66748">
        <ele>34.744873</ele>
        <time>2012-08-24T09:18:35Z</time>
      </trkpt>
      <trkpt lat="47.25059" lon="-0.66725">
        <ele>35.2254639</ele>
        <time>2012-08-24T09:18:40Z</time>
      </trkpt>
      <trkpt lat="47.25054" lon="-0.6671">
        <ele>38.5900879</ele>
        <time>2012-08-24T09:18:46Z</time>
      </trkpt>
      <trkpt lat="47.25047" lon="-0.66693">
        <ele>40.0321045</ele>
        <time>2012-08-24T09:18:50Z</time>
      </trkpt>
      <trkpt lat="47.25039" lon="-0.66671">
        <ele>41.473999</ele>
        <time>2012-08-24T09:18:54Z</time>
      </trkpt>
      <trkpt lat="47.25032" lon="-0.66652">
        <ele>45.7999268</ele>
        <time>2012-08-24T09:19:00Z</time>
      </trkpt>
      <trkpt lat="47.25037" lon="-0.66633">
        <ele>46.7612305</ele>
        <time>2012-08-24T09:19:07Z</time>
      </trkpt>
      <trkpt lat="47.25047" lon="-0.66618">
        <ele>49.6452637</ele>
        <time>2012-08-24T09:19:13Z</time>
      </trkpt>
      <trkpt lat="47.25057" lon="-0.66612">
        <ele>52.5291748</ele>
        <time>2012-08-24T09:19:17Z</time>
      </trkpt>
      <trkpt lat="47.25072" lon="-0.66597">
        <ele>54.4517822</ele>
        <time>2012-08-24T09:19:22Z</time>
      </trkpt>
      <trkpt lat="47.25079" lon="-0.66588">
        <ele>54.4517822</ele>
        <time>2012-08-24T09:19:26Z</time>
      </trkpt>
      <trkpt lat="47.25083" lon="-0.66583">
        <ele>53.9711914</ele>
        <time>2012-08-24T09:19:28Z</time>
      </trkpt>
      <trkpt lat="47.2509" lon="-0.66576">
        <ele>53.0097656</ele>
        <time>2012-08-24T09:19:33Z</time>
      </trkpt>
      <trkpt lat="47.25093" lon="-0.66573">
        <ele>53.4904785</ele>
        <time>2012-08-24T09:19:35Z</time>
      </trkpt>
      <trkpt lat="47.25104" lon="-0.6656">
        <ele>48.68396</ele>
        <time>2012-08-24T09:19:42Z</time>
      </trkpt>
      <trkpt lat="47.25105" lon="-0.66558">
        <ele>48.2033691</ele>
        <time>2012-08-24T09:19:43Z</time>
      </trkpt>
      <trkpt lat="47.25119" lon="-0.66544">
        <ele>46.2806396</ele>
        <time>2012-08-24T09:19:50Z</time>
      </trkpt>
      <trkpt lat="47.25134" lon="-0.66532">
        <ele>47.2418213</ele>
        <time>2012-08-24T09:19:57Z</time>
      </trkpt>
      <trkpt lat="47.25137" lon="-0.66529">
        <ele>48.2033691</ele>
        <time>2012-08-24T09:20:02Z</time>
      </trkpt>
      <trkpt lat="47.25139" lon="-0.6653">
        <ele>50.6065674</ele>
        <time>2012-08-24T09:20:06Z</time>
      </trkpt>
      <trkpt lat="47.25139" lon="-0.66529">
        <ele>52.048584</ele>
        <time>2012-08-24T09:20:12Z</time>
      </trkpt>
      <trkpt lat="47.25137" lon="-0.66527">
        <ele>51.5678711</ele>
        <time>2012-08-24T09:20:20Z</time>
      </trkpt>
      <trkpt lat="47.25138" lon="-0.66527">
        <ele>52.5291748</ele>
        <time>2012-08-24T09:20:24Z</time>
      </trkpt>
      <trkpt lat="47.25137" lon="-0.66526">
        <ele>52.048584</ele>
        <time>2012-08-24T09:20:32Z</time>
      </trkpt>
      <trkpt lat="47.25138" lon="-0.66524">
        <ele>52.048584</ele>
        <time>2012-08-24T09:20:54Z</time>
      </trkpt>
      <trkpt lat="47.25146" lon="-0.66514">
        <ele>50.1259766</ele>
        <time>2012-08-24T09:20:58Z</time>
      </trkpt>
      <trkpt lat="47.25163" lon="-0.66494">
        <ele>49.1645508</ele>
        <time>2012-08-24T09:21:03Z</time>
      </trkpt>
      <trkpt lat="47.2518" lon="-0.66469">
        <ele>48.68396</ele>
        <time>2012-08-24T09:21:08Z</time>
      </trkpt>
      <trkpt lat="47.25183" lon="-0.66466">
        <ele>48.68396</ele>
        <time>2012-08-24T09:21:09Z</time>
      </trkpt>
      <trkpt lat="47.25186" lon="-0.66463">
        <ele>50.6065674</ele>
        <time>2012-08-24T09:21:14Z</time>
      </trkpt>
      <trkpt lat="47.25191" lon="-0.66461">
        <ele>50.1259766</ele>
        <time>2012-08-24T09:21:23Z</time>
      </trkpt>
      <trkpt lat="47.25199" lon="-0.66452">
        <ele>49.6452637</ele>
        <time>2012-08-24T09:21:28Z</time>
      </trkpt>
      <trkpt lat="47.25206" lon="-0.66443">
        <ele>52.048584</ele>
        <time>2012-08-24T09:21:32Z</time>
      </trkpt>
      <trkpt lat="47.2522" lon="-0.66428">
        <ele>52.048584</ele>
        <time>2012-08-24T09:21:36Z</time>
      </trkpt>
      <trkpt lat="47.25239" lon="-0.66405">
        <ele>52.048584</ele>
        <time>2012-08-24T09:21:41Z</time>
      </trkpt>
      <trkpt lat="47.25254" lon="-0.66385">
        <ele>52.048584</ele>
        <time>2012-08-24T09:21:46Z</time>
      </trkpt>
      <trkpt lat="47.25274" lon="-0.66359">
        <ele>52.048584</ele>
        <time>2012-08-24T09:21:53Z</time>
      </trkpt>
      <trkpt lat="47.25282" lon="-0.66345">
        <ele>55.4130859</ele>
        <time>2012-08-24T09:21:57Z</time>
      </trkpt>
      <trkpt lat="47.25299" lon="-0.66317">
        <ele>54.4517822</ele>
        <time>2012-08-24T09:22:02Z</time>
      </trkpt>
      <trkpt lat="47.25322" lon="-0.6628">
        <ele>52.5291748</ele>
        <time>2012-08-24T09:22:08Z</time>
      </trkpt>
      <trkpt lat="47.25329" lon="-0.66269">
        <ele>50.6065674</ele>
        <time>2012-08-24T09:22:11Z</time>
      </trkpt>
      <trkpt lat="47.25334" lon="-0.66262">
        <ele>49.6452637</ele>
        <time>2012-08-24T09:22:13Z</time>
      </trkpt>
      <trkpt lat="47.25343" lon="-0.66246">
        <ele>48.2033691</ele>
        <time>2012-08-24T09:22:17Z</time>
      </trkpt>
      <trkpt lat="47.25353" lon="-0.66226">
        <ele>45.7999268</ele>
        <time>2012-08-24T09:22:21Z</time>
      </trkpt>
      <trkpt lat="47.25384" lon="-0.66194">
        <ele>44.3580322</ele>
        <time>2012-08-24T09:22:27Z</time>
      </trkpt>
      <trkpt lat="47.2539" lon="-0.66187">
        <ele>44.3580322</ele>
        <time>2012-08-24T09:22:29Z</time>
      </trkpt>
      <trkpt lat="47.25396" lon="-0.66181">
        <ele>45.3192139</ele>
        <time>2012-08-24T09:22:31Z</time>
      </trkpt>
      <trkpt lat="47.2542" lon="-0.66164">
        <ele>48.2033691</ele>
        <time>2012-08-24T09:22:36Z</time>
      </trkpt>
      <trkpt lat="47.25431" lon="-0.66156">
        <ele>48.2033691</ele>
        <time>2012-08-24T09:22:38Z</time>
      </trkpt>
      <trkpt lat="47.25463" lon="-0.66138">
        <ele>49.6452637</ele>
        <time>2012-08-24T09:22:44Z</time>
      </trkpt>
      <trkpt lat="47.25505" lon="-0.66126">
        <ele>47.7225342</ele>
        <time>2012-08-24T09:22:52Z</time>
      </trkpt>
      <trkpt lat="47.25524" lon="-0.66122">
        <ele>48.2033691</ele>
        <time>2012-08-24T09:22:56Z</time>
      </trkpt>
      <trkpt lat="47.2554" lon="-0.66115">
        <ele>44.3580322</ele>
        <time>2012-08-24T09:22:59Z</time>
      </trkpt>
      <trkpt lat="47.25565" lon="-0.66103">
        <ele>39.5512695</ele>
        <time>2012-08-24T09:23:04Z</time>
      </trkpt>
      <trkpt lat="47.25593" lon="-0.66077">
        <ele>41.9547119</ele>
        <time>2012-08-24T09:23:09Z</time>
      </trkpt>
      <trkpt lat="47.25602" lon="-0.6606">
        <ele>40.5128174</ele>
        <time>2012-08-24T09:23:11Z</time>
      </trkpt>
      <trkpt lat="47.25617" lon="-0.6603">
        <ele>38.109375</ele>
        <time>2012-08-24T09:23:16Z</time>
      </trkpt>
      <trkpt lat="47.25618" lon="-0.6599">
        <ele>39.5512695</ele>
        <time>2012-08-24T09:23:22Z</time>
      </trkpt>
      <trkpt lat="47.25619" lon="-0.65959">
        <ele>42.4354248</ele>
        <time>2012-08-24T09:23:26Z</time>
      </trkpt>
      <trkpt lat="47.25622" lon="-0.65955">
        <ele>40.0321045</ele>
        <time>2012-08-24T09:23:31Z</time>
      </trkpt>
      <trkpt lat="47.25622" lon="-0.65955">
        <ele>40.9934082</ele>
        <time>2012-08-24T09:23:37Z</time>
      </trkpt>
      <trkpt lat="47.25619" lon="-0.65955">
        <ele>42.4354248</ele>
        <time>2012-08-24T09:23:42Z</time>
      </trkpt>
      <trkpt lat="47.25615" lon="-0.65941">
        <ele>43.3966064</ele>
        <time>2012-08-24T09:23:47Z</time>
      </trkpt>
      <trkpt lat="47.2561" lon="-0.65921">
        <ele>42.4354248</ele>
        <time>2012-08-24T09:23:52Z</time>
      </trkpt>
      <trkpt lat="47.25611" lon="-0.65915">
        <ele>42.4354248</ele>
        <time>2012-08-24T09:23:54Z</time>
      </trkpt>
      <trkpt lat="47.25615" lon="-0.65904">
        <ele>42.9160156</ele>
        <time>2012-08-24T09:23:59Z</time>
      </trkpt>
      <trkpt lat="47.25618" lon="-0.65888">
        <ele>46.7612305</ele>
        <time>2012-08-24T09:24:05Z</time>
      </trkpt>
      <trkpt lat="47.25617" lon="-0.65884">
        <ele>48.2033691</ele>
        <time>2012-08-24T09:24:08Z</time>
      </trkpt>
      <trkpt lat="47.25615" lon="-0.65869">
        <ele>51.0871582</ele>
        <time>2012-08-24T09:24:14Z</time>
      </trkpt>
      <trkpt lat="47.25611" lon="-0.65859">
        <ele>53.0097656</ele>
        <time>2012-08-24T09:24:20Z</time>
      </trkpt>
      <trkpt lat="47.25603" lon="-0.65849">
        <ele>53.4904785</ele>
        <time>2012-08-24T09:24:28Z</time>
      </trkpt>
      <trkpt lat="47.25597" lon="-0.65838">
        <ele>53.9711914</ele>
        <time>2012-08-24T09:24:36Z</time>
      </trkpt>
      <trkpt lat="47.25595" lon="-0.65834">
        <ele>54.4517822</ele>
        <time>2012-08-24T09:24:39Z</time>
      </trkpt>
      <trkpt lat="47.25597" lon="-0.65822">
        <ele>54.932373</ele>
        <time>2012-08-24T09:24:45Z</time>
      </trkpt>
      <trkpt lat="47.25608" lon="-0.65815">
        <ele>55.4130859</ele>
        <time>2012-08-24T09:24:52Z</time>
      </trkpt>
      <trkpt lat="47.25614" lon="-0.65812">
        <ele>56.8551025</ele>
        <time>2012-08-24T09:24:57Z</time>
      </trkpt>
      <trkpt lat="47.2562" lon="-0.65804">
        <ele>57.8165283</ele>
        <time>2012-08-24T09:25:02Z</time>
      </trkpt>
      <trkpt lat="47.25628" lon="-0.65786">
        <ele>56.8551025</ele>
        <time>2012-08-24T09:25:09Z</time>
      </trkpt>
      <trkpt lat="47.25635" lon="-0.65758">
        <ele>52.5291748</ele>
        <time>2012-08-24T09:25:17Z</time>
      </trkpt>
      <trkpt lat="47.25635" lon="-0.65733">
        <ele>52.048584</ele>
        <time>2012-08-24T09:25:24Z</time>
      </trkpt>
      <trkpt lat="47.25631" lon="-0.65712">
        <ele>52.5291748</ele>
        <time>2012-08-24T09:25:30Z</time>
      </trkpt>
      <trkpt lat="47.25621" lon="-0.65695">
        <ele>54.4517822</ele>
        <time>2012-08-24T09:25:36Z</time>
      </trkpt>
      <trkpt lat="47.25611" lon="-0.65675">
        <ele>57.3358154</ele>
        <time>2012-08-24T09:25:43Z</time>
      </trkpt>
      <trkpt lat="47.25606" lon="-0.65656">
        <ele>56.8551025</ele>
        <time>2012-08-24T09:25:49Z</time>
      </trkpt>
      <trkpt lat="47.25605" lon="-0.65628">
        <ele>57.8165283</ele>
        <time>2012-08-24T09:25:56Z</time>
      </trkpt>
      <trkpt lat="47.25606" lon="-0.65595">
        <ele>59.7391357</ele>
        <time>2012-08-24T09:26:04Z</time>
      </trkpt>
      <trkpt lat="47.25614" lon="-0.65568">
        <ele>62.142334</ele>
        <time>2012-08-24T09:26:11Z</time>
      </trkpt>
      <trkpt lat="47.25622" lon="-0.65542">
        <ele>63.1036377</ele>
        <time>2012-08-24T09:26:19Z</time>
      </trkpt>
      <trkpt lat="47.2563" lon="-0.65522">
        <ele>62.6229248</ele>
        <time>2012-08-24T09:26:26Z</time>
      </trkpt>
      <trkpt lat="47.25641" lon="-0.65495">
        <ele>62.142334</ele>
        <time>2012-08-24T09:26:33Z</time>
      </trkpt>
      <trkpt lat="47.25653" lon="-0.65464">
        <ele>62.142334</ele>
        <time>2012-08-24T09:26:39Z</time>
      </trkpt>
      <trkpt lat="47.25668" lon="-0.65419">
        <ele>62.6229248</ele>
        <time>2012-08-24T09:26:47Z</time>
      </trkpt>
      <trkpt lat="47.25679" lon="-0.65391">
        <ele>62.6229248</ele>
        <time>2012-08-24T09:26:52Z</time>
      </trkpt>
      <trkpt lat="47.25687" lon="-0.6536">
        <ele>63.5843506</ele>
        <time>2012-08-24T09:26:58Z</time>
      </trkpt>
      <trkpt lat="47.25701" lon="-0.65321">
        <ele>65.9876709</ele>
        <time>2012-08-24T09:27:07Z</time>
      </trkpt>
      <trkpt lat="47.25713" lon="-0.65288">
        <ele>67.4296875</ele>
        <time>2012-08-24T09:27:14Z</time>
      </trkpt>
      <trkpt lat="47.25727" lon="-0.65248">
        <ele>67.4296875</ele>
        <time>2012-08-24T09:27:22Z</time>
      </trkpt>
      <trkpt lat="47.25744" lon="-0.65196">
        <ele>66.4682617</ele>
        <time>2012-08-24T09:27:31Z</time>
      </trkpt>
      <trkpt lat="47.25761" lon="-0.65148">
        <ele>65.9876709</ele>
        <time>2012-08-24T09:27:39Z</time>
      </trkpt>
      <trkpt lat="47.25783" lon="-0.65086">
        <ele>65.0263672</ele>
        <time>2012-08-24T09:27:49Z</time>
      </trkpt>
      <trkpt lat="47.25802" lon="-0.65035">
        <ele>65.5070801</ele>
        <time>2012-08-24T09:27:57Z</time>
      </trkpt>
      <trkpt lat="47.25798" lon="-0.6501">
        <ele>65.9876709</ele>
        <time>2012-08-24T09:28:01Z</time>
      </trkpt>
      <trkpt lat="47.25777" lon="-0.64956">
        <ele>67.9102783</ele>
        <time>2012-08-24T09:28:11Z</time>
      </trkpt>
      <trkpt lat="47.25764" lon="-0.64906">
        <ele>69.3522949</ele>
        <time>2012-08-24T09:28:20Z</time>
      </trkpt>
      <trkpt lat="47.25753" lon="-0.64857">
        <ele>70.3134766</ele>
        <time>2012-08-24T09:28:29Z</time>
      </trkpt>
      <trkpt lat="47.25743" lon="-0.64817">
        <ele>71.7554932</ele>
        <time>2012-08-24T09:28:36Z</time>
      </trkpt>
      <trkpt lat="47.25734" lon="-0.64782">
        <ele>72.7169189</ele>
        <time>2012-08-24T09:28:42Z</time>
      </trkpt>
      <trkpt lat="47.25725" lon="-0.64743">
        <ele>73.1976318</ele>
        <time>2012-08-24T09:28:48Z</time>
      </trkpt>
      <trkpt lat="47.25717" lon="-0.64681">
        <ele>73.1976318</ele>
        <time>2012-08-24T09:28:57Z</time>
      </trkpt>
      <trkpt lat="47.2571" lon="-0.64632">
        <ele>72.2362061</ele>
        <time>2012-08-24T09:29:04Z</time>
      </trkpt>
      <trkpt lat="47.25703" lon="-0.64564">
        <ele>73.1976318</ele>
        <time>2012-08-24T09:29:13Z</time>
      </trkpt>
      <trkpt lat="47.25703" lon="-0.64511">
        <ele>74.1588135</ele>
        <time>2012-08-24T09:29:20Z</time>
      </trkpt>
      <trkpt lat="47.25711" lon="-0.64465">
        <ele>73.6782227</ele>
        <time>2012-08-24T09:29:26Z</time>
      </trkpt>
      <trkpt lat="47.25736" lon="-0.6438">
        <ele>74.1588135</ele>
        <time>2012-08-24T09:29:37Z</time>
      </trkpt>
      <trkpt lat="47.2574" lon="-0.64364">
        <ele>74.6395264</ele>
        <time>2012-08-24T09:29:39Z</time>
      </trkpt>
      <trkpt lat="47.2575" lon="-0.6433">
        <ele>76.0814209</ele>
        <time>2012-08-24T09:29:44Z</time>
      </trkpt>
      <trkpt lat="47.25758" lon="-0.64305">
        <ele>75.6008301</ele>
        <time>2012-08-24T09:29:48Z</time>
      </trkpt>
      <trkpt lat="47.25775" lon="-0.64257">
        <ele>76.0814209</ele>
        <time>2012-08-24T09:29:56Z</time>
      </trkpt>
      <trkpt lat="47.25792" lon="-0.64186">
        <ele>77.0428467</ele>
        <time>2012-08-24T09:30:06Z</time>
      </trkpt>
      <trkpt lat="47.25805" lon="-0.64119">
        <ele>78.0040283</ele>
        <time>2012-08-24T09:30:15Z</time>
      </trkpt>
      <trkpt lat="47.25811" lon="-0.64065">
        <ele>78.9654541</ele>
        <time>2012-08-24T09:30:22Z</time>
      </trkpt>
      <trkpt lat="47.25817" lon="-0.6404">
        <ele>78.9654541</ele>
        <time>2012-08-24T09:30:26Z</time>
      </trkpt>
      <trkpt lat="47.25813" lon="-0.64024">
        <ele>78.4847412</ele>
        <time>2012-08-24T09:30:30Z</time>
      </trkpt>
      <trkpt lat="47.25792" lon="-0.64014">
        <ele>77.5234375</ele>
        <time>2012-08-24T09:30:36Z</time>
      </trkpt>
      <trkpt lat="47.25773" lon="-0.64003">
        <ele>77.5234375</ele>
        <time>2012-08-24T09:30:41Z</time>
      </trkpt>
      <trkpt lat="47.25742" lon="-0.63984">
        <ele>76.5621338</ele>
        <time>2012-08-24T09:30:48Z</time>
      </trkpt>
      <trkpt lat="47.25716" lon="-0.63963">
        <ele>75.6008301</ele>
        <time>2012-08-24T09:30:53Z</time>
      </trkpt>
      <trkpt lat="47.257" lon="-0.63951">
        <ele>75.6008301</ele>
        <time>2012-08-24T09:30:56Z</time>
      </trkpt>
      <trkpt lat="47.25669" lon="-0.6393">
        <ele>75.1202393</ele>
        <time>2012-08-24T09:31:02Z</time>
      </trkpt>
      <trkpt lat="47.25633" lon="-0.639">
        <ele>76.0814209</ele>
        <time>2012-08-24T09:31:10Z</time>
      </trkpt>
      <trkpt lat="47.25617" lon="-0.63884">
        <ele>76.5621338</ele>
        <time>2012-08-24T09:31:14Z</time>
      </trkpt>
      <trkpt lat="47.256" lon="-0.63867">
        <ele>77.0428467</ele>
        <time>2012-08-24T09:31:18Z</time>
      </trkpt>
      <trkpt lat="47.25587" lon="-0.63854">
        <ele>77.5234375</ele>
        <time>2012-08-24T09:31:21Z</time>
      </trkpt>
      <trkpt lat="47.25562" lon="-0.63828">
        <ele>78.0040283</ele>
        <time>2012-08-24T09:31:27Z</time>
      </trkpt>
      <trkpt lat="47.25525" lon="-0.63789">
        <ele>78.4847412</ele>
        <time>2012-08-24T09:31:36Z</time>
      </trkpt>
      <trkpt lat="47.2549" lon="-0.6375">
        <ele>77.5234375</ele>
        <time>2012-08-24T09:31:44Z</time>
      </trkpt>
      <trkpt lat="47.25466" lon="-0.63716">
        <ele>76.0814209</ele>
        <time>2012-08-24T09:31:49Z</time>
      </trkpt>
      <trkpt lat="47.25442" lon="-0.63679">
        <ele>75.6008301</ele>
        <time>2012-08-24T09:31:54Z</time>
      </trkpt>
      <trkpt lat="47.25407" lon="-0.63651">
        <ele>76.0814209</ele>
        <time>2012-08-24T09:32:00Z</time>
      </trkpt>
      <trkpt lat="47.25376" lon="-0.6364">
        <ele>76.5621338</ele>
        <time>2012-08-24T09:32:05Z</time>
      </trkpt>
      <trkpt lat="47.25344" lon="-0.63644">
        <ele>77.0428467</ele>
        <time>2012-08-24T09:32:10Z</time>
      </trkpt>
      <trkpt lat="47.25307" lon="-0.63651">
        <ele>77.5234375</ele>
        <time>2012-08-24T09:32:16Z</time>
      </trkpt>
      <trkpt lat="47.25279" lon="-0.63641">
        <ele>78.4847412</ele>
        <time>2012-08-24T09:32:21Z</time>
      </trkpt>
      <trkpt lat="47.25264" lon="-0.63629">
        <ele>79.4460449</ele>
        <time>2012-08-24T09:32:24Z</time>
      </trkpt>
      <trkpt lat="47.25246" lon="-0.63595">
        <ele>80.4074707</ele>
        <time>2012-08-24T09:32:30Z</time>
      </trkpt>
      <trkpt lat="47.25234" lon="-0.6354">
        <ele>81.8493652</ele>
        <time>2012-08-24T09:32:38Z</time>
      </trkpt>
      <trkpt lat="47.25222" lon="-0.63477">
        <ele>82.3300781</ele>
        <time>2012-08-24T09:32:47Z</time>
      </trkpt>
      <trkpt lat="47.2521" lon="-0.63407">
        <ele>83.7719727</ele>
        <time>2012-08-24T09:32:57Z</time>
      </trkpt>
      <trkpt lat="47.25202" lon="-0.63341">
        <ele>84.7333984</ele>
        <time>2012-08-24T09:33:06Z</time>
      </trkpt>
      <trkpt lat="47.25191" lon="-0.63281">
        <ele>86.175293</ele>
        <time>2012-08-24T09:33:14Z</time>
      </trkpt>
      <trkpt lat="47.25166" lon="-0.63231">
        <ele>87.1365967</ele>
        <time>2012-08-24T09:33:22Z</time>
      </trkpt>
      <trkpt lat="47.2513" lon="-0.63184">
        <ele>88.0980225</ele>
        <time>2012-08-24T09:33:31Z</time>
      </trkpt>
      <trkpt lat="47.25076" lon="-0.63116">
        <ele>90.0206299</ele>
        <time>2012-08-24T09:33:44Z</time>
      </trkpt>
      <trkpt lat="47.25049" lon="-0.63065">
        <ele>90.5013428</ele>
        <time>2012-08-24T09:33:52Z</time>
      </trkpt>
      <trkpt lat="47.2502" lon="-0.63029">
        <ele>90.5013428</ele>
        <time>2012-08-24T09:33:59Z</time>
      </trkpt>
      <trkpt lat="47.24978" lon="-0.62996">
        <ele>91.4625244</ele>
        <time>2012-08-24T09:34:08Z</time>
      </trkpt>
      <trkpt lat="47.24915" lon="-0.62952">
        <ele>91.9432373</ele>
        <time>2012-08-24T09:34:21Z</time>
      </trkpt>
      <trkpt lat="47.24864" lon="-0.62919">
        <ele>92.904541</ele>
        <time>2012-08-24T09:34:31Z</time>
      </trkpt>
      <trkpt lat="47.24812" lon="-0.62885">
        <ele>95.3077393</ele>
        <time>2012-08-24T09:34:42Z</time>
      </trkpt>
      <trkpt lat="47.2477" lon="-0.62854">
        <ele>98.1918945</ele>
        <time>2012-08-24T09:34:52Z</time>
      </trkpt>
      <trkpt lat="47.24739" lon="-0.6282">
        <ele>100.114502</ele>
        <time>2012-08-24T09:35:01Z</time>
      </trkpt>
      <trkpt lat="47.24718" lon="-0.62793">
        <ele>100.5950928</ele>
        <time>2012-08-24T09:35:08Z</time>
      </trkpt>
      <trkpt lat="47.24698" lon="-0.6277">
        <ele>100.5950928</ele>
        <time>2012-08-24T09:35:14Z</time>
      </trkpt>
      <trkpt lat="47.2467" lon="-0.62735">
        <ele>99.1530762</ele>
        <time>2012-08-24T09:35:22Z</time>
      </trkpt>
      <trkpt lat="47.24656" lon="-0.62719">
        <ele>98.1918945</ele>
        <time>2012-08-24T09:35:25Z</time>
      </trkpt>
      <trkpt lat="47.24625" lon="-0.6268">
        <ele>96.2692871</ele>
        <time>2012-08-24T09:35:31Z</time>
      </trkpt>
      <trkpt lat="47.24587" lon="-0.62634">
        <ele>93.8658447</ele>
        <time>2012-08-24T09:35:37Z</time>
      </trkpt>
      <trkpt lat="47.24546" lon="-0.62585">
        <ele>92.4239502</ele>
        <time>2012-08-24T09:35:43Z</time>
      </trkpt>
      <trkpt lat="47.24519" lon="-0.62567">
        <ele>91.4625244</ele>
        <time>2012-08-24T09:35:47Z</time>
      </trkpt>
      <trkpt lat="47.24478" lon="-0.62553">
        <ele>90.9819336</ele>
        <time>2012-08-24T09:35:54Z</time>
      </trkpt>
      <trkpt lat="47.24457" lon="-0.62545">
        <ele>90.5013428</ele>
        <time>2012-08-24T09:35:58Z</time>
      </trkpt>
      <trkpt lat="47.24438" lon="-0.62537">
        <ele>90.5013428</ele>
        <time>2012-08-24T09:36:02Z</time>
      </trkpt>
      <trkpt lat="47.24408" lon="-0.62521">
        <ele>90.5013428</ele>
        <time>2012-08-24T09:36:09Z</time>
      </trkpt>
      <trkpt lat="47.24377" lon="-0.62505">
        <ele>90.0206299</ele>
        <time>2012-08-24T09:36:17Z</time>
      </trkpt>
      <trkpt lat="47.24344" lon="-0.62495">
        <ele>90.0206299</ele>
        <time>2012-08-24T09:36:25Z</time>
      </trkpt>
      <trkpt lat="47.24318" lon="-0.62483">
        <ele>90.0206299</ele>
        <time>2012-08-24T09:36:32Z</time>
      </trkpt>
      <trkpt lat="47.24286" lon="-0.62465">
        <ele>90.0206299</ele>
        <time>2012-08-24T09:36:40Z</time>
      </trkpt>
      <trkpt lat="47.24249" lon="-0.6244">
        <ele>90.5013428</ele>
        <time>2012-08-24T09:36:48Z</time>
      </trkpt>
      <trkpt lat="47.24207" lon="-0.62408">
        <ele>90.0206299</ele>
        <time>2012-08-24T09:36:57Z</time>
      </trkpt>
      <trkpt lat="47.24165" lon="-0.62373">
        <ele>90.0206299</ele>
        <time>2012-08-24T09:37:06Z</time>
      </trkpt>
      <trkpt lat="47.24125" lon="-0.6234">
        <ele>90.0206299</ele>
        <time>2012-08-24T09:37:14Z</time>
      </trkpt>
      <trkpt lat="47.24079" lon="-0.62302">
        <ele>89.539917</ele>
        <time>2012-08-24T09:37:23Z</time>
      </trkpt>
      <trkpt lat="47.24022" lon="-0.62251">
        <ele>88.5787354</ele>
        <time>2012-08-24T09:37:34Z</time>
      </trkpt>
      <trkpt lat="47.23993" lon="-0.62222">
        <ele>88.0980225</ele>
        <time>2012-08-24T09:37:40Z</time>
      </trkpt>
      <trkpt lat="47.23979" lon="-0.62207">
        <ele>87.6171875</ele>
        <time>2012-08-24T09:37:43Z</time>
      </trkpt>
      <trkpt lat="47.23951" lon="-0.62163">
        <ele>87.1365967</ele>
        <time>2012-08-24T09:37:50Z</time>
      </trkpt>
      <trkpt lat="47.23934" lon="-0.62117">
        <ele>86.175293</ele>
        <time>2012-08-24T09:37:56Z</time>
      </trkpt>
      <trkpt lat="47.23923" lon="-0.62073">
        <ele>85.6945801</ele>
        <time>2012-08-24T09:38:01Z</time>
      </trkpt>
      <trkpt lat="47.23906" lon="-0.62013">
        <ele>84.2526855</ele>
        <time>2012-08-24T09:38:08Z</time>
      </trkpt>
      <trkpt lat="47.23892" lon="-0.61982">
        <ele>83.7719727</ele>
        <time>2012-08-24T09:38:12Z</time>
      </trkpt>
      <trkpt lat="47.23862" lon="-0.61932">
        <ele>83.2913818</ele>
        <time>2012-08-24T09:38:19Z</time>
      </trkpt>
      <trkpt lat="47.23835" lon="-0.61887">
        <ele>81.8493652</ele>
        <time>2012-08-24T09:38:25Z</time>
      </trkpt>
      <trkpt lat="47.23795" lon="-0.61822">
        <ele>80.8881836</ele>
        <time>2012-08-24T09:38:34Z</time>
      </trkpt>
      <trkpt lat="47.23773" lon="-0.61799">
        <ele>79.9266357</ele>
        <time>2012-08-24T09:38:38Z</time>
      </trkpt>
      <trkpt lat="47.23738" lon="-0.61776">
        <ele>80.4074707</ele>
        <time>2012-08-24T09:38:44Z</time>
      </trkpt>
      <trkpt lat="47.23713" lon="-0.61763">
        <ele>80.4074707</ele>
        <time>2012-08-24T09:38:49Z</time>
      </trkpt>
      <trkpt lat="47.23679" lon="-0.61739">
        <ele>80.4074707</ele>
        <time>2012-08-24T09:38:56Z</time>
      </trkpt>
      <trkpt lat="47.23641" lon="-0.61707">
        <ele>79.4460449</ele>
        <time>2012-08-24T09:39:04Z</time>
      </trkpt>
      <trkpt lat="47.23592" lon="-0.61671">
        <ele>80.4074707</ele>
        <time>2012-08-24T09:39:14Z</time>
      </trkpt>
      <trkpt lat="47.2355" lon="-0.61649">
        <ele>79.9266357</ele>
        <time>2012-08-24T09:39:22Z</time>
      </trkpt>
      <trkpt lat="47.23502" lon="-0.61629">
        <ele>80.4074707</ele>
        <time>2012-08-24T09:39:31Z</time>
      </trkpt>
      <trkpt lat="47.23463" lon="-0.61606">
        <ele>80.8881836</ele>
        <time>2012-08-24T09:39:39Z</time>
      </trkpt>
      <trkpt lat="47.23413" lon="-0.61563">
        <ele>81.3687744</ele>
        <time>2012-08-24T09:39:50Z</time>
      </trkpt>
      <trkpt lat="47.23369" lon="-0.61523">
        <ele>81.8493652</ele>
        <time>2012-08-24T09:40:00Z</time>
      </trkpt>
      <trkpt lat="47.23344" lon="-0.61491">
        <ele>81.8493652</ele>
        <time>2012-08-24T09:40:07Z</time>
      </trkpt>
      <trkpt lat="47.23329" lon="-0.61473">
        <ele>82.3300781</ele>
        <time>2012-08-24T09:40:11Z</time>
      </trkpt>
      <trkpt lat="47.23309" lon="-0.61458">
        <ele>82.3300781</ele>
        <time>2012-08-24T09:40:16Z</time>
      </trkpt>
      <trkpt lat="47.23285" lon="-0.61453">
        <ele>81.3687744</ele>
        <time>2012-08-24T09:40:21Z</time>
      </trkpt>
      <trkpt lat="47.23249" lon="-0.61434">
        <ele>79.9266357</ele>
        <time>2012-08-24T09:40:29Z</time>
      </trkpt>
      <trkpt lat="47.23227" lon="-0.61412">
        <ele>79.4460449</ele>
        <time>2012-08-24T09:40:34Z</time>
      </trkpt>
      <trkpt lat="47.2321" lon="-0.6139">
        <ele>78.0040283</ele>
        <time>2012-08-24T09:40:38Z</time>
      </trkpt>
      <trkpt lat="47.23172" lon="-0.61348">
        <ele>78.4847412</ele>
        <time>2012-08-24T09:40:46Z</time>
      </trkpt>
      <trkpt lat="47.23141" lon="-0.61311">
        <ele>78.9654541</ele>
        <time>2012-08-24T09:40:53Z</time>
      </trkpt>
      <trkpt lat="47.23109" lon="-0.61271">
        <ele>78.0040283</ele>
        <time>2012-08-24T09:41:00Z</time>
      </trkpt>
      <trkpt lat="47.23094" lon="-0.61254">
        <ele>77.5234375</ele>
        <time>2012-08-24T09:41:03Z</time>
      </trkpt>
      <trkpt lat="47.23089" lon="-0.61248">
        <ele>77.5234375</ele>
        <time>2012-08-24T09:41:04Z</time>
      </trkpt>
      <trkpt lat="47.23053" lon="-0.61204">
        <ele>76.5621338</ele>
        <time>2012-08-24T09:41:12Z</time>
      </trkpt>
      <trkpt lat="47.23007" lon="-0.61157">
        <ele>76.5621338</ele>
        <time>2012-08-24T09:41:22Z</time>
      </trkpt>
      <trkpt lat="47.22962" lon="-0.61117">
        <ele>78.4847412</ele>
        <time>2012-08-24T09:41:31Z</time>
      </trkpt>
      <trkpt lat="47.22936" lon="-0.61094">
        <ele>78.9654541</ele>
        <time>2012-08-24T09:41:36Z</time>
      </trkpt>
      <trkpt lat="47.22926" lon="-0.61084">
        <ele>79.4460449</ele>
        <time>2012-08-24T09:41:38Z</time>
      </trkpt>
      <trkpt lat="47.22889" lon="-0.61054">
        <ele>78.9654541</ele>
        <time>2012-08-24T09:41:45Z</time>
      </trkpt>
      <trkpt lat="47.22848" lon="-0.6102">
        <ele>78.9654541</ele>
        <time>2012-08-24T09:41:53Z</time>
      </trkpt>
      <trkpt lat="47.22801" lon="-0.6098">
        <ele>78.9654541</ele>
        <time>2012-08-24T09:42:02Z</time>
      </trkpt>
      <trkpt lat="47.22767" lon="-0.60951">
        <ele>78.4847412</ele>
        <time>2012-08-24T09:42:08Z</time>
      </trkpt>
      <trkpt lat="47.22737" lon="-0.60924">
        <ele>78.4847412</ele>
        <time>2012-08-24T09:42:14Z</time>
      </trkpt>
      <trkpt lat="47.22691" lon="-0.60885">
        <ele>78.4847412</ele>
        <time>2012-08-24T09:42:23Z</time>
      </trkpt>
      <trkpt lat="47.2264" lon="-0.6084">
        <ele>78.9654541</ele>
        <time>2012-08-24T09:42:33Z</time>
      </trkpt>
      <trkpt lat="47.22584" lon="-0.60791">
        <ele>79.9266357</ele>
        <time>2012-08-24T09:42:44Z</time>
      </trkpt>
      <trkpt lat="47.22538" lon="-0.60751">
        <ele>80.4074707</ele>
        <time>2012-08-24T09:42:53Z</time>
      </trkpt>
      <trkpt lat="47.22485" lon="-0.60709">
        <ele>81.3687744</ele>
        <time>2012-08-24T09:43:03Z</time>
      </trkpt>
      <trkpt lat="47.22447" lon="-0.60679">
        <ele>82.3300781</ele>
        <time>2012-08-24T09:43:11Z</time>
      </trkpt>
      <trkpt lat="47.22397" lon="-0.60647">
        <ele>83.2913818</ele>
        <time>2012-08-24T09:43:21Z</time>
      </trkpt>
      <trkpt lat="47.22363" lon="-0.60641">
        <ele>83.7719727</ele>
        <time>2012-08-24T09:43:27Z</time>
      </trkpt>
      <trkpt lat="47.22314" lon="-0.6064">
        <ele>84.2526855</ele>
        <time>2012-08-24T09:43:36Z</time>
      </trkpt>
      <trkpt lat="47.22254" lon="-0.60639">
        <ele>83.7719727</ele>
        <time>2012-08-24T09:43:47Z</time>
      </trkpt>
      <trkpt lat="47.22199" lon="-0.60636">
        <ele>83.2913818</ele>
        <time>2012-08-24T09:43:57Z</time>
      </trkpt>
      <trkpt lat="47.22147" lon="-0.60627">
        <ele>82.810791</ele>
        <time>2012-08-24T09:44:06Z</time>
      </trkpt>
      <trkpt lat="47.22102" lon="-0.60622">
        <ele>81.3687744</ele>
        <time>2012-08-24T09:44:14Z</time>
      </trkpt>
      <trkpt lat="47.22045" lon="-0.60616">
        <ele>79.9266357</ele>
        <time>2012-08-24T09:44:24Z</time>
      </trkpt>
      <trkpt lat="47.22013" lon="-0.60611">
        <ele>79.9266357</ele>
        <time>2012-08-24T09:44:30Z</time>
      </trkpt>
      <trkpt lat="47.21964" lon="-0.60606">
        <ele>80.8881836</ele>
        <time>2012-08-24T09:44:39Z</time>
      </trkpt>
      <trkpt lat="47.2193" lon="-0.60615">
        <ele>80.4074707</ele>
        <time>2012-08-24T09:44:45Z</time>
      </trkpt>
      <trkpt lat="47.21897" lon="-0.60625">
        <ele>78.4847412</ele>
        <time>2012-08-24T09:44:51Z</time>
      </trkpt>
      <trkpt lat="47.21864" lon="-0.60633">
        <ele>76.5621338</ele>
        <time>2012-08-24T09:44:57Z</time>
      </trkpt>
      <trkpt lat="47.21845" lon="-0.60632">
        <ele>76.0814209</ele>
        <time>2012-08-24T09:45:00Z</time>
      </trkpt>
      <trkpt lat="47.21826" lon="-0.60626">
        <ele>75.6008301</ele>
        <time>2012-08-24T09:45:03Z</time>
      </trkpt>
      <trkpt lat="47.2179" lon="-0.60621">
        <ele>75.1202393</ele>
        <time>2012-08-24T09:45:09Z</time>
      </trkpt>
      <trkpt lat="47.21772" lon="-0.6063">
        <ele>75.6008301</ele>
        <time>2012-08-24T09:45:13Z</time>
      </trkpt>
      <trkpt lat="47.21765" lon="-0.60637">
        <ele>76.5621338</ele>
        <time>2012-08-24T09:45:18Z</time>
      </trkpt>
      <trkpt lat="47.21766" lon="-0.60646">
        <ele>76.5621338</ele>
        <time>2012-08-24T09:45:22Z</time>
      </trkpt>
      <trkpt lat="47.21767" lon="-0.60651">
        <ele>76.5621338</ele>
        <time>2012-08-24T09:45:23Z</time>
      </trkpt>
      <trkpt lat="47.21773" lon="-0.60671">
        <ele>75.6008301</ele>
        <time>2012-08-24T09:45:26Z</time>
      </trkpt>
      <trkpt lat="47.21777" lon="-0.60698">
        <ele>76.0814209</ele>
        <time>2012-08-24T09:45:29Z</time>
      </trkpt>
      <trkpt lat="47.21771" lon="-0.60732">
        <ele>76.0814209</ele>
        <time>2012-08-24T09:45:34Z</time>
      </trkpt>
      <trkpt lat="47.21763" lon="-0.60742">
        <ele>75.6008301</ele>
        <time>2012-08-24T09:45:36Z</time>
      </trkpt>
      <trkpt lat="47.21736" lon="-0.60774">
        <ele>77.0428467</ele>
        <time>2012-08-24T09:45:43Z</time>
      </trkpt>
      <trkpt lat="47.21715" lon="-0.60792">
        <ele>78.0040283</ele>
        <time>2012-08-24T09:45:48Z</time>
      </trkpt>
      <trkpt lat="47.21701" lon="-0.60805">
        <ele>77.5234375</ele>
        <time>2012-08-24T09:45:53Z</time>
      </trkpt>
      <trkpt lat="47.21699" lon="-0.60806">
        <ele>77.5234375</ele>
        <time>2012-08-24T09:45:54Z</time>
      </trkpt>
      <trkpt lat="47.21692" lon="-0.60796">
        <ele>77.5234375</ele>
        <time>2012-08-24T09:45:59Z</time>
      </trkpt>
      <trkpt lat="47.21688" lon="-0.60768">
        <ele>77.0428467</ele>
        <time>2012-08-24T09:46:04Z</time>
      </trkpt>
      <trkpt lat="47.2168" lon="-0.60719">
        <ele>76.0814209</ele>
        <time>2012-08-24T09:46:11Z</time>
      </trkpt>
      <trkpt lat="47.21678" lon="-0.60705">
        <ele>75.6008301</ele>
        <time>2012-08-24T09:46:13Z</time>
      </trkpt>
      <trkpt lat="47.21663" lon="-0.60674">
        <ele>75.1202393</ele>
        <time>2012-08-24T09:46:18Z</time>
      </trkpt>
      <trkpt lat="47.21645" lon="-0.60645">
        <ele>74.6395264</ele>
        <time>2012-08-24T09:46:23Z</time>
      </trkpt>
      <trkpt lat="47.21636" lon="-0.60614">
        <ele>73.6782227</ele>
        <time>2012-08-24T09:46:27Z</time>
      </trkpt>
      <trkpt lat="47.21629" lon="-0.60531">
        <ele>71.7554932</ele>
        <time>2012-08-24T09:46:37Z</time>
      </trkpt>
      <trkpt lat="47.21622" lon="-0.60445">
        <ele>70.3134766</ele>
        <time>2012-08-24T09:46:47Z</time>
      </trkpt>
      <trkpt lat="47.21617" lon="-0.60376">
        <ele>70.7941895</ele>
        <time>2012-08-24T09:46:55Z</time>
      </trkpt>
      <trkpt lat="47.21612" lon="-0.60319">
        <ele>71.7554932</ele>
        <time>2012-08-24T09:47:01Z</time>
      </trkpt>
      <trkpt lat="47.21601" lon="-0.60264">
        <ele>71.2749023</ele>
        <time>2012-08-24T09:47:07Z</time>
      </trkpt>
      <trkpt lat="47.21573" lon="-0.6017">
        <ele>70.3134766</ele>
        <time>2012-08-24T09:47:18Z</time>
      </trkpt>
      <trkpt lat="47.21557" lon="-0.6012">
        <ele>69.8328857</ele>
        <time>2012-08-24T09:47:24Z</time>
      </trkpt>
      <trkpt lat="47.21538" lon="-0.6006">
        <ele>67.4296875</ele>
        <time>2012-08-24T09:47:32Z</time>
      </trkpt>
      <trkpt lat="47.21519" lon="-0.6">
        <ele>64.5456543</ele>
        <time>2012-08-24T09:47:40Z</time>
      </trkpt>
      <trkpt lat="47.21515" lon="-0.59985">
        <ele>64.5456543</ele>
        <time>2012-08-24T09:47:42Z</time>
      </trkpt>
      <trkpt lat="47.21503" lon="-0.59973">
        <ele>64.5456543</ele>
        <time>2012-08-24T09:47:45Z</time>
      </trkpt>
      <trkpt lat="47.215" lon="-0.59975">
        <ele>64.5456543</ele>
        <time>2012-08-24T09:47:46Z</time>
      </trkpt>
      <trkpt lat="47.21478" lon="-0.59979">
        <ele>65.5070801</ele>
        <time>2012-08-24T09:47:51Z</time>
      </trkpt>
      <trkpt lat="47.21441" lon="-0.59961">
        <ele>66.9489746</ele>
        <time>2012-08-24T09:47:59Z</time>
      </trkpt>
      <trkpt lat="47.2143" lon="-0.5997">
        <ele>67.9102783</ele>
        <time>2012-08-24T09:48:03Z</time>
      </trkpt>
      <trkpt lat="47.21413" lon="-0.60026">
        <ele>69.8328857</ele>
        <time>2012-08-24T09:48:13Z</time>
      </trkpt>
      <trkpt lat="47.21396" lon="-0.60081">
        <ele>72.2362061</ele>
        <time>2012-08-24T09:48:22Z</time>
      </trkpt>
      <trkpt lat="47.21377" lon="-0.60143">
        <ele>75.6008301</ele>
        <time>2012-08-24T09:48:32Z</time>
      </trkpt>
      <trkpt lat="47.21361" lon="-0.602">
        <ele>77.0428467</ele>
        <time>2012-08-24T09:48:42Z</time>
      </trkpt>
      <trkpt lat="47.21359" lon="-0.60205">
        <ele>77.0428467</ele>
        <time>2012-08-24T09:48:43Z</time>
      </trkpt>
      <trkpt lat="47.21352" lon="-0.60226">
        <ele>78.9654541</ele>
        <time>2012-08-24T09:48:49Z</time>
      </trkpt>
      <trkpt lat="47.21341" lon="-0.60228">
        <ele>79.9266357</ele>
        <time>2012-08-24T09:48:54Z</time>
      </trkpt>
      <trkpt lat="47.21332" lon="-0.60225">
        <ele>79.9266357</ele>
        <time>2012-08-24T09:48:59Z</time>
      </trkpt>
      <trkpt lat="47.21333" lon="-0.60224">
        <ele>79.9266357</ele>
        <time>2012-08-24T09:49:04Z</time>
      </trkpt>
      <trkpt lat="47.21332" lon="-0.60225">
        <ele>79.9266357</ele>
        <time>2012-08-24T09:49:09Z</time>
      </trkpt>
      <trkpt lat="47.21332" lon="-0.60222">
        <ele>79.9266357</ele>
        <time>2012-08-24T09:49:17Z</time>
      </trkpt>
      <trkpt lat="47.2133" lon="-0.60222">
        <ele>79.4460449</ele>
        <time>2012-08-24T09:49:22Z</time>
      </trkpt>
      <trkpt lat="47.21326" lon="-0.60221">
        <ele>78.4847412</ele>
        <time>2012-08-24T09:49:30Z</time>
      </trkpt>
      <trkpt lat="47.21325" lon="-0.60219">
        <ele>77.0428467</ele>
        <time>2012-08-24T09:49:35Z</time>
      </trkpt>
      <trkpt lat="47.21324" lon="-0.6022">
        <ele>76.0814209</ele>
        <time>2012-08-24T09:49:39Z</time>
      </trkpt>
      <trkpt lat="47.2133" lon="-0.60224">
        <ele>79.4460449</ele>
        <time>2012-08-24T11:55:09Z</time>
      </trkpt>
      <trkpt lat="47.21329" lon="-0.60223">
        <ele>79.9266357</ele>
        <time>2012-08-24T11:55:10Z</time>
      </trkpt>
      <trkpt lat="47.21329" lon="-0.60223">
        <ele>79.9266357</ele>
        <time>2012-08-24T11:55:11Z</time>
      </trkpt>
      <trkpt lat="47.21331" lon="-0.60224">
        <ele>79.4460449</ele>
        <time>2012-08-24T11:55:16Z</time>
      </trkpt>
      <trkpt lat="47.21332" lon="-0.60225">
        <ele>80.8881836</ele>
        <time>2012-08-24T11:55:23Z</time>
      </trkpt>
      <trkpt lat="47.2133" lon="-0.60227">
        <ele>80.8881836</ele>
        <time>2012-08-24T11:55:29Z</time>
      </trkpt>
      <trkpt lat="47.21329" lon="-0.60226">
        <ele>79.9266357</ele>
        <time>2012-08-24T11:55:37Z</time>
      </trkpt>
      <trkpt lat="47.21332" lon="-0.60226">
        <ele>79.9266357</ele>
        <time>2012-08-24T11:55:43Z</time>
      </trkpt>
      <trkpt lat="47.21331" lon="-0.60228">
        <ele>81.8493652</ele>
        <time>2012-08-24T11:55:54Z</time>
      </trkpt>
      <trkpt lat="47.21334" lon="-0.60229">
        <ele>80.8881836</ele>
        <time>2012-08-24T11:56:04Z</time>
      </trkpt>
      <trkpt lat="47.21335" lon="-0.60229">
        <ele>79.4460449</ele>
        <time>2012-08-24T11:56:12Z</time>
      </trkpt>
      <trkpt lat="47.21335" lon="-0.60229">
        <ele>78.9654541</ele>
        <time>2012-08-24T11:56:15Z</time>
      </trkpt>
      <trkpt lat="47.21336" lon="-0.60229">
        <ele>78.0040283</ele>
        <time>2012-08-24T11:56:22Z</time>
      </trkpt>
      <trkpt lat="47.2134" lon="-0.6023">
        <ele>78.9654541</ele>
        <time>2012-08-24T11:56:30Z</time>
      </trkpt>
      <trkpt lat="47.21344" lon="-0.60232">
        <ele>78.4847412</ele>
        <time>2012-08-24T11:56:34Z</time>
      </trkpt>
      <trkpt lat="47.21346" lon="-0.60232">
        <ele>78.4847412</ele>
        <time>2012-08-24T11:56:35Z</time>
      </trkpt>
      <trkpt lat="47.2135" lon="-0.6023">
        <ele>78.4847412</ele>
        <time>2012-08-24T11:56:37Z</time>
      </trkpt>
      <trkpt lat="47.21356" lon="-0.60219">
        <ele>77.5234375</ele>
        <time>2012-08-24T11:56:41Z</time>
      </trkpt>
      <trkpt lat="47.21357" lon="-0.60215">
        <ele>77.0428467</ele>
        <time>2012-08-24T11:56:42Z</time>
      </trkpt>
      <trkpt lat="47.21365" lon="-0.6019">
        <ele>76.0814209</ele>
        <time>2012-08-24T11:56:49Z</time>
      </trkpt>
      <trkpt lat="47.21374" lon="-0.60159">
        <ele>75.1202393</ele>
        <time>2012-08-24T11:56:56Z</time>
      </trkpt>
      <trkpt lat="47.21382" lon="-0.60128">
        <ele>74.6395264</ele>
        <time>2012-08-24T11:57:02Z</time>
      </trkpt>
      <trkpt lat="47.21393" lon="-0.60084">
        <ele>74.1588135</ele>
        <time>2012-08-24T11:57:10Z</time>
      </trkpt>
      <trkpt lat="47.21406" lon="-0.60043">
        <ele>72.7169189</ele>
        <time>2012-08-24T11:57:17Z</time>
      </trkpt>
      <trkpt lat="47.21422" lon="-0.59988">
        <ele>71.7554932</ele>
        <time>2012-08-24T11:57:25Z</time>
      </trkpt>
      <trkpt lat="47.21427" lon="-0.59975">
        <ele>72.2362061</ele>
        <time>2012-08-24T11:57:27Z</time>
      </trkpt>
      <trkpt lat="47.21441" lon="-0.5996">
        <ele>72.2362061</ele>
        <time>2012-08-24T11:57:31Z</time>
      </trkpt>
      <trkpt lat="47.21446" lon="-0.59962">
        <ele>71.7554932</ele>
        <time>2012-08-24T11:57:32Z</time>
      </trkpt>
      <trkpt lat="47.21484" lon="-0.59977">
        <ele>71.2749023</ele>
        <time>2012-08-24T11:57:39Z</time>
      </trkpt>
      <trkpt lat="47.21492" lon="-0.59977">
        <ele>71.2749023</ele>
        <time>2012-08-24T11:57:41Z</time>
      </trkpt>
      <trkpt lat="47.21504" lon="-0.59975">
        <ele>71.2749023</ele>
        <time>2012-08-24T11:57:44Z</time>
      </trkpt>
      <trkpt lat="47.2152" lon="-0.59987">
        <ele>71.2749023</ele>
        <time>2012-08-24T11:57:49Z</time>
      </trkpt>
      <trkpt lat="47.21538" lon="-0.60048">
        <ele>71.2749023</ele>
        <time>2012-08-24T11:57:58Z</time>
      </trkpt>
      <trkpt lat="47.21554" lon="-0.601">
        <ele>71.2749023</ele>
        <time>2012-08-24T11:58:05Z</time>
      </trkpt>
      <trkpt lat="47.21572" lon="-0.60164">
        <ele>71.7554932</ele>
        <time>2012-08-24T11:58:14Z</time>
      </trkpt>
      <trkpt lat="47.21596" lon="-0.60238">
        <ele>69.8328857</ele>
        <time>2012-08-24T11:58:25Z</time>
      </trkpt>
      <trkpt lat="47.21613" lon="-0.603">
        <ele>69.8328857</ele>
        <time>2012-08-24T11:58:34Z</time>
      </trkpt>
      <trkpt lat="47.2162" lon="-0.60367">
        <ele>70.3134766</ele>
        <time>2012-08-24T11:58:43Z</time>
      </trkpt>
      <trkpt lat="47.21625" lon="-0.60437">
        <ele>69.8328857</ele>
        <time>2012-08-24T11:58:52Z</time>
      </trkpt>
      <trkpt lat="47.2163" lon="-0.60513">
        <ele>69.8328857</ele>
        <time>2012-08-24T11:59:02Z</time>
      </trkpt>
      <trkpt lat="47.21634" lon="-0.60571">
        <ele>68.871582</ele>
        <time>2012-08-24T11:59:10Z</time>
      </trkpt>
      <trkpt lat="47.21641" lon="-0.60629">
        <ele>68.871582</ele>
        <time>2012-08-24T11:59:18Z</time>
      </trkpt>
      <trkpt lat="47.21658" lon="-0.60664">
        <ele>70.7941895</ele>
        <time>2012-08-24T11:59:24Z</time>
      </trkpt>
      <trkpt lat="47.21661" lon="-0.6067">
        <ele>71.2749023</ele>
        <time>2012-08-24T11:59:25Z</time>
      </trkpt>
      <trkpt lat="47.21677" lon="-0.60676">
        <ele>71.7554932</ele>
        <time>2012-08-24T11:59:29Z</time>
      </trkpt>
      <trkpt lat="47.21691" lon="-0.60675">
        <ele>74.1588135</ele>
        <time>2012-08-24T11:59:32Z</time>
      </trkpt>
      <trkpt lat="47.21703" lon="-0.60674">
        <ele>76.5621338</ele>
        <time>2012-08-24T11:59:35Z</time>
      </trkpt>
      <trkpt lat="47.21728" lon="-0.60668">
        <ele>78.4847412</ele>
        <time>2012-08-24T11:59:41Z</time>
      </trkpt>
      <trkpt lat="47.21748" lon="-0.60654">
        <ele>79.4460449</ele>
        <time>2012-08-24T11:59:47Z</time>
      </trkpt>
      <trkpt lat="47.21764" lon="-0.60636">
        <ele>78.9654541</ele>
        <time>2012-08-24T11:59:53Z</time>
      </trkpt>
      <trkpt lat="47.2178" lon="-0.60622">
        <ele>79.4460449</ele>
        <time>2012-08-24T11:59:58Z</time>
      </trkpt>
      <trkpt lat="47.21804" lon="-0.6062">
        <ele>78.0040283</ele>
        <time>2012-08-24T12:00:04Z</time>
      </trkpt>
      <trkpt lat="47.21822" lon="-0.60625">
        <ele>78.9654541</ele>
        <time>2012-08-24T12:00:09Z</time>
      </trkpt>
      <trkpt lat="47.2185" lon="-0.60632">
        <ele>79.9266357</ele>
        <time>2012-08-24T12:00:16Z</time>
      </trkpt>
      <trkpt lat="47.21877" lon="-0.60629">
        <ele>82.3300781</ele>
        <time>2012-08-24T12:00:23Z</time>
      </trkpt>
      <trkpt lat="47.21896" lon="-0.60625">
        <ele>82.810791</ele>
        <time>2012-08-24T12:00:28Z</time>
      </trkpt>
      <trkpt lat="47.21921" lon="-0.60617">
        <ele>81.8493652</ele>
        <time>2012-08-24T12:00:34Z</time>
      </trkpt>
      <trkpt lat="47.21951" lon="-0.60609">
        <ele>81.8493652</ele>
        <time>2012-08-24T12:00:41Z</time>
      </trkpt>
      <trkpt lat="47.21969" lon="-0.60607">
        <ele>82.3300781</ele>
        <time>2012-08-24T12:00:45Z</time>
      </trkpt>
      <trkpt lat="47.22011" lon="-0.60611">
        <ele>80.8881836</ele>
        <time>2012-08-24T12:00:54Z</time>
      </trkpt>
      <trkpt lat="47.22059" lon="-0.60617">
        <ele>80.4074707</ele>
        <time>2012-08-24T12:01:04Z</time>
      </trkpt>
      <trkpt lat="47.22108" lon="-0.60621">
        <ele>80.8881836</ele>
        <time>2012-08-24T12:01:14Z</time>
      </trkpt>
      <trkpt lat="47.22156" lon="-0.60627">
        <ele>80.8881836</ele>
        <time>2012-08-24T12:01:23Z</time>
      </trkpt>
      <trkpt lat="47.22218" lon="-0.60636">
        <ele>79.9266357</ele>
        <time>2012-08-24T12:01:34Z</time>
      </trkpt>
      <trkpt lat="47.22276" lon="-0.60638">
        <ele>79.4460449</ele>
        <time>2012-08-24T12:01:44Z</time>
      </trkpt>
      <trkpt lat="47.22326" lon="-0.60639">
        <ele>78.9654541</ele>
        <time>2012-08-24T12:01:52Z</time>
      </trkpt>
      <trkpt lat="47.22371" lon="-0.60641">
        <ele>78.4847412</ele>
        <time>2012-08-24T12:01:59Z</time>
      </trkpt>
      <trkpt lat="47.22395" lon="-0.60645">
        <ele>78.9654541</ele>
        <time>2012-08-24T12:02:03Z</time>
      </trkpt>
      <trkpt lat="47.22441" lon="-0.60673">
        <ele>78.0040283</ele>
        <time>2012-08-24T12:02:11Z</time>
      </trkpt>
      <trkpt lat="47.22497" lon="-0.60716">
        <ele>77.5234375</ele>
        <time>2012-08-24T12:02:21Z</time>
      </trkpt>
      <trkpt lat="47.22552" lon="-0.60759">
        <ele>77.0428467</ele>
        <time>2012-08-24T12:02:31Z</time>
      </trkpt>
      <trkpt lat="47.22611" lon="-0.6081">
        <ele>76.5621338</ele>
        <time>2012-08-24T12:02:42Z</time>
      </trkpt>
      <trkpt lat="47.2267" lon="-0.6086">
        <ele>75.1202393</ele>
        <time>2012-08-24T12:02:53Z</time>
      </trkpt>
      <trkpt lat="47.22716" lon="-0.60901">
        <ele>75.1202393</ele>
        <time>2012-08-24T12:03:02Z</time>
      </trkpt>
      <trkpt lat="47.22773" lon="-0.60949">
        <ele>73.1976318</ele>
        <time>2012-08-24T12:03:13Z</time>
      </trkpt>
      <trkpt lat="47.22826" lon="-0.60995">
        <ele>72.7169189</ele>
        <time>2012-08-24T12:03:23Z</time>
      </trkpt>
      <trkpt lat="47.22862" lon="-0.61027">
        <ele>73.6782227</ele>
        <time>2012-08-24T12:03:30Z</time>
      </trkpt>
      <trkpt lat="47.22892" lon="-0.61054">
        <ele>73.6782227</ele>
        <time>2012-08-24T12:03:36Z</time>
      </trkpt>
      <trkpt lat="47.22929" lon="-0.61084">
        <ele>73.6782227</ele>
        <time>2012-08-24T12:03:43Z</time>
      </trkpt>
      <trkpt lat="47.22976" lon="-0.61124">
        <ele>74.6395264</ele>
        <time>2012-08-24T12:03:52Z</time>
      </trkpt>
      <trkpt lat="47.23012" lon="-0.61157">
        <ele>76.5621338</ele>
        <time>2012-08-24T12:03:59Z</time>
      </trkpt>
      <trkpt lat="47.23034" lon="-0.61183">
        <ele>78.4847412</ele>
        <time>2012-08-24T12:04:04Z</time>
      </trkpt>
      <trkpt lat="47.23039" lon="-0.61189">
        <ele>78.4847412</ele>
        <time>2012-08-24T12:04:05Z</time>
      </trkpt>
      <trkpt lat="47.23076" lon="-0.61235">
        <ele>78.4847412</ele>
        <time>2012-08-24T12:04:13Z</time>
      </trkpt>
      <trkpt lat="47.23109" lon="-0.61275">
        <ele>77.5234375</ele>
        <time>2012-08-24T12:04:20Z</time>
      </trkpt>
      <trkpt lat="47.23139" lon="-0.61314">
        <ele>78.0040283</ele>
        <time>2012-08-24T12:04:27Z</time>
      </trkpt>
      <trkpt lat="47.23167" lon="-0.61349">
        <ele>78.4847412</ele>
        <time>2012-08-24T12:04:34Z</time>
      </trkpt>
      <trkpt lat="47.23201" lon="-0.61383">
        <ele>80.8881836</ele>
        <time>2012-08-24T12:04:41Z</time>
      </trkpt>
      <trkpt lat="47.2324" lon="-0.61423">
        <ele>81.3687744</ele>
        <time>2012-08-24T12:04:49Z</time>
      </trkpt>
      <trkpt lat="47.2327" lon="-0.61446">
        <ele>81.3687744</ele>
        <time>2012-08-24T12:04:55Z</time>
      </trkpt>
      <trkpt lat="47.23311" lon="-0.61456">
        <ele>80.8881836</ele>
        <time>2012-08-24T12:05:02Z</time>
      </trkpt>
      <trkpt lat="47.23332" lon="-0.61472">
        <ele>80.4074707</ele>
        <time>2012-08-24T12:05:06Z</time>
      </trkpt>
      <trkpt lat="47.23374" lon="-0.61523">
        <ele>79.4460449</ele>
        <time>2012-08-24T12:05:15Z</time>
      </trkpt>
      <trkpt lat="47.23419" lon="-0.61564">
        <ele>79.9266357</ele>
        <time>2012-08-24T12:05:24Z</time>
      </trkpt>
      <trkpt lat="47.23453" lon="-0.61595">
        <ele>79.4460449</ele>
        <time>2012-08-24T12:05:31Z</time>
      </trkpt>
      <trkpt lat="47.23495" lon="-0.61624">
        <ele>78.4847412</ele>
        <time>2012-08-24T12:05:39Z</time>
      </trkpt>
      <trkpt lat="47.2354" lon="-0.61643">
        <ele>77.5234375</ele>
        <time>2012-08-24T12:05:47Z</time>
      </trkpt>
      <trkpt lat="47.23588" lon="-0.61666">
        <ele>78.0040283</ele>
        <time>2012-08-24T12:05:56Z</time>
      </trkpt>
      <trkpt lat="47.2363" lon="-0.61696">
        <ele>78.0040283</ele>
        <time>2012-08-24T12:06:04Z</time>
      </trkpt>
      <trkpt lat="47.23671" lon="-0.61729">
        <ele>77.5234375</ele>
        <time>2012-08-24T12:06:12Z</time>
      </trkpt>
      <trkpt lat="47.23716" lon="-0.61762">
        <ele>77.5234375</ele>
        <time>2012-08-24T12:06:20Z</time>
      </trkpt>
      <trkpt lat="47.23774" lon="-0.61797">
        <ele>77.0428467</ele>
        <time>2012-08-24T12:06:30Z</time>
      </trkpt>
      <trkpt lat="47.23789" lon="-0.61811">
        <ele>77.0428467</ele>
        <time>2012-08-24T12:06:33Z</time>
      </trkpt>
      <trkpt lat="47.23824" lon="-0.61868">
        <ele>77.0428467</ele>
        <time>2012-08-24T12:06:42Z</time>
      </trkpt>
      <trkpt lat="47.2385" lon="-0.61913">
        <ele>78.0040283</ele>
        <time>2012-08-24T12:06:49Z</time>
      </trkpt>
      <trkpt lat="47.23881" lon="-0.61965">
        <ele>79.9266357</ele>
        <time>2012-08-24T12:06:58Z</time>
      </trkpt>
      <trkpt lat="47.23902" lon="-0.62005">
        <ele>81.3687744</ele>
        <time>2012-08-24T12:07:05Z</time>
      </trkpt>
      <trkpt lat="47.23908" lon="-0.62024">
        <ele>81.8493652</ele>
        <time>2012-08-24T12:07:08Z</time>
      </trkpt>
      <trkpt lat="47.23927" lon="-0.62088">
        <ele>82.810791</ele>
        <time>2012-08-24T12:07:18Z</time>
      </trkpt>
      <trkpt lat="47.23944" lon="-0.62141">
        <ele>82.810791</ele>
        <time>2012-08-24T12:07:27Z</time>
      </trkpt>
      <trkpt lat="47.23966" lon="-0.62186">
        <ele>83.2913818</ele>
        <time>2012-08-24T12:07:35Z</time>
      </trkpt>
      <trkpt lat="47.23976" lon="-0.62199">
        <ele>83.2913818</ele>
        <time>2012-08-24T12:07:38Z</time>
      </trkpt>
      <trkpt lat="47.23996" lon="-0.62225">
        <ele>84.2526855</ele>
        <time>2012-08-24T12:07:44Z</time>
      </trkpt>
      <trkpt lat="47.24028" lon="-0.62256">
        <ele>84.7333984</ele>
        <time>2012-08-24T12:07:52Z</time>
      </trkpt>
      <trkpt lat="47.24058" lon="-0.62282">
        <ele>85.6945801</ele>
        <time>2012-08-24T12:07:59Z</time>
      </trkpt>
      <trkpt lat="47.24102" lon="-0.62318">
        <ele>86.175293</ele>
        <time>2012-08-24T12:08:09Z</time>
      </trkpt>
      <trkpt lat="47.24152" lon="-0.6236">
        <ele>87.1365967</ele>
        <time>2012-08-24T12:08:20Z</time>
      </trkpt>
      <trkpt lat="47.24188" lon="-0.6239">
        <ele>87.6171875</ele>
        <time>2012-08-24T12:08:28Z</time>
      </trkpt>
      <trkpt lat="47.2423" lon="-0.62423">
        <ele>88.0980225</ele>
        <time>2012-08-24T12:08:37Z</time>
      </trkpt>
      <trkpt lat="47.24264" lon="-0.62447">
        <ele>88.0980225</ele>
        <time>2012-08-24T12:08:44Z</time>
      </trkpt>
      <trkpt lat="47.243" lon="-0.62469">
        <ele>87.6171875</ele>
        <time>2012-08-24T12:08:51Z</time>
      </trkpt>
      <trkpt lat="47.24347" lon="-0.62493">
        <ele>87.1365967</ele>
        <time>2012-08-24T12:09:00Z</time>
      </trkpt>
      <trkpt lat="47.24393" lon="-0.6251">
        <ele>87.1365967</ele>
        <time>2012-08-24T12:09:08Z</time>
      </trkpt>
      <trkpt lat="47.24436" lon="-0.62534">
        <ele>87.6171875</ele>
        <time>2012-08-24T12:09:16Z</time>
      </trkpt>
      <trkpt lat="47.24466" lon="-0.62548">
        <ele>86.6560059</ele>
        <time>2012-08-24T12:09:22Z</time>
      </trkpt>
      <trkpt lat="47.2451" lon="-0.62564">
        <ele>86.175293</ele>
        <time>2012-08-24T12:09:30Z</time>
      </trkpt>
      <trkpt lat="47.24538" lon="-0.62578">
        <ele>86.175293</ele>
        <time>2012-08-24T12:09:35Z</time>
      </trkpt>
      <trkpt lat="47.24579" lon="-0.62622">
        <ele>89.539917</ele>
        <time>2012-08-24T12:09:44Z</time>
      </trkpt>
      <trkpt lat="47.24606" lon="-0.62653">
        <ele>92.4239502</ele>
        <time>2012-08-24T12:09:51Z</time>
      </trkpt>
      <trkpt lat="47.24641" lon="-0.62694">
        <ele>96.2692871</ele>
        <time>2012-08-24T12:10:01Z</time>
      </trkpt>
      <trkpt lat="47.24665" lon="-0.62723">
        <ele>98.6724854</ele>
        <time>2012-08-24T12:10:08Z</time>
      </trkpt>
      <trkpt lat="47.24699" lon="-0.62764">
        <ele>100.5950928</ele>
        <time>2012-08-24T12:10:18Z</time>
      </trkpt>
      <trkpt lat="47.24719" lon="-0.62787">
        <ele>101.0756836</ele>
        <time>2012-08-24T12:10:24Z</time>
      </trkpt>
      <trkpt lat="47.24747" lon="-0.62823">
        <ele>101.5563965</ele>
        <time>2012-08-24T12:10:33Z</time>
      </trkpt>
      <trkpt lat="47.24777" lon="-0.62854">
        <ele>100.114502</ele>
        <time>2012-08-24T12:10:40Z</time>
      </trkpt>
      <trkpt lat="47.24812" lon="-0.62881">
        <ele>98.1918945</ele>
        <time>2012-08-24T12:10:46Z</time>
      </trkpt>
      <trkpt lat="47.2484" lon="-0.62899">
        <ele>96.2692871</ele>
        <time>2012-08-24T12:10:50Z</time>
      </trkpt>
      <trkpt lat="47.24869" lon="-0.62919">
        <ele>94.3465576</ele>
        <time>2012-08-24T12:10:54Z</time>
      </trkpt>
      <trkpt lat="47.24923" lon="-0.62956">
        <ele>91.9432373</ele>
        <time>2012-08-24T12:11:02Z</time>
      </trkpt>
      <trkpt lat="47.24959" lon="-0.62981">
        <ele>90.5013428</ele>
        <time>2012-08-24T12:11:08Z</time>
      </trkpt>
      <trkpt lat="47.25001" lon="-0.63013">
        <ele>90.0206299</ele>
        <time>2012-08-24T12:11:15Z</time>
      </trkpt>
      <trkpt lat="47.25024" lon="-0.63032">
        <ele>89.0593262</ele>
        <time>2012-08-24T12:11:19Z</time>
      </trkpt>
      <trkpt lat="47.25061" lon="-0.63086">
        <ele>88.0980225</ele>
        <time>2012-08-24T12:11:27Z</time>
      </trkpt>
      <trkpt lat="47.2509" lon="-0.63134">
        <ele>87.1365967</ele>
        <time>2012-08-24T12:11:34Z</time>
      </trkpt>
      <trkpt lat="47.25128" lon="-0.63181">
        <ele>86.6560059</ele>
        <time>2012-08-24T12:11:42Z</time>
      </trkpt>
      <trkpt lat="47.2517" lon="-0.63237">
        <ele>85.2139893</ele>
        <time>2012-08-24T12:11:51Z</time>
      </trkpt>
      <trkpt lat="47.25187" lon="-0.63267">
        <ele>84.7333984</ele>
        <time>2012-08-24T12:11:55Z</time>
      </trkpt>
      <trkpt lat="47.25197" lon="-0.63302">
        <ele>84.7333984</ele>
        <time>2012-08-24T12:11:59Z</time>
      </trkpt>
      <trkpt lat="47.25214" lon="-0.6342">
        <ele>83.7719727</ele>
        <time>2012-08-24T12:12:12Z</time>
      </trkpt>
      <trkpt lat="47.25229" lon="-0.63505">
        <ele>81.8493652</ele>
        <time>2012-08-24T12:12:21Z</time>
      </trkpt>
      <trkpt lat="47.25241" lon="-0.6357">
        <ele>80.8881836</ele>
        <time>2012-08-24T12:12:28Z</time>
      </trkpt>
      <trkpt lat="47.25253" lon="-0.63606">
        <ele>79.4460449</ele>
        <time>2012-08-24T12:12:32Z</time>
      </trkpt>
      <trkpt lat="47.25274" lon="-0.63635">
        <ele>78.4847412</ele>
        <time>2012-08-24T12:12:36Z</time>
      </trkpt>
      <trkpt lat="47.25302" lon="-0.63648">
        <ele>77.5234375</ele>
        <time>2012-08-24T12:12:40Z</time>
      </trkpt>
      <trkpt lat="47.25324" lon="-0.63646">
        <ele>77.0428467</ele>
        <time>2012-08-24T12:12:43Z</time>
      </trkpt>
      <trkpt lat="47.25373" lon="-0.63637">
        <ele>77.5234375</ele>
        <time>2012-08-24T12:12:50Z</time>
      </trkpt>
      <trkpt lat="47.25412" lon="-0.63651">
        <ele>76.5621338</ele>
        <time>2012-08-24T12:12:56Z</time>
      </trkpt>
      <trkpt lat="47.25424" lon="-0.6366">
        <ele>76.5621338</ele>
        <time>2012-08-24T12:12:58Z</time>
      </trkpt>
      <trkpt lat="47.25452" lon="-0.63689">
        <ele>75.6008301</ele>
        <time>2012-08-24T12:13:03Z</time>
      </trkpt>
      <trkpt lat="47.25483" lon="-0.63737">
        <ele>77.0428467</ele>
        <time>2012-08-24T12:13:10Z</time>
      </trkpt>
      <trkpt lat="47.25516" lon="-0.63774">
        <ele>79.9266357</ele>
        <time>2012-08-24T12:13:17Z</time>
      </trkpt>
      <trkpt lat="47.25543" lon="-0.63802">
        <ele>79.9266357</ele>
        <time>2012-08-24T12:13:23Z</time>
      </trkpt>
      <trkpt lat="47.25562" lon="-0.63822">
        <ele>79.4460449</ele>
        <time>2012-08-24T12:13:27Z</time>
      </trkpt>
      <trkpt lat="47.2561" lon="-0.6387">
        <ele>76.5621338</ele>
        <time>2012-08-24T12:13:36Z</time>
      </trkpt>
      <trkpt lat="47.25641" lon="-0.63901">
        <ele>75.1202393</ele>
        <time>2012-08-24T12:13:42Z</time>
      </trkpt>
      <trkpt lat="47.25675" lon="-0.63929">
        <ele>74.6395264</ele>
        <time>2012-08-24T12:13:48Z</time>
      </trkpt>
      <trkpt lat="47.2572" lon="-0.6396">
        <ele>74.6395264</ele>
        <time>2012-08-24T12:13:56Z</time>
      </trkpt>
      <trkpt lat="47.25755" lon="-0.63987">
        <ele>76.5621338</ele>
        <time>2012-08-24T12:14:03Z</time>
      </trkpt>
      <trkpt lat="47.25779" lon="-0.64002">
        <ele>77.5234375</ele>
        <time>2012-08-24T12:14:08Z</time>
      </trkpt>
      <trkpt lat="47.25796" lon="-0.64013">
        <ele>78.4847412</ele>
        <time>2012-08-24T12:14:12Z</time>
      </trkpt>
      <trkpt lat="47.25804" lon="-0.64019">
        <ele>79.4460449</ele>
        <time>2012-08-24T12:14:14Z</time>
      </trkpt>
      <trkpt lat="47.25814" lon="-0.64035">
        <ele>79.4460449</ele>
        <time>2012-08-24T12:14:18Z</time>
      </trkpt>
      <trkpt lat="47.25813" lon="-0.64039">
        <ele>79.9266357</ele>
        <time>2012-08-24T12:14:19Z</time>
      </trkpt>
      <trkpt lat="47.25811" lon="-0.64046">
        <ele>79.4460449</ele>
        <time>2012-08-24T12:14:22Z</time>
      </trkpt>
      <trkpt lat="47.2581" lon="-0.64049">
        <ele>78.9654541</ele>
        <time>2012-08-24T12:14:29Z</time>
      </trkpt>
      <trkpt lat="47.2581" lon="-0.64049">
        <ele>78.4847412</ele>
        <time>2012-08-24T12:14:42Z</time>
      </trkpt>
      <trkpt lat="47.2581" lon="-0.64049">
        <ele>78.9654541</ele>
        <time>2012-08-24T12:14:43Z</time>
      </trkpt>
      <trkpt lat="47.2581" lon="-0.64048">
        <ele>78.4847412</ele>
        <time>2012-08-24T12:14:58Z</time>
      </trkpt>
      <trkpt lat="47.2581" lon="-0.6405">
        <ele>78.0040283</ele>
        <time>2012-08-24T12:14:59Z</time>
      </trkpt>
      <trkpt lat="47.25807" lon="-0.6407">
        <ele>77.5234375</ele>
        <time>2012-08-24T12:15:06Z</time>
      </trkpt>
      <trkpt lat="47.25803" lon="-0.641">
        <ele>77.5234375</ele>
        <time>2012-08-24T12:15:13Z</time>
      </trkpt>
      <trkpt lat="47.25795" lon="-0.64153">
        <ele>78.0040283</ele>
        <time>2012-08-24T12:15:23Z</time>
      </trkpt>
      <trkpt lat="47.25787" lon="-0.64188">
        <ele>77.5234375</ele>
        <time>2012-08-24T12:15:29Z</time>
      </trkpt>
      <trkpt lat="47.25779" lon="-0.64227">
        <ele>77.0428467</ele>
        <time>2012-08-24T12:15:35Z</time>
      </trkpt>
      <trkpt lat="47.25766" lon="-0.64274">
        <ele>76.0814209</ele>
        <time>2012-08-24T12:15:42Z</time>
      </trkpt>
      <trkpt lat="47.25741" lon="-0.64347">
        <ele>77.5234375</ele>
        <time>2012-08-24T12:15:52Z</time>
      </trkpt>
      <trkpt lat="47.25723" lon="-0.64412">
        <ele>77.0428467</ele>
        <time>2012-08-24T12:16:01Z</time>
      </trkpt>
      <trkpt lat="47.25706" lon="-0.64476">
        <ele>76.0814209</ele>
        <time>2012-08-24T12:16:10Z</time>
      </trkpt>
      <trkpt lat="47.25701" lon="-0.64521">
        <ele>76.0814209</ele>
        <time>2012-08-24T12:16:16Z</time>
      </trkpt>
      <trkpt lat="47.25703" lon="-0.64582">
        <ele>77.0428467</ele>
        <time>2012-08-24T12:16:24Z</time>
      </trkpt>
      <trkpt lat="47.25709" lon="-0.64642">
        <ele>78.0040283</ele>
        <time>2012-08-24T12:16:32Z</time>
      </trkpt>
      <trkpt lat="47.25715" lon="-0.64694">
        <ele>80.4074707</ele>
        <time>2012-08-24T12:16:39Z</time>
      </trkpt>
      <trkpt lat="47.25727" lon="-0.64769">
        <ele>80.8881836</ele>
        <time>2012-08-24T12:16:49Z</time>
      </trkpt>
      <trkpt lat="47.25742" lon="-0.64823">
        <ele>80.4074707</ele>
        <time>2012-08-24T12:16:57Z</time>
      </trkpt>
      <trkpt lat="47.25752" lon="-0.64872">
        <ele>79.9266357</ele>
        <time>2012-08-24T12:17:04Z</time>
      </trkpt>
      <trkpt lat="47.25755" lon="-0.64887">
        <ele>79.9266357</ele>
        <time>2012-08-24T12:17:06Z</time>
      </trkpt>
      <trkpt lat="47.25776" lon="-0.64964">
        <ele>78.0040283</ele>
        <time>2012-08-24T12:17:16Z</time>
      </trkpt>
      <trkpt lat="47.25797" lon="-0.65014">
        <ele>76.0814209</ele>
        <time>2012-08-24T12:17:23Z</time>
      </trkpt>
      <trkpt lat="47.25799" lon="-0.65032">
        <ele>75.1202393</ele>
        <time>2012-08-24T12:17:27Z</time>
      </trkpt>
      <trkpt lat="47.25783" lon="-0.65077">
        <ele>73.6782227</ele>
        <time>2012-08-24T12:17:35Z</time>
      </trkpt>
      <trkpt lat="47.25767" lon="-0.65123">
        <ele>73.1976318</ele>
        <time>2012-08-24T12:17:43Z</time>
      </trkpt>
      <trkpt lat="47.2576" lon="-0.65142">
        <ele>73.1976318</ele>
        <time>2012-08-24T12:17:46Z</time>
      </trkpt>
      <trkpt lat="47.25756" lon="-0.65155">
        <ele>73.1976318</ele>
        <time>2012-08-24T12:17:48Z</time>
      </trkpt>
      <trkpt lat="47.25736" lon="-0.65214">
        <ele>72.7169189</ele>
        <time>2012-08-24T12:17:57Z</time>
      </trkpt>
      <trkpt lat="47.25718" lon="-0.65266">
        <ele>72.2362061</ele>
        <time>2012-08-24T12:18:05Z</time>
      </trkpt>
      <trkpt lat="47.25693" lon="-0.6534">
        <ele>70.3134766</ele>
        <time>2012-08-24T12:18:15Z</time>
      </trkpt>
      <trkpt lat="47.25686" lon="-0.65356">
        <ele>69.3522949</ele>
        <time>2012-08-24T12:18:17Z</time>
      </trkpt>
      <trkpt lat="47.25679" lon="-0.6538">
        <ele>68.3908691</ele>
        <time>2012-08-24T12:18:20Z</time>
      </trkpt>
      <trkpt lat="47.25664" lon="-0.65427">
        <ele>67.4296875</ele>
        <time>2012-08-24T12:18:26Z</time>
      </trkpt>
      <trkpt lat="47.25641" lon="-0.65491">
        <ele>66.4682617</ele>
        <time>2012-08-24T12:18:34Z</time>
      </trkpt>
      <trkpt lat="47.25621" lon="-0.6554">
        <ele>66.4682617</ele>
        <time>2012-08-24T12:18:41Z</time>
      </trkpt>
      <trkpt lat="47.25605" lon="-0.65587">
        <ele>65.5070801</ele>
        <time>2012-08-24T12:18:47Z</time>
      </trkpt>
      <trkpt lat="47.25605" lon="-0.65635">
        <ele>63.1036377</ele>
        <time>2012-08-24T12:18:52Z</time>
      </trkpt>
      <trkpt lat="47.25614" lon="-0.65676">
        <ele>61.6617432</ele>
        <time>2012-08-24T12:18:57Z</time>
      </trkpt>
      <trkpt lat="47.25618" lon="-0.65683">
        <ele>61.1810303</ele>
        <time>2012-08-24T12:18:58Z</time>
      </trkpt>
      <trkpt lat="47.25626" lon="-0.65698">
        <ele>60.2197266</ele>
        <time>2012-08-24T12:19:00Z</time>
      </trkpt>
      <trkpt lat="47.25639" lon="-0.65724">
        <ele>59.2584229</ele>
        <time>2012-08-24T12:19:03Z</time>
      </trkpt>
      <trkpt lat="47.25636" lon="-0.65772">
        <ele>57.8165283</ele>
        <time>2012-08-24T12:19:07Z</time>
      </trkpt>
      <trkpt lat="47.25626" lon="-0.65803">
        <ele>56.8551025</ele>
        <time>2012-08-24T12:19:10Z</time>
      </trkpt>
      <trkpt lat="47.25612" lon="-0.65815">
        <ele>55.4130859</ele>
        <time>2012-08-24T12:19:13Z</time>
      </trkpt>
      <trkpt lat="47.25598" lon="-0.65833">
        <ele>53.0097656</ele>
        <time>2012-08-24T12:19:18Z</time>
      </trkpt>
      <trkpt lat="47.25607" lon="-0.65852">
        <ele>50.1259766</ele>
        <time>2012-08-24T12:19:22Z</time>
      </trkpt>
      <trkpt lat="47.25612" lon="-0.65857">
        <ele>49.6452637</ele>
        <time>2012-08-24T12:19:23Z</time>
      </trkpt>
      <trkpt lat="47.2562" lon="-0.65863">
        <ele>46.7612305</ele>
        <time>2012-08-24T12:19:25Z</time>
      </trkpt>
      <trkpt lat="47.25627" lon="-0.65889">
        <ele>39.5512695</ele>
        <time>2012-08-24T12:19:30Z</time>
      </trkpt>
      <trkpt lat="47.25623" lon="-0.65898">
        <ele>36.6674805</ele>
        <time>2012-08-24T12:19:32Z</time>
      </trkpt>
      <trkpt lat="47.25619" lon="-0.65908">
        <ele>33.3028564</ele>
        <time>2012-08-24T12:19:35Z</time>
      </trkpt>
      <trkpt lat="47.25621" lon="-0.6593">
        <ele>31.8607178</ele>
        <time>2012-08-24T12:19:40Z</time>
      </trkpt>
      <trkpt lat="47.25623" lon="-0.65943">
        <ele>30.8995361</ele>
        <time>2012-08-24T12:19:44Z</time>
      </trkpt>
      <trkpt lat="47.25623" lon="-0.65949">
        <ele>36.1867676</ele>
        <time>2012-08-24T12:19:50Z</time>
      </trkpt>
      <trkpt lat="47.25624" lon="-0.65955">
        <ele>36.6674805</ele>
        <time>2012-08-24T12:19:56Z</time>
      </trkpt>
      <trkpt lat="47.25626" lon="-0.65959">
        <ele>37.6286621</ele>
        <time>2012-08-24T12:20:02Z</time>
      </trkpt>
      <trkpt lat="47.25625" lon="-0.65968">
        <ele>38.109375</ele>
        <time>2012-08-24T12:20:07Z</time>
      </trkpt>
      <trkpt lat="47.25623" lon="-0.6598">
        <ele>39.0706787</ele>
        <time>2012-08-24T12:20:13Z</time>
      </trkpt>
      <trkpt lat="47.25622" lon="-0.65995">
        <ele>39.0706787</ele>
        <time>2012-08-24T12:20:17Z</time>
      </trkpt>
      <trkpt lat="47.2562" lon="-0.66024">
        <ele>41.473999</ele>
        <time>2012-08-24T12:20:23Z</time>
      </trkpt>
      <trkpt lat="47.25613" lon="-0.66049">
        <ele>41.9547119</ele>
        <time>2012-08-24T12:20:28Z</time>
      </trkpt>
      <trkpt lat="47.25605" lon="-0.66074">
        <ele>41.473999</ele>
        <time>2012-08-24T12:20:32Z</time>
      </trkpt>
      <trkpt lat="47.25587" lon="-0.6609">
        <ele>41.473999</ele>
        <time>2012-08-24T12:20:36Z</time>
      </trkpt>
      <trkpt lat="47.25563" lon="-0.66103">
        <ele>41.473999</ele>
        <time>2012-08-24T12:20:42Z</time>
      </trkpt>
      <trkpt lat="47.25554" lon="-0.66109">
        <ele>41.473999</ele>
        <time>2012-08-24T12:20:45Z</time>
      </trkpt>
      <trkpt lat="47.2553" lon="-0.66118">
        <ele>40.9934082</ele>
        <time>2012-08-24T12:20:51Z</time>
      </trkpt>
      <trkpt lat="47.25501" lon="-0.66124">
        <ele>41.473999</ele>
        <time>2012-08-24T12:20:58Z</time>
      </trkpt>
      <trkpt lat="47.25497" lon="-0.66126">
        <ele>41.473999</ele>
        <time>2012-08-24T12:20:59Z</time>
      </trkpt>
      <trkpt lat="47.25487" lon="-0.66127">
        <ele>42.4354248</ele>
        <time>2012-08-24T12:21:01Z</time>
      </trkpt>
      <trkpt lat="47.25471" lon="-0.66134">
        <ele>42.9160156</ele>
        <time>2012-08-24T12:21:05Z</time>
      </trkpt>
      <trkpt lat="47.25464" lon="-0.66139">
        <ele>42.9160156</ele>
        <time>2012-08-24T12:21:07Z</time>
      </trkpt>
      <trkpt lat="47.25447" lon="-0.6615">
        <ele>46.7612305</ele>
        <time>2012-08-24T12:21:13Z</time>
      </trkpt>
      <trkpt lat="47.25438" lon="-0.66155">
        <ele>49.1645508</ele>
        <time>2012-08-24T12:21:15Z</time>
      </trkpt>
      <trkpt lat="47.25416" lon="-0.66166">
        <ele>50.6065674</ele>
        <time>2012-08-24T12:21:21Z</time>
      </trkpt>
      <trkpt lat="47.25405" lon="-0.66174">
        <ele>52.048584</ele>
        <time>2012-08-24T12:21:24Z</time>
      </trkpt>
      <trkpt lat="47.25386" lon="-0.66191">
        <ele>45.7999268</ele>
        <time>2012-08-24T12:21:30Z</time>
      </trkpt>
      <trkpt lat="47.25379" lon="-0.66197">
        <ele>42.4354248</ele>
        <time>2012-08-24T12:21:32Z</time>
      </trkpt>
      <trkpt lat="47.25372" lon="-0.66215">
        <ele>40.5128174</ele>
        <time>2012-08-24T12:21:35Z</time>
      </trkpt>
      <trkpt lat="47.25358" lon="-0.66251">
        <ele>39.0706787</ele>
        <time>2012-08-24T12:21:38Z</time>
      </trkpt>
      <trkpt lat="47.25339" lon="-0.66284">
        <ele>40.9934082</ele>
        <time>2012-08-24T12:21:42Z</time>
      </trkpt>
      <trkpt lat="47.25326" lon="-0.66304">
        <ele>40.9934082</ele>
        <time>2012-08-24T12:21:45Z</time>
      </trkpt>
      <trkpt lat="47.2531" lon="-0.66334">
        <ele>40.0321045</ele>
        <time>2012-08-24T12:21:50Z</time>
      </trkpt>
      <trkpt lat="47.25298" lon="-0.66355">
        <ele>40.5128174</ele>
        <time>2012-08-24T12:21:54Z</time>
      </trkpt>
      <trkpt lat="47.25286" lon="-0.66365">
        <ele>41.473999</ele>
        <time>2012-08-24T12:21:59Z</time>
      </trkpt>
      <trkpt lat="47.25281" lon="-0.66366">
        <ele>41.9547119</ele>
        <time>2012-08-24T12:22:02Z</time>
      </trkpt>
      <trkpt lat="47.25277" lon="-0.66364">
        <ele>42.9160156</ele>
        <time>2012-08-24T12:22:06Z</time>
      </trkpt>
      <trkpt lat="47.2527" lon="-0.66371">
        <ele>43.3966064</ele>
        <time>2012-08-24T12:22:12Z</time>
      </trkpt>
      <trkpt lat="47.25257" lon="-0.66386">
        <ele>43.3966064</ele>
        <time>2012-08-24T12:22:19Z</time>
      </trkpt>
      <trkpt lat="47.25244" lon="-0.66402">
        <ele>43.8773193</ele>
        <time>2012-08-24T12:22:25Z</time>
      </trkpt>
      <trkpt lat="47.25227" lon="-0.66422">
        <ele>43.3966064</ele>
        <time>2012-08-24T12:22:32Z</time>
      </trkpt>
      <trkpt lat="47.25211" lon="-0.66437">
        <ele>43.3966064</ele>
        <time>2012-08-24T12:22:38Z</time>
      </trkpt>
      <trkpt lat="47.25198" lon="-0.66448">
        <ele>44.3580322</ele>
        <time>2012-08-24T12:22:43Z</time>
      </trkpt>
      <trkpt lat="47.25193" lon="-0.66454">
        <ele>46.7612305</ele>
        <time>2012-08-24T12:22:48Z</time>
      </trkpt>
      <trkpt lat="47.25191" lon="-0.66456">
        <ele>44.838623</ele>
        <time>2012-08-24T12:22:54Z</time>
      </trkpt>
      <trkpt lat="47.25189" lon="-0.66453">
        <ele>45.7999268</ele>
        <time>2012-08-24T12:23:07Z</time>
      </trkpt>
      <trkpt lat="47.25189" lon="-0.66457">
        <ele>46.7612305</ele>
        <time>2012-08-24T12:23:16Z</time>
      </trkpt>
      <trkpt lat="47.25191" lon="-0.6646">
        <ele>49.6452637</ele>
        <time>2012-08-24T12:23:20Z</time>
      </trkpt>
      <trkpt lat="47.25179" lon="-0.66477">
        <ele>49.6452637</ele>
        <time>2012-08-24T12:23:27Z</time>
      </trkpt>
      <trkpt lat="47.25167" lon="-0.66493">
        <ele>53.0097656</ele>
        <time>2012-08-24T12:23:33Z</time>
      </trkpt>
      <trkpt lat="47.25151" lon="-0.66508">
        <ele>53.9711914</ele>
        <time>2012-08-24T12:23:39Z</time>
      </trkpt>
      <trkpt lat="47.25138" lon="-0.66523">
        <ele>53.4904785</ele>
        <time>2012-08-24T12:23:45Z</time>
      </trkpt>
      <trkpt lat="47.25124" lon="-0.66537">
        <ele>51.5678711</ele>
        <time>2012-08-24T12:23:51Z</time>
      </trkpt>
      <trkpt lat="47.25109" lon="-0.66558">
        <ele>48.2033691</ele>
        <time>2012-08-24T12:23:57Z</time>
      </trkpt>
      <trkpt lat="47.2509" lon="-0.66582">
        <ele>46.7612305</ele>
        <time>2012-08-24T12:24:03Z</time>
      </trkpt>
      <trkpt lat="47.2508" lon="-0.66596">
        <ele>44.3580322</ele>
        <time>2012-08-24T12:24:06Z</time>
      </trkpt>
      <trkpt lat="47.25062" lon="-0.66609">
        <ele>42.9160156</ele>
        <time>2012-08-24T12:24:10Z</time>
      </trkpt>
      <trkpt lat="47.25046" lon="-0.66638">
        <ele>43.3966064</ele>
        <time>2012-08-24T12:24:14Z</time>
      </trkpt>
      <trkpt lat="47.25047" lon="-0.66672">
        <ele>41.9547119</ele>
        <time>2012-08-24T12:24:18Z</time>
      </trkpt>
      <trkpt lat="47.25054" lon="-0.66688">
        <ele>40.9934082</ele>
        <time>2012-08-24T12:24:21Z</time>
      </trkpt>
      <trkpt lat="47.25056" lon="-0.66697">
        <ele>40.5128174</ele>
        <time>2012-08-24T12:24:23Z</time>
      </trkpt>
      <trkpt lat="47.25064" lon="-0.66737">
        <ele>40.5128174</ele>
        <time>2012-08-24T12:24:31Z</time>
      </trkpt>
      <trkpt lat="47.25064" lon="-0.66761">
        <ele>40.5128174</ele>
        <time>2012-08-24T12:24:36Z</time>
      </trkpt>
      <trkpt lat="47.25058" lon="-0.66774">
        <ele>43.3966064</ele>
        <time>2012-08-24T12:24:41Z</time>
      </trkpt>
      <trkpt lat="47.25049" lon="-0.66783">
        <ele>46.7612305</ele>
        <time>2012-08-24T12:24:47Z</time>
      </trkpt>
      <trkpt lat="47.25046" lon="-0.66785">
        <ele>46.7612305</ele>
        <time>2012-08-24T12:24:49Z</time>
      </trkpt>
      <trkpt lat="47.25042" lon="-0.66792">
        <ele>47.2418213</ele>
        <time>2012-08-24T12:24:54Z</time>
      </trkpt>
      <trkpt lat="47.25031" lon="-0.668">
        <ele>49.1645508</ele>
        <time>2012-08-24T12:25:01Z</time>
      </trkpt>
      <trkpt lat="47.25022" lon="-0.66813">
        <ele>53.0097656</ele>
        <time>2012-08-24T12:25:10Z</time>
      </trkpt>
      <trkpt lat="47.25016" lon="-0.66824">
        <ele>53.9711914</ele>
        <time>2012-08-24T12:25:17Z</time>
      </trkpt>
      <trkpt lat="47.25012" lon="-0.66838">
        <ele>54.4517822</ele>
        <time>2012-08-24T12:25:25Z</time>
      </trkpt>
      <trkpt lat="47.25007" lon="-0.66851">
        <ele>55.8937988</ele>
        <time>2012-08-24T12:25:33Z</time>
      </trkpt>
      <trkpt lat="47.25004" lon="-0.66862">
        <ele>57.8165283</ele>
        <time>2012-08-24T12:25:39Z</time>
      </trkpt>
      <trkpt lat="47.24999" lon="-0.6688">
        <ele>60.2197266</ele>
        <time>2012-08-24T12:25:49Z</time>
      </trkpt>
      <trkpt lat="47.24996" lon="-0.66894">
        <ele>60.7003174</ele>
        <time>2012-08-24T12:25:57Z</time>
      </trkpt>
      <trkpt lat="47.24991" lon="-0.66908">
        <ele>62.6229248</ele>
        <time>2012-08-24T12:26:05Z</time>
      </trkpt>
      <trkpt lat="47.24986" lon="-0.66922">
        <ele>63.5843506</ele>
        <time>2012-08-24T12:26:13Z</time>
      </trkpt>
      <trkpt lat="47.24982" lon="-0.66935">
        <ele>65.0263672</ele>
        <time>2012-08-24T12:26:19Z</time>
      </trkpt>
      <trkpt lat="47.24978" lon="-0.66959">
        <ele>67.4296875</ele>
        <time>2012-08-24T12:26:27Z</time>
      </trkpt>
      <trkpt lat="47.24974" lon="-0.66982">
        <ele>70.3134766</ele>
        <time>2012-08-24T12:26:34Z</time>
      </trkpt>
      <trkpt lat="47.24971" lon="-0.67003">
        <ele>72.2362061</ele>
        <time>2012-08-24T12:26:40Z</time>
      </trkpt>
      <trkpt lat="47.24966" lon="-0.67032">
        <ele>72.2362061</ele>
        <time>2012-08-24T12:26:48Z</time>
      </trkpt>
      <trkpt lat="47.24961" lon="-0.67053">
        <ele>70.3134766</ele>
        <time>2012-08-24T12:26:54Z</time>
      </trkpt>
      <trkpt lat="47.24958" lon="-0.67072">
        <ele>67.9102783</ele>
        <time>2012-08-24T12:27:00Z</time>
      </trkpt>
      <trkpt lat="47.24955" lon="-0.67088">
        <ele>67.4296875</ele>
        <time>2012-08-24T12:27:05Z</time>
      </trkpt>
      <trkpt lat="47.2495" lon="-0.6711">
        <ele>66.9489746</ele>
        <time>2012-08-24T12:27:10Z</time>
      </trkpt>
      <trkpt lat="47.24944" lon="-0.67133">
        <ele>68.871582</ele>
        <time>2012-08-24T12:27:16Z</time>
      </trkpt>
      <trkpt lat="47.24935" lon="-0.67161">
        <ele>70.3134766</ele>
        <time>2012-08-24T12:27:23Z</time>
      </trkpt>
      <trkpt lat="47.24925" lon="-0.67192">
        <ele>72.2362061</ele>
        <time>2012-08-24T12:27:31Z</time>
      </trkpt>
      <trkpt lat="47.24912" lon="-0.6722">
        <ele>74.6395264</ele>
        <time>2012-08-24T12:27:38Z</time>
      </trkpt>
      <trkpt lat="47.249" lon="-0.67239">
        <ele>76.0814209</ele>
        <time>2012-08-24T12:27:46Z</time>
      </trkpt>
      <trkpt lat="47.24892" lon="-0.67249">
        <ele>75.6008301</ele>
        <time>2012-08-24T12:27:52Z</time>
      </trkpt>
      <trkpt lat="47.24887" lon="-0.67257">
        <ele>74.1588135</ele>
        <time>2012-08-24T12:27:58Z</time>
      </trkpt>
      <trkpt lat="47.24885" lon="-0.67262">
        <ele>73.6782227</ele>
        <time>2012-08-24T12:28:02Z</time>
      </trkpt>
      <trkpt lat="47.24883" lon="-0.67265">
        <ele>73.1976318</ele>
        <time>2012-08-24T12:28:08Z</time>
      </trkpt>
      <trkpt lat="47.24881" lon="-0.67266">
        <ele>73.1976318</ele>
        <time>2012-08-24T12:28:16Z</time>
      </trkpt>
      <trkpt lat="47.24882" lon="-0.67267">
        <ele>74.6395264</ele>
        <time>2012-08-24T12:28:23Z</time>
      </trkpt>
      <trkpt lat="47.24882" lon="-0.67267">
        <ele>73.6782227</ele>
        <time>2012-08-24T12:28:34Z</time>
      </trkpt>
      <trkpt lat="47.24881" lon="-0.67268">
        <ele>73.1976318</ele>
        <time>2012-08-24T12:28:37Z</time>
      </trkpt>
      <trkpt lat="47.24874" lon="-0.67281">
        <ele>73.1976318</ele>
        <time>2012-08-24T12:28:43Z</time>
      </trkpt>
      <trkpt lat="47.24872" lon="-0.67284">
        <ele>73.6782227</ele>
        <time>2012-08-24T12:28:44Z</time>
      </trkpt>
      <trkpt lat="47.24859" lon="-0.6731">
        <ele>74.1588135</ele>
        <time>2012-08-24T12:28:51Z</time>
      </trkpt>
      <trkpt lat="47.24841" lon="-0.67348">
        <ele>73.6782227</ele>
        <time>2012-08-24T12:29:00Z</time>
      </trkpt>
      <trkpt lat="47.24825" lon="-0.6738">
        <ele>73.6782227</ele>
        <time>2012-08-24T12:29:08Z</time>
      </trkpt>
      <trkpt lat="47.24804" lon="-0.67417">
        <ele>74.1588135</ele>
        <time>2012-08-24T12:29:17Z</time>
      </trkpt>
      <trkpt lat="47.24779" lon="-0.67455">
        <ele>77.5234375</ele>
        <time>2012-08-24T12:29:27Z</time>
      </trkpt>
      <trkpt lat="47.24762" lon="-0.6748">
        <ele>78.4847412</ele>
        <time>2012-08-24T12:29:34Z</time>
      </trkpt>
      <trkpt lat="47.24733" lon="-0.67521">
        <ele>79.9266357</ele>
        <time>2012-08-24T12:29:45Z</time>
      </trkpt>
      <trkpt lat="47.24711" lon="-0.67559">
        <ele>80.8881836</ele>
        <time>2012-08-24T12:29:54Z</time>
      </trkpt>
      <trkpt lat="47.24695" lon="-0.67598">
        <ele>80.8881836</ele>
        <time>2012-08-24T12:30:02Z</time>
      </trkpt>
      <trkpt lat="47.24678" lon="-0.67634">
        <ele>81.3687744</ele>
        <time>2012-08-24T12:30:10Z</time>
      </trkpt>
      <trkpt lat="47.24656" lon="-0.67685">
        <ele>82.3300781</ele>
        <time>2012-08-24T12:30:21Z</time>
      </trkpt>
      <trkpt lat="47.24633" lon="-0.67736">
        <ele>84.2526855</ele>
        <time>2012-08-24T12:30:32Z</time>
      </trkpt>
      <trkpt lat="47.24613" lon="-0.67777">
        <ele>86.6560059</ele>
        <time>2012-08-24T12:30:41Z</time>
      </trkpt>
      <trkpt lat="47.24594" lon="-0.67814">
        <ele>87.6171875</ele>
        <time>2012-08-24T12:30:49Z</time>
      </trkpt>
      <trkpt lat="47.24572" lon="-0.67855">
        <ele>89.0593262</ele>
        <time>2012-08-24T12:30:58Z</time>
      </trkpt>
      <trkpt lat="47.24553" lon="-0.67885">
        <ele>89.0593262</ele>
        <time>2012-08-24T12:31:05Z</time>
      </trkpt>
      <trkpt lat="47.24542" lon="-0.67906">
        <ele>88.0980225</ele>
        <time>2012-08-24T12:31:10Z</time>
      </trkpt>
      <trkpt lat="47.24538" lon="-0.67923">
        <ele>89.539917</ele>
        <time>2012-08-24T12:31:14Z</time>
      </trkpt>
      <trkpt lat="47.24532" lon="-0.67961">
        <ele>90.9819336</ele>
        <time>2012-08-24T12:31:21Z</time>
      </trkpt>
      <trkpt lat="47.24524" lon="-0.68008">
        <ele>90.9819336</ele>
        <time>2012-08-24T12:31:28Z</time>
      </trkpt>
      <trkpt lat="47.2452" lon="-0.68024">
        <ele>90.5013428</ele>
        <time>2012-08-24T12:31:30Z</time>
      </trkpt>
      <trkpt lat="47.24501" lon="-0.68059">
        <ele>89.539917</ele>
        <time>2012-08-24T12:31:35Z</time>
      </trkpt>
      <trkpt lat="47.24491" lon="-0.68069">
        <ele>89.0593262</ele>
        <time>2012-08-24T12:31:37Z</time>
      </trkpt>
      <trkpt lat="47.24463" lon="-0.68087">
        <ele>87.1365967</ele>
        <time>2012-08-24T12:31:42Z</time>
      </trkpt>
      <trkpt lat="47.24452" lon="-0.68094">
        <ele>86.6560059</ele>
        <time>2012-08-24T12:31:44Z</time>
      </trkpt>
      <trkpt lat="47.244" lon="-0.68126">
        <ele>85.2139893</ele>
        <time>2012-08-24T12:31:54Z</time>
      </trkpt>
      <trkpt lat="47.24387" lon="-0.68136">
        <ele>85.2139893</ele>
        <time>2012-08-24T12:31:57Z</time>
      </trkpt>
      <trkpt lat="47.24367" lon="-0.68158">
        <ele>87.1365967</ele>
        <time>2012-08-24T12:32:03Z</time>
      </trkpt>
      <trkpt lat="47.24352" lon="-0.68186">
        <ele>88.5787354</ele>
        <time>2012-08-24T12:32:09Z</time>
      </trkpt>
      <trkpt lat="47.2435" lon="-0.68192">
        <ele>89.0593262</ele>
        <time>2012-08-24T12:32:10Z</time>
      </trkpt>
      <trkpt lat="47.2434" lon="-0.68227">
        <ele>90.0206299</ele>
        <time>2012-08-24T12:32:16Z</time>
      </trkpt>
      <trkpt lat="47.24324" lon="-0.68297">
        <ele>90.0206299</ele>
        <time>2012-08-24T12:32:27Z</time>
      </trkpt>
      <trkpt lat="47.24302" lon="-0.6837">
        <ele>90.9819336</ele>
        <time>2012-08-24T12:32:38Z</time>
      </trkpt>
      <trkpt lat="47.2429" lon="-0.68426">
        <ele>90.5013428</ele>
        <time>2012-08-24T12:32:46Z</time>
      </trkpt>
      <trkpt lat="47.24278" lon="-0.68487">
        <ele>90.5013428</ele>
        <time>2012-08-24T12:32:55Z</time>
      </trkpt>
      <trkpt lat="47.24259" lon="-0.68544">
        <ele>91.4625244</ele>
        <time>2012-08-24T12:33:04Z</time>
      </trkpt>
      <trkpt lat="47.24237" lon="-0.68613">
        <ele>92.4239502</ele>
        <time>2012-08-24T12:33:15Z</time>
      </trkpt>
      <trkpt lat="47.24231" lon="-0.68633">
        <ele>93.3851318</ele>
        <time>2012-08-24T12:33:18Z</time>
      </trkpt>
      <trkpt lat="47.24214" lon="-0.68684">
        <ele>93.3851318</ele>
        <time>2012-08-24T12:33:26Z</time>
      </trkpt>
      <trkpt lat="47.24198" lon="-0.6874">
        <ele>93.3851318</ele>
        <time>2012-08-24T12:33:34Z</time>
      </trkpt>
      <trkpt lat="47.24182" lon="-0.688">
        <ele>93.8658447</ele>
        <time>2012-08-24T12:33:42Z</time>
      </trkpt>
      <trkpt lat="47.24162" lon="-0.6886">
        <ele>92.904541</ele>
        <time>2012-08-24T12:33:50Z</time>
      </trkpt>
      <trkpt lat="47.2416" lon="-0.68867">
        <ele>92.904541</ele>
        <time>2012-08-24T12:33:51Z</time>
      </trkpt>
      <trkpt lat="47.24156" lon="-0.68904">
        <ele>93.3851318</ele>
        <time>2012-08-24T12:33:56Z</time>
      </trkpt>
      <trkpt lat="47.24162" lon="-0.68924">
        <ele>93.3851318</ele>
        <time>2012-08-24T12:33:59Z</time>
      </trkpt>
      <trkpt lat="47.24193" lon="-0.68975">
        <ele>90.5013428</ele>
        <time>2012-08-24T12:34:08Z</time>
      </trkpt>
      <trkpt lat="47.24222" lon="-0.6902">
        <ele>88.0980225</ele>
        <time>2012-08-24T12:34:16Z</time>
      </trkpt>
      <trkpt lat="47.24241" lon="-0.69043">
        <ele>89.539917</ele>
        <time>2012-08-24T12:34:20Z</time>
      </trkpt>
      <trkpt lat="47.24252" lon="-0.6908">
        <ele>89.539917</ele>
        <time>2012-08-24T12:34:25Z</time>
      </trkpt>
      <trkpt lat="47.24252" lon="-0.69088">
        <ele>89.539917</ele>
        <time>2012-08-24T12:34:26Z</time>
      </trkpt>
      <trkpt lat="47.2425" lon="-0.69159">
        <ele>90.0206299</ele>
        <time>2012-08-24T12:34:35Z</time>
      </trkpt>
      <trkpt lat="47.2425" lon="-0.69217">
        <ele>90.0206299</ele>
        <time>2012-08-24T12:34:43Z</time>
      </trkpt>
      <trkpt lat="47.2425" lon="-0.6928">
        <ele>90.9819336</ele>
        <time>2012-08-24T12:34:52Z</time>
      </trkpt>
      <trkpt lat="47.24249" lon="-0.69363">
        <ele>91.4625244</ele>
        <time>2012-08-24T12:35:04Z</time>
      </trkpt>
      <trkpt lat="47.24249" lon="-0.69432">
        <ele>91.4625244</ele>
        <time>2012-08-24T12:35:14Z</time>
      </trkpt>
      <trkpt lat="47.24247" lon="-0.69491">
        <ele>91.4625244</ele>
        <time>2012-08-24T12:35:23Z</time>
      </trkpt>
      <trkpt lat="47.24246" lon="-0.6956">
        <ele>91.4625244</ele>
        <time>2012-08-24T12:35:34Z</time>
      </trkpt>
      <trkpt lat="47.24245" lon="-0.69593">
        <ele>91.4625244</ele>
        <time>2012-08-24T12:35:39Z</time>
      </trkpt>
      <trkpt lat="47.24235" lon="-0.69619">
        <ele>92.4239502</ele>
        <time>2012-08-24T12:35:44Z</time>
      </trkpt>
      <trkpt lat="47.24196" lon="-0.69661">
        <ele>93.8658447</ele>
        <time>2012-08-24T12:35:55Z</time>
      </trkpt>
      <trkpt lat="47.24155" lon="-0.69705">
        <ele>94.3465576</ele>
        <time>2012-08-24T12:36:06Z</time>
      </trkpt>
      <trkpt lat="47.24115" lon="-0.69747">
        <ele>94.3465576</ele>
        <time>2012-08-24T12:36:16Z</time>
      </trkpt>
      <trkpt lat="47.24071" lon="-0.69794">
        <ele>94.3465576</ele>
        <time>2012-08-24T12:36:27Z</time>
      </trkpt>
      <trkpt lat="47.24039" lon="-0.69829">
        <ele>93.8658447</ele>
        <time>2012-08-24T12:36:35Z</time>
      </trkpt>
      <trkpt lat="47.24036" lon="-0.69833">
        <ele>93.3851318</ele>
        <time>2012-08-24T12:36:36Z</time>
      </trkpt>
      <trkpt lat="47.24025" lon="-0.69833">
        <ele>93.3851318</ele>
        <time>2012-08-24T12:36:41Z</time>
      </trkpt>
      <trkpt lat="47.2401" lon="-0.69823">
        <ele>92.4239502</ele>
        <time>2012-08-24T12:36:47Z</time>
      </trkpt>
      <trkpt lat="47.23996" lon="-0.69813">
        <ele>93.3851318</ele>
        <time>2012-08-24T12:36:53Z</time>
      </trkpt>
      <trkpt lat="47.2398" lon="-0.69802">
        <ele>93.8658447</ele>
        <time>2012-08-24T12:37:00Z</time>
      </trkpt>
      <trkpt lat="47.23975" lon="-0.69799">
        <ele>93.8658447</ele>
        <time>2012-08-24T12:37:02Z</time>
      </trkpt>
      <trkpt lat="47.23973" lon="-0.69797">
        <ele>94.3465576</ele>
        <time>2012-08-24T12:37:03Z</time>
      </trkpt>
      <trkpt lat="47.23952" lon="-0.69779">
        <ele>94.3465576</ele>
        <time>2012-08-24T12:37:12Z</time>
      </trkpt>
      <trkpt lat="47.23936" lon="-0.69771">
        <ele>90.9819336</ele>
        <time>2012-08-24T12:37:17Z</time>
      </trkpt>
      <trkpt lat="47.23918" lon="-0.69759">
        <ele>89.0593262</ele>
        <time>2012-08-24T12:37:22Z</time>
      </trkpt>
      <trkpt lat="47.23909" lon="-0.69756">
        <ele>88.5787354</ele>
        <time>2012-08-24T12:37:24Z</time>
      </trkpt>
      <trkpt lat="47.23892" lon="-0.69773">
        <ele>87.6171875</ele>
        <time>2012-08-24T12:37:28Z</time>
      </trkpt>
      <trkpt lat="47.2387" lon="-0.69825">
        <ele>88.0980225</ele>
        <time>2012-08-24T12:37:36Z</time>
      </trkpt>
      <trkpt lat="47.23845" lon="-0.69878">
        <ele>88.0980225</ele>
        <time>2012-08-24T12:37:45Z</time>
      </trkpt>
      <trkpt lat="47.23827" lon="-0.69917">
        <ele>87.1365967</ele>
        <time>2012-08-24T12:37:52Z</time>
      </trkpt>
      <trkpt lat="47.2381" lon="-0.69968">
        <ele>86.175293</ele>
        <time>2012-08-24T12:38:00Z</time>
      </trkpt>
      <trkpt lat="47.23791" lon="-0.70021">
        <ele>84.7333984</ele>
        <time>2012-08-24T12:38:07Z</time>
      </trkpt>
      <trkpt lat="47.23768" lon="-0.70068">
        <ele>83.7719727</ele>
        <time>2012-08-24T12:38:13Z</time>
      </trkpt>
      <trkpt lat="47.23732" lon="-0.70119">
        <ele>82.3300781</ele>
        <time>2012-08-24T12:38:20Z</time>
      </trkpt>
      <trkpt lat="47.237" lon="-0.70179">
        <ele>80.8881836</ele>
        <time>2012-08-24T12:38:28Z</time>
      </trkpt>
      <trkpt lat="47.23681" lon="-0.70227">
        <ele>79.9266357</ele>
        <time>2012-08-24T12:38:34Z</time>
      </trkpt>
      <trkpt lat="47.23667" lon="-0.70272">
        <ele>78.9654541</ele>
        <time>2012-08-24T12:38:39Z</time>
      </trkpt>
      <trkpt lat="47.23653" lon="-0.70331">
        <ele>76.5621338</ele>
        <time>2012-08-24T12:38:44Z</time>
      </trkpt>
      <trkpt lat="47.23632" lon="-0.70403">
        <ele>76.0814209</ele>
        <time>2012-08-24T12:38:50Z</time>
      </trkpt>
      <trkpt lat="47.23613" lon="-0.70479">
        <ele>76.5621338</ele>
        <time>2012-08-24T12:38:57Z</time>
      </trkpt>
      <trkpt lat="47.23602" lon="-0.70531">
        <ele>76.5621338</ele>
        <time>2012-08-24T12:39:03Z</time>
      </trkpt>
      <trkpt lat="47.23592" lon="-0.70567">
        <ele>78.4847412</ele>
        <time>2012-08-24T12:39:09Z</time>
      </trkpt>
      <trkpt lat="47.23584" lon="-0.70592">
        <ele>80.8881836</ele>
        <time>2012-08-24T12:39:16Z</time>
      </trkpt>
      <trkpt lat="47.23571" lon="-0.70626">
        <ele>81.8493652</ele>
        <time>2012-08-24T12:39:25Z</time>
      </trkpt>
      <trkpt lat="47.23563" lon="-0.7065">
        <ele>82.3300781</ele>
        <time>2012-08-24T12:39:32Z</time>
      </trkpt>
      <trkpt lat="47.2355" lon="-0.70688">
        <ele>83.7719727</ele>
        <time>2012-08-24T12:39:42Z</time>
      </trkpt>
      <trkpt lat="47.23542" lon="-0.70712">
        <ele>84.2526855</ele>
        <time>2012-08-24T12:39:48Z</time>
      </trkpt>
      <trkpt lat="47.23534" lon="-0.70731">
        <ele>84.2526855</ele>
        <time>2012-08-24T12:39:53Z</time>
      </trkpt>
      <trkpt lat="47.23519" lon="-0.70765">
        <ele>83.7719727</ele>
        <time>2012-08-24T12:40:02Z</time>
      </trkpt>
      <trkpt lat="47.23508" lon="-0.70792">
        <ele>83.7719727</ele>
        <time>2012-08-24T12:40:08Z</time>
      </trkpt>
      <trkpt lat="47.23499" lon="-0.70821">
        <ele>82.810791</ele>
        <time>2012-08-24T12:40:13Z</time>
      </trkpt>
      <trkpt lat="47.23498" lon="-0.70846">
        <ele>81.8493652</ele>
        <time>2012-08-24T12:40:17Z</time>
      </trkpt>
      <trkpt lat="47.23501" lon="-0.709">
        <ele>77.5234375</ele>
        <time>2012-08-24T12:40:26Z</time>
      </trkpt>
      <trkpt lat="47.23503" lon="-0.70912">
        <ele>77.0428467</ele>
        <time>2012-08-24T12:40:28Z</time>
      </trkpt>
      <trkpt lat="47.23509" lon="-0.70934">
        <ele>76.0814209</ele>
        <time>2012-08-24T12:40:32Z</time>
      </trkpt>
      <trkpt lat="47.23518" lon="-0.70971">
        <ele>74.6395264</ele>
        <time>2012-08-24T12:40:39Z</time>
      </trkpt>
      <trkpt lat="47.23518" lon="-0.70978">
        <ele>74.6395264</ele>
        <time>2012-08-24T12:40:40Z</time>
      </trkpt>
      <trkpt lat="47.23514" lon="-0.71008">
        <ele>74.1588135</ele>
        <time>2012-08-24T12:40:44Z</time>
      </trkpt>
      <trkpt lat="47.23499" lon="-0.71066">
        <ele>77.0428467</ele>
        <time>2012-08-24T12:40:52Z</time>
      </trkpt>
      <trkpt lat="47.23493" lon="-0.71105">
        <ele>78.4847412</ele>
        <time>2012-08-24T12:40:58Z</time>
      </trkpt>
      <trkpt lat="47.23492" lon="-0.7111">
        <ele>78.9654541</ele>
        <time>2012-08-24T12:40:59Z</time>
      </trkpt>
      <trkpt lat="47.23489" lon="-0.71127">
        <ele>79.4460449</ele>
        <time>2012-08-24T12:41:03Z</time>
      </trkpt>
      <trkpt lat="47.23482" lon="-0.71171">
        <ele>80.4074707</ele>
        <time>2012-08-24T12:41:12Z</time>
      </trkpt>
      <trkpt lat="47.23479" lon="-0.71213">
        <ele>79.4460449</ele>
        <time>2012-08-24T12:41:20Z</time>
      </trkpt>
      <trkpt lat="47.23477" lon="-0.71239">
        <ele>78.4847412</ele>
        <time>2012-08-24T12:41:25Z</time>
      </trkpt>
      <trkpt lat="47.23477" lon="-0.71241">
        <ele>78.4847412</ele>
        <time>2012-08-24T12:41:29Z</time>
      </trkpt>
      <trkpt lat="47.23476" lon="-0.71242">
        <ele>79.4460449</ele>
        <time>2012-08-24T12:41:40Z</time>
      </trkpt>
      <trkpt lat="47.23476" lon="-0.71242">
        <ele>79.4460449</ele>
        <time>2012-08-24T12:41:48Z</time>
      </trkpt>
      <trkpt lat="47.23474" lon="-0.71243">
        <ele>78.4847412</ele>
        <time>2012-08-24T12:41:59Z</time>
      </trkpt>
      <trkpt lat="47.23474" lon="-0.71242">
        <ele>78.9654541</ele>
        <time>2012-08-24T12:42:03Z</time>
      </trkpt>
      <trkpt lat="47.23474" lon="-0.71242">
        <ele>79.4460449</ele>
        <time>2012-08-24T12:42:12Z</time>
      </trkpt>
      <trkpt lat="47.23473" lon="-0.71243">
        <ele>79.4460449</ele>
        <time>2012-08-24T12:42:17Z</time>
      </trkpt>
      <trkpt lat="47.23471" lon="-0.71242">
        <ele>79.4460449</ele>
        <time>2012-08-24T12:42:22Z</time>
      </trkpt>
      <trkpt lat="47.23467" lon="-0.71242">
        <ele>78.0040283</ele>
        <time>2012-08-24T12:42:27Z</time>
      </trkpt>
      <trkpt lat="47.23446" lon="-0.71241">
        <ele>75.6008301</ele>
        <time>2012-08-24T12:42:32Z</time>
      </trkpt>
      <trkpt lat="47.23428" lon="-0.71239">
        <ele>73.6782227</ele>
        <time>2012-08-24T12:42:35Z</time>
      </trkpt>
      <trkpt lat="47.23379" lon="-0.71239">
        <ele>69.8328857</ele>
        <time>2012-08-24T12:42:42Z</time>
      </trkpt>
      <trkpt lat="47.23364" lon="-0.71239">
        <ele>68.871582</ele>
        <time>2012-08-24T12:42:44Z</time>
      </trkpt>
      <trkpt lat="47.23334" lon="-0.7124">
        <ele>66.9489746</ele>
        <time>2012-08-24T12:42:49Z</time>
      </trkpt>
      <trkpt lat="47.23325" lon="-0.7123">
        <ele>66.9489746</ele>
        <time>2012-08-24T12:42:51Z</time>
      </trkpt>
      <trkpt lat="47.23312" lon="-0.71213">
        <ele>65.9876709</ele>
        <time>2012-08-24T12:42:55Z</time>
      </trkpt>
      <trkpt lat="47.23287" lon="-0.71198">
        <ele>62.6229248</ele>
        <time>2012-08-24T12:43:00Z</time>
      </trkpt>
      <trkpt lat="47.23281" lon="-0.71197">
        <ele>62.142334</ele>
        <time>2012-08-24T12:43:01Z</time>
      </trkpt>
      <trkpt lat="47.23248" lon="-0.71193">
        <ele>61.6617432</ele>
        <time>2012-08-24T12:43:06Z</time>
      </trkpt>
      <trkpt lat="47.23227" lon="-0.71178">
        <ele>59.2584229</ele>
        <time>2012-08-24T12:43:09Z</time>
      </trkpt>
      <trkpt lat="47.23195" lon="-0.71142">
        <ele>57.8165283</ele>
        <time>2012-08-24T12:43:14Z</time>
      </trkpt>
      <trkpt lat="47.23179" lon="-0.71095">
        <ele>54.932373</ele>
        <time>2012-08-24T12:43:19Z</time>
      </trkpt>
      <trkpt lat="47.23174" lon="-0.71078">
        <ele>53.4904785</ele>
        <time>2012-08-24T12:43:21Z</time>
      </trkpt>
      <trkpt lat="47.23158" lon="-0.71055">
        <ele>53.4904785</ele>
        <time>2012-08-24T12:43:25Z</time>
      </trkpt>
      <trkpt lat="47.23142" lon="-0.71057">
        <ele>53.0097656</ele>
        <time>2012-08-24T12:43:28Z</time>
      </trkpt>
      <trkpt lat="47.2312" lon="-0.71074">
        <ele>53.4904785</ele>
        <time>2012-08-24T12:43:32Z</time>
      </trkpt>
      <trkpt lat="47.23098" lon="-0.71106">
        <ele>55.8937988</ele>
        <time>2012-08-24T12:43:38Z</time>
      </trkpt>
      <trkpt lat="47.23096" lon="-0.71111">
        <ele>56.3745117</ele>
        <time>2012-08-24T12:43:39Z</time>
      </trkpt>
      <trkpt lat="47.2309" lon="-0.71122">
        <ele>57.8165283</ele>
        <time>2012-08-24T12:43:42Z</time>
      </trkpt>
      <trkpt lat="47.23073" lon="-0.71146">
        <ele>60.7003174</ele>
        <time>2012-08-24T12:43:50Z</time>
      </trkpt>
      <trkpt lat="47.23058" lon="-0.71162">
        <ele>62.142334</ele>
        <time>2012-08-24T12:43:56Z</time>
      </trkpt>
      <trkpt lat="47.23039" lon="-0.71185">
        <ele>61.6617432</ele>
        <time>2012-08-24T12:44:02Z</time>
      </trkpt>
      <trkpt lat="47.2301" lon="-0.71211">
        <ele>60.7003174</ele>
        <time>2012-08-24T12:44:09Z</time>
      </trkpt>
      <trkpt lat="47.22977" lon="-0.71231">
        <ele>59.2584229</ele>
        <time>2012-08-24T12:44:15Z</time>
      </trkpt>
      <trkpt lat="47.22965" lon="-0.71241">
        <ele>59.7391357</ele>
        <time>2012-08-24T12:44:18Z</time>
      </trkpt>
      <trkpt lat="47.22959" lon="-0.71258">
        <ele>58.77771</ele>
        <time>2012-08-24T12:44:22Z</time>
      </trkpt>
      <trkpt lat="47.22964" lon="-0.71286">
        <ele>57.3358154</ele>
        <time>2012-08-24T12:44:27Z</time>
      </trkpt>
      <trkpt lat="47.22973" lon="-0.713">
        <ele>57.8165283</ele>
        <time>2012-08-24T12:44:30Z</time>
      </trkpt>
      <trkpt lat="47.22983" lon="-0.71305">
        <ele>56.8551025</ele>
        <time>2012-08-24T12:44:33Z</time>
      </trkpt>
      <trkpt lat="47.23" lon="-0.71323">
        <ele>58.2971191</ele>
        <time>2012-08-24T12:44:38Z</time>
      </trkpt>
      <trkpt lat="47.23008" lon="-0.71345">
        <ele>61.6617432</ele>
        <time>2012-08-24T12:44:42Z</time>
      </trkpt>
      <trkpt lat="47.23007" lon="-0.71367">
        <ele>61.6617432</ele>
        <time>2012-08-24T12:44:46Z</time>
      </trkpt>
      <trkpt lat="47.23005" lon="-0.71373">
        <ele>62.142334</ele>
        <time>2012-08-24T12:44:47Z</time>
      </trkpt>
      <trkpt lat="47.22998" lon="-0.71402">
        <ele>65.5070801</ele>
        <time>2012-08-24T12:44:52Z</time>
      </trkpt>
      <trkpt lat="47.22996" lon="-0.71417">
        <ele>65.9876709</ele>
        <time>2012-08-24T12:44:57Z</time>
      </trkpt>
      <trkpt lat="47.22995" lon="-0.71428">
        <ele>66.4682617</ele>
        <time>2012-08-24T12:45:03Z</time>
      </trkpt>
      <trkpt lat="47.22996" lon="-0.71431">
        <ele>66.4682617</ele>
        <time>2012-08-24T12:45:05Z</time>
      </trkpt>
      <trkpt lat="47.22994" lon="-0.71437">
        <ele>66.9489746</ele>
        <time>2012-08-24T12:45:16Z</time>
      </trkpt>
      <trkpt lat="47.22993" lon="-0.71446">
        <ele>67.9102783</ele>
        <time>2012-08-24T12:45:25Z</time>
      </trkpt>
      <trkpt lat="47.22992" lon="-0.71446">
        <ele>66.9489746</ele>
        <time>2012-08-24T12:45:31Z</time>
      </trkpt>
      <trkpt lat="47.22992" lon="-0.71448">
        <ele>65.9876709</ele>
        <time>2012-08-24T12:45:37Z</time>
      </trkpt>
      <trkpt lat="47.22989" lon="-0.71449">
        <ele>65.0263672</ele>
        <time>2012-08-24T12:45:44Z</time>
      </trkpt>
      <trkpt lat="47.22967" lon="-0.7146">
        <ele>65.9876709</ele>
        <time>2012-08-24T12:45:50Z</time>
      </trkpt>
      <trkpt lat="47.2294" lon="-0.71484">
        <ele>64.5456543</ele>
        <time>2012-08-24T12:45:56Z</time>
      </trkpt>
      <trkpt lat="47.22929" lon="-0.71495">
        <ele>63.1036377</ele>
        <time>2012-08-24T12:45:59Z</time>
      </trkpt>
      <trkpt lat="47.22917" lon="-0.7151">
        <ele>62.142334</ele>
        <time>2012-08-24T12:46:04Z</time>
      </trkpt>
      <trkpt lat="47.22902" lon="-0.71523">
        <ele>58.2971191</ele>
        <time>2012-08-24T12:46:09Z</time>
      </trkpt>
      <trkpt lat="47.22886" lon="-0.7154">
        <ele>57.8165283</ele>
        <time>2012-08-24T12:46:15Z</time>
      </trkpt>
      <trkpt lat="47.22877" lon="-0.71561">
        <ele>57.8165283</ele>
        <time>2012-08-24T12:46:20Z</time>
      </trkpt>
      <trkpt lat="47.2287" lon="-0.71589">
        <ele>59.2584229</ele>
        <time>2012-08-24T12:46:26Z</time>
      </trkpt>
      <trkpt lat="47.22875" lon="-0.71606">
        <ele>56.8551025</ele>
        <time>2012-08-24T12:46:30Z</time>
      </trkpt>
      <trkpt lat="47.22876" lon="-0.71615">
        <ele>55.8937988</ele>
        <time>2012-08-24T12:46:34Z</time>
      </trkpt>
      <trkpt lat="47.22877" lon="-0.71621">
        <ele>61.1810303</ele>
        <time>2012-08-24T12:46:42Z</time>
      </trkpt>
      <trkpt lat="47.22879" lon="-0.71625">
        <ele>62.142334</ele>
        <time>2012-08-24T12:46:48Z</time>
      </trkpt>
      <trkpt lat="47.22879" lon="-0.71628">
        <ele>61.1810303</ele>
        <time>2012-08-24T12:46:54Z</time>
      </trkpt>
      <trkpt lat="47.22888" lon="-0.71639">
        <ele>66.9489746</ele>
        <time>2012-08-24T12:47:00Z</time>
      </trkpt>
      <trkpt lat="47.22886" lon="-0.71643">
        <ele>67.4296875</ele>
        <time>2012-08-24T12:47:02Z</time>
      </trkpt>
      <trkpt lat="47.22871" lon="-0.71661">
        <ele>68.3908691</ele>
        <time>2012-08-24T12:47:08Z</time>
      </trkpt>
      <trkpt lat="47.2287" lon="-0.71677">
        <ele>69.8328857</ele>
        <time>2012-08-24T12:47:12Z</time>
      </trkpt>
      <trkpt lat="47.22875" lon="-0.71694">
        <ele>69.8328857</ele>
        <time>2012-08-24T12:47:16Z</time>
      </trkpt>
      <trkpt lat="47.22886" lon="-0.71724">
        <ele>70.3134766</ele>
        <time>2012-08-24T12:47:23Z</time>
      </trkpt>
      <trkpt lat="47.22886" lon="-0.71747">
        <ele>72.7169189</ele>
        <time>2012-08-24T12:47:29Z</time>
      </trkpt>
      <trkpt lat="47.22874" lon="-0.71762">
        <ele>74.1588135</ele>
        <time>2012-08-24T12:47:35Z</time>
      </trkpt>
      <trkpt lat="47.2286" lon="-0.71774">
        <ele>73.6782227</ele>
        <time>2012-08-24T12:47:41Z</time>
      </trkpt>
      <trkpt lat="47.22839" lon="-0.71778">
        <ele>74.6395264</ele>
        <time>2012-08-24T12:47:49Z</time>
      </trkpt>
      <trkpt lat="47.22811" lon="-0.71782">
        <ele>77.0428467</ele>
        <time>2012-08-24T12:48:00Z</time>
      </trkpt>
      <trkpt lat="47.22787" lon="-0.71786">
        <ele>77.5234375</ele>
        <time>2012-08-24T12:48:10Z</time>
      </trkpt>
      <trkpt lat="47.22768" lon="-0.71789">
        <ele>78.0040283</ele>
        <time>2012-08-24T12:48:18Z</time>
      </trkpt>
      <trkpt lat="47.22766" lon="-0.71788">
        <ele>78.0040283</ele>
        <time>2012-08-24T12:48:19Z</time>
      </trkpt>
      <trkpt lat="47.22766" lon="-0.71777">
        <ele>78.0040283</ele>
        <time>2012-08-24T12:48:23Z</time>
      </trkpt>
      <trkpt lat="47.22768" lon="-0.71776">
        <ele>78.0040283</ele>
        <time>2012-08-24T12:48:24Z</time>
      </trkpt>
      <trkpt lat="47.22787" lon="-0.71764">
        <ele>78.0040283</ele>
        <time>2012-08-24T12:48:33Z</time>
      </trkpt>
      <trkpt lat="47.22803" lon="-0.71748">
        <ele>78.4847412</ele>
        <time>2012-08-24T12:48:41Z</time>
      </trkpt>
      <trkpt lat="47.2282" lon="-0.71726">
        <ele>78.9654541</ele>
        <time>2012-08-24T12:48:50Z</time>
      </trkpt>
      <trkpt lat="47.22825" lon="-0.71706">
        <ele>79.4460449</ele>
        <time>2012-08-24T12:48:55Z</time>
      </trkpt>
      <trkpt lat="47.22821" lon="-0.71687">
        <ele>79.4460449</ele>
        <time>2012-08-24T12:49:00Z</time>
      </trkpt>
      <trkpt lat="47.22807" lon="-0.71662">
        <ele>80.8881836</ele>
        <time>2012-08-24T12:49:09Z</time>
      </trkpt>
      <trkpt lat="47.22791" lon="-0.71637">
        <ele>82.3300781</ele>
        <time>2012-08-24T12:49:18Z</time>
      </trkpt>
      <trkpt lat="47.22779" lon="-0.71613">
        <ele>84.2526855</ele>
        <time>2012-08-24T12:49:26Z</time>
      </trkpt>
      <trkpt lat="47.22765" lon="-0.71581">
        <ele>86.6560059</ele>
        <time>2012-08-24T12:49:36Z</time>
      </trkpt>
      <trkpt lat="47.22753" lon="-0.71557">
        <ele>89.0593262</ele>
        <time>2012-08-24T12:49:44Z</time>
      </trkpt>
      <trkpt lat="47.22739" lon="-0.71536">
        <ele>90.0206299</ele>
        <time>2012-08-24T12:49:52Z</time>
      </trkpt>
      <trkpt lat="47.22721" lon="-0.71515">
        <ele>90.5013428</ele>
        <time>2012-08-24T12:50:01Z</time>
      </trkpt>
      <trkpt lat="47.22706" lon="-0.71487">
        <ele>91.4625244</ele>
        <time>2012-08-24T12:50:09Z</time>
      </trkpt>
      <trkpt lat="47.22689" lon="-0.71453">
        <ele>91.4625244</ele>
        <time>2012-08-24T12:50:17Z</time>
      </trkpt>
      <trkpt lat="47.22674" lon="-0.7142">
        <ele>91.9432373</ele>
        <time>2012-08-24T12:50:24Z</time>
      </trkpt>
      <trkpt lat="47.22652" lon="-0.71377">
        <ele>91.9432373</ele>
        <time>2012-08-24T12:50:33Z</time>
      </trkpt>
      <trkpt lat="47.22639" lon="-0.71355">
        <ele>91.9432373</ele>
        <time>2012-08-24T12:50:38Z</time>
      </trkpt>
      <trkpt lat="47.22616" lon="-0.71317">
        <ele>90.9819336</ele>
        <time>2012-08-24T12:50:46Z</time>
      </trkpt>
      <trkpt lat="47.22606" lon="-0.71303">
        <ele>90.9819336</ele>
        <time>2012-08-24T12:50:49Z</time>
      </trkpt>
      <trkpt lat="47.22593" lon="-0.71285">
        <ele>90.0206299</ele>
        <time>2012-08-24T12:50:53Z</time>
      </trkpt>
      <trkpt lat="47.22576" lon="-0.71281">
        <ele>90.0206299</ele>
        <time>2012-08-24T12:50:57Z</time>
      </trkpt>
      <trkpt lat="47.22571" lon="-0.71289">
        <ele>90.0206299</ele>
        <time>2012-08-24T12:50:59Z</time>
      </trkpt>
      <trkpt lat="47.22558" lon="-0.71313">
        <ele>90.5013428</ele>
        <time>2012-08-24T12:51:07Z</time>
      </trkpt>
      <trkpt lat="47.22545" lon="-0.71338">
        <ele>91.9432373</ele>
        <time>2012-08-24T12:51:16Z</time>
      </trkpt>
      <trkpt lat="47.22532" lon="-0.71367">
        <ele>93.8658447</ele>
        <time>2012-08-24T12:51:25Z</time>
      </trkpt>
      <trkpt lat="47.22519" lon="-0.71394">
        <ele>94.8271484</ele>
        <time>2012-08-24T12:51:33Z</time>
      </trkpt>
      <trkpt lat="47.22509" lon="-0.71416">
        <ele>95.3077393</ele>
        <time>2012-08-24T12:51:39Z</time>
      </trkpt>
      <trkpt lat="47.22495" lon="-0.71446">
        <ele>96.2692871</ele>
        <time>2012-08-24T12:51:47Z</time>
      </trkpt>
      <trkpt lat="47.22475" lon="-0.71481">
        <ele>97.2304688</ele>
        <time>2012-08-24T12:51:56Z</time>
      </trkpt>
      <trkpt lat="47.22458" lon="-0.71512">
        <ele>97.7111816</ele>
        <time>2012-08-24T12:52:04Z</time>
      </trkpt>
      <trkpt lat="47.22455" lon="-0.71516">
        <ele>97.7111816</ele>
        <time>2012-08-24T12:52:08Z</time>
      </trkpt>
      <trkpt lat="47.2245" lon="-0.71525">
        <ele>98.1918945</ele>
        <time>2012-08-24T12:52:13Z</time>
      </trkpt>
      <trkpt lat="47.22437" lon="-0.71549">
        <ele>97.7111816</ele>
        <time>2012-08-24T12:52:20Z</time>
      </trkpt>
      <trkpt lat="47.2242" lon="-0.71577">
        <ele>96.2692871</ele>
        <time>2012-08-24T12:52:26Z</time>
      </trkpt>
      <trkpt lat="47.22399" lon="-0.71614">
        <ele>93.3851318</ele>
        <time>2012-08-24T12:52:32Z</time>
      </trkpt>
      <trkpt lat="47.22378" lon="-0.71684">
        <ele>93.3851318</ele>
        <time>2012-08-24T12:52:41Z</time>
      </trkpt>
      <trkpt lat="47.22361" lon="-0.71735">
        <ele>93.8658447</ele>
        <time>2012-08-24T12:52:48Z</time>
      </trkpt>
      <trkpt lat="47.22339" lon="-0.71794">
        <ele>96.2692871</ele>
        <time>2012-08-24T12:52:57Z</time>
      </trkpt>
      <trkpt lat="47.22326" lon="-0.71828">
        <ele>97.2304688</ele>
        <time>2012-08-24T12:53:02Z</time>
      </trkpt>
      <trkpt lat="47.22298" lon="-0.71902">
        <ele>97.2304688</ele>
        <time>2012-08-24T12:53:12Z</time>
      </trkpt>
      <trkpt lat="47.22273" lon="-0.71955">
        <ele>95.3077393</ele>
        <time>2012-08-24T12:53:19Z</time>
      </trkpt>
      <trkpt lat="47.22246" lon="-0.72005">
        <ele>94.8271484</ele>
        <time>2012-08-24T12:53:26Z</time>
      </trkpt>
      <trkpt lat="47.22222" lon="-0.72037">
        <ele>93.8658447</ele>
        <time>2012-08-24T12:53:32Z</time>
      </trkpt>
      <trkpt lat="47.22197" lon="-0.72065">
        <ele>92.4239502</ele>
        <time>2012-08-24T12:53:38Z</time>
      </trkpt>
      <trkpt lat="47.22175" lon="-0.72082">
        <ele>92.4239502</ele>
        <time>2012-08-24T12:53:43Z</time>
      </trkpt>
      <trkpt lat="47.22171" lon="-0.72085">
        <ele>92.4239502</ele>
        <time>2012-08-24T12:53:44Z</time>
      </trkpt>
      <trkpt lat="47.22158" lon="-0.72107">
        <ele>93.8658447</ele>
        <time>2012-08-24T12:53:48Z</time>
      </trkpt>
      <trkpt lat="47.22135" lon="-0.72163">
        <ele>95.3077393</ele>
        <time>2012-08-24T12:53:57Z</time>
      </trkpt>
      <trkpt lat="47.22109" lon="-0.72216">
        <ele>97.7111816</ele>
        <time>2012-08-24T12:54:06Z</time>
      </trkpt>
      <trkpt lat="47.22087" lon="-0.72261">
        <ele>97.2304688</ele>
        <time>2012-08-24T12:54:13Z</time>
      </trkpt>
      <trkpt lat="47.22074" lon="-0.72281">
        <ele>96.2692871</ele>
        <time>2012-08-24T12:54:16Z</time>
      </trkpt>
      <trkpt lat="47.22049" lon="-0.72316">
        <ele>94.3465576</ele>
        <time>2012-08-24T12:54:21Z</time>
      </trkpt>
      <trkpt lat="47.22044" lon="-0.72322">
        <ele>93.8658447</ele>
        <time>2012-08-24T12:54:22Z</time>
      </trkpt>
      <trkpt lat="47.22032" lon="-0.72352">
        <ele>92.4239502</ele>
        <time>2012-08-24T12:54:26Z</time>
      </trkpt>
      <trkpt lat="47.22016" lon="-0.72388">
        <ele>90.5013428</ele>
        <time>2012-08-24T12:54:31Z</time>
      </trkpt>
      <trkpt lat="47.21989" lon="-0.72442">
        <ele>85.2139893</ele>
        <time>2012-08-24T12:54:38Z</time>
      </trkpt>
      <trkpt lat="47.2198" lon="-0.72491">
        <ele>82.810791</ele>
        <time>2012-08-24T12:54:43Z</time>
      </trkpt>
      <trkpt lat="47.21981" lon="-0.725">
        <ele>82.810791</ele>
        <time>2012-08-24T12:54:44Z</time>
      </trkpt>
      <trkpt lat="47.21981" lon="-0.7256">
        <ele>81.8493652</ele>
        <time>2012-08-24T12:54:52Z</time>
      </trkpt>
      <trkpt lat="47.21977" lon="-0.72584">
        <ele>82.3300781</ele>
        <time>2012-08-24T12:54:56Z</time>
      </trkpt>
      <trkpt lat="47.21969" lon="-0.72606">
        <ele>83.7719727</ele>
        <time>2012-08-24T12:55:00Z</time>
      </trkpt>
      <trkpt lat="47.21965" lon="-0.72617">
        <ele>83.7719727</ele>
        <time>2012-08-24T12:55:02Z</time>
      </trkpt>
      <trkpt lat="47.21957" lon="-0.72638">
        <ele>87.1365967</ele>
        <time>2012-08-24T12:55:07Z</time>
      </trkpt>
      <trkpt lat="47.21946" lon="-0.72669">
        <ele>94.3465576</ele>
        <time>2012-08-24T12:55:14Z</time>
      </trkpt>
      <trkpt lat="47.21939" lon="-0.72697">
        <ele>96.2692871</ele>
        <time>2012-08-24T12:55:20Z</time>
      </trkpt>
      <trkpt lat="47.21943" lon="-0.72724">
        <ele>96.2692871</ele>
        <time>2012-08-24T12:55:26Z</time>
      </trkpt>
      <trkpt lat="47.21947" lon="-0.72743">
        <ele>94.8271484</ele>
        <time>2012-08-24T12:55:33Z</time>
      </trkpt>
      <trkpt lat="47.21946" lon="-0.72746">
        <ele>95.7884521</ele>
        <time>2012-08-24T12:55:42Z</time>
      </trkpt>
      <trkpt lat="47.21943" lon="-0.7275">
        <ele>90.5013428</ele>
        <time>2012-08-24T12:55:49Z</time>
      </trkpt>
      <trkpt lat="47.21943" lon="-0.7275">
        <ele>92.4239502</ele>
        <time>2012-08-24T12:55:53Z</time>
      </trkpt>
      <trkpt lat="47.21942" lon="-0.72749">
        <ele>92.904541</ele>
        <time>2012-08-24T12:55:59Z</time>
      </trkpt>
      <trkpt lat="47.21943" lon="-0.72751">
        <ele>94.3465576</ele>
        <time>2012-08-24T12:56:08Z</time>
      </trkpt>
      <trkpt lat="47.21942" lon="-0.72753">
        <ele>91.9432373</ele>
        <time>2012-08-24T12:56:17Z</time>
      </trkpt>
      <trkpt lat="47.21942" lon="-0.72754">
        <ele>91.9432373</ele>
        <time>2012-08-24T12:56:19Z</time>
      </trkpt>
      <trkpt lat="47.21942" lon="-0.72754">
        <ele>91.9432373</ele>
        <time>2012-08-24T12:56:20Z</time>
      </trkpt>
      <trkpt lat="47.21943" lon="-0.72764">
        <ele>93.8658447</ele>
        <time>2012-08-24T12:56:30Z</time>
      </trkpt>
      <trkpt lat="47.2194" lon="-0.72773">
        <ele>94.3465576</ele>
        <time>2012-08-24T12:56:33Z</time>
      </trkpt>
      <trkpt lat="47.21944" lon="-0.72787">
        <ele>91.9432373</ele>
        <time>2012-08-24T12:56:37Z</time>
      </trkpt>
      <trkpt lat="47.21947" lon="-0.72794">
        <ele>90.5013428</ele>
        <time>2012-08-24T12:56:39Z</time>
      </trkpt>
      <trkpt lat="47.21956" lon="-0.72808">
        <ele>90.5013428</ele>
        <time>2012-08-24T12:56:44Z</time>
      </trkpt>
      <trkpt lat="47.21958" lon="-0.72815">
        <ele>90.0206299</ele>
        <time>2012-08-24T12:56:46Z</time>
      </trkpt>
      <trkpt lat="47.21959" lon="-0.72819">
        <ele>89.539917</ele>
        <time>2012-08-24T12:56:47Z</time>
      </trkpt>
      <trkpt lat="47.21972" lon="-0.72838">
        <ele>88.0980225</ele>
        <time>2012-08-24T12:56:53Z</time>
      </trkpt>
      <trkpt lat="47.21986" lon="-0.72866">
        <ele>87.6171875</ele>
        <time>2012-08-24T12:56:59Z</time>
      </trkpt>
      <trkpt lat="47.21993" lon="-0.72884">
        <ele>89.0593262</ele>
        <time>2012-08-24T12:57:02Z</time>
      </trkpt>
      <trkpt lat="47.22007" lon="-0.72923">
        <ele>89.0593262</ele>
        <time>2012-08-24T12:57:08Z</time>
      </trkpt>
      <trkpt lat="47.2202" lon="-0.72968">
        <ele>88.5787354</ele>
        <time>2012-08-24T12:57:14Z</time>
      </trkpt>
      <trkpt lat="47.22037" lon="-0.72979">
        <ele>88.0980225</ele>
        <time>2012-08-24T12:57:18Z</time>
      </trkpt>
      <trkpt lat="47.22042" lon="-0.72976">
        <ele>87.6171875</ele>
        <time>2012-08-24T12:57:19Z</time>
      </trkpt>
      <trkpt lat="47.22065" lon="-0.72959">
        <ele>84.7333984</ele>
        <time>2012-08-24T12:57:23Z</time>
      </trkpt>
      <trkpt lat="47.2209" lon="-0.7296">
        <ele>82.3300781</ele>
        <time>2012-08-24T12:57:27Z</time>
      </trkpt>
      <trkpt lat="47.22098" lon="-0.72977">
        <ele>81.3687744</ele>
        <time>2012-08-24T12:57:29Z</time>
      </trkpt>
      <trkpt lat="47.22104" lon="-0.72996">
        <ele>80.8881836</ele>
        <time>2012-08-24T12:57:31Z</time>
      </trkpt>
      <trkpt lat="47.22101" lon="-0.7303">
        <ele>80.4074707</ele>
        <time>2012-08-24T12:57:35Z</time>
      </trkpt>
      <trkpt lat="47.22096" lon="-0.73036">
        <ele>80.8881836</ele>
        <time>2012-08-24T12:57:36Z</time>
      </trkpt>
      <trkpt lat="47.22058" lon="-0.7307">
        <ele>83.2913818</ele>
        <time>2012-08-24T12:57:43Z</time>
      </trkpt>
      <trkpt lat="47.22054" lon="-0.73107">
        <ele>86.175293</ele>
        <time>2012-08-24T12:57:47Z</time>
      </trkpt>
      <trkpt lat="47.22055" lon="-0.73121">
        <ele>84.2526855</ele>
        <time>2012-08-24T12:57:48Z</time>
      </trkpt>
      <trkpt lat="47.22071" lon="-0.73159">
        <ele>81.3687744</ele>
        <time>2012-08-24T12:57:52Z</time>
      </trkpt>
      <trkpt lat="47.2208" lon="-0.73202">
        <ele>78.4847412</ele>
        <time>2012-08-24T12:57:56Z</time>
      </trkpt>
      <trkpt lat="47.22086" lon="-0.73284">
        <ele>74.1588135</ele>
        <time>2012-08-24T12:58:02Z</time>
      </trkpt>
      <trkpt lat="47.2209" lon="-0.73311">
        <ele>73.1976318</ele>
        <time>2012-08-24T12:58:05Z</time>
      </trkpt>
      <trkpt lat="47.22104" lon="-0.73335">
        <ele>71.7554932</ele>
        <time>2012-08-24T12:58:09Z</time>
      </trkpt>
      <trkpt lat="47.22115" lon="-0.73339">
        <ele>71.2749023</ele>
        <time>2012-08-24T12:58:11Z</time>
      </trkpt>
      <trkpt lat="47.22127" lon="-0.73341">
        <ele>70.7941895</ele>
        <time>2012-08-24T12:58:13Z</time>
      </trkpt>
      <trkpt lat="47.22139" lon="-0.73346">
        <ele>70.7941895</ele>
        <time>2012-08-24T12:58:15Z</time>
      </trkpt>
      <trkpt lat="47.22163" lon="-0.73375">
        <ele>69.3522949</ele>
        <time>2012-08-24T12:58:20Z</time>
      </trkpt>
      <trkpt lat="47.22165" lon="-0.73402">
        <ele>68.871582</ele>
        <time>2012-08-24T12:58:23Z</time>
      </trkpt>
      <trkpt lat="47.2216" lon="-0.73471">
        <ele>69.8328857</ele>
        <time>2012-08-24T12:58:30Z</time>
      </trkpt>
      <trkpt lat="47.2216" lon="-0.73514">
        <ele>70.3134766</ele>
        <time>2012-08-24T12:58:35Z</time>
      </trkpt>
      <trkpt lat="47.2216" lon="-0.73543">
        <ele>67.4296875</ele>
        <time>2012-08-24T12:58:38Z</time>
      </trkpt>
      <trkpt lat="47.22149" lon="-0.73595">
        <ele>65.9876709</ele>
        <time>2012-08-24T12:58:43Z</time>
      </trkpt>
      <trkpt lat="47.22133" lon="-0.73645">
        <ele>67.4296875</ele>
        <time>2012-08-24T12:58:49Z</time>
      </trkpt>
      <trkpt lat="47.2213" lon="-0.73651">
        <ele>67.9102783</ele>
        <time>2012-08-24T12:58:50Z</time>
      </trkpt>
      <trkpt lat="47.2211" lon="-0.73688">
        <ele>71.2749023</ele>
        <time>2012-08-24T12:58:59Z</time>
      </trkpt>
      <trkpt lat="47.22094" lon="-0.73709">
        <ele>74.6395264</ele>
        <time>2012-08-24T12:59:06Z</time>
      </trkpt>
      <trkpt lat="47.22081" lon="-0.73723">
        <ele>76.0814209</ele>
        <time>2012-08-24T12:59:11Z</time>
      </trkpt>
      <trkpt lat="47.2207" lon="-0.7373">
        <ele>76.0814209</ele>
        <time>2012-08-24T12:59:16Z</time>
      </trkpt>
      <trkpt lat="47.22053" lon="-0.7374">
        <ele>76.0814209</ele>
        <time>2012-08-24T12:59:24Z</time>
      </trkpt>
      <trkpt lat="47.22042" lon="-0.73746">
        <ele>76.5621338</ele>
        <time>2012-08-24T12:59:30Z</time>
      </trkpt>
      <trkpt lat="47.22029" lon="-0.73753">
        <ele>75.6008301</ele>
        <time>2012-08-24T12:59:36Z</time>
      </trkpt>
      <trkpt lat="47.22016" lon="-0.7376">
        <ele>77.0428467</ele>
        <time>2012-08-24T12:59:43Z</time>
      </trkpt>
      <trkpt lat="47.22002" lon="-0.73768">
        <ele>79.9266357</ele>
        <time>2012-08-24T12:59:51Z</time>
      </trkpt>
      <trkpt lat="47.21983" lon="-0.73777">
        <ele>81.8493652</ele>
        <time>2012-08-24T13:00:01Z</time>
      </trkpt>
      <trkpt lat="47.21966" lon="-0.73786">
        <ele>83.7719727</ele>
        <time>2012-08-24T13:00:10Z</time>
      </trkpt>
      <trkpt lat="47.21954" lon="-0.73791">
        <ele>85.6945801</ele>
        <time>2012-08-24T13:00:17Z</time>
      </trkpt>
      <trkpt lat="47.21944" lon="-0.73796">
        <ele>86.6560059</ele>
        <time>2012-08-24T13:00:23Z</time>
      </trkpt>
      <trkpt lat="47.21941" lon="-0.73795">
        <ele>87.1365967</ele>
        <time>2012-08-24T13:00:26Z</time>
      </trkpt>
      <trkpt lat="47.21939" lon="-0.73789">
        <ele>86.6560059</ele>
        <time>2012-08-24T13:00:30Z</time>
      </trkpt>
      <trkpt lat="47.21944" lon="-0.73763">
        <ele>85.2139893</ele>
        <time>2012-08-24T13:00:37Z</time>
      </trkpt>
      <trkpt lat="47.21948" lon="-0.73733">
        <ele>84.2526855</ele>
        <time>2012-08-24T13:00:43Z</time>
      </trkpt>
      <trkpt lat="47.21947" lon="-0.73703">
        <ele>82.810791</ele>
        <time>2012-08-24T13:00:49Z</time>
      </trkpt>
      <trkpt lat="47.21943" lon="-0.73682">
        <ele>81.3687744</ele>
        <time>2012-08-24T13:00:53Z</time>
      </trkpt>
      <trkpt lat="47.21935" lon="-0.73656">
        <ele>80.4074707</ele>
        <time>2012-08-24T13:00:58Z</time>
      </trkpt>
      <trkpt lat="47.21922" lon="-0.73629">
        <ele>79.9266357</ele>
        <time>2012-08-24T13:01:04Z</time>
      </trkpt>
      <trkpt lat="47.21904" lon="-0.73633">
        <ele>79.4460449</ele>
        <time>2012-08-24T13:01:09Z</time>
      </trkpt>
      <trkpt lat="47.21867" lon="-0.73653">
        <ele>78.9654541</ele>
        <time>2012-08-24T13:01:19Z</time>
      </trkpt>
      <trkpt lat="47.21833" lon="-0.73672">
        <ele>79.4460449</ele>
        <time>2012-08-24T13:01:28Z</time>
      </trkpt>
      <trkpt lat="47.21799" lon="-0.73693">
        <ele>78.9654541</ele>
        <time>2012-08-24T13:01:38Z</time>
      </trkpt>
      <trkpt lat="47.21776" lon="-0.73709">
        <ele>79.4460449</ele>
        <time>2012-08-24T13:01:45Z</time>
      </trkpt>
      <trkpt lat="47.21744" lon="-0.73731">
        <ele>79.4460449</ele>
        <time>2012-08-24T13:01:55Z</time>
      </trkpt>
      <trkpt lat="47.2172" lon="-0.73745">
        <ele>81.8493652</ele>
        <time>2012-08-24T13:02:03Z</time>
      </trkpt>
      <trkpt lat="47.21712" lon="-0.73734">
        <ele>78.4847412</ele>
        <time>2012-08-24T13:02:07Z</time>
      </trkpt>
      <trkpt lat="47.21707" lon="-0.73717">
        <ele>75.1202393</ele>
        <time>2012-08-24T13:02:11Z</time>
      </trkpt>
      <trkpt lat="47.21705" lon="-0.73713">
        <ele>74.6395264</ele>
        <time>2012-08-24T13:02:12Z</time>
      </trkpt>
      <trkpt lat="47.21701" lon="-0.73692">
        <ele>69.3522949</ele>
        <time>2012-08-24T13:02:18Z</time>
      </trkpt>
      <trkpt lat="47.217" lon="-0.73688">
        <ele>67.4296875</ele>
        <time>2012-08-24T13:02:19Z</time>
      </trkpt>
      <trkpt lat="47.21702" lon="-0.73664">
        <ele>63.1036377</ele>
        <time>2012-08-24T13:02:24Z</time>
      </trkpt>
      <trkpt lat="47.21693" lon="-0.73657">
        <ele>62.142334</ele>
        <time>2012-08-24T13:02:27Z</time>
      </trkpt>
      <trkpt lat="47.21679" lon="-0.73657">
        <ele>63.1036377</ele>
        <time>2012-08-24T13:02:32Z</time>
      </trkpt>
      <trkpt lat="47.21678" lon="-0.73655">
        <ele>65.9876709</ele>
        <time>2012-08-24T13:02:37Z</time>
      </trkpt>
      <trkpt lat="47.21677" lon="-0.73649">
        <ele>72.7169189</ele>
        <time>2012-08-24T13:02:47Z</time>
      </trkpt>
      <trkpt lat="47.21674" lon="-0.73647">
        <ele>78.0040283</ele>
        <time>2012-08-24T13:03:00Z</time>
      </trkpt>
      <trkpt lat="47.21675" lon="-0.73648">
        <ele>78.4847412</ele>
        <time>2012-08-24T13:03:11Z</time>
      </trkpt>
      <trkpt lat="47.21676" lon="-0.73648">
        <ele>77.0428467</ele>
        <time>2012-08-24T13:03:25Z</time>
      </trkpt>
      <trkpt lat="47.21676" lon="-0.73648">
        <ele>75.6008301</ele>
        <time>2012-08-24T13:03:36Z</time>
      </trkpt>
      <trkpt lat="47.21676" lon="-0.73648">
        <ele>73.1976318</ele>
        <time>2012-08-24T13:03:46Z</time>
      </trkpt>
      <trkpt lat="47.21676" lon="-0.73647">
        <ele>73.1976318</ele>
        <time>2012-08-24T13:03:49Z</time>
      </trkpt>
      <trkpt lat="47.21676" lon="-0.73647">
        <ele>73.6782227</ele>
        <time>2012-08-24T13:03:59Z</time>
      </trkpt>
      <trkpt lat="47.21675" lon="-0.73645">
        <ele>74.6395264</ele>
        <time>2012-08-24T13:04:37Z</time>
      </trkpt>
      <trkpt lat="47.21676" lon="-0.73644">
        <ele>76.0814209</ele>
        <time>2012-08-24T13:04:56Z</time>
      </trkpt>
      <trkpt lat="47.21675" lon="-0.73643">
        <ele>77.0428467</ele>
        <time>2012-08-24T13:05:11Z</time>
      </trkpt>
      <trkpt lat="47.21668" lon="-0.73645">
        <ele>75.1202393</ele>
        <time>2012-08-24T13:05:16Z</time>
      </trkpt>
      <trkpt lat="47.21661" lon="-0.73646">
        <ele>73.6782227</ele>
        <time>2012-08-24T13:05:19Z</time>
      </trkpt>
      <trkpt lat="47.21653" lon="-0.73648">
        <ele>73.1976318</ele>
        <time>2012-08-24T13:05:22Z</time>
      </trkpt>
      <trkpt lat="47.21644" lon="-0.7365">
        <ele>74.1588135</ele>
        <time>2012-08-24T13:05:25Z</time>
      </trkpt>
      <trkpt lat="47.21634" lon="-0.73651">
        <ele>74.6395264</ele>
        <time>2012-08-24T13:05:28Z</time>
      </trkpt>
      <trkpt lat="47.21613" lon="-0.73653">
        <ele>72.2362061</ele>
        <time>2012-08-24T13:05:35Z</time>
      </trkpt>
      <trkpt lat="47.21594" lon="-0.73638">
        <ele>67.9102783</ele>
        <time>2012-08-24T13:05:41Z</time>
      </trkpt>
      <trkpt lat="47.21577" lon="-0.73618">
        <ele>65.9876709</ele>
        <time>2012-08-24T13:05:48Z</time>
      </trkpt>
      <trkpt lat="47.21559" lon="-0.73605">
        <ele>65.9876709</ele>
        <time>2012-08-24T13:05:54Z</time>
      </trkpt>
      <trkpt lat="47.21539" lon="-0.73591">
        <ele>66.9489746</ele>
        <time>2012-08-24T13:06:01Z</time>
      </trkpt>
      <trkpt lat="47.21521" lon="-0.73585">
        <ele>66.4682617</ele>
        <time>2012-08-24T13:06:07Z</time>
      </trkpt>
      <trkpt lat="47.21504" lon="-0.73584">
        <ele>65.0263672</ele>
        <time>2012-08-24T13:06:13Z</time>
      </trkpt>
      <trkpt lat="47.21488" lon="-0.73588">
        <ele>62.6229248</ele>
        <time>2012-08-24T13:06:18Z</time>
      </trkpt>
      <trkpt lat="47.21475" lon="-0.7359">
        <ele>63.5843506</ele>
        <time>2012-08-24T13:06:22Z</time>
      </trkpt>
      <trkpt lat="47.21457" lon="-0.73587">
        <ele>62.6229248</ele>
        <time>2012-08-24T13:06:27Z</time>
      </trkpt>
      <trkpt lat="47.2144" lon="-0.73573">
        <ele>57.3358154</ele>
        <time>2012-08-24T13:06:32Z</time>
      </trkpt>
      <trkpt lat="47.21418" lon="-0.73555">
        <ele>52.5291748</ele>
        <time>2012-08-24T13:06:39Z</time>
      </trkpt>
      <trkpt lat="47.21402" lon="-0.73545">
        <ele>53.4904785</ele>
        <time>2012-08-24T13:06:44Z</time>
      </trkpt>
      <trkpt lat="47.21386" lon="-0.73536">
        <ele>52.5291748</ele>
        <time>2012-08-24T13:06:49Z</time>
      </trkpt>
      <trkpt lat="47.21372" lon="-0.73529">
        <ele>56.3745117</ele>
        <time>2012-08-24T13:06:54Z</time>
      </trkpt>
      <trkpt lat="47.2136" lon="-0.73523">
        <ele>61.1810303</ele>
        <time>2012-08-24T13:06:59Z</time>
      </trkpt>
      <trkpt lat="47.21354" lon="-0.7352">
        <ele>59.7391357</ele>
        <time>2012-08-24T13:07:02Z</time>
      </trkpt>
      <trkpt lat="47.21352" lon="-0.73518">
        <ele>69.3522949</ele>
        <time>2012-08-24T13:07:12Z</time>
      </trkpt>
      <trkpt lat="47.21351" lon="-0.73513">
        <ele>69.3522949</ele>
        <time>2012-08-24T13:07:24Z</time>
      </trkpt>
      <trkpt lat="47.21353" lon="-0.73505">
        <ele>69.8328857</ele>
        <time>2012-08-24T13:07:30Z</time>
      </trkpt>
      <trkpt lat="47.21349" lon="-0.73497">
        <ele>65.9876709</ele>
        <time>2012-08-24T13:07:34Z</time>
      </trkpt>
      <trkpt lat="47.2134" lon="-0.73485">
        <ele>62.6229248</ele>
        <time>2012-08-24T13:07:39Z</time>
      </trkpt>
      <trkpt lat="47.21338" lon="-0.73467">
        <ele>64.5456543</ele>
        <time>2012-08-24T13:07:44Z</time>
      </trkpt>
      <trkpt lat="47.21338" lon="-0.73452">
        <ele>65.0263672</ele>
        <time>2012-08-24T13:07:49Z</time>
      </trkpt>
      <trkpt lat="47.2134" lon="-0.73433">
        <ele>63.5843506</ele>
        <time>2012-08-24T13:07:54Z</time>
      </trkpt>
      <trkpt lat="47.21339" lon="-0.73427">
        <ele>58.77771</ele>
        <time>2012-08-24T13:07:59Z</time>
      </trkpt>
      <trkpt lat="47.21335" lon="-0.73425">
        <ele>57.3358154</ele>
        <time>2012-08-24T13:08:01Z</time>
      </trkpt>
      <trkpt lat="47.21317" lon="-0.73406">
        <ele>53.9711914</ele>
        <time>2012-08-24T13:08:09Z</time>
      </trkpt>
      <trkpt lat="47.21302" lon="-0.73401">
        <ele>53.9711914</ele>
        <time>2012-08-24T13:08:16Z</time>
      </trkpt>
      <trkpt lat="47.21293" lon="-0.73399">
        <ele>55.8937988</ele>
        <time>2012-08-24T13:08:20Z</time>
      </trkpt>
      <trkpt lat="47.21286" lon="-0.73387">
        <ele>57.8165283</ele>
        <time>2012-08-24T13:08:25Z</time>
      </trkpt>
      <trkpt lat="47.21287" lon="-0.73382">
        <ele>57.8165283</ele>
        <time>2012-08-24T13:08:27Z</time>
      </trkpt>
      <trkpt lat="47.21288" lon="-0.73376">
        <ele>57.8165283</ele>
        <time>2012-08-24T13:08:29Z</time>
      </trkpt>
      <trkpt lat="47.21286" lon="-0.73357">
        <ele>59.7391357</ele>
        <time>2012-08-24T13:08:34Z</time>
      </trkpt>
      <trkpt lat="47.21287" lon="-0.73348">
        <ele>61.1810303</ele>
        <time>2012-08-24T13:08:36Z</time>
      </trkpt>
      <trkpt lat="47.21277" lon="-0.73338">
        <ele>61.1810303</ele>
        <time>2012-08-24T13:08:40Z</time>
      </trkpt>
      <trkpt lat="47.21248" lon="-0.73334">
        <ele>60.7003174</ele>
        <time>2012-08-24T13:08:46Z</time>
      </trkpt>
      <trkpt lat="47.21227" lon="-0.73333">
        <ele>62.6229248</ele>
        <time>2012-08-24T13:08:51Z</time>
      </trkpt>
      <trkpt lat="47.21212" lon="-0.73332">
        <ele>68.3908691</ele>
        <time>2012-08-24T13:08:57Z</time>
      </trkpt>
      <trkpt lat="47.21201" lon="-0.73323">
        <ele>69.3522949</ele>
        <time>2012-08-24T13:09:02Z</time>
      </trkpt>
      <trkpt lat="47.21185" lon="-0.73312">
        <ele>72.2362061</ele>
        <time>2012-08-24T13:09:09Z</time>
      </trkpt>
      <trkpt lat="47.21165" lon="-0.73301">
        <ele>75.1202393</ele>
        <time>2012-08-24T13:09:17Z</time>
      </trkpt>
      <trkpt lat="47.21145" lon="-0.73291">
        <ele>77.0428467</ele>
        <time>2012-08-24T13:09:25Z</time>
      </trkpt>
      <trkpt lat="47.2112" lon="-0.7328">
        <ele>79.9266357</ele>
        <time>2012-08-24T13:09:35Z</time>
      </trkpt>
      <trkpt lat="47.21099" lon="-0.73274">
        <ele>81.3687744</ele>
        <time>2012-08-24T13:09:42Z</time>
      </trkpt>
      <trkpt lat="47.21075" lon="-0.73264">
        <ele>79.9266357</ele>
        <time>2012-08-24T13:09:49Z</time>
      </trkpt>
      <trkpt lat="47.21053" lon="-0.73257">
        <ele>78.9654541</ele>
        <time>2012-08-24T13:09:56Z</time>
      </trkpt>
      <trkpt lat="47.2103" lon="-0.73254">
        <ele>78.9654541</ele>
        <time>2012-08-24T13:10:02Z</time>
      </trkpt>
      <trkpt lat="47.21009" lon="-0.73251">
        <ele>77.5234375</ele>
        <time>2012-08-24T13:10:07Z</time>
      </trkpt>
      <trkpt lat="47.20982" lon="-0.73245">
        <ele>77.0428467</ele>
        <time>2012-08-24T13:10:13Z</time>
      </trkpt>
      <trkpt lat="47.20954" lon="-0.73239">
        <ele>78.4847412</ele>
        <time>2012-08-24T13:10:19Z</time>
      </trkpt>
      <trkpt lat="47.20949" lon="-0.73237">
        <ele>78.9654541</ele>
        <time>2012-08-24T13:10:20Z</time>
      </trkpt>
      <trkpt lat="47.20935" lon="-0.73238">
        <ele>78.9654541</ele>
        <time>2012-08-24T13:10:23Z</time>
      </trkpt>
      <trkpt lat="47.20925" lon="-0.7325">
        <ele>78.4847412</ele>
        <time>2012-08-24T13:10:26Z</time>
      </trkpt>
      <trkpt lat="47.20924" lon="-0.73258">
        <ele>79.4460449</ele>
        <time>2012-08-24T13:10:28Z</time>
      </trkpt>
      <trkpt lat="47.20919" lon="-0.73276">
        <ele>81.8493652</ele>
        <time>2012-08-24T13:10:34Z</time>
      </trkpt>
      <trkpt lat="47.20907" lon="-0.73288">
        <ele>83.2913818</ele>
        <time>2012-08-24T13:10:40Z</time>
      </trkpt>
      <trkpt lat="47.20896" lon="-0.73299">
        <ele>88.5787354</ele>
        <time>2012-08-24T13:10:46Z</time>
      </trkpt>
      <trkpt lat="47.20886" lon="-0.73324">
        <ele>88.5787354</ele>
        <time>2012-08-24T13:10:54Z</time>
      </trkpt>
      <trkpt lat="47.20882" lon="-0.7335">
        <ele>88.0980225</ele>
        <time>2012-08-24T13:11:01Z</time>
      </trkpt>
      <trkpt lat="47.20878" lon="-0.73371">
        <ele>88.5787354</ele>
        <time>2012-08-24T13:11:07Z</time>
      </trkpt>
      <trkpt lat="47.20869" lon="-0.73378">
        <ele>88.5787354</ele>
        <time>2012-08-24T13:11:11Z</time>
      </trkpt>
      <trkpt lat="47.20852" lon="-0.73375">
        <ele>89.539917</ele>
        <time>2012-08-24T13:11:17Z</time>
      </trkpt>
      <trkpt lat="47.20828" lon="-0.73366">
        <ele>89.0593262</ele>
        <time>2012-08-24T13:11:24Z</time>
      </trkpt>
      <trkpt lat="47.20803" lon="-0.73363">
        <ele>89.539917</ele>
        <time>2012-08-24T13:11:31Z</time>
      </trkpt>
      <trkpt lat="47.20773" lon="-0.73366">
        <ele>89.539917</ele>
        <time>2012-08-24T13:11:39Z</time>
      </trkpt>
      <trkpt lat="47.20752" lon="-0.73371">
        <ele>90.0206299</ele>
        <time>2012-08-24T13:11:46Z</time>
      </trkpt>
      <trkpt lat="47.20729" lon="-0.7338">
        <ele>89.539917</ele>
        <time>2012-08-24T13:11:54Z</time>
      </trkpt>
      <trkpt lat="47.20702" lon="-0.73388">
        <ele>89.539917</ele>
        <time>2012-08-24T13:12:03Z</time>
      </trkpt>
      <trkpt lat="47.20681" lon="-0.73397">
        <ele>91.4625244</ele>
        <time>2012-08-24T13:12:10Z</time>
      </trkpt>
      <trkpt lat="47.20651" lon="-0.7341">
        <ele>92.904541</ele>
        <time>2012-08-24T13:12:19Z</time>
      </trkpt>
      <trkpt lat="47.20627" lon="-0.73421">
        <ele>94.3465576</ele>
        <time>2012-08-24T13:12:26Z</time>
      </trkpt>
      <trkpt lat="47.20609" lon="-0.73441">
        <ele>95.3077393</ele>
        <time>2012-08-24T13:12:32Z</time>
      </trkpt>
      <trkpt lat="47.20585" lon="-0.73479">
        <ele>96.7498779</ele>
        <time>2012-08-24T13:12:42Z</time>
      </trkpt>
      <trkpt lat="47.20564" lon="-0.73509">
        <ele>96.7498779</ele>
        <time>2012-08-24T13:12:50Z</time>
      </trkpt>
      <trkpt lat="47.2054" lon="-0.73542">
        <ele>96.7498779</ele>
        <time>2012-08-24T13:12:59Z</time>
      </trkpt>
      <trkpt lat="47.20512" lon="-0.73581">
        <ele>94.8271484</ele>
        <time>2012-08-24T13:13:09Z</time>
      </trkpt>
      <trkpt lat="47.20497" lon="-0.73603">
        <ele>94.3465576</ele>
        <time>2012-08-24T13:13:15Z</time>
      </trkpt>
      <trkpt lat="47.20481" lon="-0.73628">
        <ele>98.1918945</ele>
        <time>2012-08-24T13:13:21Z</time>
      </trkpt>
      <trkpt lat="47.20461" lon="-0.73656">
        <ele>98.6724854</ele>
        <time>2012-08-24T13:13:28Z</time>
      </trkpt>
      <trkpt lat="47.2044" lon="-0.73688">
        <ele>99.6337891</ele>
        <time>2012-08-24T13:13:35Z</time>
      </trkpt>
      <trkpt lat="47.20424" lon="-0.73723">
        <ele>102.0371094</ele>
        <time>2012-08-24T13:13:42Z</time>
      </trkpt>
      <trkpt lat="47.20406" lon="-0.73756">
        <ele>99.6337891</ele>
        <time>2012-08-24T13:13:48Z</time>
      </trkpt>
      <trkpt lat="47.20387" lon="-0.73795">
        <ele>100.114502</ele>
        <time>2012-08-24T13:13:55Z</time>
      </trkpt>
      <trkpt lat="47.20368" lon="-0.73835">
        <ele>97.7111816</ele>
        <time>2012-08-24T13:14:02Z</time>
      </trkpt>
      <trkpt lat="47.20357" lon="-0.7386">
        <ele>95.7884521</ele>
        <time>2012-08-24T13:14:06Z</time>
      </trkpt>
      <trkpt lat="47.20345" lon="-0.73892">
        <ele>94.3465576</ele>
        <time>2012-08-24T13:14:11Z</time>
      </trkpt>
      <trkpt lat="47.20341" lon="-0.73906">
        <ele>92.4239502</ele>
        <time>2012-08-24T13:14:16Z</time>
      </trkpt>
      <trkpt lat="47.20341" lon="-0.73907">
        <ele>92.4239502</ele>
        <time>2012-08-24T13:14:17Z</time>
      </trkpt>
      <trkpt lat="47.20339" lon="-0.73908">
        <ele>92.4239502</ele>
        <time>2012-08-24T13:14:19Z</time>
      </trkpt>
      <trkpt lat="47.20323" lon="-0.73903">
        <ele>90.5013428</ele>
        <time>2012-08-24T13:14:25Z</time>
      </trkpt>
      <trkpt lat="47.2031" lon="-0.73888">
        <ele>88.0980225</ele>
        <time>2012-08-24T13:14:28Z</time>
      </trkpt>
      <trkpt lat="47.20294" lon="-0.73867">
        <ele>87.1365967</ele>
        <time>2012-08-24T13:14:32Z</time>
      </trkpt>
      <trkpt lat="47.20285" lon="-0.73854">
        <ele>86.175293</ele>
        <time>2012-08-24T13:14:36Z</time>
      </trkpt>
      <trkpt lat="47.20278" lon="-0.73846">
        <ele>83.2913818</ele>
        <time>2012-08-24T13:14:38Z</time>
      </trkpt>
      <trkpt lat="47.20264" lon="-0.73835">
        <ele>78.9654541</ele>
        <time>2012-08-24T13:14:41Z</time>
      </trkpt>
      <trkpt lat="47.20257" lon="-0.73825">
        <ele>77.0428467</ele>
        <time>2012-08-24T13:14:43Z</time>
      </trkpt>
      <trkpt lat="47.20249" lon="-0.73813">
        <ele>74.1588135</ele>
        <time>2012-08-24T13:14:45Z</time>
      </trkpt>
      <trkpt lat="47.20229" lon="-0.73798">
        <ele>73.6782227</ele>
        <time>2012-08-24T13:14:50Z</time>
      </trkpt>
      <trkpt lat="47.20223" lon="-0.73809">
        <ele>75.1202393</ele>
        <time>2012-08-24T13:14:53Z</time>
      </trkpt>
      <trkpt lat="47.20216" lon="-0.7383">
        <ele>73.6782227</ele>
        <time>2012-08-24T13:14:56Z</time>
      </trkpt>
      <trkpt lat="47.20203" lon="-0.73868">
        <ele>71.7554932</ele>
        <time>2012-08-24T13:15:01Z</time>
      </trkpt>
      <trkpt lat="47.20188" lon="-0.73909">
        <ele>73.6782227</ele>
        <time>2012-08-24T13:15:07Z</time>
      </trkpt>
      <trkpt lat="47.20192" lon="-0.7394">
        <ele>72.2362061</ele>
        <time>2012-08-24T13:15:12Z</time>
      </trkpt>
      <trkpt lat="47.20195" lon="-0.73944">
        <ele>71.7554932</ele>
        <time>2012-08-24T13:15:13Z</time>
      </trkpt>
      <trkpt lat="47.2021" lon="-0.73961">
        <ele>71.2749023</ele>
        <time>2012-08-24T13:15:17Z</time>
      </trkpt>
      <trkpt lat="47.20219" lon="-0.73974">
        <ele>70.3134766</ele>
        <time>2012-08-24T13:15:20Z</time>
      </trkpt>
      <trkpt lat="47.20222" lon="-0.73995">
        <ele>71.2749023</ele>
        <time>2012-08-24T13:15:24Z</time>
      </trkpt>
      <trkpt lat="47.2022" lon="-0.74009">
        <ele>71.7554932</ele>
        <time>2012-08-24T13:15:26Z</time>
      </trkpt>
      <trkpt lat="47.20212" lon="-0.7405">
        <ele>79.9266357</ele>
        <time>2012-08-24T13:15:32Z</time>
      </trkpt>
      <trkpt lat="47.20209" lon="-0.74068">
        <ele>85.2139893</ele>
        <time>2012-08-24T13:15:35Z</time>
      </trkpt>
      <trkpt lat="47.202" lon="-0.74095">
        <ele>89.0593262</ele>
        <time>2012-08-24T13:15:40Z</time>
      </trkpt>
      <trkpt lat="47.20192" lon="-0.74117">
        <ele>94.3465576</ele>
        <time>2012-08-24T13:15:44Z</time>
      </trkpt>
      <trkpt lat="47.20187" lon="-0.74128">
        <ele>95.3077393</ele>
        <time>2012-08-24T13:15:46Z</time>
      </trkpt>
      <trkpt lat="47.2018" lon="-0.74145">
        <ele>95.3077393</ele>
        <time>2012-08-24T13:15:49Z</time>
      </trkpt>
      <trkpt lat="47.20172" lon="-0.74162">
        <ele>98.6724854</ele>
        <time>2012-08-24T13:15:53Z</time>
      </trkpt>
      <trkpt lat="47.20155" lon="-0.7419">
        <ele>99.1530762</ele>
        <time>2012-08-24T13:15:59Z</time>
      </trkpt>
      <trkpt lat="47.20138" lon="-0.74211">
        <ele>98.1918945</ele>
        <time>2012-08-24T13:16:03Z</time>
      </trkpt>
      <trkpt lat="47.2013" lon="-0.74218">
        <ele>98.6724854</ele>
        <time>2012-08-24T13:16:05Z</time>
      </trkpt>
      <trkpt lat="47.20123" lon="-0.74221">
        <ele>97.7111816</ele>
        <time>2012-08-24T13:16:07Z</time>
      </trkpt>
      <trkpt lat="47.2011" lon="-0.74217">
        <ele>89.0593262</ele>
        <time>2012-08-24T13:16:12Z</time>
      </trkpt>
      <trkpt lat="47.20106" lon="-0.74202">
        <ele>84.2526855</ele>
        <time>2012-08-24T13:16:17Z</time>
      </trkpt>
      <trkpt lat="47.20111" lon="-0.74182">
        <ele>83.7719727</ele>
        <time>2012-08-24T13:16:23Z</time>
      </trkpt>
      <trkpt lat="47.20124" lon="-0.74148">
        <ele>79.4460449</ele>
        <time>2012-08-24T13:16:30Z</time>
      </trkpt>
      <trkpt lat="47.20136" lon="-0.74123">
        <ele>76.5621338</ele>
        <time>2012-08-24T13:16:35Z</time>
      </trkpt>
      <trkpt lat="47.20146" lon="-0.74095">
        <ele>74.6395264</ele>
        <time>2012-08-24T13:16:41Z</time>
      </trkpt>
      <trkpt lat="47.20159" lon="-0.74063">
        <ele>76.5621338</ele>
        <time>2012-08-24T13:16:48Z</time>
      </trkpt>
      <trkpt lat="47.20163" lon="-0.74041">
        <ele>73.6782227</ele>
        <time>2012-08-24T13:16:53Z</time>
      </trkpt>
      <trkpt lat="47.2016" lon="-0.74019">
        <ele>71.2749023</ele>
        <time>2012-08-24T13:16:58Z</time>
      </trkpt>
      <trkpt lat="47.2015" lon="-0.73989">
        <ele>68.871582</ele>
        <time>2012-08-24T13:17:04Z</time>
      </trkpt>
      <trkpt lat="47.20144" lon="-0.73954">
        <ele>68.3908691</ele>
        <time>2012-08-24T13:17:10Z</time>
      </trkpt>
      <trkpt lat="47.20141" lon="-0.7394">
        <ele>68.3908691</ele>
        <time>2012-08-24T13:17:13Z</time>
      </trkpt>
      <trkpt lat="47.20131" lon="-0.73927">
        <ele>67.9102783</ele>
        <time>2012-08-24T13:17:19Z</time>
      </trkpt>
      <trkpt lat="47.20123" lon="-0.73919">
        <ele>67.9102783</ele>
        <time>2012-08-24T13:17:24Z</time>
      </trkpt>
      <trkpt lat="47.20114" lon="-0.73909">
        <ele>68.3908691</ele>
        <time>2012-08-24T13:17:30Z</time>
      </trkpt>
      <trkpt lat="47.20109" lon="-0.73901">
        <ele>67.4296875</ele>
        <time>2012-08-24T13:17:34Z</time>
      </trkpt>
      <trkpt lat="47.20104" lon="-0.73892">
        <ele>67.9102783</ele>
        <time>2012-08-24T13:17:38Z</time>
      </trkpt>
      <trkpt lat="47.20101" lon="-0.73886">
        <ele>67.4296875</ele>
        <time>2012-08-24T13:17:42Z</time>
      </trkpt>
      <trkpt lat="47.20095" lon="-0.73875">
        <ele>70.7941895</ele>
        <time>2012-08-24T13:17:49Z</time>
      </trkpt>
      <trkpt lat="47.20088" lon="-0.7386">
        <ele>72.2362061</ele>
        <time>2012-08-24T13:17:56Z</time>
      </trkpt>
      <trkpt lat="47.20083" lon="-0.73848">
        <ele>74.1588135</ele>
        <time>2012-08-24T13:18:02Z</time>
      </trkpt>
      <trkpt lat="47.20081" lon="-0.73838">
        <ele>75.6008301</ele>
        <time>2012-08-24T13:18:06Z</time>
      </trkpt>
      <trkpt lat="47.20084" lon="-0.73822">
        <ele>77.5234375</ele>
        <time>2012-08-24T13:18:14Z</time>
      </trkpt>
      <trkpt lat="47.20087" lon="-0.73804">
        <ele>77.5234375</ele>
        <time>2012-08-24T13:18:21Z</time>
      </trkpt>
      <trkpt lat="47.20093" lon="-0.73778">
        <ele>83.2913818</ele>
        <time>2012-08-24T13:18:28Z</time>
      </trkpt>
      <trkpt lat="47.20102" lon="-0.73741">
        <ele>85.2139893</ele>
        <time>2012-08-24T13:18:35Z</time>
      </trkpt>
      <trkpt lat="47.20104" lon="-0.73713">
        <ele>80.8881836</ele>
        <time>2012-08-24T13:18:40Z</time>
      </trkpt>
      <trkpt lat="47.20105" lon="-0.73685">
        <ele>76.5621338</ele>
        <time>2012-08-24T13:18:45Z</time>
      </trkpt>
      <trkpt lat="47.2011" lon="-0.7366">
        <ele>76.5621338</ele>
        <time>2012-08-24T13:18:50Z</time>
      </trkpt>
      <trkpt lat="47.20123" lon="-0.73631">
        <ele>78.0040283</ele>
        <time>2012-08-24T13:18:55Z</time>
      </trkpt>
      <trkpt lat="47.20128" lon="-0.73618">
        <ele>78.0040283</ele>
        <time>2012-08-24T13:18:57Z</time>
      </trkpt>
      <trkpt lat="47.20146" lon="-0.73562">
        <ele>81.3687744</ele>
        <time>2012-08-24T13:19:05Z</time>
      </trkpt>
      <trkpt lat="47.20141" lon="-0.73537">
        <ele>78.9654541</ele>
        <time>2012-08-24T13:19:09Z</time>
      </trkpt>
      <trkpt lat="47.20138" lon="-0.73532">
        <ele>78.9654541</ele>
        <time>2012-08-24T13:19:10Z</time>
      </trkpt>
      <trkpt lat="47.20106" lon="-0.73501">
        <ele>79.4460449</ele>
        <time>2012-08-24T13:19:18Z</time>
      </trkpt>
      <trkpt lat="47.20097" lon="-0.73492">
        <ele>80.4074707</ele>
        <time>2012-08-24T13:19:20Z</time>
      </trkpt>
      <trkpt lat="47.20077" lon="-0.73487">
        <ele>79.4460449</ele>
        <time>2012-08-24T13:19:24Z</time>
      </trkpt>
      <trkpt lat="47.20047" lon="-0.73496">
        <ele>80.8881836</ele>
        <time>2012-08-24T13:19:31Z</time>
      </trkpt>
      <trkpt lat="47.20043" lon="-0.73497">
        <ele>81.3687744</ele>
        <time>2012-08-24T13:19:32Z</time>
      </trkpt>
      <trkpt lat="47.20025" lon="-0.73504">
        <ele>85.2139893</ele>
        <time>2012-08-24T13:19:39Z</time>
      </trkpt>
      <trkpt lat="47.20014" lon="-0.73514">
        <ele>87.6171875</ele>
        <time>2012-08-24T13:19:43Z</time>
      </trkpt>
      <trkpt lat="47.20008" lon="-0.7352">
        <ele>88.5787354</ele>
        <time>2012-08-24T13:19:47Z</time>
      </trkpt>
      <trkpt lat="47.20006" lon="-0.73522">
        <ele>89.539917</ele>
        <time>2012-08-24T13:19:50Z</time>
      </trkpt>
      <trkpt lat="47.20001" lon="-0.73528">
        <ele>89.0593262</ele>
        <time>2012-08-24T13:19:55Z</time>
      </trkpt>
      <trkpt lat="47.19998" lon="-0.73532">
        <ele>89.539917</ele>
        <time>2012-08-24T13:19:58Z</time>
      </trkpt>
      <trkpt lat="47.1999" lon="-0.73545">
        <ele>89.539917</ele>
        <time>2012-08-24T13:20:04Z</time>
      </trkpt>
      <trkpt lat="47.19982" lon="-0.73556">
        <ele>90.5013428</ele>
        <time>2012-08-24T13:20:09Z</time>
      </trkpt>
      <trkpt lat="47.19974" lon="-0.73566">
        <ele>91.9432373</ele>
        <time>2012-08-24T13:20:14Z</time>
      </trkpt>
      <trkpt lat="47.19961" lon="-0.73586">
        <ele>89.0593262</ele>
        <time>2012-08-24T13:20:20Z</time>
      </trkpt>
      <trkpt lat="47.19951" lon="-0.73603">
        <ele>90.0206299</ele>
        <time>2012-08-24T13:20:26Z</time>
      </trkpt>
      <trkpt lat="47.19943" lon="-0.73618">
        <ele>92.904541</ele>
        <time>2012-08-24T13:20:32Z</time>
      </trkpt>
      <trkpt lat="47.19934" lon="-0.73639">
        <ele>97.2304688</ele>
        <time>2012-08-24T13:20:40Z</time>
      </trkpt>
      <trkpt lat="47.19923" lon="-0.73658">
        <ele>93.3851318</ele>
        <time>2012-08-24T13:20:46Z</time>
      </trkpt>
      <trkpt lat="47.19915" lon="-0.73674">
        <ele>90.5013428</ele>
        <time>2012-08-24T13:20:51Z</time>
      </trkpt>
      <trkpt lat="47.19908" lon="-0.73691">
        <ele>90.5013428</ele>
        <time>2012-08-24T13:20:56Z</time>
      </trkpt>
      <trkpt lat="47.19901" lon="-0.73711">
        <ele>92.4239502</ele>
        <time>2012-08-24T13:21:03Z</time>
      </trkpt>
      <trkpt lat="47.19897" lon="-0.73726">
        <ele>95.3077393</ele>
        <time>2012-08-24T13:21:09Z</time>
      </trkpt>
      <trkpt lat="47.1989" lon="-0.73741">
        <ele>95.7884521</ele>
        <time>2012-08-24T13:21:15Z</time>
      </trkpt>
      <trkpt lat="47.19883" lon="-0.73757">
        <ele>94.8271484</ele>
        <time>2012-08-24T13:21:21Z</time>
      </trkpt>
      <trkpt lat="47.19877" lon="-0.73774">
        <ele>95.7884521</ele>
        <time>2012-08-24T13:21:27Z</time>
      </trkpt>
      <trkpt lat="47.1987" lon="-0.73793">
        <ele>99.6337891</ele>
        <time>2012-08-24T13:21:33Z</time>
      </trkpt>
      <trkpt lat="47.19861" lon="-0.73811">
        <ele>97.7111816</ele>
        <time>2012-08-24T13:21:40Z</time>
      </trkpt>
      <trkpt lat="47.1985" lon="-0.73836">
        <ele>97.2304688</ele>
        <time>2012-08-24T13:21:49Z</time>
      </trkpt>
      <trkpt lat="47.19845" lon="-0.73848">
        <ele>97.2304688</ele>
        <time>2012-08-24T13:21:54Z</time>
      </trkpt>
      <trkpt lat="47.19839" lon="-0.7386">
        <ele>99.1530762</ele>
        <time>2012-08-24T13:22:00Z</time>
      </trkpt>
      <trkpt lat="47.19827" lon="-0.7388">
        <ele>102.0371094</ele>
        <time>2012-08-24T13:22:07Z</time>
      </trkpt>
      <trkpt lat="47.19816" lon="-0.73896">
        <ele>102.998291</ele>
        <time>2012-08-24T13:22:13Z</time>
      </trkpt>
      <trkpt lat="47.19802" lon="-0.73915">
        <ele>102.998291</ele>
        <time>2012-08-24T13:22:20Z</time>
      </trkpt>
      <trkpt lat="47.19789" lon="-0.73932">
        <ele>100.5950928</ele>
        <time>2012-08-24T13:22:25Z</time>
      </trkpt>
      <trkpt lat="47.19768" lon="-0.73956">
        <ele>101.5563965</ele>
        <time>2012-08-24T13:22:31Z</time>
      </trkpt>
      <trkpt lat="47.19755" lon="-0.73975">
        <ele>101.0756836</ele>
        <time>2012-08-24T13:22:34Z</time>
      </trkpt>
      <trkpt lat="47.19737" lon="-0.73994">
        <ele>98.6724854</ele>
        <time>2012-08-24T13:22:38Z</time>
      </trkpt>
      <trkpt lat="47.19728" lon="-0.74008">
        <ele>99.6337891</ele>
        <time>2012-08-24T13:22:40Z</time>
      </trkpt>
      <trkpt lat="47.1971" lon="-0.74037">
        <ele>96.7498779</ele>
        <time>2012-08-24T13:22:44Z</time>
      </trkpt>
      <trkpt lat="47.19694" lon="-0.74066">
        <ele>83.7719727</ele>
        <time>2012-08-24T13:22:48Z</time>
      </trkpt>
      <trkpt lat="47.19688" lon="-0.74088">
        <ele>81.8493652</ele>
        <time>2012-08-24T13:22:51Z</time>
      </trkpt>
      <trkpt lat="47.19681" lon="-0.74136">
        <ele>90.5013428</ele>
        <time>2012-08-24T13:22:56Z</time>
      </trkpt>
      <trkpt lat="47.19669" lon="-0.74169">
        <ele>90.5013428</ele>
        <time>2012-08-24T13:23:03Z</time>
      </trkpt>
      <trkpt lat="47.19668" lon="-0.74176">
        <ele>87.1365967</ele>
        <time>2012-08-24T13:23:08Z</time>
      </trkpt>
      <trkpt lat="47.19667" lon="-0.74179">
        <ele>82.3300781</ele>
        <time>2012-08-24T13:23:11Z</time>
      </trkpt>
      <trkpt lat="47.19665" lon="-0.74185">
        <ele>79.9266357</ele>
        <time>2012-08-24T13:23:17Z</time>
      </trkpt>
      <trkpt lat="47.19662" lon="-0.74194">
        <ele>78.9654541</ele>
        <time>2012-08-24T13:23:21Z</time>
      </trkpt>
      <trkpt lat="47.19656" lon="-0.74201">
        <ele>79.4460449</ele>
        <time>2012-08-24T13:23:26Z</time>
      </trkpt>
      <trkpt lat="47.19653" lon="-0.74203">
        <ele>78.4847412</ele>
        <time>2012-08-24T13:23:31Z</time>
      </trkpt>
      <trkpt lat="47.19649" lon="-0.74206">
        <ele>77.5234375</ele>
        <time>2012-08-24T13:23:36Z</time>
      </trkpt>
      <trkpt lat="47.19642" lon="-0.74208">
        <ele>77.5234375</ele>
        <time>2012-08-24T13:23:40Z</time>
      </trkpt>
      <trkpt lat="47.19629" lon="-0.74208">
        <ele>76.5621338</ele>
        <time>2012-08-24T13:23:46Z</time>
      </trkpt>
      <trkpt lat="47.19617" lon="-0.74219">
        <ele>77.5234375</ele>
        <time>2012-08-24T13:23:53Z</time>
      </trkpt>
      <trkpt lat="47.19604" lon="-0.74235">
        <ele>80.4074707</ele>
        <time>2012-08-24T13:24:00Z</time>
      </trkpt>
      <trkpt lat="47.19594" lon="-0.74247">
        <ele>79.4460449</ele>
        <time>2012-08-24T13:24:05Z</time>
      </trkpt>
      <trkpt lat="47.19584" lon="-0.74258">
        <ele>83.2913818</ele>
        <time>2012-08-24T13:24:11Z</time>
      </trkpt>
      <trkpt lat="47.19572" lon="-0.74273">
        <ele>83.7719727</ele>
        <time>2012-08-24T13:24:18Z</time>
      </trkpt>
      <trkpt lat="47.19564" lon="-0.74282">
        <ele>80.8881836</ele>
        <time>2012-08-24T13:24:24Z</time>
      </trkpt>
      <trkpt lat="47.19554" lon="-0.74294">
        <ele>82.810791</ele>
        <time>2012-08-24T13:24:32Z</time>
      </trkpt>
      <trkpt lat="47.19545" lon="-0.74303">
        <ele>84.2526855</ele>
        <time>2012-08-24T13:24:38Z</time>
      </trkpt>
      <trkpt lat="47.19536" lon="-0.74312">
        <ele>85.6945801</ele>
        <time>2012-08-24T13:24:44Z</time>
      </trkpt>
      <trkpt lat="47.19526" lon="-0.74319">
        <ele>86.175293</ele>
        <time>2012-08-24T13:24:51Z</time>
      </trkpt>
      <trkpt lat="47.19513" lon="-0.74324">
        <ele>85.6945801</ele>
        <time>2012-08-24T13:24:59Z</time>
      </trkpt>
      <trkpt lat="47.19506" lon="-0.74328">
        <ele>87.6171875</ele>
        <time>2012-08-24T13:25:04Z</time>
      </trkpt>
      <trkpt lat="47.19495" lon="-0.74332">
        <ele>88.0980225</ele>
        <time>2012-08-24T13:25:10Z</time>
      </trkpt>
      <trkpt lat="47.19476" lon="-0.74339">
        <ele>88.0980225</ele>
        <time>2012-08-24T13:25:19Z</time>
      </trkpt>
      <trkpt lat="47.19459" lon="-0.74346">
        <ele>88.0980225</ele>
        <time>2012-08-24T13:25:27Z</time>
      </trkpt>
      <trkpt lat="47.19442" lon="-0.74354">
        <ele>88.0980225</ele>
        <time>2012-08-24T13:25:35Z</time>
      </trkpt>
      <trkpt lat="47.19431" lon="-0.74364">
        <ele>87.6171875</ele>
        <time>2012-08-24T13:25:42Z</time>
      </trkpt>
      <trkpt lat="47.19419" lon="-0.74376">
        <ele>86.175293</ele>
        <time>2012-08-24T13:25:50Z</time>
      </trkpt>
      <trkpt lat="47.19403" lon="-0.74393">
        <ele>89.0593262</ele>
        <time>2012-08-24T13:25:58Z</time>
      </trkpt>
      <trkpt lat="47.19386" lon="-0.74411">
        <ele>90.5013428</ele>
        <time>2012-08-24T13:26:06Z</time>
      </trkpt>
      <trkpt lat="47.19363" lon="-0.74436">
        <ele>92.4239502</ele>
        <time>2012-08-24T13:26:16Z</time>
      </trkpt>
      <trkpt lat="47.19347" lon="-0.74453">
        <ele>92.4239502</ele>
        <time>2012-08-24T13:26:23Z</time>
      </trkpt>
      <trkpt lat="47.19326" lon="-0.74474">
        <ele>91.9432373</ele>
        <time>2012-08-24T13:26:32Z</time>
      </trkpt>
      <trkpt lat="47.19305" lon="-0.74498">
        <ele>94.3465576</ele>
        <time>2012-08-24T13:26:41Z</time>
      </trkpt>
      <trkpt lat="47.19289" lon="-0.74517">
        <ele>98.6724854</ele>
        <time>2012-08-24T13:26:48Z</time>
      </trkpt>
      <trkpt lat="47.19272" lon="-0.74534">
        <ele>101.0756836</ele>
        <time>2012-08-24T13:26:56Z</time>
      </trkpt>
      <trkpt lat="47.19257" lon="-0.7455">
        <ele>101.5563965</ele>
        <time>2012-08-24T13:27:03Z</time>
      </trkpt>
      <trkpt lat="47.19247" lon="-0.74562">
        <ele>103.4790039</ele>
        <time>2012-08-24T13:27:08Z</time>
      </trkpt>
      <trkpt lat="47.19235" lon="-0.74579">
        <ele>102.5177002</ele>
        <time>2012-08-24T13:27:15Z</time>
      </trkpt>
      <trkpt lat="47.19227" lon="-0.74591">
        <ele>102.5177002</ele>
        <time>2012-08-24T13:27:20Z</time>
      </trkpt>
      <trkpt lat="47.19219" lon="-0.74602">
        <ele>104.9210205</ele>
        <time>2012-08-24T13:27:24Z</time>
      </trkpt>
      <trkpt lat="47.19209" lon="-0.74614">
        <ele>104.4404297</ele>
        <time>2012-08-24T13:27:29Z</time>
      </trkpt>
      <trkpt lat="47.19197" lon="-0.74629">
        <ele>103.9597168</ele>
        <time>2012-08-24T13:27:35Z</time>
      </trkpt>
      <trkpt lat="47.19182" lon="-0.74645">
        <ele>106.8436279</ele>
        <time>2012-08-24T13:27:42Z</time>
      </trkpt>
      <trkpt lat="47.19163" lon="-0.74665">
        <ele>110.208252</ele>
        <time>2012-08-24T13:27:50Z</time>
      </trkpt>
      <trkpt lat="47.19137" lon="-0.74693">
        <ele>109.7276611</ele>
        <time>2012-08-24T13:28:00Z</time>
      </trkpt>
      <trkpt lat="47.19104" lon="-0.74731">
        <ele>110.6888428</ele>
        <time>2012-08-24T13:28:12Z</time>
      </trkpt>
      <trkpt lat="47.19083" lon="-0.74754">
        <ele>110.208252</ele>
        <time>2012-08-24T13:28:19Z</time>
      </trkpt>
      <trkpt lat="47.19054" lon="-0.74784">
        <ele>112.6115723</ele>
        <time>2012-08-24T13:28:29Z</time>
      </trkpt>
      <trkpt lat="47.19027" lon="-0.74811">
        <ele>115.0148926</ele>
        <time>2012-08-24T13:28:38Z</time>
      </trkpt>
      <trkpt lat="47.19004" lon="-0.74836">
        <ele>116.9375</ele>
        <time>2012-08-24T13:28:46Z</time>
      </trkpt>
      <trkpt lat="47.18985" lon="-0.74854">
        <ele>116.9375</ele>
        <time>2012-08-24T13:28:52Z</time>
      </trkpt>
      <trkpt lat="47.1896" lon="-0.74873">
        <ele>117.4182129</ele>
        <time>2012-08-24T13:29:00Z</time>
      </trkpt>
      <trkpt lat="47.18932" lon="-0.74893">
        <ele>117.4182129</ele>
        <time>2012-08-24T13:29:09Z</time>
      </trkpt>
      <trkpt lat="47.18902" lon="-0.74914">
        <ele>117.4182129</ele>
        <time>2012-08-24T13:29:19Z</time>
      </trkpt>
      <trkpt lat="47.18873" lon="-0.74934">
        <ele>116.4567871</ele>
        <time>2012-08-24T13:29:29Z</time>
      </trkpt>
      <trkpt lat="47.18851" lon="-0.7495">
        <ele>113.572998</ele>
        <time>2012-08-24T13:29:36Z</time>
      </trkpt>
      <trkpt lat="47.18834" lon="-0.74969">
        <ele>110.6888428</ele>
        <time>2012-08-24T13:29:42Z</time>
      </trkpt>
      <trkpt lat="47.18802" lon="-0.74982">
        <ele>108.7662354</ele>
        <time>2012-08-24T13:29:51Z</time>
      </trkpt>
      <trkpt lat="47.18772" lon="-0.74994">
        <ele>107.8050537</ele>
        <time>2012-08-24T13:29:59Z</time>
      </trkpt>
      <trkpt lat="47.18732" lon="-0.75011">
        <ele>105.4017334</ele>
        <time>2012-08-24T13:30:09Z</time>
      </trkpt>
      <trkpt lat="47.18703" lon="-0.75022">
        <ele>104.9210205</ele>
        <time>2012-08-24T13:30:16Z</time>
      </trkpt>
      <trkpt lat="47.18664" lon="-0.75034">
        <ele>102.998291</ele>
        <time>2012-08-24T13:30:25Z</time>
      </trkpt>
      <trkpt lat="47.18621" lon="-0.75046">
        <ele>102.5177002</ele>
        <time>2012-08-24T13:30:35Z</time>
      </trkpt>
      <trkpt lat="47.18589" lon="-0.75058">
        <ele>100.114502</ele>
        <time>2012-08-24T13:30:43Z</time>
      </trkpt>
      <trkpt lat="47.18564" lon="-0.75072">
        <ele>99.6337891</ele>
        <time>2012-08-24T13:30:50Z</time>
      </trkpt>
      <trkpt lat="47.18538" lon="-0.75081">
        <ele>100.114502</ele>
        <time>2012-08-24T13:30:58Z</time>
      </trkpt>
      <trkpt lat="47.18506" lon="-0.75094">
        <ele>100.5950928</ele>
        <time>2012-08-24T13:31:08Z</time>
      </trkpt>
      <trkpt lat="47.18477" lon="-0.75105">
        <ele>101.5563965</ele>
        <time>2012-08-24T13:31:17Z</time>
      </trkpt>
      <trkpt lat="47.18441" lon="-0.75117">
        <ele>103.9597168</ele>
        <time>2012-08-24T13:31:29Z</time>
      </trkpt>
      <trkpt lat="47.18421" lon="-0.75125">
        <ele>104.9210205</ele>
        <time>2012-08-24T13:31:36Z</time>
      </trkpt>
      <trkpt lat="47.18401" lon="-0.75132">
        <ele>104.9210205</ele>
        <time>2012-08-24T13:31:43Z</time>
      </trkpt>
      <trkpt lat="47.18383" lon="-0.7514">
        <ele>103.4790039</ele>
        <time>2012-08-24T13:31:49Z</time>
      </trkpt>
      <trkpt lat="47.18357" lon="-0.75149">
        <ele>103.4790039</ele>
        <time>2012-08-24T13:31:58Z</time>
      </trkpt>
      <trkpt lat="47.18327" lon="-0.75159">
        <ele>103.4790039</ele>
        <time>2012-08-24T13:32:07Z</time>
      </trkpt>
      <trkpt lat="47.18311" lon="-0.75165">
        <ele>102.998291</ele>
        <time>2012-08-24T13:32:12Z</time>
      </trkpt>
      <trkpt lat="47.1827" lon="-0.75181">
        <ele>102.998291</ele>
        <time>2012-08-24T13:32:24Z</time>
      </trkpt>
      <trkpt lat="47.18249" lon="-0.7519">
        <ele>102.5177002</ele>
        <time>2012-08-24T13:32:30Z</time>
      </trkpt>
      <trkpt lat="47.1823" lon="-0.752">
        <ele>101.5563965</ele>
        <time>2012-08-24T13:32:35Z</time>
      </trkpt>
      <trkpt lat="47.1821" lon="-0.7521">
        <ele>101.0756836</ele>
        <time>2012-08-24T13:32:40Z</time>
      </trkpt>
      <trkpt lat="47.18182" lon="-0.75223">
        <ele>100.5950928</ele>
        <time>2012-08-24T13:32:47Z</time>
      </trkpt>
      <trkpt lat="47.18149" lon="-0.75238">
        <ele>100.5950928</ele>
        <time>2012-08-24T13:32:56Z</time>
      </trkpt>
      <trkpt lat="47.18114" lon="-0.75255">
        <ele>100.5950928</ele>
        <time>2012-08-24T13:33:05Z</time>
      </trkpt>
      <trkpt lat="47.18091" lon="-0.75267">
        <ele>99.1530762</ele>
        <time>2012-08-24T13:33:11Z</time>
      </trkpt>
      <trkpt lat="47.18059" lon="-0.7528">
        <ele>97.7111816</ele>
        <time>2012-08-24T13:33:19Z</time>
      </trkpt>
      <trkpt lat="47.1803" lon="-0.75295">
        <ele>97.7111816</ele>
        <time>2012-08-24T13:33:26Z</time>
      </trkpt>
      <trkpt lat="47.1799" lon="-0.75319">
        <ele>98.6724854</ele>
        <time>2012-08-24T13:33:37Z</time>
      </trkpt>
      <trkpt lat="47.17961" lon="-0.75335">
        <ele>100.114502</ele>
        <time>2012-08-24T13:33:46Z</time>
      </trkpt>
      <trkpt lat="47.17934" lon="-0.75347">
        <ele>101.0756836</ele>
        <time>2012-08-24T13:33:56Z</time>
      </trkpt>
      <trkpt lat="47.17919" lon="-0.75363">
        <ele>101.5563965</ele>
        <time>2012-08-24T13:34:03Z</time>
      </trkpt>
      <trkpt lat="47.17904" lon="-0.75389">
        <ele>99.6337891</ele>
        <time>2012-08-24T13:34:09Z</time>
      </trkpt>
      <trkpt lat="47.17882" lon="-0.75425">
        <ele>97.7111816</ele>
        <time>2012-08-24T13:34:15Z</time>
      </trkpt>
      <trkpt lat="47.17853" lon="-0.75464">
        <ele>97.7111816</ele>
        <time>2012-08-24T13:34:22Z</time>
      </trkpt>
      <trkpt lat="47.17846" lon="-0.75473">
        <ele>97.7111816</ele>
        <time>2012-08-24T13:34:24Z</time>
      </trkpt>
      <trkpt lat="47.17829" lon="-0.75482">
        <ele>96.2692871</ele>
        <time>2012-08-24T13:34:29Z</time>
      </trkpt>
      <trkpt lat="47.17812" lon="-0.7549">
        <ele>97.2304688</ele>
        <time>2012-08-24T13:34:36Z</time>
      </trkpt>
      <trkpt lat="47.17799" lon="-0.75496">
        <ele>95.7884521</ele>
        <time>2012-08-24T13:34:42Z</time>
      </trkpt>
      <trkpt lat="47.17777" lon="-0.75505">
        <ele>95.7884521</ele>
        <time>2012-08-24T13:34:51Z</time>
      </trkpt>
      <trkpt lat="47.1775" lon="-0.75517">
        <ele>95.7884521</ele>
        <time>2012-08-24T13:35:02Z</time>
      </trkpt>
      <trkpt lat="47.17734" lon="-0.75525">
        <ele>95.3077393</ele>
        <time>2012-08-24T13:35:10Z</time>
      </trkpt>
      <trkpt lat="47.17722" lon="-0.75537">
        <ele>96.2692871</ele>
        <time>2012-08-24T13:35:17Z</time>
      </trkpt>
      <trkpt lat="47.17711" lon="-0.75545">
        <ele>98.1918945</ele>
        <time>2012-08-24T13:35:22Z</time>
      </trkpt>
      <trkpt lat="47.17692" lon="-0.75562">
        <ele>100.114502</ele>
        <time>2012-08-24T13:35:27Z</time>
      </trkpt>
      <trkpt lat="47.17678" lon="-0.75576">
        <ele>100.5950928</ele>
        <time>2012-08-24T13:35:30Z</time>
      </trkpt>
      <trkpt lat="47.17672" lon="-0.75582">
        <ele>100.114502</ele>
        <time>2012-08-24T13:35:31Z</time>
      </trkpt>
      <trkpt lat="47.17643" lon="-0.75615">
        <ele>101.5563965</ele>
        <time>2012-08-24T13:35:36Z</time>
      </trkpt>
      <trkpt lat="47.17614" lon="-0.75645">
        <ele>101.5563965</ele>
        <time>2012-08-24T13:35:41Z</time>
      </trkpt>
      <trkpt lat="47.17587" lon="-0.75672">
        <ele>100.114502</ele>
        <time>2012-08-24T13:35:47Z</time>
      </trkpt>
      <trkpt lat="47.17568" lon="-0.75692">
        <ele>99.1530762</ele>
        <time>2012-08-24T13:35:53Z</time>
      </trkpt>
      <trkpt lat="47.17555" lon="-0.75707">
        <ele>100.114502</ele>
        <time>2012-08-24T13:35:58Z</time>
      </trkpt>
      <trkpt lat="47.17541" lon="-0.75724">
        <ele>101.5563965</ele>
        <time>2012-08-24T13:36:04Z</time>
      </trkpt>
      <trkpt lat="47.1752" lon="-0.75749">
        <ele>103.4790039</ele>
        <time>2012-08-24T13:36:12Z</time>
      </trkpt>
      <trkpt lat="47.17507" lon="-0.75766">
        <ele>103.9597168</ele>
        <time>2012-08-24T13:36:18Z</time>
      </trkpt>
      <trkpt lat="47.17491" lon="-0.75779">
        <ele>104.9210205</ele>
        <time>2012-08-24T13:36:25Z</time>
      </trkpt>
      <trkpt lat="47.17468" lon="-0.75784">
        <ele>102.998291</ele>
        <time>2012-08-24T13:36:33Z</time>
      </trkpt>
      <trkpt lat="47.17439" lon="-0.75786">
        <ele>101.5563965</ele>
        <time>2012-08-24T13:36:42Z</time>
      </trkpt>
      <trkpt lat="47.17421" lon="-0.75784">
        <ele>101.0756836</ele>
        <time>2012-08-24T13:36:49Z</time>
      </trkpt>
      <trkpt lat="47.17392" lon="-0.75775">
        <ele>98.1918945</ele>
        <time>2012-08-24T13:37:00Z</time>
      </trkpt>
      <trkpt lat="47.17366" lon="-0.7576">
        <ele>96.7498779</ele>
        <time>2012-08-24T13:37:10Z</time>
      </trkpt>
      <trkpt lat="47.17339" lon="-0.75745">
        <ele>98.6724854</ele>
        <time>2012-08-24T13:37:21Z</time>
      </trkpt>
      <trkpt lat="47.17325" lon="-0.75738">
        <ele>99.6337891</ele>
        <time>2012-08-24T13:37:28Z</time>
      </trkpt>
      <trkpt lat="47.17309" lon="-0.75733">
        <ele>100.114502</ele>
        <time>2012-08-24T13:37:35Z</time>
      </trkpt>
      <trkpt lat="47.17283" lon="-0.75729">
        <ele>100.114502</ele>
        <time>2012-08-24T13:37:45Z</time>
      </trkpt>
      <trkpt lat="47.17263" lon="-0.75729">
        <ele>100.5950928</ele>
        <time>2012-08-24T13:37:53Z</time>
      </trkpt>
      <trkpt lat="47.17235" lon="-0.75728">
        <ele>102.5177002</ele>
        <time>2012-08-24T13:38:04Z</time>
      </trkpt>
      <trkpt lat="47.17216" lon="-0.75727">
        <ele>103.4790039</ele>
        <time>2012-08-24T13:38:12Z</time>
      </trkpt>
      <trkpt lat="47.17196" lon="-0.75726">
        <ele>103.9597168</ele>
        <time>2012-08-24T13:38:20Z</time>
      </trkpt>
      <trkpt lat="47.17174" lon="-0.75726">
        <ele>105.4017334</ele>
        <time>2012-08-24T13:38:29Z</time>
      </trkpt>
      <trkpt lat="47.17149" lon="-0.75727">
        <ele>106.8436279</ele>
        <time>2012-08-24T13:38:39Z</time>
      </trkpt>
      <trkpt lat="47.17118" lon="-0.75728">
        <ele>108.2856445</ele>
        <time>2012-08-24T13:38:51Z</time>
      </trkpt>
      <trkpt lat="47.17101" lon="-0.75729">
        <ele>109.2469482</ele>
        <time>2012-08-24T13:38:58Z</time>
      </trkpt>
      <trkpt lat="47.17075" lon="-0.7573">
        <ele>109.7276611</ele>
        <time>2012-08-24T13:39:08Z</time>
      </trkpt>
      <trkpt lat="47.17049" lon="-0.7573">
        <ele>110.208252</ele>
        <time>2012-08-24T13:39:18Z</time>
      </trkpt>
      <trkpt lat="47.17037" lon="-0.75732">
        <ele>110.6888428</ele>
        <time>2012-08-24T13:39:24Z</time>
      </trkpt>
      <trkpt lat="47.17028" lon="-0.75742">
        <ele>111.1695557</ele>
        <time>2012-08-24T13:39:30Z</time>
      </trkpt>
      <trkpt lat="47.1703" lon="-0.75763">
        <ele>111.6502686</ele>
        <time>2012-08-24T13:39:36Z</time>
      </trkpt>
      <trkpt lat="47.17033" lon="-0.75781">
        <ele>111.6502686</ele>
        <time>2012-08-24T13:39:42Z</time>
      </trkpt>
      <trkpt lat="47.17034" lon="-0.75781">
        <ele>112.1309814</ele>
        <time>2012-08-24T13:39:47Z</time>
      </trkpt>
      <trkpt lat="47.17033" lon="-0.75781">
        <ele>113.572998</ele>
        <time>2012-08-24T13:39:57Z</time>
      </trkpt>
      <trkpt lat="47.17033" lon="-0.7578">
        <ele>112.1309814</ele>
        <time>2012-08-24T13:40:09Z</time>
      </trkpt>
      <trkpt lat="47.17033" lon="-0.7578">
        <ele>112.1309814</ele>
        <time>2012-08-24T13:40:17Z</time>
      </trkpt>
      <trkpt lat="47.17033" lon="-0.75779">
        <ele>111.6502686</ele>
        <time>2012-08-24T13:40:25Z</time>
      </trkpt>
      <trkpt lat="47.17032" lon="-0.7578">
        <ele>112.1309814</ele>
        <time>2012-08-24T13:40:34Z</time>
      </trkpt>
      <trkpt lat="47.17032" lon="-0.75781">
        <ele>112.6115723</ele>
        <time>2012-08-24T13:40:40Z</time>
      </trkpt>
      <trkpt lat="47.17032" lon="-0.75781">
        <ele>113.572998</ele>
        <time>2012-08-24T13:40:56Z</time>
      </trkpt>
      <trkpt lat="47.17032" lon="-0.75786">
        <ele>114.0535889</ele>
        <time>2012-08-24T13:41:29Z</time>
      </trkpt>
      <trkpt lat="47.17034" lon="-0.758">
        <ele>114.0535889</ele>
        <time>2012-08-24T13:41:34Z</time>
      </trkpt>
      <trkpt lat="47.17037" lon="-0.75819">
        <ele>113.572998</ele>
        <time>2012-08-24T13:41:38Z</time>
      </trkpt>
      <trkpt lat="47.17046" lon="-0.75865">
        <ele>110.6888428</ele>
        <time>2012-08-24T13:41:45Z</time>
      </trkpt>
      <trkpt lat="47.17049" lon="-0.75883">
        <ele>109.2469482</ele>
        <time>2012-08-24T13:41:47Z</time>
      </trkpt>
      <trkpt lat="47.1706" lon="-0.75953">
        <ele>104.4404297</ele>
        <time>2012-08-24T13:41:54Z</time>
      </trkpt>
      <trkpt lat="47.17065" lon="-0.7598">
        <ele>102.998291</ele>
        <time>2012-08-24T13:41:57Z</time>
      </trkpt>
      <trkpt lat="47.17059" lon="-0.76005">
        <ele>102.998291</ele>
        <time>2012-08-24T13:42:01Z</time>
      </trkpt>
      <trkpt lat="47.17051" lon="-0.76007">
        <ele>102.0371094</ele>
        <time>2012-08-24T13:42:03Z</time>
      </trkpt>
      <trkpt lat="47.17028" lon="-0.76008">
        <ele>101.5563965</ele>
        <time>2012-08-24T13:42:08Z</time>
      </trkpt>
      <trkpt lat="47.17003" lon="-0.76013">
        <ele>101.0756836</ele>
        <time>2012-08-24T13:42:13Z</time>
      </trkpt>
      <trkpt lat="47.16967" lon="-0.76022">
        <ele>101.5563965</ele>
        <time>2012-08-24T13:42:21Z</time>
      </trkpt>
      <trkpt lat="47.16939" lon="-0.76033">
        <ele>101.5563965</ele>
        <time>2012-08-24T13:42:28Z</time>
      </trkpt>
      <trkpt lat="47.16921" lon="-0.76042">
        <ele>101.0756836</ele>
        <time>2012-08-24T13:42:33Z</time>
      </trkpt>
      <trkpt lat="47.16891" lon="-0.76062">
        <ele>100.114502</ele>
        <time>2012-08-24T13:42:40Z</time>
      </trkpt>
      <trkpt lat="47.16853" lon="-0.76089">
        <ele>99.1530762</ele>
        <time>2012-08-24T13:42:48Z</time>
      </trkpt>
      <trkpt lat="47.16828" lon="-0.76108">
        <ele>99.1530762</ele>
        <time>2012-08-24T13:42:54Z</time>
      </trkpt>
      <trkpt lat="47.1681" lon="-0.76123">
        <ele>99.1530762</ele>
        <time>2012-08-24T13:42:59Z</time>
      </trkpt>
      <trkpt lat="47.16784" lon="-0.76154">
        <ele>100.5950928</ele>
        <time>2012-08-24T13:43:08Z</time>
      </trkpt>
      <trkpt lat="47.16763" lon="-0.76181">
        <ele>102.998291</ele>
        <time>2012-08-24T13:43:17Z</time>
      </trkpt>
      <trkpt lat="47.16746" lon="-0.76203">
        <ele>104.4404297</ele>
        <time>2012-08-24T13:43:25Z</time>
      </trkpt>
      <trkpt lat="47.16728" lon="-0.76224">
        <ele>103.9597168</ele>
        <time>2012-08-24T13:43:32Z</time>
      </trkpt>
      <trkpt lat="47.16708" lon="-0.76252">
        <ele>104.4404297</ele>
        <time>2012-08-24T13:43:39Z</time>
      </trkpt>
      <trkpt lat="47.16681" lon="-0.76288">
        <ele>104.4404297</ele>
        <time>2012-08-24T13:43:48Z</time>
      </trkpt>
      <trkpt lat="47.16667" lon="-0.76313">
        <ele>104.4404297</ele>
        <time>2012-08-24T13:43:53Z</time>
      </trkpt>
      <trkpt lat="47.1665" lon="-0.76333">
        <ele>103.9597168</ele>
        <time>2012-08-24T13:43:59Z</time>
      </trkpt>
      <trkpt lat="47.16632" lon="-0.76345">
        <ele>103.9597168</ele>
        <time>2012-08-24T13:44:06Z</time>
      </trkpt>
      <trkpt lat="47.16615" lon="-0.76353">
        <ele>102.0371094</ele>
        <time>2012-08-24T13:44:13Z</time>
      </trkpt>
      <trkpt lat="47.16591" lon="-0.76361">
        <ele>98.6724854</ele>
        <time>2012-08-24T13:44:22Z</time>
      </trkpt>
      <trkpt lat="47.16574" lon="-0.76366">
        <ele>97.7111816</ele>
        <time>2012-08-24T13:44:29Z</time>
      </trkpt>
      <trkpt lat="47.16555" lon="-0.76379">
        <ele>100.114502</ele>
        <time>2012-08-24T13:44:37Z</time>
      </trkpt>
      <trkpt lat="47.16534" lon="-0.76401">
        <ele>104.4404297</ele>
        <time>2012-08-24T13:44:47Z</time>
      </trkpt>
      <trkpt lat="47.16517" lon="-0.76419">
        <ele>105.8824463</ele>
        <time>2012-08-24T13:44:55Z</time>
      </trkpt>
      <trkpt lat="47.16506" lon="-0.76432">
        <ele>106.3630371</ele>
        <time>2012-08-24T13:45:01Z</time>
      </trkpt>
      <trkpt lat="47.16492" lon="-0.76444">
        <ele>106.8436279</ele>
        <time>2012-08-24T13:45:07Z</time>
      </trkpt>
      <trkpt lat="47.16473" lon="-0.76465">
        <ele>107.3243408</ele>
        <time>2012-08-24T13:45:15Z</time>
      </trkpt>
      <trkpt lat="47.16454" lon="-0.76477">
        <ele>109.2469482</ele>
        <time>2012-08-24T13:45:22Z</time>
      </trkpt>
      <trkpt lat="47.16427" lon="-0.76494">
        <ele>108.2856445</ele>
        <time>2012-08-24T13:45:31Z</time>
      </trkpt>
      <trkpt lat="47.16401" lon="-0.76509">
        <ele>111.1695557</ele>
        <time>2012-08-24T13:45:40Z</time>
      </trkpt>
      <trkpt lat="47.16377" lon="-0.76523">
        <ele>109.7276611</ele>
        <time>2012-08-24T13:45:48Z</time>
      </trkpt>
      <trkpt lat="47.16353" lon="-0.76537">
        <ele>108.7662354</ele>
        <time>2012-08-24T13:45:56Z</time>
      </trkpt>
      <trkpt lat="47.16324" lon="-0.76553">
        <ele>108.7662354</ele>
        <time>2012-08-24T13:46:06Z</time>
      </trkpt>
      <trkpt lat="47.16303" lon="-0.76565">
        <ele>108.7662354</ele>
        <time>2012-08-24T13:46:14Z</time>
      </trkpt>
      <trkpt lat="47.16289" lon="-0.76573">
        <ele>109.2469482</ele>
        <time>2012-08-24T13:46:20Z</time>
      </trkpt>
      <trkpt lat="47.16269" lon="-0.76586">
        <ele>110.208252</ele>
        <time>2012-08-24T13:46:28Z</time>
      </trkpt>
      <trkpt lat="47.16255" lon="-0.76596">
        <ele>111.1695557</ele>
        <time>2012-08-24T13:46:35Z</time>
      </trkpt>
      <trkpt lat="47.16243" lon="-0.76606">
        <ele>112.1309814</ele>
        <time>2012-08-24T13:46:42Z</time>
      </trkpt>
      <trkpt lat="47.16228" lon="-0.76618">
        <ele>111.6502686</ele>
        <time>2012-08-24T13:46:50Z</time>
      </trkpt>
      <trkpt lat="47.16218" lon="-0.76623">
        <ele>111.6502686</ele>
        <time>2012-08-24T13:46:55Z</time>
      </trkpt>
      <trkpt lat="47.16208" lon="-0.76631">
        <ele>112.1309814</ele>
        <time>2012-08-24T13:47:01Z</time>
      </trkpt>
      <trkpt lat="47.16195" lon="-0.7664">
        <ele>112.6115723</ele>
        <time>2012-08-24T13:47:07Z</time>
      </trkpt>
      <trkpt lat="47.16178" lon="-0.76653">
        <ele>112.1309814</ele>
        <time>2012-08-24T13:47:15Z</time>
      </trkpt>
      <trkpt lat="47.16155" lon="-0.76668">
        <ele>112.1309814</ele>
        <time>2012-08-24T13:47:25Z</time>
      </trkpt>
      <trkpt lat="47.16141" lon="-0.76679">
        <ele>114.0535889</ele>
        <time>2012-08-24T13:47:32Z</time>
      </trkpt>
      <trkpt lat="47.16128" lon="-0.76684">
        <ele>113.572998</ele>
        <time>2012-08-24T13:47:39Z</time>
      </trkpt>
      <trkpt lat="47.16107" lon="-0.76695">
        <ele>114.0535889</ele>
        <time>2012-08-24T13:47:48Z</time>
      </trkpt>
      <trkpt lat="47.16086" lon="-0.76707">
        <ele>115.4956055</ele>
        <time>2012-08-24T13:47:56Z</time>
      </trkpt>
      <trkpt lat="47.16064" lon="-0.76721">
        <ele>115.9761963</ele>
        <time>2012-08-24T13:48:05Z</time>
      </trkpt>
      <trkpt lat="47.16039" lon="-0.76737">
        <ele>116.4567871</ele>
        <time>2012-08-24T13:48:15Z</time>
      </trkpt>
      <trkpt lat="47.16017" lon="-0.76751">
        <ele>117.8988037</ele>
        <time>2012-08-24T13:48:24Z</time>
      </trkpt>
      <trkpt lat="47.15999" lon="-0.76764">
        <ele>118.3793945</ele>
        <time>2012-08-24T13:48:32Z</time>
      </trkpt>
      <trkpt lat="47.15996" lon="-0.76765">
        <ele>118.3793945</ele>
        <time>2012-08-24T13:48:33Z</time>
      </trkpt>
      <trkpt lat="47.15991" lon="-0.76755">
        <ele>118.8601074</ele>
        <time>2012-08-24T13:48:37Z</time>
      </trkpt>
      <trkpt lat="47.15988" lon="-0.76719">
        <ele>119.8214111</ele>
        <time>2012-08-24T13:48:45Z</time>
      </trkpt>
      <trkpt lat="47.1599" lon="-0.76687">
        <ele>119.8214111</ele>
        <time>2012-08-24T13:48:51Z</time>
      </trkpt>
      <trkpt lat="47.1599" lon="-0.76656">
        <ele>119.8214111</ele>
        <time>2012-08-24T13:48:56Z</time>
      </trkpt>
      <trkpt lat="47.15988" lon="-0.76638">
        <ele>118.8601074</ele>
        <time>2012-08-24T13:48:59Z</time>
      </trkpt>
      <trkpt lat="47.15974" lon="-0.76595">
        <ele>118.8601074</ele>
        <time>2012-08-24T13:49:06Z</time>
      </trkpt>
      <trkpt lat="47.15955" lon="-0.76556">
        <ele>118.3793945</ele>
        <time>2012-08-24T13:49:13Z</time>
      </trkpt>
      <trkpt lat="47.1594" lon="-0.76504">
        <ele>117.8988037</ele>
        <time>2012-08-24T13:49:21Z</time>
      </trkpt>
      <trkpt lat="47.15934" lon="-0.76451">
        <ele>116.9375</ele>
        <time>2012-08-24T13:49:28Z</time>
      </trkpt>
      <trkpt lat="47.15929" lon="-0.7639">
        <ele>114.5341797</ele>
        <time>2012-08-24T13:49:36Z</time>
      </trkpt>
      <trkpt lat="47.15924" lon="-0.76344">
        <ele>113.572998</ele>
        <time>2012-08-24T13:49:42Z</time>
      </trkpt>
      <trkpt lat="47.15908" lon="-0.76314">
        <ele>113.0922852</ele>
        <time>2012-08-24T13:49:47Z</time>
      </trkpt>
      <trkpt lat="47.15865" lon="-0.76265">
        <ele>112.1309814</ele>
        <time>2012-08-24T13:49:57Z</time>
      </trkpt>
      <trkpt lat="47.15834" lon="-0.76223">
        <ele>111.1695557</ele>
        <time>2012-08-24T13:50:04Z</time>
      </trkpt>
      <trkpt lat="47.15797" lon="-0.76158">
        <ele>111.1695557</ele>
        <time>2012-08-24T13:50:14Z</time>
      </trkpt>
      <trkpt lat="47.15762" lon="-0.76098">
        <ele>110.6888428</ele>
        <time>2012-08-24T13:50:24Z</time>
      </trkpt>
      <trkpt lat="47.15734" lon="-0.76043">
        <ele>110.6888428</ele>
        <time>2012-08-24T13:50:33Z</time>
      </trkpt>
      <trkpt lat="47.15713" lon="-0.75982">
        <ele>111.1695557</ele>
        <time>2012-08-24T13:50:42Z</time>
      </trkpt>
      <trkpt lat="47.15694" lon="-0.75922">
        <ele>111.6502686</ele>
        <time>2012-08-24T13:50:51Z</time>
      </trkpt>
      <trkpt lat="47.15681" lon="-0.75877">
        <ele>112.1309814</ele>
        <time>2012-08-24T13:50:58Z</time>
      </trkpt>
      <trkpt lat="47.1567" lon="-0.75827">
        <ele>112.1309814</ele>
        <time>2012-08-24T13:51:06Z</time>
      </trkpt>
      <trkpt lat="47.1567" lon="-0.75815">
        <ele>112.1309814</ele>
        <time>2012-08-24T13:51:08Z</time>
      </trkpt>
      <trkpt lat="47.15671" lon="-0.75798">
        <ele>112.1309814</ele>
        <time>2012-08-24T13:51:11Z</time>
      </trkpt>
      <trkpt lat="47.15681" lon="-0.75754">
        <ele>109.7276611</ele>
        <time>2012-08-24T13:51:20Z</time>
      </trkpt>
      <trkpt lat="47.15682" lon="-0.75745">
        <ele>109.7276611</ele>
        <time>2012-08-24T13:51:23Z</time>
      </trkpt>
      <trkpt lat="47.15682" lon="-0.75742">
        <ele>112.6115723</ele>
        <time>2012-08-24T13:51:28Z</time>
      </trkpt>
      <trkpt lat="47.15681" lon="-0.7574">
        <ele>115.0148926</ele>
        <time>2012-08-24T13:51:39Z</time>
      </trkpt>
      <trkpt lat="47.15681" lon="-0.75739">
        <ele>115.9761963</ele>
        <time>2012-08-24T13:51:43Z</time>
      </trkpt>
      <trkpt lat="47.15681" lon="-0.75738">
        <ele>117.4182129</ele>
        <time>2012-08-24T13:52:03Z</time>
      </trkpt>
      <trkpt lat="47.15681" lon="-0.75738">
        <ele>118.8601074</ele>
        <time>2012-08-24T13:52:10Z</time>
      </trkpt>
      <trkpt lat="47.15682" lon="-0.75737">
        <ele>118.8601074</ele>
        <time>2012-08-24T13:52:26Z</time>
      </trkpt>
      <trkpt lat="47.15687" lon="-0.75722">
        <ele>116.9375</ele>
        <time>2012-08-24T13:52:32Z</time>
      </trkpt>
      <trkpt lat="47.15687" lon="-0.75708">
        <ele>115.9761963</ele>
        <time>2012-08-24T13:52:35Z</time>
      </trkpt>
      <trkpt lat="47.15677" lon="-0.75681">
        <ele>115.9761963</ele>
        <time>2012-08-24T13:52:41Z</time>
      </trkpt>
      <trkpt lat="47.1566" lon="-0.75626">
        <ele>117.8988037</ele>
        <time>2012-08-24T13:52:53Z</time>
      </trkpt>
      <trkpt lat="47.15649" lon="-0.7559">
        <ele>120.302124</ele>
        <time>2012-08-24T13:53:01Z</time>
      </trkpt>
      <trkpt lat="47.15637" lon="-0.75553">
        <ele>123.1861572</ele>
        <time>2012-08-24T13:53:09Z</time>
      </trkpt>
      <trkpt lat="47.15624" lon="-0.75514">
        <ele>122.2247314</ele>
        <time>2012-08-24T13:53:17Z</time>
      </trkpt>
      <trkpt lat="47.15612" lon="-0.75481">
        <ele>122.2247314</ele>
        <time>2012-08-24T13:53:24Z</time>
      </trkpt>
      <trkpt lat="47.15596" lon="-0.75432">
        <ele>122.7054443</ele>
        <time>2012-08-24T13:53:35Z</time>
      </trkpt>
      <trkpt lat="47.15585" lon="-0.75399">
        <ele>123.666748</ele>
        <time>2012-08-24T13:53:43Z</time>
      </trkpt>
      <trkpt lat="47.15571" lon="-0.75358">
        <ele>124.6280518</ele>
        <time>2012-08-24T13:53:53Z</time>
      </trkpt>
      <trkpt lat="47.15557" lon="-0.75315">
        <ele>126.5506592</ele>
        <time>2012-08-24T13:54:03Z</time>
      </trkpt>
      <trkpt lat="47.15545" lon="-0.75282">
        <ele>126.0699463</ele>
        <time>2012-08-24T13:54:11Z</time>
      </trkpt>
      <trkpt lat="47.15533" lon="-0.75244">
        <ele>127.0313721</ele>
        <time>2012-08-24T13:54:20Z</time>
      </trkpt>
      <trkpt lat="47.15514" lon="-0.75188">
        <ele>127.0313721</ele>
        <time>2012-08-24T13:54:33Z</time>
      </trkpt>
      <trkpt lat="47.15503" lon="-0.75148">
        <ele>128.9541016</ele>
        <time>2012-08-24T13:54:43Z</time>
      </trkpt>
      <trkpt lat="47.15495" lon="-0.75122">
        <ele>128.9541016</ele>
        <time>2012-08-24T13:54:50Z</time>
      </trkpt>
      <trkpt lat="47.15487" lon="-0.75119">
        <ele>128.9541016</ele>
        <time>2012-08-24T13:54:54Z</time>
      </trkpt>
      <trkpt lat="47.15472" lon="-0.75122">
        <ele>129.4346924</ele>
        <time>2012-08-24T13:55:02Z</time>
      </trkpt>
      <trkpt lat="47.15466" lon="-0.75132">
        <ele>130.876709</ele>
        <time>2012-08-24T13:55:08Z</time>
      </trkpt>
      <trkpt lat="47.15457" lon="-0.75148">
        <ele>129.9152832</ele>
        <time>2012-08-24T13:55:15Z</time>
      </trkpt>
      <trkpt lat="47.1545" lon="-0.75163">
        <ele>128.4733887</ele>
        <time>2012-08-24T13:55:21Z</time>
      </trkpt>
      <trkpt lat="47.15445" lon="-0.75178">
        <ele>127.9925537</ele>
        <time>2012-08-24T13:55:27Z</time>
      </trkpt>
      <trkpt lat="47.15437" lon="-0.75203">
        <ele>127.9925537</ele>
        <time>2012-08-24T13:55:35Z</time>
      </trkpt>
      <trkpt lat="47.15435" lon="-0.7521">
        <ele>128.9541016</ele>
        <time>2012-08-24T13:55:37Z</time>
      </trkpt>
      <trkpt lat="47.15427" lon="-0.75232">
        <ele>132.3186035</ele>
        <time>2012-08-24T13:55:44Z</time>
      </trkpt>
      <trkpt lat="47.15425" lon="-0.75248">
        <ele>133.760498</ele>
        <time>2012-08-24T13:55:51Z</time>
      </trkpt>
      <trkpt lat="47.15423" lon="-0.75263">
        <ele>132.7993164</ele>
        <time>2012-08-24T13:55:57Z</time>
      </trkpt>
      <trkpt lat="47.15416" lon="-0.75285">
        <ele>135.2025146</ele>
        <time>2012-08-24T13:56:03Z</time>
      </trkpt>
      <trkpt lat="47.15409" lon="-0.75309">
        <ele>137.605835</ele>
        <time>2012-08-24T13:56:08Z</time>
      </trkpt>
      <trkpt lat="47.15396" lon="-0.75339">
        <ele>135.6831055</ele>
        <time>2012-08-24T13:56:13Z</time>
      </trkpt>
      <trkpt lat="47.15393" lon="-0.75344">
        <ele>135.2025146</ele>
        <time>2012-08-24T13:56:14Z</time>
      </trkpt>
      <trkpt lat="47.15386" lon="-0.75351">
        <ele>135.2025146</ele>
        <time>2012-08-24T13:56:16Z</time>
      </trkpt>
      <trkpt lat="47.1536" lon="-0.75378">
        <ele>135.2025146</ele>
        <time>2012-08-24T13:56:24Z</time>
      </trkpt>
      <trkpt lat="47.15342" lon="-0.75403">
        <ele>135.2025146</ele>
        <time>2012-08-24T13:56:32Z</time>
      </trkpt>
      <trkpt lat="47.15327" lon="-0.75428">
        <ele>137.605835</ele>
        <time>2012-08-24T13:56:39Z</time>
      </trkpt>
      <trkpt lat="47.15317" lon="-0.75445">
        <ele>137.605835</ele>
        <time>2012-08-24T13:56:44Z</time>
      </trkpt>
      <trkpt lat="47.15299" lon="-0.75466">
        <ele>136.6446533</ele>
        <time>2012-08-24T13:56:51Z</time>
      </trkpt>
      <trkpt lat="47.15279" lon="-0.75479">
        <ele>136.1639404</ele>
        <time>2012-08-24T13:56:58Z</time>
      </trkpt>
      <trkpt lat="47.15266" lon="-0.75481">
        <ele>137.605835</ele>
        <time>2012-08-24T13:57:04Z</time>
      </trkpt>
      <trkpt lat="47.15252" lon="-0.75488">
        <ele>137.1252441</ele>
        <time>2012-08-24T13:57:08Z</time>
      </trkpt>
      <trkpt lat="47.15246" lon="-0.75508">
        <ele>136.1639404</ele>
        <time>2012-08-24T13:57:14Z</time>
      </trkpt>
      <trkpt lat="47.15241" lon="-0.75525">
        <ele>137.1252441</ele>
        <time>2012-08-24T13:57:19Z</time>
      </trkpt>
      <trkpt lat="47.15241" lon="-0.75528">
        <ele>137.1252441</ele>
        <time>2012-08-24T13:57:20Z</time>
      </trkpt>
      <trkpt lat="47.15235" lon="-0.75552">
        <ele>136.1639404</ele>
        <time>2012-08-24T13:57:27Z</time>
      </trkpt>
      <trkpt lat="47.15222" lon="-0.75572">
        <ele>136.1639404</ele>
        <time>2012-08-24T13:57:35Z</time>
      </trkpt>
      <trkpt lat="47.15211" lon="-0.75584">
        <ele>136.1639404</ele>
        <time>2012-08-24T13:57:41Z</time>
      </trkpt>
      <trkpt lat="47.152" lon="-0.75595">
        <ele>138.0865479</ele>
        <time>2012-08-24T13:57:47Z</time>
      </trkpt>
      <trkpt lat="47.15197" lon="-0.75599">
        <ele>140.0091553</ele>
        <time>2012-08-24T13:57:50Z</time>
      </trkpt>
      <trkpt lat="47.15189" lon="-0.75599">
        <ele>142.8930664</ele>
        <time>2012-08-24T13:57:55Z</time>
      </trkpt>
      <trkpt lat="47.15178" lon="-0.75588">
        <ele>145.7770996</ele>
        <time>2012-08-24T13:58:04Z</time>
      </trkpt>
      <trkpt lat="47.15169" lon="-0.75579">
        <ele>148.1804199</ele>
        <time>2012-08-24T13:58:12Z</time>
      </trkpt>
      <trkpt lat="47.15158" lon="-0.75567">
        <ele>149.6223145</ele>
        <time>2012-08-24T13:58:21Z</time>
      </trkpt>
      <trkpt lat="47.15145" lon="-0.75553">
        <ele>150.5836182</ele>
        <time>2012-08-24T13:58:31Z</time>
      </trkpt>
      <trkpt lat="47.15136" lon="-0.75543">
        <ele>151.5449219</ele>
        <time>2012-08-24T13:58:38Z</time>
      </trkpt>
      <trkpt lat="47.15123" lon="-0.7553">
        <ele>152.0257568</ele>
        <time>2012-08-24T13:58:48Z</time>
      </trkpt>
      <trkpt lat="47.15112" lon="-0.75517">
        <ele>153.4676514</ele>
        <time>2012-08-24T13:58:57Z</time>
      </trkpt>
      <trkpt lat="47.15104" lon="-0.75508">
        <ele>154.9095459</ele>
        <time>2012-08-24T13:59:04Z</time>
      </trkpt>
      <trkpt lat="47.15092" lon="-0.75494">
        <ele>156.3515625</ele>
        <time>2012-08-24T13:59:14Z</time>
      </trkpt>
      <trkpt lat="47.15082" lon="-0.75482">
        <ele>157.3128662</ele>
        <time>2012-08-24T13:59:22Z</time>
      </trkpt>
      <trkpt lat="47.15071" lon="-0.7547">
        <ele>158.7547607</ele>
        <time>2012-08-24T13:59:31Z</time>
      </trkpt>
      <trkpt lat="47.15058" lon="-0.75457">
        <ele>160.1968994</ele>
        <time>2012-08-24T13:59:41Z</time>
      </trkpt>
      <trkpt lat="47.15044" lon="-0.75443">
        <ele>162.6000977</ele>
        <time>2012-08-24T13:59:52Z</time>
      </trkpt>
      <trkpt lat="47.15031" lon="-0.75435">
        <ele>164.0421143</ele>
        <time>2012-08-24T14:00:01Z</time>
      </trkpt>
      <trkpt lat="47.15019" lon="-0.75428">
        <ele>165.4841309</ele>
        <time>2012-08-24T14:00:09Z</time>
      </trkpt>
      <trkpt lat="47.15003" lon="-0.75423">
        <ele>166.9260254</ele>
        <time>2012-08-24T14:00:18Z</time>
      </trkpt>
      <trkpt lat="47.14988" lon="-0.75419">
        <ele>167.8873291</ele>
        <time>2012-08-24T14:00:27Z</time>
      </trkpt>
      <trkpt lat="47.14974" lon="-0.75415">
        <ele>168.8487549</ele>
        <time>2012-08-24T14:00:35Z</time>
      </trkpt>
      <trkpt lat="47.14957" lon="-0.75411">
        <ele>169.8100586</ele>
        <time>2012-08-24T14:00:44Z</time>
      </trkpt>
      <trkpt lat="47.14936" lon="-0.75406">
        <ele>170.2906494</ele>
        <time>2012-08-24T14:00:56Z</time>
      </trkpt>
      <trkpt lat="47.1492" lon="-0.75403">
        <ele>170.7713623</ele>
        <time>2012-08-24T14:01:05Z</time>
      </trkpt>
      <trkpt lat="47.14903" lon="-0.75399">
        <ele>171.2520752</ele>
        <time>2012-08-24T14:01:14Z</time>
      </trkpt>
      <trkpt lat="47.14886" lon="-0.75395">
        <ele>172.2132568</ele>
        <time>2012-08-24T14:01:23Z</time>
      </trkpt>
      <trkpt lat="47.14867" lon="-0.75391">
        <ele>174.1358643</ele>
        <time>2012-08-24T14:01:33Z</time>
      </trkpt>
      <trkpt lat="47.14851" lon="-0.75387">
        <ele>174.1358643</ele>
        <time>2012-08-24T14:01:42Z</time>
      </trkpt>
      <trkpt lat="47.14833" lon="-0.75383">
        <ele>173.6552734</ele>
        <time>2012-08-24T14:01:51Z</time>
      </trkpt>
      <trkpt lat="47.14821" lon="-0.75381">
        <ele>174.1358643</ele>
        <time>2012-08-24T14:01:58Z</time>
      </trkpt>
      <trkpt lat="47.14818" lon="-0.7538">
        <ele>175.09729</ele>
        <time>2012-08-24T14:02:00Z</time>
      </trkpt>
      <trkpt lat="47.1481" lon="-0.75373">
        <ele>176.0585938</ele>
        <time>2012-08-24T14:02:07Z</time>
      </trkpt>
      <trkpt lat="47.14798" lon="-0.75374">
        <ele>176.5393066</ele>
        <time>2012-08-24T14:02:15Z</time>
      </trkpt>
      <trkpt lat="47.1479" lon="-0.75374">
        <ele>177.0200195</ele>
        <time>2012-08-24T14:02:21Z</time>
      </trkpt>
      <trkpt lat="47.1478" lon="-0.75371">
        <ele>177.0200195</ele>
        <time>2012-08-24T14:02:27Z</time>
      </trkpt>
      <trkpt lat="47.14769" lon="-0.75371">
        <ele>177.0200195</ele>
        <time>2012-08-24T14:02:34Z</time>
      </trkpt>
      <trkpt lat="47.14754" lon="-0.75371">
        <ele>176.5393066</ele>
        <time>2012-08-24T14:02:43Z</time>
      </trkpt>
      <trkpt lat="47.14744" lon="-0.75371">
        <ele>176.0585938</ele>
        <time>2012-08-24T14:02:50Z</time>
      </trkpt>
      <trkpt lat="47.14732" lon="-0.75369">
        <ele>176.0585938</ele>
        <time>2012-08-24T14:02:58Z</time>
      </trkpt>
      <trkpt lat="47.14719" lon="-0.75367">
        <ele>176.0585938</ele>
        <time>2012-08-24T14:03:06Z</time>
      </trkpt>
      <trkpt lat="47.14705" lon="-0.75365">
        <ele>177.0200195</ele>
        <time>2012-08-24T14:03:14Z</time>
      </trkpt>
      <trkpt lat="47.14691" lon="-0.75364">
        <ele>177.9812012</ele>
        <time>2012-08-24T14:03:22Z</time>
      </trkpt>
      <trkpt lat="47.14683" lon="-0.75361">
        <ele>179.4232178</ele>
        <time>2012-08-24T14:03:28Z</time>
      </trkpt>
      <trkpt lat="47.14681" lon="-0.7536">
        <ele>180.8652344</ele>
        <time>2012-08-24T14:03:35Z</time>
      </trkpt>
      <trkpt lat="47.14681" lon="-0.75359">
        <ele>181.826416</ele>
        <time>2012-08-24T14:03:40Z</time>
      </trkpt>
      <trkpt lat="47.14679" lon="-0.75359">
        <ele>182.3071289</ele>
        <time>2012-08-24T14:03:45Z</time>
      </trkpt>
      <trkpt lat="47.14664" lon="-0.75358">
        <ele>182.7878418</ele>
        <time>2012-08-24T14:03:53Z</time>
      </trkpt>
      <trkpt lat="47.14655" lon="-0.75357">
        <ele>182.7878418</ele>
        <time>2012-08-24T14:03:58Z</time>
      </trkpt>
      <trkpt lat="47.14638" lon="-0.75355">
        <ele>182.3071289</ele>
        <time>2012-08-24T14:04:07Z</time>
      </trkpt>
      <trkpt lat="47.14621" lon="-0.75355">
        <ele>183.2684326</ele>
        <time>2012-08-24T14:04:15Z</time>
      </trkpt>
      <trkpt lat="47.14605" lon="-0.75357">
        <ele>183.7490234</ele>
        <time>2012-08-24T14:04:24Z</time>
      </trkpt>
      <trkpt lat="47.14589" lon="-0.75357">
        <ele>184.7105713</ele>
        <time>2012-08-24T14:04:32Z</time>
      </trkpt>
      <trkpt lat="47.14565" lon="-0.75354">
        <ele>183.7490234</ele>
        <time>2012-08-24T14:04:43Z</time>
      </trkpt>
      <trkpt lat="47.14551" lon="-0.75352">
        <ele>183.7490234</ele>
        <time>2012-08-24T14:04:49Z</time>
      </trkpt>
      <trkpt lat="47.14526" lon="-0.75346">
        <ele>182.3071289</ele>
        <time>2012-08-24T14:04:58Z</time>
      </trkpt>
      <trkpt lat="47.14503" lon="-0.75338">
        <ele>182.3071289</ele>
        <time>2012-08-24T14:05:06Z</time>
      </trkpt>
      <trkpt lat="47.14485" lon="-0.75332">
        <ele>182.7878418</ele>
        <time>2012-08-24T14:05:12Z</time>
      </trkpt>
      <trkpt lat="47.14466" lon="-0.75325">
        <ele>184.2298584</ele>
        <time>2012-08-24T14:05:19Z</time>
      </trkpt>
      <trkpt lat="47.14459" lon="-0.75319">
        <ele>185.6717529</ele>
        <time>2012-08-24T14:05:23Z</time>
      </trkpt>
      <trkpt lat="47.14453" lon="-0.75312">
        <ele>186.1524658</ele>
        <time>2012-08-24T14:05:26Z</time>
      </trkpt>
      <trkpt lat="47.14439" lon="-0.75306">
        <ele>186.6331787</ele>
        <time>2012-08-24T14:05:33Z</time>
      </trkpt>
      <trkpt lat="47.14423" lon="-0.75306">
        <ele>186.6331787</ele>
        <time>2012-08-24T14:05:40Z</time>
      </trkpt>
      <trkpt lat="47.14417" lon="-0.75304">
        <ele>185.6717529</ele>
        <time>2012-08-24T14:05:43Z</time>
      </trkpt>
      <trkpt lat="47.14414" lon="-0.75288">
        <ele>186.1524658</ele>
        <time>2012-08-24T14:05:49Z</time>
      </trkpt>
      <trkpt lat="47.14414" lon="-0.75281">
        <ele>185.1911621</ele>
        <time>2012-08-24T14:05:51Z</time>
      </trkpt>
      <trkpt lat="47.14419" lon="-0.75253">
        <ele>185.1911621</ele>
        <time>2012-08-24T14:05:59Z</time>
      </trkpt>
      <trkpt lat="47.14425" lon="-0.75231">
        <ele>186.1524658</ele>
        <time>2012-08-24T14:06:05Z</time>
      </trkpt>
      <trkpt lat="47.14434" lon="-0.75212">
        <ele>187.1137695</ele>
        <time>2012-08-24T14:06:11Z</time>
      </trkpt>
      <trkpt lat="47.14443" lon="-0.75194">
        <ele>186.6331787</ele>
        <time>2012-08-24T14:06:16Z</time>
      </trkpt>
      <trkpt lat="47.14462" lon="-0.75166">
        <ele>186.1524658</ele>
        <time>2012-08-24T14:06:25Z</time>
      </trkpt>
      <trkpt lat="47.14472" lon="-0.75151">
        <ele>186.1524658</ele>
        <time>2012-08-24T14:06:30Z</time>
      </trkpt>
      <trkpt lat="47.14484" lon="-0.75133">
        <ele>185.1911621</ele>
        <time>2012-08-24T14:06:37Z</time>
      </trkpt>
      <trkpt lat="47.14502" lon="-0.75111">
        <ele>186.6331787</ele>
        <time>2012-08-24T14:06:45Z</time>
      </trkpt>
      <trkpt lat="47.14525" lon="-0.7508">
        <ele>188.0750732</ele>
        <time>2012-08-24T14:06:55Z</time>
      </trkpt>
      <trkpt lat="47.1455" lon="-0.75046">
        <ele>189.5169678</ele>
        <time>2012-08-24T14:07:05Z</time>
      </trkpt>
      <trkpt lat="47.1457" lon="-0.75012">
        <ele>191.4395752</ele>
        <time>2012-08-24T14:07:14Z</time>
      </trkpt>
      <trkpt lat="47.14589" lon="-0.74967">
        <ele>192.401123</ele>
        <time>2012-08-24T14:07:25Z</time>
      </trkpt>
      <trkpt lat="47.14604" lon="-0.74926">
        <ele>192.8817139</ele>
        <time>2012-08-24T14:07:36Z</time>
      </trkpt>
      <trkpt lat="47.14621" lon="-0.74885">
        <ele>194.3237305</ele>
        <time>2012-08-24T14:07:47Z</time>
      </trkpt>
      <trkpt lat="47.14636" lon="-0.74848">
        <ele>195.765625</ele>
        <time>2012-08-24T14:07:57Z</time>
      </trkpt>
      <trkpt lat="47.14652" lon="-0.74813">
        <ele>196.2463379</ele>
        <time>2012-08-24T14:08:07Z</time>
      </trkpt>
      <trkpt lat="47.14662" lon="-0.74792">
        <ele>196.2463379</ele>
        <time>2012-08-24T14:08:14Z</time>
      </trkpt>
      <trkpt lat="47.14668" lon="-0.74777">
        <ele>194.8043213</ele>
        <time>2012-08-24T14:08:21Z</time>
      </trkpt>
      <trkpt lat="47.14675" lon="-0.7476">
        <ele>193.8430176</ele>
        <time>2012-08-24T14:08:28Z</time>
      </trkpt>
      <trkpt lat="47.14688" lon="-0.74733">
        <ele>192.8817139</ele>
        <time>2012-08-24T14:08:38Z</time>
      </trkpt>
      <trkpt lat="47.14705" lon="-0.74707">
        <ele>195.2849121</ele>
        <time>2012-08-24T14:08:47Z</time>
      </trkpt>
      <trkpt lat="47.1472" lon="-0.74679">
        <ele>194.8043213</ele>
        <time>2012-08-24T14:08:56Z</time>
      </trkpt>
      <trkpt lat="47.14734" lon="-0.74654">
        <ele>193.3623047</ele>
        <time>2012-08-24T14:09:04Z</time>
      </trkpt>
      <trkpt lat="47.14752" lon="-0.74626">
        <ele>193.8430176</ele>
        <time>2012-08-24T14:09:13Z</time>
      </trkpt>
      <trkpt lat="47.14769" lon="-0.74596">
        <ele>192.8817139</ele>
        <time>2012-08-24T14:09:22Z</time>
      </trkpt>
      <trkpt lat="47.14783" lon="-0.7457">
        <ele>192.401123</ele>
        <time>2012-08-24T14:09:29Z</time>
      </trkpt>
      <trkpt lat="47.14798" lon="-0.74543">
        <ele>193.8430176</ele>
        <time>2012-08-24T14:09:36Z</time>
      </trkpt>
      <trkpt lat="47.14822" lon="-0.74504">
        <ele>198.1689453</ele>
        <time>2012-08-24T14:09:46Z</time>
      </trkpt>
      <trkpt lat="47.14839" lon="-0.74477">
        <ele>201.0528564</ele>
        <time>2012-08-24T14:09:53Z</time>
      </trkpt>
      <trkpt lat="47.14853" lon="-0.74454">
        <ele>202.9754639</ele>
        <time>2012-08-24T14:09:59Z</time>
      </trkpt>
      <trkpt lat="47.14867" lon="-0.7443">
        <ele>201.0528564</ele>
        <time>2012-08-24T14:10:06Z</time>
      </trkpt>
      <trkpt lat="47.14883" lon="-0.74399">
        <ele>200.5722656</ele>
        <time>2012-08-24T14:10:14Z</time>
      </trkpt>
      <trkpt lat="47.14904" lon="-0.74367">
        <ele>202.0142822</ele>
        <time>2012-08-24T14:10:23Z</time>
      </trkpt>
      <trkpt lat="47.14917" lon="-0.74346">
        <ele>202.9754639</ele>
        <time>2012-08-24T14:10:29Z</time>
      </trkpt>
      <trkpt lat="47.14935" lon="-0.74326">
        <ele>202.9754639</ele>
        <time>2012-08-24T14:10:37Z</time>
      </trkpt>
      <trkpt lat="47.14945" lon="-0.74322">
        <ele>202.9754639</ele>
        <time>2012-08-24T14:10:44Z</time>
      </trkpt>
      <trkpt lat="47.14957" lon="-0.74316">
        <ele>203.9368896</ele>
        <time>2012-08-24T14:10:51Z</time>
      </trkpt>
      <trkpt lat="47.1497" lon="-0.74308">
        <ele>203.9368896</ele>
        <time>2012-08-24T14:10:59Z</time>
      </trkpt>
      <trkpt lat="47.14993" lon="-0.74297">
        <ele>203.9368896</ele>
        <time>2012-08-24T14:11:09Z</time>
      </trkpt>
      <trkpt lat="47.14998" lon="-0.74295">
        <ele>204.4174805</ele>
        <time>2012-08-24T14:11:13Z</time>
      </trkpt>
      <trkpt lat="47.15001" lon="-0.74294">
        <ele>205.3787842</ele>
        <time>2012-08-24T14:11:17Z</time>
      </trkpt>
      <trkpt lat="47.15003" lon="-0.74294">
        <ele>205.8594971</ele>
        <time>2012-08-24T14:11:24Z</time>
      </trkpt>
      <trkpt lat="47.15006" lon="-0.74295">
        <ele>208.7434082</ele>
        <time>2012-08-24T14:11:36Z</time>
      </trkpt>
      <trkpt lat="47.15023" lon="-0.74287">
        <ele>208.7434082</ele>
        <time>2012-08-24T14:11:44Z</time>
      </trkpt>
      <trkpt lat="47.15044" lon="-0.74279">
        <ele>207.7821045</ele>
        <time>2012-08-24T14:11:50Z</time>
      </trkpt>
      <trkpt lat="47.15073" lon="-0.74265">
        <ele>205.8594971</ele>
        <time>2012-08-24T14:11:56Z</time>
      </trkpt>
      <trkpt lat="47.15095" lon="-0.7425">
        <ele>204.4174805</ele>
        <time>2012-08-24T14:12:00Z</time>
      </trkpt>
      <trkpt lat="47.15136" lon="-0.74199">
        <ele>201.5335693</ele>
        <time>2012-08-24T14:12:08Z</time>
      </trkpt>
      <trkpt lat="47.15169" lon="-0.74158">
        <ele>199.6108398</ele>
        <time>2012-08-24T14:12:14Z</time>
      </trkpt>
      <trkpt lat="47.152" lon="-0.74125">
        <ele>198.1689453</ele>
        <time>2012-08-24T14:12:20Z</time>
      </trkpt>
      <trkpt lat="47.15237" lon="-0.74084">
        <ele>197.2075195</ele>
        <time>2012-08-24T14:12:28Z</time>
      </trkpt>
      <trkpt lat="47.1526" lon="-0.74043">
        <ele>196.7269287</ele>
        <time>2012-08-24T14:12:34Z</time>
      </trkpt>
      <trkpt lat="47.15276" lon="-0.73998">
        <ele>197.2075195</ele>
        <time>2012-08-24T14:12:40Z</time>
      </trkpt>
      <trkpt lat="47.15287" lon="-0.73963">
        <ele>198.1689453</ele>
        <time>2012-08-24T14:12:45Z</time>
      </trkpt>
      <trkpt lat="47.15302" lon="-0.73913">
        <ele>202.0142822</ele>
        <time>2012-08-24T14:12:53Z</time>
      </trkpt>
      <trkpt lat="47.15304" lon="-0.73907">
        <ele>202.494873</ele>
        <time>2012-08-24T14:12:54Z</time>
      </trkpt>
      <trkpt lat="47.15321" lon="-0.73861">
        <ele>205.8594971</ele>
        <time>2012-08-24T14:13:02Z</time>
      </trkpt>
      <trkpt lat="47.15327" lon="-0.73832">
        <ele>204.4174805</ele>
        <time>2012-08-24T14:13:08Z</time>
      </trkpt>
      <trkpt lat="47.15328" lon="-0.73809">
        <ele>207.3013916</ele>
        <time>2012-08-24T14:13:13Z</time>
      </trkpt>
      <trkpt lat="47.15324" lon="-0.73789">
        <ele>208.2628174</ele>
        <time>2012-08-24T14:13:18Z</time>
      </trkpt>
      <trkpt lat="47.15323" lon="-0.73763">
        <ele>207.3013916</ele>
        <time>2012-08-24T14:13:23Z</time>
      </trkpt>
      <trkpt lat="47.15323" lon="-0.73742">
        <ele>205.8594971</ele>
        <time>2012-08-24T14:13:28Z</time>
      </trkpt>
      <trkpt lat="47.15332" lon="-0.73712">
        <ele>204.8980713</ele>
        <time>2012-08-24T14:13:35Z</time>
      </trkpt>
      <trkpt lat="47.15348" lon="-0.73669">
        <ele>205.3787842</ele>
        <time>2012-08-24T14:13:44Z</time>
      </trkpt>
      <trkpt lat="47.15362" lon="-0.73633">
        <ele>207.7821045</ele>
        <time>2012-08-24T14:13:52Z</time>
      </trkpt>
      <trkpt lat="47.15364" lon="-0.73629">
        <ele>208.2628174</ele>
        <time>2012-08-24T14:13:53Z</time>
      </trkpt>
      <trkpt lat="47.1536" lon="-0.73616">
        <ele>206.3400879</ele>
        <time>2012-08-24T14:13:57Z</time>
      </trkpt>
      <trkpt lat="47.15357" lon="-0.73614">
        <ele>205.8594971</ele>
        <time>2012-08-24T14:13:58Z</time>
      </trkpt>
      <trkpt lat="47.15331" lon="-0.736">
        <ele>205.3787842</ele>
        <time>2012-08-24T14:14:06Z</time>
      </trkpt>
      <trkpt lat="47.15301" lon="-0.73581">
        <ele>202.0142822</ele>
        <time>2012-08-24T14:14:13Z</time>
      </trkpt>
      <trkpt lat="47.15266" lon="-0.73561">
        <ele>200.5722656</ele>
        <time>2012-08-24T14:14:19Z</time>
      </trkpt>
      <trkpt lat="47.15229" lon="-0.73538">
        <ele>197.2075195</ele>
        <time>2012-08-24T14:14:24Z</time>
      </trkpt>
      <trkpt lat="47.15185" lon="-0.73514">
        <ele>195.765625</ele>
        <time>2012-08-24T14:14:30Z</time>
      </trkpt>
      <trkpt lat="47.15175" lon="-0.73508">
        <ele>194.8043213</ele>
        <time>2012-08-24T14:14:33Z</time>
      </trkpt>
      <trkpt lat="47.15172" lon="-0.73507">
        <ele>194.8043213</ele>
        <time>2012-08-24T14:14:34Z</time>
      </trkpt>
      <trkpt lat="47.15162" lon="-0.73516">
        <ele>193.8430176</ele>
        <time>2012-08-24T14:14:38Z</time>
      </trkpt>
      <trkpt lat="47.15156" lon="-0.73531">
        <ele>193.3623047</ele>
        <time>2012-08-24T14:14:41Z</time>
      </trkpt>
      <trkpt lat="47.15145" lon="-0.7356">
        <ele>192.8817139</ele>
        <time>2012-08-24T14:14:46Z</time>
      </trkpt>
      <trkpt lat="47.15141" lon="-0.73572">
        <ele>192.401123</ele>
        <time>2012-08-24T14:14:48Z</time>
      </trkpt>
      <trkpt lat="47.15127" lon="-0.73608">
        <ele>191.9202881</ele>
        <time>2012-08-24T14:14:55Z</time>
      </trkpt>
      <trkpt lat="47.15125" lon="-0.73612">
        <ele>191.9202881</ele>
        <time>2012-08-24T14:14:56Z</time>
      </trkpt>
      <trkpt lat="47.15115" lon="-0.73616">
        <ele>191.9202881</ele>
        <time>2012-08-24T14:15:00Z</time>
      </trkpt>
      <trkpt lat="47.15111" lon="-0.73612">
        <ele>191.4395752</ele>
        <time>2012-08-24T14:15:01Z</time>
      </trkpt>
      <trkpt lat="47.15087" lon="-0.73582">
        <ele>188.0750732</ele>
        <time>2012-08-24T14:15:06Z</time>
      </trkpt>
      <trkpt lat="47.15052" lon="-0.73539">
        <ele>184.2298584</ele>
        <time>2012-08-24T14:15:11Z</time>
      </trkpt>
      <trkpt lat="47.15009" lon="-0.73487">
        <ele>177.9812012</ele>
        <time>2012-08-24T14:15:16Z</time>
      </trkpt>
      <trkpt lat="47.14981" lon="-0.73452">
        <ele>173.6552734</ele>
        <time>2012-08-24T14:15:19Z</time>
      </trkpt>
      <trkpt lat="47.1494" lon="-0.73406">
        <ele>167.4067383</ele>
        <time>2012-08-24T14:15:24Z</time>
      </trkpt>
      <trkpt lat="47.14934" lon="-0.734">
        <ele>166.4453125</ele>
        <time>2012-08-24T14:15:25Z</time>
      </trkpt>
      <trkpt lat="47.14903" lon="-0.7339">
        <ele>162.6000977</ele>
        <time>2012-08-24T14:15:29Z</time>
      </trkpt>
      <trkpt lat="47.14837" lon="-0.73388">
        <ele>160.1968994</ele>
        <time>2012-08-24T14:15:36Z</time>
      </trkpt>
      <trkpt lat="47.14805" lon="-0.73401">
        <ele>160.1968994</ele>
        <time>2012-08-24T14:15:40Z</time>
      </trkpt>
      <trkpt lat="47.14763" lon="-0.73441">
        <ele>160.6774902</ele>
        <time>2012-08-24T14:15:47Z</time>
      </trkpt>
      <trkpt lat="47.14714" lon="-0.73488">
        <ele>160.6774902</ele>
        <time>2012-08-24T14:15:56Z</time>
      </trkpt>
      <trkpt lat="47.14676" lon="-0.73506">
        <ele>159.2354736</ele>
        <time>2012-08-24T14:16:02Z</time>
      </trkpt>
      <trkpt lat="47.14624" lon="-0.73522">
        <ele>158.2741699</ele>
        <time>2012-08-24T14:16:10Z</time>
      </trkpt>
      <trkpt lat="47.14597" lon="-0.73531">
        <ele>158.2741699</ele>
        <time>2012-08-24T14:16:14Z</time>
      </trkpt>
      <trkpt lat="47.14576" lon="-0.73522">
        <ele>157.7935791</ele>
        <time>2012-08-24T14:16:18Z</time>
      </trkpt>
      <trkpt lat="47.14536" lon="-0.73462">
        <ele>153.4676514</ele>
        <time>2012-08-24T14:16:27Z</time>
      </trkpt>
      <trkpt lat="47.145" lon="-0.7342">
        <ele>151.064209</ele>
        <time>2012-08-24T14:16:33Z</time>
      </trkpt>
      <trkpt lat="47.14469" lon="-0.73389">
        <ele>148.1804199</ele>
        <time>2012-08-24T14:16:38Z</time>
      </trkpt>
      <trkpt lat="47.14436" lon="-0.73354">
        <ele>145.2963867</ele>
        <time>2012-08-24T14:16:43Z</time>
      </trkpt>
      <trkpt lat="47.14412" lon="-0.73319">
        <ele>141.4510498</ele>
        <time>2012-08-24T14:16:48Z</time>
      </trkpt>
      <trkpt lat="47.14403" lon="-0.73309">
        <ele>140.4898682</ele>
        <time>2012-08-24T14:16:51Z</time>
      </trkpt>
      <trkpt lat="47.14397" lon="-0.73308">
        <ele>139.5284424</ele>
        <time>2012-08-24T14:16:54Z</time>
      </trkpt>
      <trkpt lat="47.1438" lon="-0.73302">
        <ele>136.6446533</ele>
        <time>2012-08-24T14:16:59Z</time>
      </trkpt>
      <trkpt lat="47.14357" lon="-0.73296">
        <ele>133.760498</ele>
        <time>2012-08-24T14:17:03Z</time>
      </trkpt>
      <trkpt lat="47.1433" lon="-0.73294">
        <ele>131.8378906</ele>
        <time>2012-08-24T14:17:07Z</time>
      </trkpt>
      <trkpt lat="47.143" lon="-0.73288">
        <ele>132.7993164</ele>
        <time>2012-08-24T14:17:11Z</time>
      </trkpt>
      <trkpt lat="47.14279" lon="-0.73291">
        <ele>134.2412109</ele>
        <time>2012-08-24T14:17:14Z</time>
      </trkpt>
      <trkpt lat="47.14238" lon="-0.73297">
        <ele>133.2799072</ele>
        <time>2012-08-24T14:17:20Z</time>
      </trkpt>
      <trkpt lat="47.14228" lon="-0.73297">
        <ele>133.760498</ele>
        <time>2012-08-24T14:17:22Z</time>
      </trkpt>
      <trkpt lat="47.14219" lon="-0.73297">
        <ele>134.2412109</ele>
        <time>2012-08-24T14:17:27Z</time>
      </trkpt>
      <trkpt lat="47.14218" lon="-0.73297">
        <ele>134.2412109</ele>
        <time>2012-08-24T14:17:28Z</time>
      </trkpt>
      <trkpt lat="47.14214" lon="-0.73295">
        <ele>137.1252441</ele>
        <time>2012-08-24T14:17:41Z</time>
      </trkpt>
      <trkpt lat="47.14213" lon="-0.73292">
        <ele>134.7219238</ele>
        <time>2012-08-24T14:17:53Z</time>
      </trkpt>
      <trkpt lat="47.14213" lon="-0.73292">
        <ele>133.760498</ele>
        <time>2012-08-24T14:18:02Z</time>
      </trkpt>
      <trkpt lat="47.14213" lon="-0.73289">
        <ele>138.5672607</ele>
        <time>2012-08-24T14:18:21Z</time>
      </trkpt>
      <trkpt lat="47.14216" lon="-0.73292">
        <ele>136.1639404</ele>
        <time>2012-08-24T14:18:33Z</time>
      </trkpt>
      <trkpt lat="47.14215" lon="-0.73289">
        <ele>138.5672607</ele>
        <time>2012-08-24T14:18:47Z</time>
      </trkpt>
      <trkpt lat="47.14211" lon="-0.7328">
        <ele>158.2741699</ele>
        <time>2012-08-24T14:19:01Z</time>
      </trkpt>
      <trkpt lat="47.14209" lon="-0.73285">
        <ele>148.1804199</ele>
        <time>2012-08-24T14:19:12Z</time>
      </trkpt>
      <trkpt lat="47.14208" lon="-0.73286">
        <ele>146.2578125</ele>
        <time>2012-08-24T14:19:17Z</time>
      </trkpt>
      <trkpt lat="47.14206" lon="-0.73285">
        <ele>144.3352051</ele>
        <time>2012-08-24T14:19:45Z</time>
      </trkpt>
      <trkpt lat="47.14206" lon="-0.73286">
        <ele>143.3736572</ele>
        <time>2012-08-24T14:19:57Z</time>
      </trkpt>
      <trkpt lat="47.14204" lon="-0.73284">
        <ele>143.8543701</ele>
        <time>2012-08-24T14:20:06Z</time>
      </trkpt>
      <trkpt lat="47.142" lon="-0.73282">
        <ele>143.3736572</ele>
        <time>2012-08-24T14:20:11Z</time>
      </trkpt>
      <trkpt lat="47.14198" lon="-0.73279">
        <ele>142.4124756</ele>
        <time>2012-08-24T14:20:13Z</time>
      </trkpt>
      <trkpt lat="47.14201" lon="-0.73267">
        <ele>138.0865479</ele>
        <time>2012-08-24T14:20:18Z</time>
      </trkpt>
      <trkpt lat="47.1421" lon="-0.73242">
        <ele>132.3186035</ele>
        <time>2012-08-24T14:20:25Z</time>
      </trkpt>
      <trkpt lat="47.14217" lon="-0.73218">
        <ele>130.876709</ele>
        <time>2012-08-24T14:20:30Z</time>
      </trkpt>
      <trkpt lat="47.14223" lon="-0.73195">
        <ele>130.876709</ele>
        <time>2012-08-24T14:20:35Z</time>
      </trkpt>
      <trkpt lat="47.14234" lon="-0.73169">
        <ele>131.3572998</ele>
        <time>2012-08-24T14:20:41Z</time>
      </trkpt>
      <trkpt lat="47.14241" lon="-0.73147">
        <ele>130.3959961</ele>
        <time>2012-08-24T14:20:46Z</time>
      </trkpt>
      <trkpt lat="47.14249" lon="-0.73112">
        <ele>133.2799072</ele>
        <time>2012-08-24T14:20:54Z</time>
      </trkpt>
      <trkpt lat="47.14255" lon="-0.73083">
        <ele>134.7219238</ele>
        <time>2012-08-24T14:21:00Z</time>
      </trkpt>
      <trkpt lat="47.1426" lon="-0.73048">
        <ele>137.1252441</ele>
        <time>2012-08-24T14:21:07Z</time>
      </trkpt>
      <trkpt lat="47.14263" lon="-0.73007">
        <ele>138.0865479</ele>
        <time>2012-08-24T14:21:15Z</time>
      </trkpt>
      <trkpt lat="47.14264" lon="-0.72977">
        <ele>137.605835</ele>
        <time>2012-08-24T14:21:22Z</time>
      </trkpt>
      <trkpt lat="47.14263" lon="-0.72971">
        <ele>137.605835</ele>
        <time>2012-08-24T14:21:24Z</time>
      </trkpt>
      <trkpt lat="47.14268" lon="-0.72953">
        <ele>137.605835</ele>
        <time>2012-08-24T14:21:29Z</time>
      </trkpt>
      <trkpt lat="47.14272" lon="-0.72916">
        <ele>137.1252441</ele>
        <time>2012-08-24T14:21:36Z</time>
      </trkpt>
      <trkpt lat="47.14278" lon="-0.72894">
        <ele>137.1252441</ele>
        <time>2012-08-24T14:21:41Z</time>
      </trkpt>
      <trkpt lat="47.1429" lon="-0.72875">
        <ele>137.1252441</ele>
        <time>2012-08-24T14:21:47Z</time>
      </trkpt>
      <trkpt lat="47.14309" lon="-0.72856">
        <ele>135.2025146</ele>
        <time>2012-08-24T14:21:54Z</time>
      </trkpt>
      <trkpt lat="47.14322" lon="-0.72837">
        <ele>135.6831055</ele>
        <time>2012-08-24T14:22:00Z</time>
      </trkpt>
      <trkpt lat="47.14322" lon="-0.72818">
        <ele>137.1252441</ele>
        <time>2012-08-24T14:22:05Z</time>
      </trkpt>
      <trkpt lat="47.14319" lon="-0.72799">
        <ele>139.0478516</ele>
        <time>2012-08-24T14:22:13Z</time>
      </trkpt>
      <trkpt lat="47.14313" lon="-0.72777">
        <ele>140.4898682</ele>
        <time>2012-08-24T14:22:21Z</time>
      </trkpt>
      <trkpt lat="47.14308" lon="-0.72759">
        <ele>141.4510498</ele>
        <time>2012-08-24T14:22:27Z</time>
      </trkpt>
      <trkpt lat="47.143" lon="-0.72734">
        <ele>142.8930664</ele>
        <time>2012-08-24T14:22:35Z</time>
      </trkpt>
      <trkpt lat="47.14295" lon="-0.72707">
        <ele>142.8930664</ele>
        <time>2012-08-24T14:22:42Z</time>
      </trkpt>
      <trkpt lat="47.14291" lon="-0.72665">
        <ele>143.3736572</ele>
        <time>2012-08-24T14:22:51Z</time>
      </trkpt>
      <trkpt lat="47.14286" lon="-0.72614">
        <ele>143.3736572</ele>
        <time>2012-08-24T14:23:01Z</time>
      </trkpt>
      <trkpt lat="47.14282" lon="-0.72575">
        <ele>141.9317627</ele>
        <time>2012-08-24T14:23:09Z</time>
      </trkpt>
      <trkpt lat="47.14281" lon="-0.72546">
        <ele>141.4510498</ele>
        <time>2012-08-24T14:23:14Z</time>
      </trkpt>
      <trkpt lat="47.14279" lon="-0.72509">
        <ele>141.4510498</ele>
        <time>2012-08-24T14:23:21Z</time>
      </trkpt>
      <trkpt lat="47.14273" lon="-0.72467">
        <ele>142.4124756</ele>
        <time>2012-08-24T14:23:29Z</time>
      </trkpt>
      <trkpt lat="47.14272" lon="-0.72443">
        <ele>143.8543701</ele>
        <time>2012-08-24T14:23:34Z</time>
      </trkpt>
      <trkpt lat="47.14265" lon="-0.72408">
        <ele>144.8157959</ele>
        <time>2012-08-24T14:23:41Z</time>
      </trkpt>
      <trkpt lat="47.14257" lon="-0.72366">
        <ele>143.3736572</ele>
        <time>2012-08-24T14:23:48Z</time>
      </trkpt>
      <trkpt lat="47.14243" lon="-0.72317">
        <ele>144.3352051</ele>
        <time>2012-08-24T14:23:56Z</time>
      </trkpt>
      <trkpt lat="47.14225" lon="-0.72262">
        <ele>145.7770996</ele>
        <time>2012-08-24T14:24:05Z</time>
      </trkpt>
      <trkpt lat="47.14211" lon="-0.72222">
        <ele>145.7770996</ele>
        <time>2012-08-24T14:24:12Z</time>
      </trkpt>
      <trkpt lat="47.14198" lon="-0.72183">
        <ele>146.7384033</ele>
        <time>2012-08-24T14:24:19Z</time>
      </trkpt>
      <trkpt lat="47.14182" lon="-0.72134">
        <ele>147.699707</ele>
        <time>2012-08-24T14:24:28Z</time>
      </trkpt>
      <trkpt lat="47.14162" lon="-0.72064">
        <ele>148.6610107</ele>
        <time>2012-08-24T14:24:40Z</time>
      </trkpt>
      <trkpt lat="47.1415" lon="-0.72006">
        <ele>148.6610107</ele>
        <time>2012-08-24T14:24:50Z</time>
      </trkpt>
      <trkpt lat="47.14141" lon="-0.71952">
        <ele>148.1804199</ele>
        <time>2012-08-24T14:24:59Z</time>
      </trkpt>
      <trkpt lat="47.14133" lon="-0.71919">
        <ele>148.1804199</ele>
        <time>2012-08-24T14:25:05Z</time>
      </trkpt>
      <trkpt lat="47.14122" lon="-0.71897">
        <ele>148.6610107</ele>
        <time>2012-08-24T14:25:10Z</time>
      </trkpt>
      <trkpt lat="47.1409" lon="-0.71875">
        <ele>148.6610107</ele>
        <time>2012-08-24T14:25:19Z</time>
      </trkpt>
      <trkpt lat="47.14068" lon="-0.71857">
        <ele>151.064209</ele>
        <time>2012-08-24T14:25:26Z</time>
      </trkpt>
      <trkpt lat="47.1405" lon="-0.71844">
        <ele>152.0257568</ele>
        <time>2012-08-24T14:25:32Z</time>
      </trkpt>
      <trkpt lat="47.14034" lon="-0.71838">
        <ele>152.9869385</ele>
        <time>2012-08-24T14:25:37Z</time>
      </trkpt>
      <trkpt lat="47.1401" lon="-0.71832">
        <ele>153.9483643</ele>
        <time>2012-08-24T14:25:45Z</time>
      </trkpt>
      <trkpt lat="47.13987" lon="-0.71826">
        <ele>154.4289551</ele>
        <time>2012-08-24T14:25:52Z</time>
      </trkpt>
      <trkpt lat="47.13964" lon="-0.71822">
        <ele>153.9483643</ele>
        <time>2012-08-24T14:25:59Z</time>
      </trkpt>
      <trkpt lat="47.13946" lon="-0.71822">
        <ele>153.9483643</ele>
        <time>2012-08-24T14:26:06Z</time>
      </trkpt>
      <trkpt lat="47.13927" lon="-0.71826">
        <ele>154.9095459</ele>
        <time>2012-08-24T14:26:13Z</time>
      </trkpt>
      <trkpt lat="47.13926" lon="-0.71826">
        <ele>154.9095459</ele>
        <time>2012-08-24T14:26:14Z</time>
      </trkpt>
      <trkpt lat="47.13925" lon="-0.71827">
        <ele>154.9095459</ele>
        <time>2012-08-24T14:26:19Z</time>
      </trkpt>
      <trkpt lat="47.13924" lon="-0.71828">
        <ele>156.3515625</ele>
        <time>2012-08-24T14:26:27Z</time>
      </trkpt>
      <trkpt lat="47.13923" lon="-0.71829">
        <ele>156.3515625</ele>
        <time>2012-08-24T14:26:38Z</time>
      </trkpt>
      <trkpt lat="47.13911" lon="-0.71831">
        <ele>157.7935791</ele>
        <time>2012-08-24T14:26:43Z</time>
      </trkpt>
      <trkpt lat="47.13893" lon="-0.71833">
        <ele>158.2741699</ele>
        <time>2012-08-24T14:26:48Z</time>
      </trkpt>
      <trkpt lat="47.13852" lon="-0.71838">
        <ele>158.2741699</ele>
        <time>2012-08-24T14:26:58Z</time>
      </trkpt>
      <trkpt lat="47.13812" lon="-0.71845">
        <ele>157.7935791</ele>
        <time>2012-08-24T14:27:07Z</time>
      </trkpt>
      <trkpt lat="47.13776" lon="-0.71853">
        <ele>156.3515625</ele>
        <time>2012-08-24T14:27:13Z</time>
      </trkpt>
      <trkpt lat="47.13756" lon="-0.71859">
        <ele>156.3515625</ele>
        <time>2012-08-24T14:27:16Z</time>
      </trkpt>
      <trkpt lat="47.13707" lon="-0.71871">
        <ele>153.9483643</ele>
        <time>2012-08-24T14:27:23Z</time>
      </trkpt>
      <trkpt lat="47.13659" lon="-0.71877">
        <ele>152.5063477</ele>
        <time>2012-08-24T14:27:29Z</time>
      </trkpt>
      <trkpt lat="47.13627" lon="-0.71883">
        <ele>151.5449219</ele>
        <time>2012-08-24T14:27:33Z</time>
      </trkpt>
      <trkpt lat="47.13569" lon="-0.71914">
        <ele>150.5836182</ele>
        <time>2012-08-24T14:27:41Z</time>
      </trkpt>
      <trkpt lat="47.13501" lon="-0.71951">
        <ele>148.6610107</ele>
        <time>2012-08-24T14:27:51Z</time>
      </trkpt>
      <trkpt lat="47.13446" lon="-0.71968">
        <ele>147.699707</ele>
        <time>2012-08-24T14:27:59Z</time>
      </trkpt>
      <trkpt lat="47.13385" lon="-0.71984">
        <ele>146.7384033</ele>
        <time>2012-08-24T14:28:08Z</time>
      </trkpt>
      <trkpt lat="47.13357" lon="-0.71973">
        <ele>145.7770996</ele>
        <time>2012-08-24T14:28:13Z</time>
      </trkpt>
      <trkpt lat="47.13353" lon="-0.71966">
        <ele>145.7770996</ele>
        <time>2012-08-24T14:28:14Z</time>
      </trkpt>
      <trkpt lat="47.13348" lon="-0.71953">
        <ele>145.2963867</ele>
        <time>2012-08-24T14:28:16Z</time>
      </trkpt>
      <trkpt lat="47.13329" lon="-0.71916">
        <ele>143.3736572</ele>
        <time>2012-08-24T14:28:23Z</time>
      </trkpt>
      <trkpt lat="47.13323" lon="-0.71907">
        <ele>142.8930664</ele>
        <time>2012-08-24T14:28:25Z</time>
      </trkpt>
      <trkpt lat="47.13305" lon="-0.7189">
        <ele>144.3352051</ele>
        <time>2012-08-24T14:28:31Z</time>
      </trkpt>
      <trkpt lat="47.13293" lon="-0.71879">
        <ele>145.2963867</ele>
        <time>2012-08-24T14:28:36Z</time>
      </trkpt>
      <trkpt lat="47.13273" lon="-0.71866">
        <ele>145.7770996</ele>
        <time>2012-08-24T14:28:43Z</time>
      </trkpt>
      <trkpt lat="47.13251" lon="-0.7186">
        <ele>144.8157959</ele>
        <time>2012-08-24T14:28:48Z</time>
      </trkpt>
      <trkpt lat="47.13215" lon="-0.71855">
        <ele>142.8930664</ele>
        <time>2012-08-24T14:28:54Z</time>
      </trkpt>
      <trkpt lat="47.13202" lon="-0.71853">
        <ele>142.8930664</ele>
        <time>2012-08-24T14:28:56Z</time>
      </trkpt>
      <trkpt lat="47.13166" lon="-0.71832">
        <ele>142.4124756</ele>
        <time>2012-08-24T14:29:02Z</time>
      </trkpt>
      <trkpt lat="47.13155" lon="-0.71825">
        <ele>142.8930664</ele>
        <time>2012-08-24T14:29:04Z</time>
      </trkpt>
      <trkpt lat="47.13132" lon="-0.71802">
        <ele>141.4510498</ele>
        <time>2012-08-24T14:29:09Z</time>
      </trkpt>
      <trkpt lat="47.13116" lon="-0.71783">
        <ele>140.4898682</ele>
        <time>2012-08-24T14:29:13Z</time>
      </trkpt>
      <trkpt lat="47.13101" lon="-0.71761">
        <ele>140.970459</ele>
        <time>2012-08-24T14:29:18Z</time>
      </trkpt>
      <trkpt lat="47.13081" lon="-0.71733">
        <ele>141.9317627</ele>
        <time>2012-08-24T14:29:26Z</time>
      </trkpt>
      <trkpt lat="47.13053" lon="-0.71695">
        <ele>140.970459</ele>
        <time>2012-08-24T14:29:36Z</time>
      </trkpt>
      <trkpt lat="47.13034" lon="-0.7167">
        <ele>140.0091553</ele>
        <time>2012-08-24T14:29:43Z</time>
      </trkpt>
      <trkpt lat="47.13014" lon="-0.71643">
        <ele>140.970459</ele>
        <time>2012-08-24T14:29:51Z</time>
      </trkpt>
      <trkpt lat="47.13002" lon="-0.71619">
        <ele>142.8930664</ele>
        <time>2012-08-24T14:29:57Z</time>
      </trkpt>
      <trkpt lat="47.12977" lon="-0.71595">
        <ele>145.7770996</ele>
        <time>2012-08-24T14:30:06Z</time>
      </trkpt>
      <trkpt lat="47.12958" lon="-0.71579">
        <ele>147.699707</ele>
        <time>2012-08-24T14:30:13Z</time>
      </trkpt>
      <trkpt lat="47.12928" lon="-0.71557">
        <ele>150.1030273</ele>
        <time>2012-08-24T14:30:24Z</time>
      </trkpt>
      <trkpt lat="47.129" lon="-0.71548">
        <ele>150.5836182</ele>
        <time>2012-08-24T14:30:33Z</time>
      </trkpt>
      <trkpt lat="47.12868" lon="-0.71544">
        <ele>151.064209</ele>
        <time>2012-08-24T14:30:42Z</time>
      </trkpt>
      <trkpt lat="47.12845" lon="-0.71541">
        <ele>150.5836182</ele>
        <time>2012-08-24T14:30:47Z</time>
      </trkpt>
      <trkpt lat="47.12807" lon="-0.71535">
        <ele>148.6610107</ele>
        <time>2012-08-24T14:30:54Z</time>
      </trkpt>
      <trkpt lat="47.12782" lon="-0.71534">
        <ele>147.2189941</ele>
        <time>2012-08-24T14:30:58Z</time>
      </trkpt>
      <trkpt lat="47.1274" lon="-0.71543">
        <ele>144.8157959</ele>
        <time>2012-08-24T14:31:04Z</time>
      </trkpt>
      <trkpt lat="47.12728" lon="-0.71544">
        <ele>143.8543701</ele>
        <time>2012-08-24T14:31:07Z</time>
      </trkpt>
      <trkpt lat="47.12725" lon="-0.71543">
        <ele>143.8543701</ele>
        <time>2012-08-24T14:31:09Z</time>
      </trkpt>
      <trkpt lat="47.12722" lon="-0.71546">
        <ele>143.3736572</ele>
        <time>2012-08-24T14:31:13Z</time>
      </trkpt>
      <trkpt lat="47.1271" lon="-0.71566">
        <ele>141.9317627</ele>
        <time>2012-08-24T14:31:19Z</time>
      </trkpt>
      <trkpt lat="47.12698" lon="-0.71584">
        <ele>140.970459</ele>
        <time>2012-08-24T14:31:23Z</time>
      </trkpt>
      <trkpt lat="47.12688" lon="-0.71599">
        <ele>140.970459</ele>
        <time>2012-08-24T14:31:26Z</time>
      </trkpt>
      <trkpt lat="47.12647" lon="-0.71641">
        <ele>139.0478516</ele>
        <time>2012-08-24T14:31:36Z</time>
      </trkpt>
      <trkpt lat="47.12618" lon="-0.71673">
        <ele>138.0865479</ele>
        <time>2012-08-24T14:31:43Z</time>
      </trkpt>
      <trkpt lat="47.12588" lon="-0.71703">
        <ele>137.1252441</ele>
        <time>2012-08-24T14:31:51Z</time>
      </trkpt>
      <trkpt lat="47.1257" lon="-0.71719">
        <ele>137.1252441</ele>
        <time>2012-08-24T14:31:56Z</time>
      </trkpt>
      <trkpt lat="47.12545" lon="-0.71746">
        <ele>137.605835</ele>
        <time>2012-08-24T14:32:02Z</time>
      </trkpt>
      <trkpt lat="47.12522" lon="-0.7177">
        <ele>137.605835</ele>
        <time>2012-08-24T14:32:07Z</time>
      </trkpt>
      <trkpt lat="47.12492" lon="-0.71799">
        <ele>135.6831055</ele>
        <time>2012-08-24T14:32:13Z</time>
      </trkpt>
      <trkpt lat="47.12467" lon="-0.71815">
        <ele>135.2025146</ele>
        <time>2012-08-24T14:32:18Z</time>
      </trkpt>
      <trkpt lat="47.12462" lon="-0.71818">
        <ele>135.2025146</ele>
        <time>2012-08-24T14:32:19Z</time>
      </trkpt>
      <trkpt lat="47.12448" lon="-0.71829">
        <ele>135.6831055</ele>
        <time>2012-08-24T14:32:22Z</time>
      </trkpt>
      <trkpt lat="47.12425" lon="-0.71852">
        <ele>135.2025146</ele>
        <time>2012-08-24T14:32:28Z</time>
      </trkpt>
      <trkpt lat="47.12401" lon="-0.71876">
        <ele>133.760498</ele>
        <time>2012-08-24T14:32:34Z</time>
      </trkpt>
      <trkpt lat="47.12379" lon="-0.71899">
        <ele>133.760498</ele>
        <time>2012-08-24T14:32:39Z</time>
      </trkpt>
      <trkpt lat="47.12374" lon="-0.71904">
        <ele>133.2799072</ele>
        <time>2012-08-24T14:32:40Z</time>
      </trkpt>
      <trkpt lat="47.12357" lon="-0.71915">
        <ele>131.3572998</ele>
        <time>2012-08-24T14:32:43Z</time>
      </trkpt>
      <trkpt lat="47.12321" lon="-0.71931">
        <ele>127.0313721</ele>
        <time>2012-08-24T14:32:48Z</time>
      </trkpt>
      <trkpt lat="47.12307" lon="-0.71939">
        <ele>125.5893555</ele>
        <time>2012-08-24T14:32:50Z</time>
      </trkpt>
      <trkpt lat="47.12283" lon="-0.71962">
        <ele>122.7054443</ele>
        <time>2012-08-24T14:32:55Z</time>
      </trkpt>
      <trkpt lat="47.12282" lon="-0.71964">
        <ele>122.7054443</ele>
        <time>2012-08-24T14:32:56Z</time>
      </trkpt>
      <trkpt lat="47.12275" lon="-0.7197">
        <ele>129.4346924</ele>
        <time>2012-08-24T14:33:05Z</time>
      </trkpt>
      <trkpt lat="47.12263" lon="-0.71976">
        <ele>128.9541016</ele>
        <time>2012-08-24T14:33:11Z</time>
      </trkpt>
      <trkpt lat="47.12238" lon="-0.71979">
        <ele>129.4346924</ele>
        <time>2012-08-24T14:33:17Z</time>
      </trkpt>
      <trkpt lat="47.12221" lon="-0.71977">
        <ele>129.4346924</ele>
        <time>2012-08-24T14:33:21Z</time>
      </trkpt>
      <trkpt lat="47.122" lon="-0.71966">
        <ele>127.0313721</ele>
        <time>2012-08-24T14:33:26Z</time>
      </trkpt>
      <trkpt lat="47.12167" lon="-0.71947">
        <ele>127.9925537</ele>
        <time>2012-08-24T14:33:34Z</time>
      </trkpt>
      <trkpt lat="47.1215" lon="-0.71938">
        <ele>129.4346924</ele>
        <time>2012-08-24T14:33:38Z</time>
      </trkpt>
      <trkpt lat="47.12127" lon="-0.71912">
        <ele>129.9152832</ele>
        <time>2012-08-24T14:33:45Z</time>
      </trkpt>
      <trkpt lat="47.12105" lon="-0.71885">
        <ele>129.9152832</ele>
        <time>2012-08-24T14:33:52Z</time>
      </trkpt>
      <trkpt lat="47.12067" lon="-0.71858">
        <ele>130.876709</ele>
        <time>2012-08-24T14:34:02Z</time>
      </trkpt>
      <trkpt lat="47.12031" lon="-0.71844">
        <ele>131.8378906</ele>
        <time>2012-08-24T14:34:11Z</time>
      </trkpt>
      <trkpt lat="47.11991" lon="-0.71832">
        <ele>132.7993164</ele>
        <time>2012-08-24T14:34:21Z</time>
      </trkpt>
      <trkpt lat="47.1196" lon="-0.71826">
        <ele>132.7993164</ele>
        <time>2012-08-24T14:34:29Z</time>
      </trkpt>
      <trkpt lat="47.11916" lon="-0.71816">
        <ele>133.760498</ele>
        <time>2012-08-24T14:34:40Z</time>
      </trkpt>
      <trkpt lat="47.11898" lon="-0.71807">
        <ele>134.2412109</ele>
        <time>2012-08-24T14:34:45Z</time>
      </trkpt>
      <trkpt lat="47.11882" lon="-0.71798">
        <ele>134.2412109</ele>
        <time>2012-08-24T14:34:50Z</time>
      </trkpt>
      <trkpt lat="47.11864" lon="-0.71787">
        <ele>134.2412109</ele>
        <time>2012-08-24T14:34:57Z</time>
      </trkpt>
      <trkpt lat="47.11858" lon="-0.71783">
        <ele>134.7219238</ele>
        <time>2012-08-24T14:35:02Z</time>
      </trkpt>
      <trkpt lat="47.11852" lon="-0.71792">
        <ele>134.2412109</ele>
        <time>2012-08-24T14:35:07Z</time>
      </trkpt>
      <trkpt lat="47.1184" lon="-0.71825">
        <ele>133.2799072</ele>
        <time>2012-08-24T14:35:15Z</time>
      </trkpt>
      <trkpt lat="47.11823" lon="-0.7187">
        <ele>133.2799072</ele>
        <time>2012-08-24T14:35:24Z</time>
      </trkpt>
      <trkpt lat="47.1181" lon="-0.71907">
        <ele>133.2799072</ele>
        <time>2012-08-24T14:35:31Z</time>
      </trkpt>
      <trkpt lat="47.11795" lon="-0.71931">
        <ele>134.2412109</ele>
        <time>2012-08-24T14:35:38Z</time>
      </trkpt>
      <trkpt lat="47.11782" lon="-0.71944">
        <ele>133.2799072</ele>
        <time>2012-08-24T14:35:43Z</time>
      </trkpt>
      <trkpt lat="47.11766" lon="-0.71952">
        <ele>132.3186035</ele>
        <time>2012-08-24T14:35:47Z</time>
      </trkpt>
      <trkpt lat="47.11742" lon="-0.71963">
        <ele>130.3959961</ele>
        <time>2012-08-24T14:35:53Z</time>
      </trkpt>
      <trkpt lat="47.11724" lon="-0.71969">
        <ele>128.9541016</ele>
        <time>2012-08-24T14:35:59Z</time>
      </trkpt>
      <trkpt lat="47.11709" lon="-0.71973">
        <ele>128.4733887</ele>
        <time>2012-08-24T14:36:03Z</time>
      </trkpt>
      <trkpt lat="47.11685" lon="-0.71984">
        <ele>125.5893555</ele>
        <time>2012-08-24T14:36:08Z</time>
      </trkpt>
      <trkpt lat="47.11657" lon="-0.72">
        <ele>126.0699463</ele>
        <time>2012-08-24T14:36:14Z</time>
      </trkpt>
      <trkpt lat="47.11636" lon="-0.72016">
        <ele>127.5119629</ele>
        <time>2012-08-24T14:36:19Z</time>
      </trkpt>
      <trkpt lat="47.11621" lon="-0.7203">
        <ele>129.4346924</ele>
        <time>2012-08-24T14:36:25Z</time>
      </trkpt>
      <trkpt lat="47.11617" lon="-0.72032">
        <ele>134.7219238</ele>
        <time>2012-08-24T14:36:30Z</time>
      </trkpt>
      <trkpt lat="47.11614" lon="-0.72036">
        <ele>141.4510498</ele>
        <time>2012-08-24T14:36:43Z</time>
      </trkpt>
      <trkpt lat="47.11614" lon="-0.72036">
        <ele>141.4510498</ele>
        <time>2012-08-24T14:36:44Z</time>
      </trkpt>
      <trkpt lat="47.11616" lon="-0.72035">
        <ele>143.3736572</ele>
        <time>2012-08-24T14:36:53Z</time>
      </trkpt>
      <trkpt lat="47.11617" lon="-0.72038">
        <ele>146.7384033</ele>
        <time>2012-08-24T14:37:05Z</time>
      </trkpt>
      <trkpt lat="47.11616" lon="-0.7204">
        <ele>148.6610107</ele>
        <time>2012-08-24T14:37:12Z</time>
      </trkpt>
      <trkpt lat="47.11613" lon="-0.72041">
        <ele>150.1030273</ele>
        <time>2012-08-24T14:37:27Z</time>
      </trkpt>
      <trkpt lat="47.11615" lon="-0.72037">
        <ele>146.2578125</ele>
        <time>2012-08-24T14:37:53Z</time>
      </trkpt>
      <trkpt lat="47.11615" lon="-0.72036">
        <ele>143.8543701</ele>
        <time>2012-08-24T14:38:13Z</time>
      </trkpt>
      <trkpt lat="47.11615" lon="-0.72035">
        <ele>142.4124756</ele>
        <time>2012-08-24T14:38:25Z</time>
      </trkpt>
      <trkpt lat="47.11617" lon="-0.72034">
        <ele>144.8157959</ele>
        <time>2012-08-24T14:38:35Z</time>
      </trkpt>
      <trkpt lat="47.11616" lon="-0.72034">
        <ele>145.2963867</ele>
        <time>2012-08-24T14:38:39Z</time>
      </trkpt>
      <trkpt lat="47.11617" lon="-0.72031">
        <ele>142.4124756</ele>
        <time>2012-08-24T14:38:53Z</time>
      </trkpt>
      <trkpt lat="47.11617" lon="-0.72031">
        <ele>140.4898682</ele>
        <time>2012-08-24T14:38:58Z</time>
      </trkpt>
      <trkpt lat="47.11618" lon="-0.72032">
        <ele>140.0091553</ele>
        <time>2012-08-24T14:39:11Z</time>
      </trkpt>
      <trkpt lat="47.11615" lon="-0.72036">
        <ele>140.0091553</ele>
        <time>2012-08-24T14:39:21Z</time>
      </trkpt>
      <trkpt lat="47.11611" lon="-0.7204">
        <ele>142.4124756</ele>
        <time>2012-08-24T14:39:31Z</time>
      </trkpt>
      <trkpt lat="47.11604" lon="-0.72045">
        <ele>139.5284424</ele>
        <time>2012-08-24T14:39:37Z</time>
      </trkpt>
      <trkpt lat="47.11589" lon="-0.72059">
        <ele>137.605835</ele>
        <time>2012-08-24T14:39:43Z</time>
      </trkpt>
      <trkpt lat="47.11576" lon="-0.72073">
        <ele>135.2025146</ele>
        <time>2012-08-24T14:39:47Z</time>
      </trkpt>
      <trkpt lat="47.11561" lon="-0.72085">
        <ele>134.2412109</ele>
        <time>2012-08-24T14:39:51Z</time>
      </trkpt>
      <trkpt lat="47.11524" lon="-0.72105">
        <ele>134.7219238</ele>
        <time>2012-08-24T14:40:00Z</time>
      </trkpt>
      <trkpt lat="47.11494" lon="-0.72118">
        <ele>135.6831055</ele>
        <time>2012-08-24T14:40:07Z</time>
      </trkpt>
      <trkpt lat="47.11476" lon="-0.72128">
        <ele>135.6831055</ele>
        <time>2012-08-24T14:40:12Z</time>
      </trkpt>
      <trkpt lat="47.11448" lon="-0.72142">
        <ele>134.7219238</ele>
        <time>2012-08-24T14:40:20Z</time>
      </trkpt>
      <trkpt lat="47.11436" lon="-0.72152">
        <ele>134.2412109</ele>
        <time>2012-08-24T14:40:25Z</time>
      </trkpt>
      <trkpt lat="47.11425" lon="-0.72164">
        <ele>133.2799072</ele>
        <time>2012-08-24T14:40:29Z</time>
      </trkpt>
      <trkpt lat="47.11412" lon="-0.72181">
        <ele>133.2799072</ele>
        <time>2012-08-24T14:40:35Z</time>
      </trkpt>
      <trkpt lat="47.11401" lon="-0.72201">
        <ele>131.3572998</ele>
        <time>2012-08-24T14:40:40Z</time>
      </trkpt>
      <trkpt lat="47.11387" lon="-0.72231">
        <ele>130.876709</ele>
        <time>2012-08-24T14:40:47Z</time>
      </trkpt>
      <trkpt lat="47.11377" lon="-0.72251">
        <ele>130.3959961</ele>
        <time>2012-08-24T14:40:52Z</time>
      </trkpt>
      <trkpt lat="47.11365" lon="-0.72277">
        <ele>129.9152832</ele>
        <time>2012-08-24T14:40:58Z</time>
      </trkpt>
      <trkpt lat="47.11351" lon="-0.72311">
        <ele>129.9152832</ele>
        <time>2012-08-24T14:41:05Z</time>
      </trkpt>
      <trkpt lat="47.11341" lon="-0.72341">
        <ele>127.9925537</ele>
        <time>2012-08-24T14:41:11Z</time>
      </trkpt>
      <trkpt lat="47.11331" lon="-0.72377">
        <ele>123.666748</ele>
        <time>2012-08-24T14:41:18Z</time>
      </trkpt>
      <trkpt lat="47.11322" lon="-0.72422">
        <ele>124.6280518</ele>
        <time>2012-08-24T14:41:26Z</time>
      </trkpt>
      <trkpt lat="47.11318" lon="-0.72455">
        <ele>125.5893555</ele>
        <time>2012-08-24T14:41:32Z</time>
      </trkpt>
      <trkpt lat="47.11313" lon="-0.72488">
        <ele>125.5893555</ele>
        <time>2012-08-24T14:41:38Z</time>
      </trkpt>
      <trkpt lat="47.11305" lon="-0.72532">
        <ele>127.9925537</ele>
        <time>2012-08-24T14:41:46Z</time>
      </trkpt>
      <trkpt lat="47.11303" lon="-0.72558">
        <ele>124.6280518</ele>
        <time>2012-08-24T14:41:51Z</time>
      </trkpt>
      <trkpt lat="47.11299" lon="-0.7259">
        <ele>127.9925537</ele>
        <time>2012-08-24T14:41:57Z</time>
      </trkpt>
      <trkpt lat="47.11294" lon="-0.72615">
        <ele>132.3186035</ele>
        <time>2012-08-24T14:42:01Z</time>
      </trkpt>
      <trkpt lat="47.11289" lon="-0.7265">
        <ele>133.2799072</ele>
        <time>2012-08-24T14:42:07Z</time>
      </trkpt>
      <trkpt lat="47.11286" lon="-0.72665">
        <ele>133.760498</ele>
        <time>2012-08-24T14:42:10Z</time>
      </trkpt>
      <trkpt lat="47.11278" lon="-0.72707">
        <ele>131.8378906</ele>
        <time>2012-08-24T14:42:17Z</time>
      </trkpt>
      <trkpt lat="47.11275" lon="-0.72718">
        <ele>133.2799072</ele>
        <time>2012-08-24T14:42:19Z</time>
      </trkpt>
      <trkpt lat="47.11259" lon="-0.72764">
        <ele>138.5672607</ele>
        <time>2012-08-24T14:42:26Z</time>
      </trkpt>
      <trkpt lat="47.1125" lon="-0.72795">
        <ele>140.0091553</ele>
        <time>2012-08-24T14:42:31Z</time>
      </trkpt>
      <trkpt lat="47.11239" lon="-0.72817">
        <ele>139.0478516</ele>
        <time>2012-08-24T14:42:36Z</time>
      </trkpt>
      <trkpt lat="47.11225" lon="-0.7285">
        <ele>135.6831055</ele>
        <time>2012-08-24T14:42:43Z</time>
      </trkpt>
      <trkpt lat="47.11204" lon="-0.72884">
        <ele>136.6446533</ele>
        <time>2012-08-24T14:42:51Z</time>
      </trkpt>
      <trkpt lat="47.11192" lon="-0.72905">
        <ele>136.6446533</ele>
        <time>2012-08-24T14:42:56Z</time>
      </trkpt>
      <trkpt lat="47.11174" lon="-0.72927">
        <ele>138.0865479</ele>
        <time>2012-08-24T14:43:02Z</time>
      </trkpt>
      <trkpt lat="47.11159" lon="-0.72945">
        <ele>141.4510498</ele>
        <time>2012-08-24T14:43:08Z</time>
      </trkpt>
      <trkpt lat="47.11149" lon="-0.7296">
        <ele>142.8930664</ele>
        <time>2012-08-24T14:43:14Z</time>
      </trkpt>
      <trkpt lat="47.11137" lon="-0.72975">
        <ele>142.8930664</ele>
        <time>2012-08-24T14:43:21Z</time>
      </trkpt>
      <trkpt lat="47.11125" lon="-0.72993">
        <ele>144.8157959</ele>
        <time>2012-08-24T14:43:28Z</time>
      </trkpt>
      <trkpt lat="47.11114" lon="-0.73011">
        <ele>145.7770996</ele>
        <time>2012-08-24T14:43:35Z</time>
      </trkpt>
      <trkpt lat="47.11099" lon="-0.73037">
        <ele>147.699707</ele>
        <time>2012-08-24T14:43:43Z</time>
      </trkpt>
      <trkpt lat="47.11085" lon="-0.73062">
        <ele>149.1416016</ele>
        <time>2012-08-24T14:43:50Z</time>
      </trkpt>
      <trkpt lat="47.11074" lon="-0.73088">
        <ele>148.6610107</ele>
        <time>2012-08-24T14:43:57Z</time>
      </trkpt>
      <trkpt lat="47.11063" lon="-0.7312">
        <ele>144.3352051</ele>
        <time>2012-08-24T14:44:05Z</time>
      </trkpt>
      <trkpt lat="47.1105" lon="-0.73146">
        <ele>141.9317627</ele>
        <time>2012-08-24T14:44:12Z</time>
      </trkpt>
      <trkpt lat="47.11032" lon="-0.73171">
        <ele>140.970459</ele>
        <time>2012-08-24T14:44:20Z</time>
      </trkpt>
      <trkpt lat="47.11011" lon="-0.73192">
        <ele>140.970459</ele>
        <time>2012-08-24T14:44:28Z</time>
      </trkpt>
      <trkpt lat="47.10992" lon="-0.73214">
        <ele>141.4510498</ele>
        <time>2012-08-24T14:44:36Z</time>
      </trkpt>
      <trkpt lat="47.10983" lon="-0.73231">
        <ele>141.9317627</ele>
        <time>2012-08-24T14:44:42Z</time>
      </trkpt>
      <trkpt lat="47.10974" lon="-0.73245">
        <ele>143.8543701</ele>
        <time>2012-08-24T14:44:48Z</time>
      </trkpt>
      <trkpt lat="47.10958" lon="-0.73259">
        <ele>147.2189941</ele>
        <time>2012-08-24T14:44:54Z</time>
      </trkpt>
      <trkpt lat="47.10951" lon="-0.73267">
        <ele>148.6610107</ele>
        <time>2012-08-24T14:44:58Z</time>
      </trkpt>
      <trkpt lat="47.1094" lon="-0.73281">
        <ele>150.5836182</ele>
        <time>2012-08-24T14:45:04Z</time>
      </trkpt>
      <trkpt lat="47.10939" lon="-0.73283">
        <ele>150.5836182</ele>
        <time>2012-08-24T14:45:05Z</time>
      </trkpt>
      <trkpt lat="47.10933" lon="-0.73293">
        <ele>150.1030273</ele>
        <time>2012-08-24T14:45:11Z</time>
      </trkpt>
      <trkpt lat="47.10926" lon="-0.73305">
        <ele>148.1804199</ele>
        <time>2012-08-24T14:45:16Z</time>
      </trkpt>
      <trkpt lat="47.10914" lon="-0.73318">
        <ele>147.2189941</ele>
        <time>2012-08-24T14:45:22Z</time>
      </trkpt>
      <trkpt lat="47.10902" lon="-0.73329">
        <ele>146.7384033</ele>
        <time>2012-08-24T14:45:27Z</time>
      </trkpt>
      <trkpt lat="47.10884" lon="-0.73343">
        <ele>149.1416016</ele>
        <time>2012-08-24T14:45:33Z</time>
      </trkpt>
      <trkpt lat="47.10875" lon="-0.73358">
        <ele>149.6223145</ele>
        <time>2012-08-24T14:45:37Z</time>
      </trkpt>
      <trkpt lat="47.10861" lon="-0.73383">
        <ele>147.2189941</ele>
        <time>2012-08-24T14:45:43Z</time>
      </trkpt>
      <trkpt lat="47.10853" lon="-0.73394">
        <ele>147.2189941</ele>
        <time>2012-08-24T14:45:48Z</time>
      </trkpt>
      <trkpt lat="47.1085" lon="-0.73397">
        <ele>147.2189941</ele>
        <time>2012-08-24T14:45:50Z</time>
      </trkpt>
      <trkpt lat="47.10846" lon="-0.73403">
        <ele>148.1804199</ele>
        <time>2012-08-24T14:45:53Z</time>
      </trkpt>
      <trkpt lat="47.10846" lon="-0.73404">
        <ele>148.1804199</ele>
        <time>2012-08-24T14:45:54Z</time>
      </trkpt>
      <trkpt lat="47.10845" lon="-0.73407">
        <ele>149.1416016</ele>
        <time>2012-08-24T14:46:01Z</time>
      </trkpt>
      <trkpt lat="47.10842" lon="-0.7341">
        <ele>152.5063477</ele>
        <time>2012-08-24T14:46:11Z</time>
      </trkpt>
      <trkpt lat="47.10841" lon="-0.73411">
        <ele>152.9869385</ele>
        <time>2012-08-24T14:46:12Z</time>
      </trkpt>
      <trkpt lat="47.10835" lon="-0.73413">
        <ele>155.3902588</ele>
        <time>2012-08-24T14:46:16Z</time>
      </trkpt>
      <trkpt lat="47.10824" lon="-0.73419">
        <ele>155.8709717</ele>
        <time>2012-08-24T14:46:23Z</time>
      </trkpt>
      <trkpt lat="47.10816" lon="-0.73425">
        <ele>155.8709717</ele>
        <time>2012-08-24T14:46:28Z</time>
      </trkpt>
      <trkpt lat="47.10809" lon="-0.7343">
        <ele>155.8709717</ele>
        <time>2012-08-24T14:46:34Z</time>
      </trkpt>
      <trkpt lat="47.10796" lon="-0.73438">
        <ele>157.3128662</ele>
        <time>2012-08-24T14:46:42Z</time>
      </trkpt>
      <trkpt lat="47.10789" lon="-0.73443">
        <ele>157.7935791</ele>
        <time>2012-08-24T14:46:49Z</time>
      </trkpt>
      <trkpt lat="47.10784" lon="-0.73445">
        <ele>158.7547607</ele>
        <time>2012-08-24T14:46:54Z</time>
      </trkpt>
      <trkpt lat="47.10778" lon="-0.73448">
        <ele>159.2354736</ele>
        <time>2012-08-24T14:47:01Z</time>
      </trkpt>
      <trkpt lat="47.10762" lon="-0.73455">
        <ele>161.1582031</ele>
        <time>2012-08-24T14:47:08Z</time>
      </trkpt>
      <trkpt lat="47.10754" lon="-0.73458">
        <ele>161.1582031</ele>
        <time>2012-08-24T14:47:11Z</time>
      </trkpt>
      <trkpt lat="47.10751" lon="-0.73459">
        <ele>161.638916</ele>
        <time>2012-08-24T14:47:12Z</time>
      </trkpt>
      <trkpt lat="47.10726" lon="-0.73465">
        <ele>163.0808105</ele>
        <time>2012-08-24T14:47:20Z</time>
      </trkpt>
      <trkpt lat="47.107" lon="-0.73467">
        <ele>163.0808105</ele>
        <time>2012-08-24T14:47:27Z</time>
      </trkpt>
      <trkpt lat="47.10677" lon="-0.73475">
        <ele>163.0808105</ele>
        <time>2012-08-24T14:47:33Z</time>
      </trkpt>
      <trkpt lat="47.10645" lon="-0.73493">
        <ele>162.6000977</ele>
        <time>2012-08-24T14:47:42Z</time>
      </trkpt>
      <trkpt lat="47.10623" lon="-0.73515">
        <ele>163.0808105</ele>
        <time>2012-08-24T14:47:49Z</time>
      </trkpt>
      <trkpt lat="47.10598" lon="-0.73553">
        <ele>163.0808105</ele>
        <time>2012-08-24T14:47:59Z</time>
      </trkpt>
      <trkpt lat="47.10577" lon="-0.73595">
        <ele>163.0808105</ele>
        <time>2012-08-24T14:48:09Z</time>
      </trkpt>
      <trkpt lat="47.10566" lon="-0.73609">
        <ele>163.0808105</ele>
        <time>2012-08-24T14:48:14Z</time>
      </trkpt>
      <trkpt lat="47.10561" lon="-0.73623">
        <ele>163.0808105</ele>
        <time>2012-08-24T14:48:20Z</time>
      </trkpt>
      <trkpt lat="47.10549" lon="-0.73635">
        <ele>163.5615234</ele>
        <time>2012-08-24T14:48:25Z</time>
      </trkpt>
      <trkpt lat="47.10526" lon="-0.73654">
        <ele>164.0421143</ele>
        <time>2012-08-24T14:48:33Z</time>
      </trkpt>
      <trkpt lat="47.10505" lon="-0.73676">
        <ele>163.5615234</ele>
        <time>2012-08-24T14:48:41Z</time>
      </trkpt>
      <trkpt lat="47.1048" lon="-0.73711">
        <ele>163.5615234</ele>
        <time>2012-08-24T14:48:52Z</time>
      </trkpt>
      <trkpt lat="47.10462" lon="-0.73743">
        <ele>162.6000977</ele>
        <time>2012-08-24T14:49:01Z</time>
      </trkpt>
      <trkpt lat="47.1044" lon="-0.73773">
        <ele>162.1195068</ele>
        <time>2012-08-24T14:49:09Z</time>
      </trkpt>
      <trkpt lat="47.10409" lon="-0.73806">
        <ele>160.6774902</ele>
        <time>2012-08-24T14:49:19Z</time>
      </trkpt>
      <trkpt lat="47.10389" lon="-0.73834">
        <ele>161.1582031</ele>
        <time>2012-08-24T14:49:26Z</time>
      </trkpt>
      <trkpt lat="47.10377" lon="-0.73863">
        <ele>160.6774902</ele>
        <time>2012-08-24T14:49:33Z</time>
      </trkpt>
      <trkpt lat="47.10363" lon="-0.73903">
        <ele>160.1968994</ele>
        <time>2012-08-24T14:49:42Z</time>
      </trkpt>
      <trkpt lat="47.10354" lon="-0.73927">
        <ele>159.7161865</ele>
        <time>2012-08-24T14:49:48Z</time>
      </trkpt>
      <trkpt lat="47.10346" lon="-0.73932">
        <ele>160.1968994</ele>
        <time>2012-08-24T14:49:53Z</time>
      </trkpt>
      <trkpt lat="47.1034" lon="-0.73934">
        <ele>160.1968994</ele>
        <time>2012-08-24T14:49:59Z</time>
      </trkpt>
      <trkpt lat="47.1033" lon="-0.73937">
        <ele>160.6774902</ele>
        <time>2012-08-24T14:50:08Z</time>
      </trkpt>
      <trkpt lat="47.10322" lon="-0.73938">
        <ele>162.1195068</ele>
        <time>2012-08-24T14:50:14Z</time>
      </trkpt>
      <trkpt lat="47.1031" lon="-0.7394">
        <ele>162.6000977</ele>
        <time>2012-08-24T14:50:21Z</time>
      </trkpt>
      <trkpt lat="47.103" lon="-0.73941">
        <ele>164.0421143</ele>
        <time>2012-08-24T14:50:28Z</time>
      </trkpt>
      <trkpt lat="47.10284" lon="-0.73944">
        <ele>163.5615234</ele>
        <time>2012-08-24T14:50:35Z</time>
      </trkpt>
      <trkpt lat="47.10265" lon="-0.7395">
        <ele>163.0808105</ele>
        <time>2012-08-24T14:50:42Z</time>
      </trkpt>
      <trkpt lat="47.10249" lon="-0.7395">
        <ele>163.0808105</ele>
        <time>2012-08-24T14:50:48Z</time>
      </trkpt>
      <trkpt lat="47.10234" lon="-0.73942">
        <ele>164.5227051</ele>
        <time>2012-08-24T14:50:54Z</time>
      </trkpt>
      <trkpt lat="47.10227" lon="-0.73929">
        <ele>166.4453125</ele>
        <time>2012-08-24T14:50:58Z</time>
      </trkpt>
      <trkpt lat="47.10216" lon="-0.73908">
        <ele>167.8873291</ele>
        <time>2012-08-24T14:51:03Z</time>
      </trkpt>
      <trkpt lat="47.10205" lon="-0.73887">
        <ele>168.8487549</ele>
        <time>2012-08-24T14:51:08Z</time>
      </trkpt>
      <trkpt lat="47.10193" lon="-0.7386">
        <ele>169.8100586</ele>
        <time>2012-08-24T14:51:14Z</time>
      </trkpt>
      <trkpt lat="47.1019" lon="-0.73848">
        <ele>169.3294678</ele>
        <time>2012-08-24T14:51:17Z</time>
      </trkpt>
      <trkpt lat="47.10179" lon="-0.73835">
        <ele>171.732666</ele>
        <time>2012-08-24T14:51:23Z</time>
      </trkpt>
      <trkpt lat="47.10176" lon="-0.73834">
        <ele>168.8487549</ele>
        <time>2012-08-24T14:51:30Z</time>
      </trkpt>
      <trkpt lat="47.10175" lon="-0.73829">
        <ele>171.732666</ele>
        <time>2012-08-24T14:51:37Z</time>
      </trkpt>
      <trkpt lat="47.10179" lon="-0.73831">
        <ele>170.2906494</ele>
        <time>2012-08-24T14:51:48Z</time>
      </trkpt>
      <trkpt lat="47.10183" lon="-0.73837">
        <ele>165.9647217</ele>
        <time>2012-08-24T14:51:52Z</time>
      </trkpt>
      <trkpt lat="47.10186" lon="-0.73849">
        <ele>164.0421143</ele>
        <time>2012-08-24T14:51:57Z</time>
      </trkpt>
      <trkpt lat="47.10179" lon="-0.7386">
        <ele>164.5227051</ele>
        <time>2012-08-24T14:52:02Z</time>
      </trkpt>
      <trkpt lat="47.10175" lon="-0.73863">
        <ele>164.5227051</ele>
        <time>2012-08-24T14:52:04Z</time>
      </trkpt>
      <trkpt lat="47.10162" lon="-0.73873">
        <ele>164.5227051</ele>
        <time>2012-08-24T14:52:11Z</time>
      </trkpt>
      <trkpt lat="47.10152" lon="-0.7388">
        <ele>165.4841309</ele>
        <time>2012-08-24T14:52:17Z</time>
      </trkpt>
      <trkpt lat="47.10151" lon="-0.73884">
        <ele>170.7713623</ele>
        <time>2012-08-24T14:52:27Z</time>
      </trkpt>
      <trkpt lat="47.1015" lon="-0.73885">
        <ele>169.8100586</ele>
        <time>2012-08-24T14:52:34Z</time>
      </trkpt>
      <trkpt lat="47.10148" lon="-0.73886">
        <ele>171.2520752</ele>
        <time>2012-08-24T14:52:37Z</time>
      </trkpt>
      <trkpt lat="47.10148" lon="-0.73887">
        <ele>170.2906494</ele>
        <time>2012-08-24T14:52:43Z</time>
      </trkpt>
      <trkpt lat="47.10147" lon="-0.73888">
        <ele>168.368042</ele>
        <time>2012-08-24T14:52:50Z</time>
      </trkpt>
      <trkpt lat="47.10144" lon="-0.73888">
        <ele>169.8100586</ele>
        <time>2012-08-24T14:52:57Z</time>
      </trkpt>
      <trkpt lat="47.10138" lon="-0.7389">
        <ele>168.8487549</ele>
        <time>2012-08-24T14:53:02Z</time>
      </trkpt>
      <trkpt lat="47.10125" lon="-0.73892">
        <ele>168.8487549</ele>
        <time>2012-08-24T14:53:09Z</time>
      </trkpt>
      <trkpt lat="47.10111" lon="-0.73892">
        <ele>168.368042</ele>
        <time>2012-08-24T14:53:14Z</time>
      </trkpt>
      <trkpt lat="47.10101" lon="-0.73895">
        <ele>168.368042</ele>
        <time>2012-08-24T14:53:17Z</time>
      </trkpt>
      <trkpt lat="47.10077" lon="-0.73895">
        <ele>167.8873291</ele>
        <time>2012-08-24T14:53:25Z</time>
      </trkpt>
      <trkpt lat="47.10071" lon="-0.73893">
        <ele>168.368042</ele>
        <time>2012-08-24T14:53:27Z</time>
      </trkpt>
      <trkpt lat="47.1006" lon="-0.73895">
        <ele>169.3294678</ele>
        <time>2012-08-24T14:53:31Z</time>
      </trkpt>
      <trkpt lat="47.10044" lon="-0.73899">
        <ele>168.8487549</ele>
        <time>2012-08-24T14:53:38Z</time>
      </trkpt>
      <trkpt lat="47.10035" lon="-0.73902">
        <ele>169.8100586</ele>
        <time>2012-08-24T14:53:43Z</time>
      </trkpt>
      <trkpt lat="47.10022" lon="-0.73906">
        <ele>170.2906494</ele>
        <time>2012-08-24T14:53:49Z</time>
      </trkpt>
      <trkpt lat="47.10012" lon="-0.73908">
        <ele>170.2906494</ele>
        <time>2012-08-24T14:53:54Z</time>
      </trkpt>
      <trkpt lat="47.09999" lon="-0.73906">
        <ele>171.2520752</ele>
        <time>2012-08-24T14:54:00Z</time>
      </trkpt>
      <trkpt lat="47.0998" lon="-0.73902">
        <ele>171.732666</ele>
        <time>2012-08-24T14:54:07Z</time>
      </trkpt>
      <trkpt lat="47.09965" lon="-0.73896">
        <ele>172.6939697</ele>
        <time>2012-08-24T14:54:13Z</time>
      </trkpt>
      <trkpt lat="47.09953" lon="-0.73887">
        <ele>172.6939697</ele>
        <time>2012-08-24T14:54:18Z</time>
      </trkpt>
      <trkpt lat="47.09939" lon="-0.73865">
        <ele>173.6552734</ele>
        <time>2012-08-24T14:54:24Z</time>
      </trkpt>
      <trkpt lat="47.09924" lon="-0.73847">
        <ele>174.1358643</ele>
        <time>2012-08-24T14:54:30Z</time>
      </trkpt>
      <trkpt lat="47.09905" lon="-0.73831">
        <ele>175.09729</ele>
        <time>2012-08-24T14:54:37Z</time>
      </trkpt>
      <trkpt lat="47.09881" lon="-0.73824">
        <ele>178.4619141</ele>
        <time>2012-08-24T14:54:44Z</time>
      </trkpt>
      <trkpt lat="47.09863" lon="-0.73822">
        <ele>179.9038086</ele>
        <time>2012-08-24T14:54:50Z</time>
      </trkpt>
      <trkpt lat="47.09851" lon="-0.73824">
        <ele>181.826416</ele>
        <time>2012-08-24T14:54:56Z</time>
      </trkpt>
      <trkpt lat="47.09838" lon="-0.73816">
        <ele>181.3458252</ele>
        <time>2012-08-24T14:55:03Z</time>
      </trkpt>
      <trkpt lat="47.09822" lon="-0.73816">
        <ele>181.3458252</ele>
        <time>2012-08-24T14:55:10Z</time>
      </trkpt>
      <trkpt lat="47.09801" lon="-0.73815">
        <ele>181.3458252</ele>
        <time>2012-08-24T14:55:17Z</time>
      </trkpt>
      <trkpt lat="47.09776" lon="-0.73815">
        <ele>179.4232178</ele>
        <time>2012-08-24T14:55:24Z</time>
      </trkpt>
      <trkpt lat="47.09751" lon="-0.73815">
        <ele>179.9038086</ele>
        <time>2012-08-24T14:55:31Z</time>
      </trkpt>
      <trkpt lat="47.09733" lon="-0.73813">
        <ele>179.4232178</ele>
        <time>2012-08-24T14:55:36Z</time>
      </trkpt>
      <trkpt lat="47.0972" lon="-0.73811">
        <ele>178.942627</ele>
        <time>2012-08-24T14:55:40Z</time>
      </trkpt>
      <trkpt lat="47.09697" lon="-0.73809">
        <ele>177.0200195</ele>
        <time>2012-08-24T14:55:46Z</time>
      </trkpt>
      <trkpt lat="47.09677" lon="-0.73806">
        <ele>175.5778809</ele>
        <time>2012-08-24T14:55:51Z</time>
      </trkpt>
      <trkpt lat="47.09659" lon="-0.73807">
        <ele>174.1358643</ele>
        <time>2012-08-24T14:55:56Z</time>
      </trkpt>
      <trkpt lat="47.09643" lon="-0.73806">
        <ele>172.2132568</ele>
        <time>2012-08-24T14:56:00Z</time>
      </trkpt>
      <trkpt lat="47.09614" lon="-0.73803">
        <ele>171.732666</ele>
        <time>2012-08-24T14:56:05Z</time>
      </trkpt>
      <trkpt lat="47.09598" lon="-0.73801">
        <ele>170.7713623</ele>
        <time>2012-08-24T14:56:08Z</time>
      </trkpt>
      <trkpt lat="47.09553" lon="-0.73799">
        <ele>168.368042</ele>
        <time>2012-08-24T14:56:16Z</time>
      </trkpt>
      <trkpt lat="47.09542" lon="-0.73794">
        <ele>167.8873291</ele>
        <time>2012-08-24T14:56:18Z</time>
      </trkpt>
      <trkpt lat="47.09525" lon="-0.73789">
        <ele>168.368042</ele>
        <time>2012-08-24T14:56:21Z</time>
      </trkpt>
      <trkpt lat="47.09504" lon="-0.73787">
        <ele>167.8873291</ele>
        <time>2012-08-24T14:56:25Z</time>
      </trkpt>
      <trkpt lat="47.09482" lon="-0.73786">
        <ele>168.368042</ele>
        <time>2012-08-24T14:56:30Z</time>
      </trkpt>
      <trkpt lat="47.09474" lon="-0.73784">
        <ele>168.368042</ele>
        <time>2012-08-24T14:56:32Z</time>
      </trkpt>
      <trkpt lat="47.09461" lon="-0.73784">
        <ele>168.8487549</ele>
        <time>2012-08-24T14:56:35Z</time>
      </trkpt>
      <trkpt lat="47.09444" lon="-0.73786">
        <ele>170.2906494</ele>
        <time>2012-08-24T14:56:40Z</time>
      </trkpt>
      <trkpt lat="47.0942" lon="-0.73795">
        <ele>171.2520752</ele>
        <time>2012-08-24T14:56:47Z</time>
      </trkpt>
      <trkpt lat="47.09407" lon="-0.73805">
        <ele>172.2132568</ele>
        <time>2012-08-24T14:56:53Z</time>
      </trkpt>
      <trkpt lat="47.09396" lon="-0.73819">
        <ele>174.1358643</ele>
        <time>2012-08-24T14:56:59Z</time>
      </trkpt>
      <trkpt lat="47.09383" lon="-0.73837">
        <ele>176.0585938</ele>
        <time>2012-08-24T14:57:05Z</time>
      </trkpt>
      <trkpt lat="47.09374" lon="-0.7385">
        <ele>178.4619141</ele>
        <time>2012-08-24T14:57:11Z</time>
      </trkpt>
      <trkpt lat="47.09362" lon="-0.73862">
        <ele>177.5006104</ele>
        <time>2012-08-24T14:57:17Z</time>
      </trkpt>
      <trkpt lat="47.0936" lon="-0.73864">
        <ele>177.0200195</ele>
        <time>2012-08-24T14:57:18Z</time>
      </trkpt>
      <trkpt lat="47.09346" lon="-0.73882">
        <ele>177.0200195</ele>
        <time>2012-08-24T14:57:24Z</time>
      </trkpt>
      <trkpt lat="47.09336" lon="-0.73899">
        <ele>176.5393066</ele>
        <time>2012-08-24T14:57:30Z</time>
      </trkpt>
      <trkpt lat="47.09331" lon="-0.73906">
        <ele>176.5393066</ele>
        <time>2012-08-24T14:57:34Z</time>
      </trkpt>
      <trkpt lat="47.09324" lon="-0.73915">
        <ele>175.5778809</ele>
        <time>2012-08-24T14:57:39Z</time>
      </trkpt>
      <trkpt lat="47.09317" lon="-0.73918">
        <ele>176.5393066</ele>
        <time>2012-08-24T14:57:43Z</time>
      </trkpt>
      <trkpt lat="47.09312" lon="-0.73923">
        <ele>177.9812012</ele>
        <time>2012-08-24T14:57:48Z</time>
      </trkpt>
      <trkpt lat="47.0931" lon="-0.73928">
        <ele>177.0200195</ele>
        <time>2012-08-24T14:57:52Z</time>
      </trkpt>
      <trkpt lat="47.09308" lon="-0.73933">
        <ele>177.5006104</ele>
        <time>2012-08-24T14:57:58Z</time>
      </trkpt>
      <trkpt lat="47.09305" lon="-0.7394">
        <ele>178.4619141</ele>
        <time>2012-08-24T14:58:04Z</time>
      </trkpt>
      <trkpt lat="47.09304" lon="-0.73943">
        <ele>177.9812012</ele>
        <time>2012-08-24T14:58:05Z</time>
      </trkpt>
      <trkpt lat="47.09297" lon="-0.73961">
        <ele>177.9812012</ele>
        <time>2012-08-24T14:58:12Z</time>
      </trkpt>
      <trkpt lat="47.09291" lon="-0.73983">
        <ele>178.942627</ele>
        <time>2012-08-24T14:58:18Z</time>
      </trkpt>
      <trkpt lat="47.09281" lon="-0.74011">
        <ele>177.0200195</ele>
        <time>2012-08-24T14:58:24Z</time>
      </trkpt>
      <trkpt lat="47.09278" lon="-0.74019">
        <ele>177.0200195</ele>
        <time>2012-08-24T14:58:27Z</time>
      </trkpt>
      <trkpt lat="47.09275" lon="-0.74023">
        <ele>177.9812012</ele>
        <time>2012-08-24T14:58:32Z</time>
      </trkpt>
      <trkpt lat="47.09275" lon="-0.7402">
        <ele>177.5006104</ele>
        <time>2012-08-24T14:58:34Z</time>
      </trkpt>
      <trkpt lat="47.09279" lon="-0.74006">
        <ele>177.0200195</ele>
        <time>2012-08-24T14:58:42Z</time>
      </trkpt>
      <trkpt lat="47.09283" lon="-0.73987">
        <ele>176.5393066</ele>
        <time>2012-08-24T14:58:48Z</time>
      </trkpt>
      <trkpt lat="47.09294" lon="-0.73956">
        <ele>176.0585938</ele>
        <time>2012-08-24T14:58:56Z</time>
      </trkpt>
      <trkpt lat="47.09301" lon="-0.73927">
        <ele>177.9812012</ele>
        <time>2012-08-24T14:59:02Z</time>
      </trkpt>
      <trkpt lat="47.09307" lon="-0.73901">
        <ele>177.5006104</ele>
        <time>2012-08-24T14:59:07Z</time>
      </trkpt>
      <trkpt lat="47.09311" lon="-0.73868">
        <ele>177.0200195</ele>
        <time>2012-08-24T14:59:13Z</time>
      </trkpt>
      <trkpt lat="47.09313" lon="-0.7383">
        <ele>177.5006104</ele>
        <time>2012-08-24T14:59:20Z</time>
      </trkpt>
      <trkpt lat="47.09312" lon="-0.73807">
        <ele>177.9812012</ele>
        <time>2012-08-24T14:59:24Z</time>
      </trkpt>
      <trkpt lat="47.093" lon="-0.73801">
        <ele>178.942627</ele>
        <time>2012-08-24T14:59:29Z</time>
      </trkpt>
      <trkpt lat="47.09293" lon="-0.73792">
        <ele>179.4232178</ele>
        <time>2012-08-24T14:59:32Z</time>
      </trkpt>
      <trkpt lat="47.09289" lon="-0.73785">
        <ele>179.4232178</ele>
        <time>2012-08-24T14:59:34Z</time>
      </trkpt>
      <trkpt lat="47.09279" lon="-0.73774">
        <ele>180.8652344</ele>
        <time>2012-08-24T14:59:38Z</time>
      </trkpt>
      <trkpt lat="47.09262" lon="-0.7375">
        <ele>182.3071289</ele>
        <time>2012-08-24T14:59:44Z</time>
      </trkpt>
      <trkpt lat="47.09251" lon="-0.73732">
        <ele>184.2298584</ele>
        <time>2012-08-24T14:59:49Z</time>
      </trkpt>
      <trkpt lat="47.09236" lon="-0.73713">
        <ele>185.1911621</ele>
        <time>2012-08-24T14:59:54Z</time>
      </trkpt>
      <trkpt lat="47.09224" lon="-0.73697">
        <ele>184.7105713</ele>
        <time>2012-08-24T14:59:59Z</time>
      </trkpt>
      <trkpt lat="47.09205" lon="-0.73672">
        <ele>186.1524658</ele>
        <time>2012-08-24T15:00:06Z</time>
      </trkpt>
      <trkpt lat="47.0919" lon="-0.73654">
        <ele>186.6331787</ele>
        <time>2012-08-24T15:00:11Z</time>
      </trkpt>
      <trkpt lat="47.09177" lon="-0.73631">
        <ele>195.2849121</ele>
        <time>2012-08-24T15:00:16Z</time>
      </trkpt>
      <trkpt lat="47.09171" lon="-0.73623">
        <ele>194.3237305</ele>
        <time>2012-08-24T15:00:19Z</time>
      </trkpt>
      <trkpt lat="47.0916" lon="-0.73623">
        <ele>191.9202881</ele>
        <time>2012-08-24T15:00:23Z</time>
      </trkpt>
      <trkpt lat="47.09156" lon="-0.73635">
        <ele>189.5169678</ele>
        <time>2012-08-24T15:00:30Z</time>
      </trkpt>
      <trkpt lat="47.09153" lon="-0.73641">
        <ele>188.5557861</ele>
        <time>2012-08-24T15:00:35Z</time>
      </trkpt>
      <trkpt lat="47.09146" lon="-0.7365">
        <ele>189.5169678</ele>
        <time>2012-08-24T15:00:41Z</time>
      </trkpt>
      <trkpt lat="47.09141" lon="-0.73662">
        <ele>187.5943604</ele>
        <time>2012-08-24T15:00:47Z</time>
      </trkpt>
      <trkpt lat="47.09139" lon="-0.73665">
        <ele>187.5943604</ele>
        <time>2012-08-24T15:00:50Z</time>
      </trkpt>
      <trkpt lat="47.09136" lon="-0.73674">
        <ele>185.6717529</ele>
        <time>2012-08-24T15:00:54Z</time>
      </trkpt>
      <trkpt lat="47.09131" lon="-0.73687">
        <ele>179.4232178</ele>
        <time>2012-08-24T15:01:00Z</time>
      </trkpt>
      <trkpt lat="47.09127" lon="-0.73699">
        <ele>177.0200195</ele>
        <time>2012-08-24T15:01:04Z</time>
      </trkpt>
      <trkpt lat="47.0912" lon="-0.73721">
        <ele>170.2906494</ele>
        <time>2012-08-24T15:01:10Z</time>
      </trkpt>
      <trkpt lat="47.09117" lon="-0.73746">
        <ele>169.8100586</ele>
        <time>2012-08-24T15:01:15Z</time>
      </trkpt>
      <trkpt lat="47.0911" lon="-0.73767">
        <ele>168.8487549</ele>
        <time>2012-08-24T15:01:20Z</time>
      </trkpt>
      <trkpt lat="47.09097" lon="-0.73789">
        <ele>169.3294678</ele>
        <time>2012-08-24T15:01:25Z</time>
      </trkpt>
      <trkpt lat="47.09082" lon="-0.7381">
        <ele>172.2132568</ele>
        <time>2012-08-24T15:01:30Z</time>
      </trkpt>
      <trkpt lat="47.09073" lon="-0.73821">
        <ele>173.6552734</ele>
        <time>2012-08-24T15:01:32Z</time>
      </trkpt>
      <trkpt lat="47.09056" lon="-0.73835">
        <ele>179.9038086</ele>
        <time>2012-08-24T15:01:36Z</time>
      </trkpt>
      <trkpt lat="47.0903" lon="-0.73848">
        <ele>185.1911621</ele>
        <time>2012-08-24T15:01:41Z</time>
      </trkpt>
      <trkpt lat="47.09015" lon="-0.73856">
        <ele>183.2684326</ele>
        <time>2012-08-24T15:01:44Z</time>
      </trkpt>
      <trkpt lat="47.0899" lon="-0.73864">
        <ele>184.7105713</ele>
        <time>2012-08-24T15:01:49Z</time>
      </trkpt>
      <trkpt lat="47.08977" lon="-0.73869">
        <ele>187.5943604</ele>
        <time>2012-08-24T15:01:52Z</time>
      </trkpt>
      <trkpt lat="47.08964" lon="-0.73874">
        <ele>189.5169678</ele>
        <time>2012-08-24T15:01:56Z</time>
      </trkpt>
      <trkpt lat="47.08944" lon="-0.73885">
        <ele>189.5169678</ele>
        <time>2012-08-24T15:02:02Z</time>
      </trkpt>
      <trkpt lat="47.08917" lon="-0.73897">
        <ele>188.0750732</ele>
        <time>2012-08-24T15:02:08Z</time>
      </trkpt>
      <trkpt lat="47.089" lon="-0.73903">
        <ele>186.1524658</ele>
        <time>2012-08-24T15:02:12Z</time>
      </trkpt>
      <trkpt lat="47.08886" lon="-0.73907">
        <ele>185.6717529</ele>
        <time>2012-08-24T15:02:15Z</time>
      </trkpt>
      <trkpt lat="47.08864" lon="-0.73915">
        <ele>185.6717529</ele>
        <time>2012-08-24T15:02:20Z</time>
      </trkpt>
      <trkpt lat="47.08846" lon="-0.73924">
        <ele>182.7878418</ele>
        <time>2012-08-24T15:02:25Z</time>
      </trkpt>
      <trkpt lat="47.08828" lon="-0.73931">
        <ele>180.3845215</ele>
        <time>2012-08-24T15:02:29Z</time>
      </trkpt>
      <trkpt lat="47.08822" lon="-0.73933">
        <ele>180.3845215</ele>
        <time>2012-08-24T15:02:30Z</time>
      </trkpt>
      <trkpt lat="47.08794" lon="-0.73938">
        <ele>180.8652344</ele>
        <time>2012-08-24T15:02:35Z</time>
      </trkpt>
      <trkpt lat="47.08785" lon="-0.7394">
        <ele>178.942627</ele>
        <time>2012-08-24T15:02:37Z</time>
      </trkpt>
      <trkpt lat="47.08764" lon="-0.73939">
        <ele>177.0200195</ele>
        <time>2012-08-24T15:02:41Z</time>
      </trkpt>
      <trkpt lat="47.08733" lon="-0.73942">
        <ele>178.4619141</ele>
        <time>2012-08-24T15:02:47Z</time>
      </trkpt>
      <trkpt lat="47.08707" lon="-0.73943">
        <ele>176.5393066</ele>
        <time>2012-08-24T15:02:51Z</time>
      </trkpt>
      <trkpt lat="47.08694" lon="-0.73945">
        <ele>176.5393066</ele>
        <time>2012-08-24T15:02:53Z</time>
      </trkpt>
      <trkpt lat="47.08682" lon="-0.73949">
        <ele>175.09729</ele>
        <time>2012-08-24T15:02:55Z</time>
      </trkpt>
      <trkpt lat="47.08648" lon="-0.7396">
        <ele>176.0585938</ele>
        <time>2012-08-24T15:03:00Z</time>
      </trkpt>
      <trkpt lat="47.08634" lon="-0.73962">
        <ele>175.5778809</ele>
        <time>2012-08-24T15:03:02Z</time>
      </trkpt>
      <trkpt lat="47.08622" lon="-0.73964">
        <ele>175.5778809</ele>
        <time>2012-08-24T15:03:04Z</time>
      </trkpt>
      <trkpt lat="47.08593" lon="-0.73972">
        <ele>173.6552734</ele>
        <time>2012-08-24T15:03:09Z</time>
      </trkpt>
      <trkpt lat="47.08587" lon="-0.73972">
        <ele>175.09729</ele>
        <time>2012-08-24T15:03:10Z</time>
      </trkpt>
      <trkpt lat="47.08576" lon="-0.73974">
        <ele>173.6552734</ele>
        <time>2012-08-24T15:03:12Z</time>
      </trkpt>
      <trkpt lat="47.08567" lon="-0.73975">
        <ele>173.6552734</ele>
        <time>2012-08-24T15:03:14Z</time>
      </trkpt>
      <trkpt lat="47.08546" lon="-0.73977">
        <ele>173.1746826</ele>
        <time>2012-08-24T15:03:20Z</time>
      </trkpt>
      <trkpt lat="47.08522" lon="-0.73976">
        <ele>174.1358643</ele>
        <time>2012-08-24T15:03:26Z</time>
      </trkpt>
      <trkpt lat="47.08505" lon="-0.73978">
        <ele>174.6165771</ele>
        <time>2012-08-24T15:03:31Z</time>
      </trkpt>
      <trkpt lat="47.0849" lon="-0.7398">
        <ele>173.1746826</ele>
        <time>2012-08-24T15:03:36Z</time>
      </trkpt>
      <trkpt lat="47.08476" lon="-0.7398">
        <ele>177.0200195</ele>
        <time>2012-08-24T15:03:40Z</time>
      </trkpt>
      <trkpt lat="47.08458" lon="-0.73983">
        <ele>177.5006104</ele>
        <time>2012-08-24T15:03:46Z</time>
      </trkpt>
      <trkpt lat="47.08447" lon="-0.73987">
        <ele>177.0200195</ele>
        <time>2012-08-24T15:03:50Z</time>
      </trkpt>
      <trkpt lat="47.08444" lon="-0.73993">
        <ele>176.0585938</ele>
        <time>2012-08-24T15:03:54Z</time>
      </trkpt>
      <trkpt lat="47.08444" lon="-0.73997">
        <ele>173.6552734</ele>
        <time>2012-08-24T15:03:56Z</time>
      </trkpt>
      <trkpt lat="47.08448" lon="-0.74007">
        <ele>170.2906494</ele>
        <time>2012-08-24T15:04:01Z</time>
      </trkpt>
      <trkpt lat="47.08448" lon="-0.74018">
        <ele>172.2132568</ele>
        <time>2012-08-24T15:04:04Z</time>
      </trkpt>
      <trkpt lat="47.08449" lon="-0.74033">
        <ele>174.1358643</ele>
        <time>2012-08-24T15:04:12Z</time>
      </trkpt>
      <trkpt lat="47.08446" lon="-0.74039">
        <ele>177.5006104</ele>
        <time>2012-08-24T15:04:22Z</time>
      </trkpt>
      <trkpt lat="47.08451" lon="-0.74037">
        <ele>174.6165771</ele>
        <time>2012-08-24T15:04:42Z</time>
      </trkpt>
      <trkpt lat="47.08458" lon="-0.74045">
        <ele>168.8487549</ele>
        <time>2012-08-24T15:04:57Z</time>
      </trkpt>
      <trkpt lat="47.08471" lon="-0.74067">
        <ele>160.6774902</ele>
        <time>2012-08-24T15:05:02Z</time>
      </trkpt>
      <trkpt lat="47.08483" lon="-0.74087">
        <ele>156.3515625</ele>
        <time>2012-08-24T15:05:06Z</time>
      </trkpt>
      <trkpt lat="47.08486" lon="-0.74092">
        <ele>154.9095459</ele>
        <time>2012-08-24T15:05:07Z</time>
      </trkpt>
      <trkpt lat="47.08494" lon="-0.74109">
        <ele>150.1030273</ele>
        <time>2012-08-24T15:05:10Z</time>
      </trkpt>
      <trkpt lat="47.08506" lon="-0.74135">
        <ele>144.8157959</ele>
        <time>2012-08-24T15:05:15Z</time>
      </trkpt>
      <trkpt lat="47.08501" lon="-0.74157">
        <ele>146.2578125</ele>
        <time>2012-08-24T15:05:20Z</time>
      </trkpt>
      <trkpt lat="47.08483" lon="-0.7417">
        <ele>149.1416016</ele>
        <time>2012-08-24T15:05:26Z</time>
      </trkpt>
      <trkpt lat="47.08471" lon="-0.74182">
        <ele>147.699707</ele>
        <time>2012-08-24T15:05:30Z</time>
      </trkpt>
      <trkpt lat="47.08457" lon="-0.74189">
        <ele>147.699707</ele>
        <time>2012-08-24T15:05:34Z</time>
      </trkpt>
      <trkpt lat="47.0844" lon="-0.74198">
        <ele>150.5836182</ele>
        <time>2012-08-24T15:05:39Z</time>
      </trkpt>
      <trkpt lat="47.08422" lon="-0.74219">
        <ele>149.6223145</ele>
        <time>2012-08-24T15:05:44Z</time>
      </trkpt>
      <trkpt lat="47.08404" lon="-0.74246">
        <ele>140.0091553</ele>
        <time>2012-08-24T15:05:50Z</time>
      </trkpt>
      <trkpt lat="47.08396" lon="-0.74268">
        <ele>128.9541016</ele>
        <time>2012-08-24T15:05:54Z</time>
      </trkpt>
      <trkpt lat="47.08395" lon="-0.74281">
        <ele>127.5119629</ele>
        <time>2012-08-24T15:05:56Z</time>
      </trkpt>
      <trkpt lat="47.08392" lon="-0.74299">
        <ele>125.5893555</ele>
        <time>2012-08-24T15:05:59Z</time>
      </trkpt>
      <trkpt lat="47.0838" lon="-0.74337">
        <ele>112.6115723</ele>
        <time>2012-08-24T15:06:05Z</time>
      </trkpt>
      <trkpt lat="47.08376" lon="-0.74351">
        <ele>103.9597168</ele>
        <time>2012-08-24T15:06:08Z</time>
      </trkpt>
      <trkpt lat="47.08362" lon="-0.74394">
        <ele>86.175293</ele>
        <time>2012-08-24T15:06:15Z</time>
      </trkpt>
      <trkpt lat="47.08357" lon="-0.74422">
        <ele>68.3908691</ele>
        <time>2012-08-24T15:06:20Z</time>
      </trkpt>
      <trkpt lat="47.08361" lon="-0.74448">
        <ele>53.9711914</ele>
        <time>2012-08-24T15:06:24Z</time>
      </trkpt>
      <trkpt lat="47.08379" lon="-0.74478">
        <ele>33.7834473</ele>
        <time>2012-08-24T15:06:29Z</time>
      </trkpt>
      <trkpt lat="47.08388" lon="-0.74488">
        <ele>27.0543213</ele>
        <time>2012-08-24T15:06:31Z</time>
      </trkpt>
      <trkpt lat="47.08411" lon="-0.74516">
        <ele>6.8664551</ele>
        <time>2012-08-24T15:06:36Z</time>
      </trkpt>
      <trkpt lat="47.08435" lon="-0.74543">
        <ele>-11.3984375</ele>
        <time>2012-08-24T15:06:41Z</time>
      </trkpt>
      <trkpt lat="47.08459" lon="-0.74568">
        <ele>-30.144165</ele>
        <time>2012-08-24T15:06:46Z</time>
      </trkpt>
      <trkpt lat="47.08488" lon="-0.74599">
        <ele>-47.9284668</ele>
        <time>2012-08-24T15:06:52Z</time>
      </trkpt>
      <trkpt lat="47.08508" lon="-0.74626">
        <ele>-64.2711182</ele>
        <time>2012-08-24T15:06:57Z</time>
      </trkpt>
      <trkpt lat="47.08519" lon="-0.74655">
        <ele>-75.8068848</ele>
        <time>2012-08-24T15:07:01Z</time>
      </trkpt>
      <trkpt lat="47.08539" lon="-0.74694">
        <ele>-88.3039551</ele>
        <time>2012-08-24T15:07:07Z</time>
      </trkpt>
      <trkpt lat="47.0855" lon="-0.74721">
        <ele>-75.3261719</ele>
        <time>2012-08-24T15:07:10Z</time>
      </trkpt>
      <trkpt lat="47.08556" lon="-0.74807">
        <ele>-32.5474854</ele>
        <time>2012-08-24T15:07:17Z</time>
      </trkpt>
      <trkpt lat="47.08567" lon="-0.74825">
        <ele>-29.6635742</ele>
        <time>2012-08-24T15:07:20Z</time>
      </trkpt>
      <trkpt lat="47.08584" lon="-0.74866">
        <ele>-17.1663818</ele>
        <time>2012-08-24T15:07:26Z</time>
      </trkpt>
      <trkpt lat="47.08595" lon="-0.74892">
        <ele>-14.2824707</ele>
        <time>2012-08-24T15:07:30Z</time>
      </trkpt>
      <trkpt lat="47.08605" lon="-0.74946">
        <ele>1.0986328</ele>
        <time>2012-08-24T15:07:37Z</time>
      </trkpt>
      <trkpt lat="47.08616" lon="-0.74969">
        <ele>4.4632568</ele>
        <time>2012-08-24T15:07:41Z</time>
      </trkpt>
      <trkpt lat="47.08626" lon="-0.74991">
        <ele>6.3858643</ele>
        <time>2012-08-24T15:07:45Z</time>
      </trkpt>
      <trkpt lat="47.08641" lon="-0.75013">
        <ele>7.8278809</ele>
        <time>2012-08-24T15:07:50Z</time>
      </trkpt>
      <trkpt lat="47.08654" lon="-0.75042">
        <ele>10.711792</ele>
        <time>2012-08-24T15:07:56Z</time>
      </trkpt>
      <trkpt lat="47.08663" lon="-0.75063">
        <ele>11.6732178</ele>
        <time>2012-08-24T15:08:00Z</time>
      </trkpt>
      <trkpt lat="47.08672" lon="-0.75094">
        <ele>14.5570068</ele>
        <time>2012-08-24T15:08:05Z</time>
      </trkpt>
      <trkpt lat="47.08675" lon="-0.75107">
        <ele>16.4797363</ele>
        <time>2012-08-24T15:08:07Z</time>
      </trkpt>
      <trkpt lat="47.08672" lon="-0.75136">
        <ele>28.4962158</ele>
        <time>2012-08-24T15:08:10Z</time>
      </trkpt>
      <trkpt lat="47.08685" lon="-0.75176">
        <ele>27.0543213</ele>
        <time>2012-08-24T15:08:18Z</time>
      </trkpt>
      <trkpt lat="47.08693" lon="-0.7521">
        <ele>27.5349121</ele>
        <time>2012-08-24T15:08:24Z</time>
      </trkpt>
      <trkpt lat="47.08702" lon="-0.75243">
        <ele>27.5349121</ele>
        <time>2012-08-24T15:08:30Z</time>
      </trkpt>
      <trkpt lat="47.08699" lon="-0.75288">
        <ele>37.6286621</ele>
        <time>2012-08-24T15:08:36Z</time>
      </trkpt>
      <trkpt lat="47.08704" lon="-0.75308">
        <ele>38.109375</ele>
        <time>2012-08-24T15:08:40Z</time>
      </trkpt>
      <trkpt lat="47.08711" lon="-0.75327">
        <ele>37.1480713</ele>
        <time>2012-08-24T15:08:44Z</time>
      </trkpt>
      <trkpt lat="47.08719" lon="-0.75353">
        <ele>33.7834473</ele>
        <time>2012-08-24T15:08:51Z</time>
      </trkpt>
      <trkpt lat="47.08716" lon="-0.75361">
        <ele>40.5128174</ele>
        <time>2012-08-24T15:08:58Z</time>
      </trkpt>
      <trkpt lat="47.08697" lon="-0.75391">
        <ele>68.3908691</ele>
        <time>2012-08-24T15:09:29Z</time>
      </trkpt>
      <trkpt lat="47.08692" lon="-0.75399">
        <ele>78.9654541</ele>
        <time>2012-08-24T15:09:40Z</time>
      </trkpt>
      <trkpt lat="47.08686" lon="-0.75415">
        <ele>89.0593262</ele>
        <time>2012-08-24T15:09:57Z</time>
      </trkpt>
      <trkpt lat="47.08684" lon="-0.75435">
        <ele>92.4239502</ele>
        <time>2012-08-24T15:10:02Z</time>
      </trkpt>
      <trkpt lat="47.0865" lon="-0.75496">
        <ele>137.605835</ele>
        <time>2012-08-24T15:10:03Z</time>
      </trkpt>
      <trkpt lat="47.08648" lon="-0.75518">
        <ele>143.8543701</ele>
        <time>2012-08-24T15:10:06Z</time>
      </trkpt>
      <trkpt lat="47.08646" lon="-0.75558">
        <ele>153.4676514</ele>
        <time>2012-08-24T15:10:12Z</time>
      </trkpt>
      <trkpt lat="47.08651" lon="-0.75605">
        <ele>160.1968994</ele>
        <time>2012-08-24T15:10:19Z</time>
      </trkpt>
      <trkpt lat="47.08649" lon="-0.75633">
        <ele>166.4453125</ele>
        <time>2012-08-24T15:10:23Z</time>
      </trkpt>
      <trkpt lat="47.08642" lon="-0.75665">
        <ele>167.8873291</ele>
        <time>2012-08-24T15:10:29Z</time>
      </trkpt>
      <trkpt lat="47.08638" lon="-0.75692">
        <ele>162.6000977</ele>
        <time>2012-08-24T15:10:34Z</time>
      </trkpt>
      <trkpt lat="47.0863" lon="-0.75708">
        <ele>166.9260254</ele>
        <time>2012-08-24T15:10:36Z</time>
      </trkpt>
      <trkpt lat="47.08623" lon="-0.75723">
        <ele>168.368042</ele>
        <time>2012-08-24T15:10:38Z</time>
      </trkpt>
      <trkpt lat="47.08609" lon="-0.7574">
        <ele>171.2520752</ele>
        <time>2012-08-24T15:10:41Z</time>
      </trkpt>
      <trkpt lat="47.0858" lon="-0.75772">
        <ele>174.1358643</ele>
        <time>2012-08-24T15:10:47Z</time>
      </trkpt>
      <trkpt lat="47.08559" lon="-0.75805">
        <ele>173.6552734</ele>
        <time>2012-08-24T15:10:52Z</time>
      </trkpt>
      <trkpt lat="47.08544" lon="-0.75839">
        <ele>172.2132568</ele>
        <time>2012-08-24T15:10:56Z</time>
      </trkpt>
      <trkpt lat="47.08528" lon="-0.75869">
        <ele>173.1746826</ele>
        <time>2012-08-24T15:10:59Z</time>
      </trkpt>
      <trkpt lat="47.08509" lon="-0.75896">
        <ele>174.1358643</ele>
        <time>2012-08-24T15:11:04Z</time>
      </trkpt>
      <trkpt lat="47.08489" lon="-0.75922">
        <ele>174.1358643</ele>
        <time>2012-08-24T15:11:10Z</time>
      </trkpt>
      <trkpt lat="47.08474" lon="-0.75936">
        <ele>175.09729</ele>
        <time>2012-08-24T15:11:14Z</time>
      </trkpt>
      <trkpt lat="47.08469" lon="-0.7594">
        <ele>175.5778809</ele>
        <time>2012-08-24T15:11:16Z</time>
      </trkpt>
      <trkpt lat="47.08453" lon="-0.7596">
        <ele>177.5006104</ele>
        <time>2012-08-24T15:11:22Z</time>
      </trkpt>
      <trkpt lat="47.08438" lon="-0.75983">
        <ele>177.9812012</ele>
        <time>2012-08-24T15:11:27Z</time>
      </trkpt>
      <trkpt lat="47.08434" lon="-0.75991">
        <ele>177.0200195</ele>
        <time>2012-08-24T15:11:29Z</time>
      </trkpt>
      <trkpt lat="47.08431" lon="-0.76003">
        <ele>177.0200195</ele>
        <time>2012-08-24T15:11:31Z</time>
      </trkpt>
      <trkpt lat="47.08426" lon="-0.76017">
        <ele>173.6552734</ele>
        <time>2012-08-24T15:11:35Z</time>
      </trkpt>
      <trkpt lat="47.08422" lon="-0.76043">
        <ele>158.7547607</ele>
        <time>2012-08-24T15:11:41Z</time>
      </trkpt>
      <trkpt lat="47.08419" lon="-0.76068">
        <ele>149.6223145</ele>
        <time>2012-08-24T15:11:46Z</time>
      </trkpt>
      <trkpt lat="47.08417" lon="-0.76095">
        <ele>140.0091553</ele>
        <time>2012-08-24T15:11:51Z</time>
      </trkpt>
      <trkpt lat="47.08408" lon="-0.76132">
        <ele>138.5672607</ele>
        <time>2012-08-24T15:11:56Z</time>
      </trkpt>
      <trkpt lat="47.08399" lon="-0.76166">
        <ele>134.2412109</ele>
        <time>2012-08-24T15:12:01Z</time>
      </trkpt>
      <trkpt lat="47.08396" lon="-0.76211">
        <ele>127.5119629</ele>
        <time>2012-08-24T15:12:08Z</time>
      </trkpt>
      <trkpt lat="47.08394" lon="-0.76231">
        <ele>125.1087646</ele>
        <time>2012-08-24T15:12:11Z</time>
      </trkpt>
      <trkpt lat="47.0839" lon="-0.76256">
        <ele>122.7054443</ele>
        <time>2012-08-24T15:12:15Z</time>
      </trkpt>
      <trkpt lat="47.0839" lon="-0.7629">
        <ele>120.7828369</ele>
        <time>2012-08-24T15:12:20Z</time>
      </trkpt>
      <trkpt lat="47.08388" lon="-0.76318">
        <ele>117.8988037</ele>
        <time>2012-08-24T15:12:24Z</time>
      </trkpt>
      <trkpt lat="47.0838" lon="-0.7635">
        <ele>122.7054443</ele>
        <time>2012-08-24T15:12:28Z</time>
      </trkpt>
      <trkpt lat="47.08382" lon="-0.76379">
        <ele>122.7054443</ele>
        <time>2012-08-24T15:12:32Z</time>
      </trkpt>
      <trkpt lat="47.08383" lon="-0.76387">
        <ele>120.302124</ele>
        <time>2012-08-24T15:12:33Z</time>
      </trkpt>
      <trkpt lat="47.0839" lon="-0.7644">
        <ele>97.2304688</ele>
        <time>2012-08-24T15:12:40Z</time>
      </trkpt>
      <trkpt lat="47.08398" lon="-0.76462">
        <ele>82.810791</ele>
        <time>2012-08-24T15:12:44Z</time>
      </trkpt>
      <trkpt lat="47.08402" lon="-0.76484">
        <ele>69.3522949</ele>
        <time>2012-08-24T15:12:48Z</time>
      </trkpt>
      <trkpt lat="47.08407" lon="-0.76511">
        <ele>60.7003174</ele>
        <time>2012-08-24T15:12:52Z</time>
      </trkpt>
      <trkpt lat="47.0841" lon="-0.76538">
        <ele>56.3745117</ele>
        <time>2012-08-24T15:12:56Z</time>
      </trkpt>
      <trkpt lat="47.08414" lon="-0.76547">
        <ele>51.5678711</ele>
        <time>2012-08-24T15:12:58Z</time>
      </trkpt>
      <trkpt lat="47.08421" lon="-0.76567">
        <ele>44.3580322</ele>
        <time>2012-08-24T15:13:02Z</time>
      </trkpt>
      <trkpt lat="47.08442" lon="-0.76602">
        <ele>31.380127</ele>
        <time>2012-08-24T15:13:08Z</time>
      </trkpt>
      <trkpt lat="47.08451" lon="-0.76619">
        <ele>25.6123047</ele>
        <time>2012-08-24T15:13:11Z</time>
      </trkpt>
      <trkpt lat="47.08458" lon="-0.76647">
        <ele>16.4797363</ele>
        <time>2012-08-24T15:13:16Z</time>
      </trkpt>
      <trkpt lat="47.08424" lon="-0.76712">
        <ele>55.4130859</ele>
        <time>2012-08-24T15:13:19Z</time>
      </trkpt>
      <trkpt lat="47.08419" lon="-0.76724">
        <ele>54.4517822</ele>
        <time>2012-08-24T15:13:22Z</time>
      </trkpt>
      <trkpt lat="47.08401" lon="-0.76767">
        <ele>70.3134766</ele>
        <time>2012-08-24T15:13:26Z</time>
      </trkpt>
      <trkpt lat="47.08389" lon="-0.76807">
        <ele>78.9654541</ele>
        <time>2012-08-24T15:13:30Z</time>
      </trkpt>
      <trkpt lat="47.08382" lon="-0.76844">
        <ele>85.6945801</ele>
        <time>2012-08-24T15:13:34Z</time>
      </trkpt>
      <trkpt lat="47.08377" lon="-0.76872">
        <ele>92.904541</ele>
        <time>2012-08-24T15:13:37Z</time>
      </trkpt>
      <trkpt lat="47.0837" lon="-0.76925">
        <ele>94.8271484</ele>
        <time>2012-08-24T15:13:43Z</time>
      </trkpt>
      <trkpt lat="47.0837" lon="-0.76931">
        <ele>94.3465576</ele>
        <time>2012-08-24T15:13:44Z</time>
      </trkpt>
      <trkpt lat="47.08372" lon="-0.76949">
        <ele>87.1365967</ele>
        <time>2012-08-24T15:13:47Z</time>
      </trkpt>
      <trkpt lat="47.08378" lon="-0.76975">
        <ele>68.871582</ele>
        <time>2012-08-24T15:13:52Z</time>
      </trkpt>
      <trkpt lat="47.08379" lon="-0.7701">
        <ele>60.7003174</ele>
        <time>2012-08-24T15:13:56Z</time>
      </trkpt>
      <trkpt lat="47.08387" lon="-0.77032">
        <ele>47.7225342</ele>
        <time>2012-08-24T15:14:00Z</time>
      </trkpt>
      <trkpt lat="47.08394" lon="-0.77049">
        <ele>38.5900879</ele>
        <time>2012-08-24T15:14:03Z</time>
      </trkpt>
      <trkpt lat="47.08403" lon="-0.77062">
        <ele>30.4188232</ele>
        <time>2012-08-24T15:14:06Z</time>
      </trkpt>
      <trkpt lat="47.08409" lon="-0.77083">
        <ele>18.4023438</ele>
        <time>2012-08-24T15:14:10Z</time>
      </trkpt>
      <trkpt lat="47.084" lon="-0.77114">
        <ele>29.4575195</ele>
        <time>2012-08-24T15:14:14Z</time>
      </trkpt>
      <trkpt lat="47.08391" lon="-0.77138">
        <ele>40.9934082</ele>
        <time>2012-08-24T15:14:16Z</time>
      </trkpt>
      <trkpt lat="47.08371" lon="-0.77179">
        <ele>57.3358154</ele>
        <time>2012-08-24T15:14:20Z</time>
      </trkpt>
      <trkpt lat="47.08356" lon="-0.77206">
        <ele>61.6617432</ele>
        <time>2012-08-24T15:14:23Z</time>
      </trkpt>
      <trkpt lat="47.08345" lon="-0.77248">
        <ele>69.8328857</ele>
        <time>2012-08-24T15:14:27Z</time>
      </trkpt>
      <trkpt lat="47.08332" lon="-0.77275">
        <ele>78.9654541</ele>
        <time>2012-08-24T15:14:30Z</time>
      </trkpt>
      <trkpt lat="47.0832" lon="-0.77296">
        <ele>88.0980225</ele>
        <time>2012-08-24T15:14:32Z</time>
      </trkpt>
      <trkpt lat="47.08304" lon="-0.77314">
        <ele>101.0756836</ele>
        <time>2012-08-24T15:14:37Z</time>
      </trkpt>
      <trkpt lat="47.08303" lon="-0.77318">
        <ele>104.4404297</ele>
        <time>2012-08-24T15:14:39Z</time>
      </trkpt>
      <trkpt lat="47.08295" lon="-0.7734">
        <ele>103.4790039</ele>
        <time>2012-08-24T15:14:45Z</time>
      </trkpt>
      <trkpt lat="47.08283" lon="-0.7737">
        <ele>115.0148926</ele>
        <time>2012-08-24T15:14:52Z</time>
      </trkpt>
      <trkpt lat="47.08272" lon="-0.77399">
        <ele>120.302124</ele>
        <time>2012-08-24T15:14:56Z</time>
      </trkpt>
      <trkpt lat="47.08262" lon="-0.77427">
        <ele>118.3793945</ele>
        <time>2012-08-24T15:15:00Z</time>
      </trkpt>
      <trkpt lat="47.08237" lon="-0.77488">
        <ele>119.3408203</ele>
        <time>2012-08-24T15:15:07Z</time>
      </trkpt>
      <trkpt lat="47.08215" lon="-0.7755">
        <ele>121.7441406</ele>
        <time>2012-08-24T15:15:14Z</time>
      </trkpt>
      <trkpt lat="47.08186" lon="-0.77636">
        <ele>130.876709</ele>
        <time>2012-08-24T15:15:24Z</time>
      </trkpt>
      <trkpt lat="47.08178" lon="-0.7766">
        <ele>134.2412109</ele>
        <time>2012-08-24T15:15:27Z</time>
      </trkpt>
      <trkpt lat="47.08166" lon="-0.77695">
        <ele>139.5284424</ele>
        <time>2012-08-24T15:15:32Z</time>
      </trkpt>
      <trkpt lat="47.08165" lon="-0.77699">
        <ele>141.4510498</ele>
        <time>2012-08-24T15:15:33Z</time>
      </trkpt>
      <trkpt lat="47.08162" lon="-0.77711">
        <ele>142.4124756</ele>
        <time>2012-08-24T15:15:35Z</time>
      </trkpt>
      <trkpt lat="47.08153" lon="-0.77746">
        <ele>150.5836182</ele>
        <time>2012-08-24T15:15:39Z</time>
      </trkpt>
      <trkpt lat="47.08133" lon="-0.77799">
        <ele>156.8321533</ele>
        <time>2012-08-24T15:15:45Z</time>
      </trkpt>
      <trkpt lat="47.08111" lon="-0.77845">
        <ele>165.003418</ele>
        <time>2012-08-24T15:15:49Z</time>
      </trkpt>
      <trkpt lat="47.08095" lon="-0.77887">
        <ele>162.1195068</ele>
        <time>2012-08-24T15:15:54Z</time>
      </trkpt>
      <trkpt lat="47.08083" lon="-0.77923">
        <ele>159.2354736</ele>
        <time>2012-08-24T15:15:59Z</time>
      </trkpt>
      <trkpt lat="47.08079" lon="-0.7794">
        <ele>158.7547607</ele>
        <time>2012-08-24T15:16:02Z</time>
      </trkpt>
      <trkpt lat="47.08074" lon="-0.77969">
        <ele>160.1968994</ele>
        <time>2012-08-24T15:16:08Z</time>
      </trkpt>
      <trkpt lat="47.0807" lon="-0.77983">
        <ele>160.6774902</ele>
        <time>2012-08-24T15:16:10Z</time>
      </trkpt>
      <trkpt lat="47.0805" lon="-0.78042">
        <ele>165.003418</ele>
        <time>2012-08-24T15:16:17Z</time>
      </trkpt>
      <trkpt lat="47.08048" lon="-0.78048">
        <ele>165.003418</ele>
        <time>2012-08-24T15:16:18Z</time>
      </trkpt>
      <trkpt lat="47.08037" lon="-0.78083">
        <ele>166.9260254</ele>
        <time>2012-08-24T15:16:23Z</time>
      </trkpt>
      <trkpt lat="47.08032" lon="-0.78097">
        <ele>166.9260254</ele>
        <time>2012-08-24T15:16:25Z</time>
      </trkpt>
      <trkpt lat="47.08022" lon="-0.78137">
        <ele>166.9260254</ele>
        <time>2012-08-24T15:16:31Z</time>
      </trkpt>
      <trkpt lat="47.08018" lon="-0.7815">
        <ele>166.4453125</ele>
        <time>2012-08-24T15:16:33Z</time>
      </trkpt>
      <trkpt lat="47.0801" lon="-0.78183">
        <ele>162.6000977</ele>
        <time>2012-08-24T15:16:38Z</time>
      </trkpt>
      <trkpt lat="47.08001" lon="-0.78204">
        <ele>163.0808105</ele>
        <time>2012-08-24T15:16:41Z</time>
      </trkpt>
      <trkpt lat="47.07995" lon="-0.78226">
        <ele>163.5615234</ele>
        <time>2012-08-24T15:16:44Z</time>
      </trkpt>
      <trkpt lat="47.07987" lon="-0.78259">
        <ele>163.0808105</ele>
        <time>2012-08-24T15:16:49Z</time>
      </trkpt>
      <trkpt lat="47.07984" lon="-0.78273">
        <ele>162.6000977</ele>
        <time>2012-08-24T15:16:51Z</time>
      </trkpt>
      <trkpt lat="47.0798" lon="-0.78286">
        <ele>161.638916</ele>
        <time>2012-08-24T15:16:53Z</time>
      </trkpt>
      <trkpt lat="47.07955" lon="-0.78347">
        <ele>160.1968994</ele>
        <time>2012-08-24T15:17:01Z</time>
      </trkpt>
      <trkpt lat="47.07941" lon="-0.78381">
        <ele>160.6774902</ele>
        <time>2012-08-24T15:17:05Z</time>
      </trkpt>
      <trkpt lat="47.07937" lon="-0.78401">
        <ele>158.7547607</ele>
        <time>2012-08-24T15:17:09Z</time>
      </trkpt>
      <trkpt lat="47.07934" lon="-0.78422">
        <ele>161.1582031</ele>
        <time>2012-08-24T15:17:15Z</time>
      </trkpt>
      <trkpt lat="47.07931" lon="-0.78433">
        <ele>162.1195068</ele>
        <time>2012-08-24T15:17:19Z</time>
      </trkpt>
      <trkpt lat="47.07929" lon="-0.78434">
        <ele>162.6000977</ele>
        <time>2012-08-24T15:17:20Z</time>
      </trkpt>
      <trkpt lat="47.07921" lon="-0.78451">
        <ele>163.5615234</ele>
        <time>2012-08-24T15:17:26Z</time>
      </trkpt>
      <trkpt lat="47.07915" lon="-0.78462">
        <ele>164.0421143</ele>
        <time>2012-08-24T15:17:29Z</time>
      </trkpt>
      <trkpt lat="47.07906" lon="-0.78474">
        <ele>163.5615234</ele>
        <time>2012-08-24T15:17:33Z</time>
      </trkpt>
      <trkpt lat="47.07902" lon="-0.78487">
        <ele>161.1582031</ele>
        <time>2012-08-24T15:17:45Z</time>
      </trkpt>
      <trkpt lat="47.079" lon="-0.78502">
        <ele>163.0808105</ele>
        <time>2012-08-24T15:18:22Z</time>
      </trkpt>
      <trkpt lat="47.07899" lon="-0.78502">
        <ele>160.6774902</ele>
        <time>2012-08-24T15:18:23Z</time>
      </trkpt>
      <trkpt lat="47.07899" lon="-0.78502">
        <ele>159.2354736</ele>
        <time>2012-08-24T15:18:24Z</time>
      </trkpt>
      <trkpt lat="47.07893" lon="-0.78508">
        <ele>159.7161865</ele>
        <time>2012-08-24T15:18:29Z</time>
      </trkpt>
      <trkpt lat="47.07886" lon="-0.78518">
        <ele>160.6774902</ele>
        <time>2012-08-24T15:18:33Z</time>
      </trkpt>
      <trkpt lat="47.07878" lon="-0.78534">
        <ele>160.1968994</ele>
        <time>2012-08-24T15:18:39Z</time>
      </trkpt>
      <trkpt lat="47.07868" lon="-0.7855">
        <ele>162.6000977</ele>
        <time>2012-08-24T15:18:44Z</time>
      </trkpt>
      <trkpt lat="47.07854" lon="-0.78569">
        <ele>164.5227051</ele>
        <time>2012-08-24T15:18:49Z</time>
      </trkpt>
      <trkpt lat="47.07836" lon="-0.786">
        <ele>164.5227051</ele>
        <time>2012-08-24T15:18:55Z</time>
      </trkpt>
      <trkpt lat="47.07819" lon="-0.78631">
        <ele>165.4841309</ele>
        <time>2012-08-24T15:19:00Z</time>
      </trkpt>
      <trkpt lat="47.07803" lon="-0.78657">
        <ele>165.9647217</ele>
        <time>2012-08-24T15:19:05Z</time>
      </trkpt>
      <trkpt lat="47.07792" lon="-0.78674">
        <ele>165.9647217</ele>
        <time>2012-08-24T15:19:08Z</time>
      </trkpt>
      <trkpt lat="47.07771" lon="-0.78716">
        <ele>165.9647217</ele>
        <time>2012-08-24T15:19:14Z</time>
      </trkpt>
      <trkpt lat="47.07756" lon="-0.7874">
        <ele>169.3294678</ele>
        <time>2012-08-24T15:19:18Z</time>
      </trkpt>
      <trkpt lat="47.07739" lon="-0.78774">
        <ele>171.2520752</ele>
        <time>2012-08-24T15:19:23Z</time>
      </trkpt>
      <trkpt lat="47.07719" lon="-0.78807">
        <ele>168.8487549</ele>
        <time>2012-08-24T15:19:28Z</time>
      </trkpt>
      <trkpt lat="47.07699" lon="-0.78844">
        <ele>164.5227051</ele>
        <time>2012-08-24T15:19:34Z</time>
      </trkpt>
      <trkpt lat="47.07694" lon="-0.78852">
        <ele>164.5227051</ele>
        <time>2012-08-24T15:19:35Z</time>
      </trkpt>
      <trkpt lat="47.07683" lon="-0.78872">
        <ele>164.0421143</ele>
        <time>2012-08-24T15:19:39Z</time>
      </trkpt>
      <trkpt lat="47.0767" lon="-0.78895">
        <ele>161.638916</ele>
        <time>2012-08-24T15:19:43Z</time>
      </trkpt>
      <trkpt lat="47.0766" lon="-0.78913">
        <ele>160.6774902</ele>
        <time>2012-08-24T15:19:46Z</time>
      </trkpt>
      <trkpt lat="47.07653" lon="-0.78926">
        <ele>160.1968994</ele>
        <time>2012-08-24T15:19:48Z</time>
      </trkpt>
      <trkpt lat="47.07648" lon="-0.78936">
        <ele>159.7161865</ele>
        <time>2012-08-24T15:19:50Z</time>
      </trkpt>
      <trkpt lat="47.07636" lon="-0.78954">
        <ele>158.2741699</ele>
        <time>2012-08-24T15:19:53Z</time>
      </trkpt>
      <trkpt lat="47.07632" lon="-0.78963">
        <ele>159.7161865</ele>
        <time>2012-08-24T15:19:55Z</time>
      </trkpt>
      <trkpt lat="47.07622" lon="-0.78984">
        <ele>160.1968994</ele>
        <time>2012-08-24T15:19:59Z</time>
      </trkpt>
      <trkpt lat="47.07612" lon="-0.79">
        <ele>161.1582031</ele>
        <time>2012-08-24T15:20:02Z</time>
      </trkpt>
      <trkpt lat="47.076" lon="-0.7902">
        <ele>163.5615234</ele>
        <time>2012-08-24T15:20:05Z</time>
      </trkpt>
      <trkpt lat="47.07588" lon="-0.7904">
        <ele>165.4841309</ele>
        <time>2012-08-24T15:20:08Z</time>
      </trkpt>
      <trkpt lat="47.07565" lon="-0.7908">
        <ele>165.9647217</ele>
        <time>2012-08-24T15:20:15Z</time>
      </trkpt>
      <trkpt lat="47.07554" lon="-0.79099">
        <ele>166.9260254</ele>
        <time>2012-08-24T15:20:18Z</time>
      </trkpt>
      <trkpt lat="47.0754" lon="-0.79122">
        <ele>167.4067383</ele>
        <time>2012-08-24T15:20:23Z</time>
      </trkpt>
      <trkpt lat="47.07531" lon="-0.79138">
        <ele>166.9260254</ele>
        <time>2012-08-24T15:20:26Z</time>
      </trkpt>
      <trkpt lat="47.07525" lon="-0.79151">
        <ele>166.9260254</ele>
        <time>2012-08-24T15:20:28Z</time>
      </trkpt>
      <trkpt lat="47.07514" lon="-0.79173">
        <ele>167.4067383</ele>
        <time>2012-08-24T15:20:32Z</time>
      </trkpt>
      <trkpt lat="47.07497" lon="-0.79202">
        <ele>166.9260254</ele>
        <time>2012-08-24T15:20:37Z</time>
      </trkpt>
      <trkpt lat="47.07488" lon="-0.7922">
        <ele>164.5227051</ele>
        <time>2012-08-24T15:20:40Z</time>
      </trkpt>
      <trkpt lat="47.07479" lon="-0.79237">
        <ele>165.9647217</ele>
        <time>2012-08-24T15:20:43Z</time>
      </trkpt>
      <trkpt lat="47.07459" lon="-0.79272">
        <ele>164.5227051</ele>
        <time>2012-08-24T15:20:49Z</time>
      </trkpt>
      <trkpt lat="47.07436" lon="-0.7931">
        <ele>164.5227051</ele>
        <time>2012-08-24T15:20:55Z</time>
      </trkpt>
      <trkpt lat="47.07422" lon="-0.79336">
        <ele>163.0808105</ele>
        <time>2012-08-24T15:20:59Z</time>
      </trkpt>
      <trkpt lat="47.07405" lon="-0.79366">
        <ele>164.0421143</ele>
        <time>2012-08-24T15:21:04Z</time>
      </trkpt>
      <trkpt lat="47.07385" lon="-0.79404">
        <ele>163.0808105</ele>
        <time>2012-08-24T15:21:10Z</time>
      </trkpt>
      <trkpt lat="47.07379" lon="-0.79417">
        <ele>162.6000977</ele>
        <time>2012-08-24T15:21:12Z</time>
      </trkpt>
      <trkpt lat="47.07362" lon="-0.79445">
        <ele>161.638916</ele>
        <time>2012-08-24T15:21:16Z</time>
      </trkpt>
      <trkpt lat="47.07345" lon="-0.79474">
        <ele>161.638916</ele>
        <time>2012-08-24T15:21:21Z</time>
      </trkpt>
      <trkpt lat="47.07325" lon="-0.79507">
        <ele>161.638916</ele>
        <time>2012-08-24T15:21:26Z</time>
      </trkpt>
      <trkpt lat="47.07304" lon="-0.79546">
        <ele>160.1968994</ele>
        <time>2012-08-24T15:21:31Z</time>
      </trkpt>
      <trkpt lat="47.07284" lon="-0.79585">
        <ele>158.2741699</ele>
        <time>2012-08-24T15:21:37Z</time>
      </trkpt>
      <trkpt lat="47.07261" lon="-0.79623">
        <ele>157.3128662</ele>
        <time>2012-08-24T15:21:43Z</time>
      </trkpt>
      <trkpt lat="47.07257" lon="-0.7963">
        <ele>157.3128662</ele>
        <time>2012-08-24T15:21:44Z</time>
      </trkpt>
      <trkpt lat="47.07245" lon="-0.79656">
        <ele>155.3902588</ele>
        <time>2012-08-24T15:21:48Z</time>
      </trkpt>
      <trkpt lat="47.07244" lon="-0.79697">
        <ele>149.6223145</ele>
        <time>2012-08-24T15:21:54Z</time>
      </trkpt>
      <trkpt lat="47.07248" lon="-0.79723">
        <ele>144.3352051</ele>
        <time>2012-08-24T15:21:57Z</time>
      </trkpt>
      <trkpt lat="47.07249" lon="-0.79772">
        <ele>128.9541016</ele>
        <time>2012-08-24T15:22:02Z</time>
      </trkpt>
      <trkpt lat="47.0725" lon="-0.7979">
        <ele>123.1861572</ele>
        <time>2012-08-24T15:22:04Z</time>
      </trkpt>
      <trkpt lat="47.07249" lon="-0.79825">
        <ele>109.7276611</ele>
        <time>2012-08-24T15:22:08Z</time>
      </trkpt>
      <trkpt lat="47.07255" lon="-0.79876">
        <ele>90.0206299</ele>
        <time>2012-08-24T15:22:14Z</time>
      </trkpt>
      <trkpt lat="47.0726" lon="-0.79941">
        <ele>72.2362061</ele>
        <time>2012-08-24T15:22:20Z</time>
      </trkpt>
      <trkpt lat="47.07253" lon="-0.80038">
        <ele>70.3134766</ele>
        <time>2012-08-24T15:22:27Z</time>
      </trkpt>
      <trkpt lat="47.07247" lon="-0.80098">
        <ele>74.1588135</ele>
        <time>2012-08-24T15:22:32Z</time>
      </trkpt>
      <trkpt lat="47.07239" lon="-0.8017">
        <ele>85.6945801</ele>
        <time>2012-08-24T15:22:37Z</time>
      </trkpt>
      <trkpt lat="47.07229" lon="-0.80249">
        <ele>97.2304688</ele>
        <time>2012-08-24T15:22:42Z</time>
      </trkpt>
      <trkpt lat="47.07205" lon="-0.80342">
        <ele>114.5341797</ele>
        <time>2012-08-24T15:22:47Z</time>
      </trkpt>
      <trkpt lat="47.072" lon="-0.804">
        <ele>118.3793945</ele>
        <time>2012-08-24T15:22:52Z</time>
      </trkpt>
      <trkpt lat="47.07196" lon="-0.80434">
        <ele>118.8601074</ele>
        <time>2012-08-24T15:22:55Z</time>
      </trkpt>
      <trkpt lat="47.07194" lon="-0.80465">
        <ele>117.8988037</ele>
        <time>2012-08-24T15:22:58Z</time>
      </trkpt>
      <trkpt lat="47.07192" lon="-0.80485">
        <ele>121.2635498</ele>
        <time>2012-08-24T15:23:00Z</time>
      </trkpt>
      <trkpt lat="47.07178" lon="-0.80518">
        <ele>131.8378906</ele>
        <time>2012-08-24T15:23:05Z</time>
      </trkpt>
      <trkpt lat="47.07167" lon="-0.80537">
        <ele>133.760498</ele>
        <time>2012-08-24T15:23:08Z</time>
      </trkpt>
      <trkpt lat="47.07137" lon="-0.80581">
        <ele>136.1639404</ele>
        <time>2012-08-24T15:23:15Z</time>
      </trkpt>
      <trkpt lat="47.07114" lon="-0.80612">
        <ele>137.1252441</ele>
        <time>2012-08-24T15:23:21Z</time>
      </trkpt>
      <trkpt lat="47.07098" lon="-0.80632">
        <ele>137.605835</ele>
        <time>2012-08-24T15:23:26Z</time>
      </trkpt>
      <trkpt lat="47.07082" lon="-0.80653">
        <ele>137.605835</ele>
        <time>2012-08-24T15:23:31Z</time>
      </trkpt>
      <trkpt lat="47.07066" lon="-0.80671">
        <ele>135.6831055</ele>
        <time>2012-08-24T15:23:36Z</time>
      </trkpt>
      <trkpt lat="47.07058" lon="-0.80679">
        <ele>137.1252441</ele>
        <time>2012-08-24T15:23:38Z</time>
      </trkpt>
      <trkpt lat="47.07038" lon="-0.80698">
        <ele>135.6831055</ele>
        <time>2012-08-24T15:23:43Z</time>
      </trkpt>
      <trkpt lat="47.07033" lon="-0.80702">
        <ele>135.6831055</ele>
        <time>2012-08-24T15:23:44Z</time>
      </trkpt>
      <trkpt lat="47.07018" lon="-0.80717">
        <ele>134.2412109</ele>
        <time>2012-08-24T15:23:47Z</time>
      </trkpt>
      <trkpt lat="47.06987" lon="-0.80748">
        <ele>133.760498</ele>
        <time>2012-08-24T15:23:53Z</time>
      </trkpt>
      <trkpt lat="47.06983" lon="-0.80752">
        <ele>133.760498</ele>
        <time>2012-08-24T15:23:54Z</time>
      </trkpt>
      <trkpt lat="47.06975" lon="-0.80761">
        <ele>133.760498</ele>
        <time>2012-08-24T15:23:56Z</time>
      </trkpt>
      <trkpt lat="47.06952" lon="-0.80793">
        <ele>133.2799072</ele>
        <time>2012-08-24T15:24:03Z</time>
      </trkpt>
      <trkpt lat="47.06937" lon="-0.80819">
        <ele>133.760498</ele>
        <time>2012-08-24T15:24:08Z</time>
      </trkpt>
      <trkpt lat="47.06932" lon="-0.80831">
        <ele>132.7993164</ele>
        <time>2012-08-24T15:24:11Z</time>
      </trkpt>
      <trkpt lat="47.06918" lon="-0.80858">
        <ele>130.3959961</ele>
        <time>2012-08-24T15:24:17Z</time>
      </trkpt>
      <trkpt lat="47.06904" lon="-0.80881">
        <ele>132.7993164</ele>
        <time>2012-08-24T15:24:21Z</time>
      </trkpt>
      <trkpt lat="47.06885" lon="-0.80913">
        <ele>134.2412109</ele>
        <time>2012-08-24T15:24:27Z</time>
      </trkpt>
      <trkpt lat="47.06874" lon="-0.80933">
        <ele>134.2412109</ele>
        <time>2012-08-24T15:24:30Z</time>
      </trkpt>
      <trkpt lat="47.06852" lon="-0.80973">
        <ele>134.2412109</ele>
        <time>2012-08-24T15:24:36Z</time>
      </trkpt>
      <trkpt lat="47.06848" lon="-0.80979">
        <ele>134.2412109</ele>
        <time>2012-08-24T15:24:37Z</time>
      </trkpt>
      <trkpt lat="47.06839" lon="-0.80996">
        <ele>135.6831055</ele>
        <time>2012-08-24T15:24:40Z</time>
      </trkpt>
      <trkpt lat="47.06831" lon="-0.81009">
        <ele>136.6446533</ele>
        <time>2012-08-24T15:24:42Z</time>
      </trkpt>
      <trkpt lat="47.06813" lon="-0.8105">
        <ele>136.6446533</ele>
        <time>2012-08-24T15:24:49Z</time>
      </trkpt>
      <trkpt lat="47.06807" lon="-0.81066">
        <ele>135.6831055</ele>
        <time>2012-08-24T15:24:52Z</time>
      </trkpt>
      <trkpt lat="47.0679" lon="-0.81107">
        <ele>136.6446533</ele>
        <time>2012-08-24T15:24:58Z</time>
      </trkpt>
      <trkpt lat="47.06774" lon="-0.81145">
        <ele>138.5672607</ele>
        <time>2012-08-24T15:25:03Z</time>
      </trkpt>
      <trkpt lat="47.06771" lon="-0.81152">
        <ele>137.605835</ele>
        <time>2012-08-24T15:25:04Z</time>
      </trkpt>
      <trkpt lat="47.06757" lon="-0.81188">
        <ele>140.0091553</ele>
        <time>2012-08-24T15:25:09Z</time>
      </trkpt>
      <trkpt lat="47.06748" lon="-0.81211">
        <ele>141.9317627</ele>
        <time>2012-08-24T15:25:13Z</time>
      </trkpt>
      <trkpt lat="47.06733" lon="-0.81247">
        <ele>140.4898682</ele>
        <time>2012-08-24T15:25:19Z</time>
      </trkpt>
      <trkpt lat="47.06717" lon="-0.81287">
        <ele>140.4898682</ele>
        <time>2012-08-24T15:25:26Z</time>
      </trkpt>
      <trkpt lat="47.06697" lon="-0.81334">
        <ele>140.0091553</ele>
        <time>2012-08-24T15:25:34Z</time>
      </trkpt>
      <trkpt lat="47.06684" lon="-0.81368">
        <ele>139.5284424</ele>
        <time>2012-08-24T15:25:40Z</time>
      </trkpt>
      <trkpt lat="47.06681" lon="-0.81384">
        <ele>138.0865479</ele>
        <time>2012-08-24T15:25:45Z</time>
      </trkpt>
      <trkpt lat="47.06683" lon="-0.81382">
        <ele>136.6446533</ele>
        <time>2012-08-24T15:25:49Z</time>
      </trkpt>
      <trkpt lat="47.06682" lon="-0.81385">
        <ele>135.2025146</ele>
        <time>2012-08-24T15:25:54Z</time>
      </trkpt>
      <trkpt lat="47.06679" lon="-0.81393">
        <ele>135.2025146</ele>
        <time>2012-08-24T15:25:57Z</time>
      </trkpt>
      <trkpt lat="47.06666" lon="-0.81419">
        <ele>135.2025146</ele>
        <time>2012-08-24T15:26:04Z</time>
      </trkpt>
      <trkpt lat="47.06657" lon="-0.81453">
        <ele>135.6831055</ele>
        <time>2012-08-24T15:26:11Z</time>
      </trkpt>
      <trkpt lat="47.06646" lon="-0.81493">
        <ele>137.1252441</ele>
        <time>2012-08-24T15:26:20Z</time>
      </trkpt>
      <trkpt lat="47.06635" lon="-0.81535">
        <ele>137.605835</ele>
        <time>2012-08-24T15:26:29Z</time>
      </trkpt>
      <trkpt lat="47.06622" lon="-0.81581">
        <ele>139.0478516</ele>
        <time>2012-08-24T15:26:39Z</time>
      </trkpt>
      <trkpt lat="47.06611" lon="-0.81618">
        <ele>140.4898682</ele>
        <time>2012-08-24T15:26:47Z</time>
      </trkpt>
      <trkpt lat="47.06591" lon="-0.81672">
        <ele>140.0091553</ele>
        <time>2012-08-24T15:26:58Z</time>
      </trkpt>
      <trkpt lat="47.06567" lon="-0.81733">
        <ele>140.0091553</ele>
        <time>2012-08-24T15:27:10Z</time>
      </trkpt>
      <trkpt lat="47.06546" lon="-0.81787">
        <ele>140.4898682</ele>
        <time>2012-08-24T15:27:21Z</time>
      </trkpt>
      <trkpt lat="47.06525" lon="-0.81842">
        <ele>140.4898682</ele>
        <time>2012-08-24T15:27:32Z</time>
      </trkpt>
      <trkpt lat="47.06505" lon="-0.81902">
        <ele>140.0091553</ele>
        <time>2012-08-24T15:27:43Z</time>
      </trkpt>
      <trkpt lat="47.06487" lon="-0.81955">
        <ele>138.5672607</ele>
        <time>2012-08-24T15:27:52Z</time>
      </trkpt>
      <trkpt lat="47.06478" lon="-0.81998">
        <ele>139.0478516</ele>
        <time>2012-08-24T15:27:59Z</time>
      </trkpt>
      <trkpt lat="47.06477" lon="-0.82037">
        <ele>140.0091553</ele>
        <time>2012-08-24T15:28:06Z</time>
      </trkpt>
      <trkpt lat="47.06475" lon="-0.82072">
        <ele>140.970459</ele>
        <time>2012-08-24T15:28:13Z</time>
      </trkpt>
      <trkpt lat="47.06465" lon="-0.8209">
        <ele>141.4510498</ele>
        <time>2012-08-24T15:28:18Z</time>
      </trkpt>
      <trkpt lat="47.06456" lon="-0.82107">
        <ele>142.4124756</ele>
        <time>2012-08-24T15:28:24Z</time>
      </trkpt>
      <trkpt lat="47.06456" lon="-0.82126">
        <ele>142.8930664</ele>
        <time>2012-08-24T15:28:29Z</time>
      </trkpt>
      <trkpt lat="47.0646" lon="-0.82167">
        <ele>144.3352051</ele>
        <time>2012-08-24T15:28:38Z</time>
      </trkpt>
      <trkpt lat="47.06462" lon="-0.82221">
        <ele>145.7770996</ele>
        <time>2012-08-24T15:28:49Z</time>
      </trkpt>
      <trkpt lat="47.06464" lon="-0.82275">
        <ele>146.2578125</ele>
        <time>2012-08-24T15:28:58Z</time>
      </trkpt>
      <trkpt lat="47.06465" lon="-0.82339">
        <ele>146.2578125</ele>
        <time>2012-08-24T15:29:09Z</time>
      </trkpt>
      <trkpt lat="47.06463" lon="-0.82399">
        <ele>146.2578125</ele>
        <time>2012-08-24T15:29:20Z</time>
      </trkpt>
      <trkpt lat="47.06459" lon="-0.8246">
        <ele>146.7384033</ele>
        <time>2012-08-24T15:29:31Z</time>
      </trkpt>
      <trkpt lat="47.06455" lon="-0.82521">
        <ele>146.7384033</ele>
        <time>2012-08-24T15:29:42Z</time>
      </trkpt>
      <trkpt lat="47.06451" lon="-0.82574">
        <ele>147.2189941</ele>
        <time>2012-08-24T15:29:51Z</time>
      </trkpt>
      <trkpt lat="47.06448" lon="-0.82628">
        <ele>148.1804199</ele>
        <time>2012-08-24T15:30:00Z</time>
      </trkpt>
      <trkpt lat="47.06445" lon="-0.82687">
        <ele>147.699707</ele>
        <time>2012-08-24T15:30:10Z</time>
      </trkpt>
      <trkpt lat="47.06444" lon="-0.82714">
        <ele>146.2578125</ele>
        <time>2012-08-24T15:30:16Z</time>
      </trkpt>
      <trkpt lat="47.06445" lon="-0.8273">
        <ele>147.2189941</ele>
        <time>2012-08-24T15:30:22Z</time>
      </trkpt>
      <trkpt lat="47.06445" lon="-0.82739">
        <ele>147.2189941</ele>
        <time>2012-08-24T15:30:27Z</time>
      </trkpt>
      <trkpt lat="47.06446" lon="-0.82741">
        <ele>147.2189941</ele>
        <time>2012-08-24T15:30:31Z</time>
      </trkpt>
      <trkpt lat="47.06447" lon="-0.8274">
        <ele>147.699707</ele>
        <time>2012-08-24T15:30:39Z</time>
      </trkpt>
      <trkpt lat="47.06447" lon="-0.8274">
        <ele>147.699707</ele>
        <time>2012-08-24T15:30:42Z</time>
      </trkpt>
      <trkpt lat="47.06448" lon="-0.8274">
        <ele>147.699707</ele>
        <time>2012-08-24T15:30:47Z</time>
      </trkpt>
      <trkpt lat="47.06446" lon="-0.8274">
        <ele>147.699707</ele>
        <time>2012-08-24T15:31:03Z</time>
      </trkpt>
      <trkpt lat="47.06449" lon="-0.82742">
        <ele>150.5836182</ele>
        <time>2012-08-24T15:31:41Z</time>
      </trkpt>
      <trkpt lat="47.06449" lon="-0.82742">
        <ele>150.5836182</ele>
        <time>2012-08-24T15:31:43Z</time>
      </trkpt>
      <trkpt lat="47.06448" lon="-0.82742">
        <ele>151.064209</ele>
        <time>2012-08-24T15:31:59Z</time>
      </trkpt>
      <trkpt lat="47.06447" lon="-0.82742">
        <ele>149.6223145</ele>
        <time>2012-08-24T15:32:33Z</time>
      </trkpt>
      <trkpt lat="47.06447" lon="-0.82741">
        <ele>150.5836182</ele>
        <time>2012-08-24T15:32:49Z</time>
      </trkpt>
      <trkpt lat="47.06447" lon="-0.82741">
        <ele>150.5836182</ele>
        <time>2012-08-24T15:32:59Z</time>
      </trkpt>
      <trkpt lat="47.06446" lon="-0.82741">
        <ele>150.1030273</ele>
        <time>2012-08-24T15:33:14Z</time>
      </trkpt>
      <trkpt lat="47.06447" lon="-0.82743">
        <ele>151.5449219</ele>
        <time>2012-08-24T15:33:20Z</time>
      </trkpt>
      <trkpt lat="47.06447" lon="-0.82749">
        <ele>152.5063477</ele>
        <time>2012-08-24T15:33:29Z</time>
      </trkpt>
      <trkpt lat="47.06446" lon="-0.82769">
        <ele>152.9869385</ele>
        <time>2012-08-24T15:33:34Z</time>
      </trkpt>
      <trkpt lat="47.06445" lon="-0.82785">
        <ele>152.9869385</ele>
        <time>2012-08-24T15:33:37Z</time>
      </trkpt>
      <trkpt lat="47.06442" lon="-0.82835">
        <ele>152.0257568</ele>
        <time>2012-08-24T15:33:44Z</time>
      </trkpt>
      <trkpt lat="47.06442" lon="-0.82897">
        <ele>149.6223145</ele>
        <time>2012-08-24T15:33:51Z</time>
      </trkpt>
      <trkpt lat="47.06445" lon="-0.82948">
        <ele>147.699707</ele>
        <time>2012-08-24T15:33:56Z</time>
      </trkpt>
      <trkpt lat="47.06455" lon="-0.83004">
        <ele>143.8543701</ele>
        <time>2012-08-24T15:34:01Z</time>
      </trkpt>
      <trkpt lat="47.06471" lon="-0.83086">
        <ele>140.0091553</ele>
        <time>2012-08-24T15:34:08Z</time>
      </trkpt>
      <trkpt lat="47.06487" lon="-0.83175">
        <ele>138.0865479</ele>
        <time>2012-08-24T15:34:16Z</time>
      </trkpt>
      <trkpt lat="47.06505" lon="-0.83265">
        <ele>136.6446533</ele>
        <time>2012-08-24T15:34:25Z</time>
      </trkpt>
      <trkpt lat="47.06517" lon="-0.83327">
        <ele>136.1639404</ele>
        <time>2012-08-24T15:34:32Z</time>
      </trkpt>
      <trkpt lat="47.0653" lon="-0.83386">
        <ele>135.6831055</ele>
        <time>2012-08-24T15:34:39Z</time>
      </trkpt>
      <trkpt lat="47.0654" lon="-0.83436">
        <ele>135.6831055</ele>
        <time>2012-08-24T15:34:45Z</time>
      </trkpt>
      <trkpt lat="47.06548" lon="-0.83477">
        <ele>135.2025146</ele>
        <time>2012-08-24T15:34:50Z</time>
      </trkpt>
      <trkpt lat="47.06562" lon="-0.83543">
        <ele>135.2025146</ele>
        <time>2012-08-24T15:34:59Z</time>
      </trkpt>
      <trkpt lat="47.06572" lon="-0.83596">
        <ele>135.6831055</ele>
        <time>2012-08-24T15:35:06Z</time>
      </trkpt>
      <trkpt lat="47.06583" lon="-0.83652">
        <ele>134.7219238</ele>
        <time>2012-08-24T15:35:13Z</time>
      </trkpt>
      <trkpt lat="47.06589" lon="-0.83684">
        <ele>133.760498</ele>
        <time>2012-08-24T15:35:17Z</time>
      </trkpt>
      <trkpt lat="47.06603" lon="-0.83758">
        <ele>132.3186035</ele>
        <time>2012-08-24T15:35:26Z</time>
      </trkpt>
      <trkpt lat="47.06611" lon="-0.83819">
        <ele>132.7993164</ele>
        <time>2012-08-24T15:35:33Z</time>
      </trkpt>
      <trkpt lat="47.06621" lon="-0.83886">
        <ele>133.2799072</ele>
        <time>2012-08-24T15:35:41Z</time>
      </trkpt>
      <trkpt lat="47.06631" lon="-0.83953">
        <ele>135.2025146</ele>
        <time>2012-08-24T15:35:49Z</time>
      </trkpt>
      <trkpt lat="47.06642" lon="-0.84024">
        <ele>136.1639404</ele>
        <time>2012-08-24T15:35:58Z</time>
      </trkpt>
      <trkpt lat="47.06656" lon="-0.84098">
        <ele>132.7993164</ele>
        <time>2012-08-24T15:36:08Z</time>
      </trkpt>
      <trkpt lat="47.06668" lon="-0.84162">
        <ele>130.876709</ele>
        <time>2012-08-24T15:36:17Z</time>
      </trkpt>
      <trkpt lat="47.06675" lon="-0.84207">
        <ele>129.9152832</ele>
        <time>2012-08-24T15:36:24Z</time>
      </trkpt>
      <trkpt lat="47.06678" lon="-0.84232">
        <ele>129.4346924</ele>
        <time>2012-08-24T15:36:29Z</time>
      </trkpt>
      <trkpt lat="47.06679" lon="-0.84239">
        <ele>129.4346924</ele>
        <time>2012-08-24T15:36:32Z</time>
      </trkpt>
      <trkpt lat="47.06679" lon="-0.84243">
        <ele>137.605835</ele>
        <time>2012-08-24T15:36:45Z</time>
      </trkpt>
      <trkpt lat="47.06679" lon="-0.84244">
        <ele>142.8930664</ele>
        <time>2012-08-24T15:37:02Z</time>
      </trkpt>
      <trkpt lat="47.06678" lon="-0.84244">
        <ele>143.3736572</ele>
        <time>2012-08-24T15:37:11Z</time>
      </trkpt>
      <trkpt lat="47.06679" lon="-0.84245">
        <ele>142.8930664</ele>
        <time>2012-08-24T15:37:24Z</time>
      </trkpt>
      <trkpt lat="47.06682" lon="-0.84265">
        <ele>141.4510498</ele>
        <time>2012-08-24T15:37:29Z</time>
      </trkpt>
      <trkpt lat="47.06685" lon="-0.84286">
        <ele>140.970459</ele>
        <time>2012-08-24T15:37:32Z</time>
      </trkpt>
      <trkpt lat="47.06688" lon="-0.84308">
        <ele>140.0091553</ele>
        <time>2012-08-24T15:37:35Z</time>
      </trkpt>
      <trkpt lat="47.06694" lon="-0.84348">
        <ele>139.0478516</ele>
        <time>2012-08-24T15:37:40Z</time>
      </trkpt>
      <trkpt lat="47.06704" lon="-0.84425">
        <ele>137.605835</ele>
        <time>2012-08-24T15:37:49Z</time>
      </trkpt>
      <trkpt lat="47.06714" lon="-0.84481">
        <ele>136.1639404</ele>
        <time>2012-08-24T15:37:56Z</time>
      </trkpt>
      <trkpt lat="47.06723" lon="-0.84545">
        <ele>136.6446533</ele>
        <time>2012-08-24T15:38:04Z</time>
      </trkpt>
      <trkpt lat="47.06734" lon="-0.84614">
        <ele>135.6831055</ele>
        <time>2012-08-24T15:38:13Z</time>
      </trkpt>
      <trkpt lat="47.0674" lon="-0.84646">
        <ele>135.2025146</ele>
        <time>2012-08-24T15:38:17Z</time>
      </trkpt>
      <trkpt lat="47.06749" lon="-0.84711">
        <ele>134.2412109</ele>
        <time>2012-08-24T15:38:25Z</time>
      </trkpt>
      <trkpt lat="47.06763" lon="-0.84774">
        <ele>132.7993164</ele>
        <time>2012-08-24T15:38:33Z</time>
      </trkpt>
      <trkpt lat="47.06779" lon="-0.84831">
        <ele>131.3572998</ele>
        <time>2012-08-24T15:38:41Z</time>
      </trkpt>
      <trkpt lat="47.06796" lon="-0.84884">
        <ele>130.3959961</ele>
        <time>2012-08-24T15:38:48Z</time>
      </trkpt>
      <trkpt lat="47.06816" lon="-0.84943">
        <ele>128.4733887</ele>
        <time>2012-08-24T15:38:56Z</time>
      </trkpt>
      <trkpt lat="47.06832" lon="-0.84993">
        <ele>127.9925537</ele>
        <time>2012-08-24T15:39:03Z</time>
      </trkpt>
      <trkpt lat="47.06841" lon="-0.85032">
        <ele>128.4733887</ele>
        <time>2012-08-24T15:39:08Z</time>
      </trkpt>
      <trkpt lat="47.06845" lon="-0.85048">
        <ele>128.4733887</ele>
        <time>2012-08-24T15:39:10Z</time>
      </trkpt>
      <trkpt lat="47.06852" lon="-0.8509">
        <ele>128.9541016</ele>
        <time>2012-08-24T15:39:15Z</time>
      </trkpt>
      <trkpt lat="47.06866" lon="-0.8514">
        <ele>126.5506592</ele>
        <time>2012-08-24T15:39:22Z</time>
      </trkpt>
      <trkpt lat="47.0687" lon="-0.85153">
        <ele>125.5893555</ele>
        <time>2012-08-24T15:39:24Z</time>
      </trkpt>
      <trkpt lat="47.06875" lon="-0.85172">
        <ele>124.6280518</ele>
        <time>2012-08-24T15:39:27Z</time>
      </trkpt>
      <trkpt lat="47.06883" lon="-0.85207">
        <ele>123.1861572</ele>
        <time>2012-08-24T15:39:32Z</time>
      </trkpt>
      <trkpt lat="47.06889" lon="-0.85218">
        <ele>122.7054443</ele>
        <time>2012-08-24T15:39:34Z</time>
      </trkpt>
      <trkpt lat="47.06895" lon="-0.85247">
        <ele>121.7441406</ele>
        <time>2012-08-24T15:39:38Z</time>
      </trkpt>
      <trkpt lat="47.06895" lon="-0.85289">
        <ele>122.7054443</ele>
        <time>2012-08-24T15:39:44Z</time>
      </trkpt>
      <trkpt lat="47.06897" lon="-0.85325">
        <ele>124.1473389</ele>
        <time>2012-08-24T15:39:49Z</time>
      </trkpt>
      <trkpt lat="47.06894" lon="-0.85354">
        <ele>125.1087646</ele>
        <time>2012-08-24T15:39:54Z</time>
      </trkpt>
      <trkpt lat="47.06888" lon="-0.85366">
        <ele>125.1087646</ele>
        <time>2012-08-24T15:39:57Z</time>
      </trkpt>
      <trkpt lat="47.06889" lon="-0.85378">
        <ele>126.0699463</ele>
        <time>2012-08-24T15:40:01Z</time>
      </trkpt>
      <trkpt lat="47.06891" lon="-0.8538">
        <ele>126.0699463</ele>
        <time>2012-08-24T15:40:02Z</time>
      </trkpt>
      <trkpt lat="47.06897" lon="-0.85388">
        <ele>125.5893555</ele>
        <time>2012-08-24T15:40:05Z</time>
      </trkpt>
      <trkpt lat="47.06894" lon="-0.85403">
        <ele>126.0699463</ele>
        <time>2012-08-24T15:40:09Z</time>
      </trkpt>
      <trkpt lat="47.0688" lon="-0.85432">
        <ele>127.5119629</ele>
        <time>2012-08-24T15:40:15Z</time>
      </trkpt>
      <trkpt lat="47.06859" lon="-0.85469">
        <ele>127.5119629</ele>
        <time>2012-08-24T15:40:23Z</time>
      </trkpt>
      <trkpt lat="47.06853" lon="-0.85479">
        <ele>128.4733887</ele>
        <time>2012-08-24T15:40:27Z</time>
      </trkpt>
      <trkpt lat="47.06853" lon="-0.85481">
        <ele>128.4733887</ele>
        <time>2012-08-24T15:40:28Z</time>
      </trkpt>
      <trkpt lat="47.0685" lon="-0.85496">
        <ele>129.4346924</ele>
        <time>2012-08-24T15:40:33Z</time>
      </trkpt>
      <trkpt lat="47.06832" lon="-0.85534">
        <ele>130.876709</ele>
        <time>2012-08-24T15:40:41Z</time>
      </trkpt>
      <trkpt lat="47.06814" lon="-0.85571">
        <ele>131.3572998</ele>
        <time>2012-08-24T15:40:47Z</time>
      </trkpt>
      <trkpt lat="47.06788" lon="-0.85626">
        <ele>130.876709</ele>
        <time>2012-08-24T15:40:55Z</time>
      </trkpt>
      <trkpt lat="47.0676" lon="-0.85683">
        <ele>131.3572998</ele>
        <time>2012-08-24T15:41:04Z</time>
      </trkpt>
      <trkpt lat="47.06741" lon="-0.85722">
        <ele>131.3572998</ele>
        <time>2012-08-24T15:41:11Z</time>
      </trkpt>
      <trkpt lat="47.06724" lon="-0.85757">
        <ele>130.3959961</ele>
        <time>2012-08-24T15:41:17Z</time>
      </trkpt>
      <trkpt lat="47.06696" lon="-0.85812">
        <ele>130.3959961</ele>
        <time>2012-08-24T15:41:26Z</time>
      </trkpt>
      <trkpt lat="47.06676" lon="-0.85853">
        <ele>129.4346924</ele>
        <time>2012-08-24T15:41:32Z</time>
      </trkpt>
      <trkpt lat="47.0667" lon="-0.85883">
        <ele>128.4733887</ele>
        <time>2012-08-24T15:41:36Z</time>
      </trkpt>
      <trkpt lat="47.06681" lon="-0.8591">
        <ele>127.5119629</ele>
        <time>2012-08-24T15:41:40Z</time>
      </trkpt>
      <trkpt lat="47.0669" lon="-0.85918">
        <ele>127.9925537</ele>
        <time>2012-08-24T15:41:42Z</time>
      </trkpt>
      <trkpt lat="47.06735" lon="-0.85947">
        <ele>127.9925537</ele>
        <time>2012-08-24T15:41:51Z</time>
      </trkpt>
      <trkpt lat="47.06786" lon="-0.85976">
        <ele>127.0313721</ele>
        <time>2012-08-24T15:42:00Z</time>
      </trkpt>
      <trkpt lat="47.06842" lon="-0.86007">
        <ele>126.0699463</ele>
        <time>2012-08-24T15:42:10Z</time>
      </trkpt>
      <trkpt lat="47.06848" lon="-0.86009">
        <ele>126.5506592</ele>
        <time>2012-08-24T15:42:11Z</time>
      </trkpt>
      <trkpt lat="47.06869" lon="-0.8602">
        <ele>126.0699463</ele>
        <time>2012-08-24T15:42:15Z</time>
      </trkpt>
      <trkpt lat="47.06917" lon="-0.86047">
        <ele>126.0699463</ele>
        <time>2012-08-24T15:42:24Z</time>
      </trkpt>
      <trkpt lat="47.06935" lon="-0.86061">
        <ele>125.5893555</ele>
        <time>2012-08-24T15:42:28Z</time>
      </trkpt>
      <trkpt lat="47.0697" lon="-0.8611">
        <ele>125.5893555</ele>
        <time>2012-08-24T15:42:38Z</time>
      </trkpt>
      <trkpt lat="47.06994" lon="-0.86148">
        <ele>126.0699463</ele>
        <time>2012-08-24T15:42:46Z</time>
      </trkpt>
      <trkpt lat="47.06996" lon="-0.86152">
        <ele>126.0699463</ele>
        <time>2012-08-24T15:42:47Z</time>
      </trkpt>
      <trkpt lat="47.06996" lon="-0.86168">
        <ele>125.5893555</ele>
        <time>2012-08-24T15:42:51Z</time>
      </trkpt>
      <trkpt lat="47.06995" lon="-0.86183">
        <ele>125.5893555</ele>
        <time>2012-08-24T15:42:55Z</time>
      </trkpt>
      <trkpt lat="47.06996" lon="-0.86202">
        <ele>124.6280518</ele>
        <time>2012-08-24T15:43:00Z</time>
      </trkpt>
      <trkpt lat="47.06979" lon="-0.86229">
        <ele>123.666748</ele>
        <time>2012-08-24T15:43:07Z</time>
      </trkpt>
      <trkpt lat="47.06961" lon="-0.86253">
        <ele>123.1861572</ele>
        <time>2012-08-24T15:43:13Z</time>
      </trkpt>
      <trkpt lat="47.06934" lon="-0.86291">
        <ele>122.2247314</ele>
        <time>2012-08-24T15:43:22Z</time>
      </trkpt>
      <trkpt lat="47.06918" lon="-0.86332">
        <ele>123.666748</ele>
        <time>2012-08-24T15:43:30Z</time>
      </trkpt>
      <trkpt lat="47.06916" lon="-0.86337">
        <ele>124.1473389</ele>
        <time>2012-08-24T15:43:31Z</time>
      </trkpt>
      <trkpt lat="47.06919" lon="-0.86357">
        <ele>125.1087646</ele>
        <time>2012-08-24T15:43:35Z</time>
      </trkpt>
      <trkpt lat="47.06922" lon="-0.86374">
        <ele>125.1087646</ele>
        <time>2012-08-24T15:43:39Z</time>
      </trkpt>
      <trkpt lat="47.0692" lon="-0.86383">
        <ele>126.0699463</ele>
        <time>2012-08-24T15:43:41Z</time>
      </trkpt>
      <trkpt lat="47.069" lon="-0.8642">
        <ele>126.5506592</ele>
        <time>2012-08-24T15:43:49Z</time>
      </trkpt>
      <trkpt lat="47.06864" lon="-0.86453">
        <ele>126.5506592</ele>
        <time>2012-08-24T15:43:58Z</time>
      </trkpt>
      <trkpt lat="47.06848" lon="-0.86467">
        <ele>126.5506592</ele>
        <time>2012-08-24T15:44:02Z</time>
      </trkpt>
      <trkpt lat="47.06839" lon="-0.86487">
        <ele>127.0313721</ele>
        <time>2012-08-24T15:44:06Z</time>
      </trkpt>
      <trkpt lat="47.06838" lon="-0.86519">
        <ele>127.0313721</ele>
        <time>2012-08-24T15:44:11Z</time>
      </trkpt>
      <trkpt lat="47.06843" lon="-0.86572">
        <ele>126.5506592</ele>
        <time>2012-08-24T15:44:19Z</time>
      </trkpt>
      <trkpt lat="47.0685" lon="-0.86611">
        <ele>124.1473389</ele>
        <time>2012-08-24T15:44:26Z</time>
      </trkpt>
      <trkpt lat="47.06851" lon="-0.86615">
        <ele>123.666748</ele>
        <time>2012-08-24T15:44:27Z</time>
      </trkpt>
      <trkpt lat="47.0686" lon="-0.86622">
        <ele>123.1861572</ele>
        <time>2012-08-24T15:44:31Z</time>
      </trkpt>
      <trkpt lat="47.06863" lon="-0.86622">
        <ele>123.666748</ele>
        <time>2012-08-24T15:44:32Z</time>
      </trkpt>
      <trkpt lat="47.0688" lon="-0.86622">
        <ele>127.9925537</ele>
        <time>2012-08-24T15:44:39Z</time>
      </trkpt>
      <trkpt lat="47.06882" lon="-0.8662">
        <ele>129.4346924</ele>
        <time>2012-08-24T15:44:42Z</time>
      </trkpt>
      <trkpt lat="47.0688" lon="-0.8662">
        <ele>129.9152832</ele>
        <time>2012-08-24T15:44:45Z</time>
      </trkpt>
      <trkpt lat="47.06878" lon="-0.86616">
        <ele>130.876709</ele>
        <time>2012-08-24T15:44:51Z</time>
      </trkpt>
      <trkpt lat="47.06878" lon="-0.86614">
        <ele>129.9152832</ele>
        <time>2012-08-24T15:44:52Z</time>
      </trkpt>
      <trkpt lat="47.06879" lon="-0.86604">
        <ele>125.5893555</ele>
        <time>2012-08-24T15:44:58Z</time>
      </trkpt>
      <trkpt lat="47.06878" lon="-0.86604">
        <ele>124.1473389</ele>
        <time>2012-08-24T15:45:04Z</time>
      </trkpt>
      <trkpt lat="47.06878" lon="-0.86603">
        <ele>124.6280518</ele>
        <time>2012-08-24T15:45:06Z</time>
      </trkpt>
    </trkseg>
  </trk>
</gpx>